<?xml version='1.0' encoding='UTF-8'?><gpx version="1.1" creator="JPX - https://github.com/jenetics/jpx" xmlns="http://www.topografix.com/GPX/1/1"><trk><trkseg><trkpt lat="40.307202915651" lon="15.065500074818907"><ele>403.99999999999994</ele><time>2026-05-02T15:07:13Z</time></trkpt><trkpt lat="40.307071277365964" lon="15.065431267402808"><ele>404.0</ele><time>2026-05-02T15:07:15Z</time></trkpt><trkpt lat="40.30700164541398" lon="15.065395302467575"><ele>404.0</ele><time>2026-05-02T15:07:16Z</time></trkpt><trkpt lat="40.306933149325296" lon="15.065360136837173"><ele>404.0</ele><time>2026-05-02T15:07:17Z</time></trkpt><trkpt lat="40.30686458853968" lon="15.06532298002176"><ele>403.99999999999994</ele><time>2026-05-02T15:07:18Z</time></trkpt><trkpt lat="40.30679596349049" lon="15.065281759150306"><ele>404.0</ele><time>2026-05-02T15:07:19Z</time></trkpt><trkpt lat="40.30672584545179" lon="15.065243645211472"><ele>403.99999999999994</ele><time>2026-05-02T15:07:20Z</time></trkpt><trkpt lat="40.30664889573648" lon="15.065235673205645"><ele>404.0</ele><time>2026-05-02T15:07:21Z</time></trkpt><trkpt lat="40.30656924715356" lon="15.065240868233328"><ele>404.0</ele><time>2026-05-02T15:07:22Z</time></trkpt><trkpt lat="40.3064917580373" lon="15.06526681075909"><ele>404.0</ele><time>2026-05-02T15:07:23Z</time></trkpt><trkpt lat="40.3064158914784" lon="15.065298974364234"><ele>403.99999999999994</ele><time>2026-05-02T15:07:24Z</time></trkpt><trkpt lat="40.30634088936102" lon="15.065338439551727"><ele>404.0</ele><time>2026-05-02T15:07:25Z</time></trkpt><trkpt lat="40.306267753409145" lon="15.065382259560145"><ele>406.3333333333333</ele><time>2026-05-02T15:07:26Z</time></trkpt><trkpt lat="40.30619888708352" lon="15.065445011314043"><ele>408.66666666666663</ele><time>2026-05-02T15:07:27Z</time></trkpt><trkpt lat="40.30612474572502" lon="15.065510892575823"><ele>411.0</ele><time>2026-05-02T15:07:28Z</time></trkpt><trkpt lat="40.306049696757476" lon="15.065577593607673"><ele>413.33333333333337</ele><time>2026-05-02T15:07:29Z</time></trkpt><trkpt lat="40.305974896331264" lon="15.065641827644887"><ele>415.6666666666667</ele><time>2026-05-02T15:07:30Z</time></trkpt><trkpt lat="40.30589743896909" lon="15.0657045854625"><ele>418.0</ele><time>2026-05-02T15:07:31Z</time></trkpt><trkpt lat="40.30581249678466" lon="15.065761594005384"><ele>414.2</ele><time>2026-05-02T15:07:32Z</time></trkpt><trkpt lat="40.30572314351827" lon="15.065808054478655"><ele>410.4</ele><time>2026-05-02T15:07:33Z</time></trkpt><trkpt lat="40.30562960041416" lon="15.06584541532765"><ele>406.59999999999997</ele><time>2026-05-02T15:07:34Z</time></trkpt><trkpt lat="40.30552741724529" lon="15.065871987040099"><ele>402.79999999999995</ele><time>2026-05-02T15:07:35Z</time></trkpt><trkpt lat="40.305423472406" lon="15.06589039060808"><ele>399.0</ele><time>2026-05-02T15:07:36Z</time></trkpt><trkpt lat="40.305332411548946" lon="15.065932170966384"><ele>397.79999999999995</ele><time>2026-05-02T15:07:37Z</time></trkpt><trkpt lat="40.30523953389779" lon="15.065978060703431"><ele>396.59999999999997</ele><time>2026-05-02T15:07:38Z</time></trkpt><trkpt lat="40.30513489698271" lon="15.065989711348019"><ele>395.4</ele><time>2026-05-02T15:07:39Z</time></trkpt><trkpt lat="40.30503168199414" lon="15.065944724495584"><ele>394.2</ele><time>2026-05-02T15:07:40Z</time></trkpt><trkpt lat="40.3049504047319" lon="15.065849839474273"><ele>393.0</ele><time>2026-05-02T15:07:41Z</time></trkpt><trkpt lat="40.30488546916994" lon="15.065742433830561"><ele>396.59999999999997</ele><time>2026-05-02T15:07:42Z</time></trkpt><trkpt lat="40.30481587285111" lon="15.065645147599668"><ele>400.2</ele><time>2026-05-02T15:07:43Z</time></trkpt><trkpt lat="40.304739528386435" lon="15.065555405373912"><ele>403.8</ele><time>2026-05-02T15:07:44Z</time></trkpt><trkpt lat="40.304642787883715" lon="15.065496412976776"><ele>407.4</ele><time>2026-05-02T15:07:45Z</time></trkpt><trkpt lat="40.30453374793756" lon="15.065484686878644"><ele>411.0</ele><time>2026-05-02T15:07:46Z</time></trkpt><trkpt lat="40.304428594978205" lon="15.065523557543703"><ele>411.0</ele><time>2026-05-02T15:07:47Z</time></trkpt><trkpt lat="40.3043412445765" lon="15.065596453912551"><ele>411.0</ele><time>2026-05-02T15:07:48Z</time></trkpt><trkpt lat="40.30426475083289" lon="15.065677931417103"><ele>411.0</ele><time>2026-05-02T15:07:49Z</time></trkpt><trkpt lat="40.30418510910932" lon="15.065763458873544"><ele>411.0</ele><time>2026-05-02T15:07:50Z</time></trkpt><trkpt lat="40.304104993398916" lon="15.065846133576576"><ele>411.0</ele><time>2026-05-02T15:07:51Z</time></trkpt><trkpt lat="40.3040238657499" lon="15.065931535566445"><ele>408.8</ele><time>2026-05-02T15:07:52Z</time></trkpt><trkpt lat="40.303946100859164" lon="15.066017508324158"><ele>406.6</ele><time>2026-05-02T15:07:53Z</time></trkpt><trkpt lat="40.30386737982271" lon="15.066102283653244"><ele>404.4</ele><time>2026-05-02T15:07:54Z</time></trkpt><trkpt lat="40.30379019750445" lon="15.06619318523905"><ele>402.2</ele><time>2026-05-02T15:07:55Z</time></trkpt><trkpt lat="40.30372068978352" lon="15.066284376188058"><ele>400.0</ele><time>2026-05-02T15:07:56Z</time></trkpt><trkpt lat="40.303656906016705" lon="15.066380564499227"><ele>400.0</ele><time>2026-05-02T15:07:57Z</time></trkpt><trkpt lat="40.30358886081589" lon="15.066478357064453"><ele>400.0</ele><time>2026-05-02T15:07:58Z</time></trkpt><trkpt lat="40.30351546202227" lon="15.066574910903666"><ele>400.0</ele><time>2026-05-02T15:07:59Z</time></trkpt><trkpt lat="40.30344104863937" lon="15.06667311455158"><ele>400.0</ele><time>2026-05-02T15:08:00Z</time></trkpt><trkpt lat="40.30336516630042" lon="15.066766508601875"><ele>400.0</ele><time>2026-05-02T15:08:01Z</time></trkpt><trkpt lat="40.30328606569507" lon="15.066856461092463"><ele>401.4</ele><time>2026-05-02T15:08:02Z</time></trkpt><trkpt lat="40.30320031031661" lon="15.066938361550815"><ele>402.8</ele><time>2026-05-02T15:08:03Z</time></trkpt><trkpt lat="40.303109062895864" lon="15.067011125160082"><ele>404.20000000000005</ele><time>2026-05-02T15:08:04Z</time></trkpt><trkpt lat="40.30301481038969" lon="15.067081235510496"><ele>405.6</ele><time>2026-05-02T15:08:05Z</time></trkpt><trkpt lat="40.30292692583401" lon="15.067150715449536"><ele>407.0</ele><time>2026-05-02T15:08:06Z</time></trkpt><trkpt lat="40.30284229809771" lon="15.067222072894028"><ele>407.0</ele><time>2026-05-02T15:08:07Z</time></trkpt><trkpt lat="40.302763547525295" lon="15.06730146970114"><ele>407.0</ele><time>2026-05-02T15:08:08Z</time></trkpt><trkpt lat="40.30268678250678" lon="15.067385187717719"><ele>407.0</ele><time>2026-05-02T15:08:09Z</time></trkpt><trkpt lat="40.3026133313651" lon="15.067464411624176"><ele>407.0</ele><time>2026-05-02T15:08:10Z</time></trkpt><trkpt lat="40.302541776548026" lon="15.067545885506537"><ele>407.0</ele><time>2026-05-02T15:08:11Z</time></trkpt><trkpt lat="40.302469500143346" lon="15.067627595849173"><ele>409.40000000000003</ele><time>2026-05-02T15:08:12Z</time></trkpt><trkpt lat="40.30240248616701" lon="15.06771022046755"><ele>411.8</ele><time>2026-05-02T15:08:13Z</time></trkpt><trkpt lat="40.30233846068725" lon="15.067797824853605"><ele>414.2</ele><time>2026-05-02T15:08:14Z</time></trkpt><trkpt lat="40.30227783892738" lon="15.06789873383693"><ele>416.6</ele><time>2026-05-02T15:08:15Z</time></trkpt><trkpt lat="40.302224675349564" lon="15.06800261102856"><ele>419.0</ele><time>2026-05-02T15:08:16Z</time></trkpt><trkpt lat="40.3021786048518" lon="15.068114734080375"><ele>419.0</ele><time>2026-05-02T15:08:17Z</time></trkpt><trkpt lat="40.302132772753836" lon="15.068225037623181"><ele>419.0</ele><time>2026-05-02T15:08:18Z</time></trkpt><trkpt lat="40.30208889721359" lon="15.068340368436983"><ele>419.0</ele><time>2026-05-02T15:08:19Z</time></trkpt><trkpt lat="40.30204535245925" lon="15.068455874549581"><ele>419.0</ele><time>2026-05-02T15:08:20Z</time></trkpt><trkpt lat="40.301998047770525" lon="15.068574039584199"><ele>419.0</ele><time>2026-05-02T15:08:21Z</time></trkpt><trkpt lat="40.301953139933744" lon="15.068692660569704"><ele>414.6</ele><time>2026-05-02T15:08:22Z</time></trkpt><trkpt lat="40.3019147993032" lon="15.068816626369827"><ele>410.2</ele><time>2026-05-02T15:08:23Z</time></trkpt><trkpt lat="40.301891374610726" lon="15.068948087783053"><ele>405.8</ele><time>2026-05-02T15:08:24Z</time></trkpt><trkpt lat="40.30187102888038" lon="15.069079286349817"><ele>401.40000000000003</ele><time>2026-05-02T15:08:25Z</time></trkpt><trkpt lat="40.3018455389132" lon="15.069209166022194"><ele>397.0</ele><time>2026-05-02T15:08:26Z</time></trkpt><trkpt lat="40.301816534650115" lon="15.069338506432983"><ele>393.6</ele><time>2026-05-02T15:08:27Z</time></trkpt><trkpt lat="40.30178044638986" lon="15.069467264278998"><ele>390.20000000000005</ele><time>2026-05-02T15:08:28Z</time></trkpt><trkpt lat="40.30173915533348" lon="15.069600857790846"><ele>386.8</ele><time>2026-05-02T15:08:29Z</time></trkpt><trkpt lat="40.30169592601663" lon="15.069727603349957"><ele>383.4</ele><time>2026-05-02T15:08:30Z</time></trkpt><trkpt lat="40.301644537473905" lon="15.069855294518575"><ele>380.0</ele><time>2026-05-02T15:08:31Z</time></trkpt><trkpt lat="40.30159375810544" lon="15.069978523218102"><ele>378.0</ele><time>2026-05-02T15:08:32Z</time></trkpt><trkpt lat="40.30154082798915" lon="15.070097805174871"><ele>376.0</ele><time>2026-05-02T15:08:33Z</time></trkpt><trkpt lat="40.30148904012648" lon="15.070217983423525"><ele>374.0</ele><time>2026-05-02T15:08:34Z</time></trkpt><trkpt lat="40.30144058789903" lon="15.070339040562676"><ele>372.0</ele><time>2026-05-02T15:08:35Z</time></trkpt><trkpt lat="40.301394185908734" lon="15.070455973937387"><ele>370.0</ele><time>2026-05-02T15:08:36Z</time></trkpt><trkpt lat="40.30134256003841" lon="15.070564978527333"><ele>373.2</ele><time>2026-05-02T15:08:37Z</time></trkpt><trkpt lat="40.30129338786588" lon="15.07066986030952"><ele>376.4</ele><time>2026-05-02T15:08:38Z</time></trkpt><trkpt lat="40.301246350605474" lon="15.070779389183874"><ele>379.6</ele><time>2026-05-02T15:08:39Z</time></trkpt><trkpt lat="40.30120279869048" lon="15.070887049965068"><ele>382.8</ele><time>2026-05-02T15:08:40Z</time></trkpt><trkpt lat="40.30115617297804" lon="15.070989499427915"><ele>386.0</ele><time>2026-05-02T15:08:41Z</time></trkpt><trkpt lat="40.30110632153233" lon="15.071087126616337"><ele>385.99999999999994</ele><time>2026-05-02T15:08:42Z</time></trkpt><trkpt lat="40.30105827590002" lon="15.071182631759822"><ele>386.0</ele><time>2026-05-02T15:08:43Z</time></trkpt><trkpt lat="40.30100805111217" lon="15.071272584522752"><ele>386.0</ele><time>2026-05-02T15:08:44Z</time></trkpt><trkpt lat="40.30095492825397" lon="15.071356247786987"><ele>386.0</ele><time>2026-05-02T15:08:45Z</time></trkpt><trkpt lat="40.300899791031405" lon="15.071437262936534"><ele>385.99999999999994</ele><time>2026-05-02T15:08:46Z</time></trkpt><trkpt lat="40.30084658331558" lon="15.071521160825295"><ele>386.0</ele><time>2026-05-02T15:08:47Z</time></trkpt><trkpt lat="40.300793145724256" lon="15.07159519776962"><ele>386.28571428571433</ele><time>2026-05-02T15:08:48Z</time></trkpt><trkpt lat="40.30073723573494" lon="15.071665718816957"><ele>386.57142857142856</ele><time>2026-05-02T15:08:49Z</time></trkpt><trkpt lat="40.30068654502155" lon="15.071740177162205"><ele>386.8571428571429</ele><time>2026-05-02T15:08:50Z</time></trkpt><trkpt lat="40.30063910384164" lon="15.071818493612547"><ele>387.14285714285717</ele><time>2026-05-02T15:08:51Z</time></trkpt><trkpt lat="40.30059498005584" lon="15.071895258715093"><ele>387.42857142857144</ele><time>2026-05-02T15:08:52Z</time></trkpt><trkpt lat="40.300549021830406" lon="15.071967429794718"><ele>387.7142857142857</ele><time>2026-05-02T15:08:53Z</time></trkpt><trkpt lat="40.30050235281174" lon="15.072040824998243"><ele>388.0</ele><time>2026-05-02T15:08:54Z</time></trkpt><trkpt lat="40.3004538250468" lon="15.072104990085322"><ele>388.0</ele><time>2026-05-02T15:08:55Z</time></trkpt><trkpt lat="40.3004034561617" lon="15.072167762966174"><ele>388.0</ele><time>2026-05-02T15:08:56Z</time></trkpt><trkpt lat="40.30035318750517" lon="15.072230932069878"><ele>388.0</ele><time>2026-05-02T15:08:57Z</time></trkpt><trkpt lat="40.30030439797497" lon="15.072296298271144"><ele>388.0</ele><time>2026-05-02T15:08:58Z</time></trkpt><trkpt lat="40.30025928273286" lon="15.072367478565802"><ele>388.0</ele><time>2026-05-02T15:08:59Z</time></trkpt><trkpt lat="40.300216694063224" lon="15.072437464553783"><ele>388.0</ele><time>2026-05-02T15:09:00Z</time></trkpt><trkpt lat="40.300173154429444" lon="15.072508790263772"><ele>388.0</ele><time>2026-05-02T15:09:01Z</time></trkpt><trkpt lat="40.30013299546405" lon="15.072584440101712"><ele>386.4285714285714</ele><time>2026-05-02T15:09:02Z</time></trkpt><trkpt lat="40.30009133145204" lon="15.072654411568015"><ele>384.8571428571429</ele><time>2026-05-02T15:09:03Z</time></trkpt><trkpt lat="40.300045346202175" lon="15.07272324958967"><ele>383.2857142857143</ele><time>2026-05-02T15:09:04Z</time></trkpt><trkpt lat="40.30000121002879" lon="15.072791429495867"><ele>381.71428571428567</ele><time>2026-05-02T15:09:05Z</time></trkpt><trkpt lat="40.299961245376565" lon="15.072864134553928"><ele>380.1428571428571</ele><time>2026-05-02T15:09:06Z</time></trkpt><trkpt lat="40.299928824527356" lon="15.072944504853485"><ele>378.57142857142856</ele><time>2026-05-02T15:09:07Z</time></trkpt><trkpt lat="40.299897817249146" lon="15.073023540349888"><ele>377.0</ele><time>2026-05-02T15:09:08Z</time></trkpt><trkpt lat="40.299870031928414" lon="15.073104295241782"><ele>376.99999999999994</ele><time>2026-05-02T15:09:09Z</time></trkpt><trkpt lat="40.29983641199939" lon="15.073183606084072"><ele>377.0</ele><time>2026-05-02T15:09:10Z</time></trkpt><trkpt lat="40.299808128575904" lon="15.073266314411256"><ele>377.0</ele><time>2026-05-02T15:09:11Z</time></trkpt><trkpt lat="40.29978411667757" lon="15.073348398947411"><ele>377.0</ele><time>2026-05-02T15:09:12Z</time></trkpt><trkpt lat="40.299759952894725" lon="15.073428844439148"><ele>377.0</ele><time>2026-05-02T15:09:13Z</time></trkpt><trkpt lat="40.29973275949373" lon="15.073507202056902"><ele>376.99999999999994</ele><time>2026-05-02T15:09:14Z</time></trkpt><trkpt lat="40.29971179431602" lon="15.073595050338497"><ele>377.0</ele><time>2026-05-02T15:09:15Z</time></trkpt><trkpt lat="40.29968853620394" lon="15.073678876376636"><ele>376.2857142857143</ele><time>2026-05-02T15:09:16Z</time></trkpt><trkpt lat="40.299671424615376" lon="15.073762128021034"><ele>375.57142857142856</ele><time>2026-05-02T15:09:17Z</time></trkpt><trkpt lat="40.29967206943536" lon="15.073850053267323"><ele>374.8571428571429</ele><time>2026-05-02T15:09:18Z</time></trkpt><trkpt lat="40.29967145068906" lon="15.073941195387084"><ele>374.1428571428571</ele><time>2026-05-02T15:09:19Z</time></trkpt><trkpt lat="40.29967938032543" lon="15.074029998205685"><ele>373.42857142857144</ele><time>2026-05-02T15:09:20Z</time></trkpt><trkpt lat="40.29969994477532" lon="15.074119045177158"><ele>372.7142857142857</ele><time>2026-05-02T15:09:21Z</time></trkpt><trkpt lat="40.29972357204595" lon="15.074210369537367"><ele>372.0</ele><time>2026-05-02T15:09:22Z</time></trkpt><trkpt lat="40.299732728270776" lon="15.074373850512062"><ele>370.40000000000003</ele><time>2026-05-02T15:09:24Z</time></trkpt><trkpt lat="40.29973118498479" lon="15.074515436417231"><ele>368.8</ele><time>2026-05-02T15:09:26Z</time></trkpt><trkpt lat="40.29977641318609" lon="15.0746637539295"><ele>367.2</ele><time>2026-05-02T15:09:28Z</time></trkpt><trkpt lat="40.299773844226486" lon="15.0747497452602"><ele>365.6</ele><time>2026-05-02T15:09:29Z</time></trkpt><trkpt lat="40.2997737543942" lon="15.074904004203585"><ele>364.0</ele><time>2026-05-02T15:09:31Z</time></trkpt><trkpt lat="40.299743842357216" lon="15.075031845779636"><ele>364.25</ele><time>2026-05-02T15:09:33Z</time></trkpt><trkpt lat="40.29972524620122" lon="15.075170646668367"><ele>364.5</ele><time>2026-05-02T15:09:35Z</time></trkpt><trkpt lat="40.2997819389012" lon="15.075262833614403"><ele>364.75</ele><time>2026-05-02T15:09:36Z</time></trkpt><trkpt lat="40.29981972335955" lon="15.075351706262216"><ele>365.0</ele><time>2026-05-02T15:09:37Z</time></trkpt><trkpt lat="40.29987380626348" lon="15.0755828477535"><ele>365.0</ele><time>2026-05-02T15:09:40Z</time></trkpt><trkpt lat="40.29988767516055" lon="15.075665864666199"><ele>365.0</ele><time>2026-05-02T15:09:41Z</time></trkpt><trkpt lat="40.29990956924642" lon="15.075756681136324"><ele>365.0</ele><time>2026-05-02T15:09:42Z</time></trkpt><trkpt lat="40.2999526269996" lon="15.075892210125057"><ele>365.0</ele><time>2026-05-02T15:09:44Z</time></trkpt><trkpt lat="40.29996483069571" lon="15.075975532948078"><ele>365.0</ele><time>2026-05-02T15:09:46Z</time></trkpt><trkpt lat="40.299967367847174" lon="15.076064743576316"><ele>365.0</ele><time>2026-05-02T15:09:48Z</time></trkpt><trkpt lat="40.29995291264796" lon="15.076164030017452"><ele>365.2</ele><time>2026-05-02T15:09:50Z</time></trkpt><trkpt lat="40.29996355579326" lon="15.076270933320496"><ele>365.4</ele><time>2026-05-02T15:09:52Z</time></trkpt><trkpt lat="40.29996200167172" lon="15.076402420695299"><ele>365.6</ele><time>2026-05-02T15:09:54Z</time></trkpt><trkpt lat="40.29996715072475" lon="15.076527571330574"><ele>365.8</ele><time>2026-05-02T15:09:56Z</time></trkpt><trkpt lat="40.29997209834694" lon="15.07665061978177"><ele>366.0</ele><time>2026-05-02T15:09:58Z</time></trkpt><trkpt lat="40.29997870373826" lon="15.07677770550608"><ele>366.0</ele><time>2026-05-02T15:10:00Z</time></trkpt><trkpt lat="40.299956306242414" lon="15.076886964068297"><ele>366.0</ele><time>2026-05-02T15:10:02Z</time></trkpt><trkpt lat="40.29991235623699" lon="15.07700102392914"><ele>366.0</ele><time>2026-05-02T15:10:05Z</time></trkpt><trkpt lat="40.29987478627942" lon="15.077081454496678"><ele>366.0</ele><time>2026-05-02T15:10:07Z</time></trkpt><trkpt lat="40.299838889975945" lon="15.07716907206487"><ele>366.0</ele><time>2026-05-02T15:10:09Z</time></trkpt><trkpt lat="40.2997760136244" lon="15.077230023393264"><ele>366.0</ele><time>2026-05-02T15:10:11Z</time></trkpt><trkpt lat="40.29972502236543" lon="15.077309756517993"><ele>365.1666666666667</ele><time>2026-05-02T15:10:13Z</time></trkpt><trkpt lat="40.29970269449642" lon="15.077394585898178"><ele>364.3333333333333</ele><time>2026-05-02T15:10:15Z</time></trkpt><trkpt lat="40.29969305598115" lon="15.077484525059882"><ele>363.5</ele><time>2026-05-02T15:10:17Z</time></trkpt><trkpt lat="40.29965776019443" lon="15.077603365973571"><ele>362.66666666666663</ele><time>2026-05-02T15:10:20Z</time></trkpt><trkpt lat="40.29961951705464" lon="15.0777069764254"><ele>361.8333333333333</ele><time>2026-05-02T15:10:23Z</time></trkpt><trkpt lat="40.299604376524584" lon="15.077816906048527"><ele>361.0</ele><time>2026-05-02T15:10:26Z</time></trkpt><trkpt lat="40.29959878122282" lon="15.077934873740888"><ele>361.0</ele><time>2026-05-02T15:10:29Z</time></trkpt><trkpt lat="40.29955618254435" lon="15.078028475210923"><ele>361.0</ele><time>2026-05-02T15:10:32Z</time></trkpt><trkpt lat="40.29952917716077" lon="15.078147433101634"><ele>361.0</ele><time>2026-05-02T15:10:35Z</time></trkpt><trkpt lat="40.29953949815767" lon="15.078260417581863"><ele>361.0</ele><time>2026-05-02T15:10:38Z</time></trkpt><trkpt lat="40.29954313763145" lon="15.078346377204616"><ele>361.0</ele><time>2026-05-02T15:10:40Z</time></trkpt><trkpt lat="40.29955128930524" lon="15.078466077358895"><ele>361.0</ele><time>2026-05-02T15:10:43Z</time></trkpt><trkpt lat="40.299549673924645" lon="15.078574946959721"><ele>361.8333333333333</ele><time>2026-05-02T15:10:46Z</time></trkpt><trkpt lat="40.29954964863736" lon="15.078696948894734"><ele>362.66666666666663</ele><time>2026-05-02T15:10:49Z</time></trkpt><trkpt lat="40.299540157750364" lon="15.078787472455817"><ele>363.5</ele><time>2026-05-02T15:10:52Z</time></trkpt><trkpt lat="40.29952356495941" lon="15.078883403885149"><ele>364.3333333333333</ele><time>2026-05-02T15:10:55Z</time></trkpt><trkpt lat="40.29954405599737" lon="15.078990884368618"><ele>365.1666666666667</ele><time>2026-05-02T15:10:58Z</time></trkpt><trkpt lat="40.29955714929175" lon="15.079095574706795"><ele>366.0</ele><time>2026-05-02T15:11:01Z</time></trkpt><trkpt lat="40.299604040659425" lon="15.079186721250254"><ele>366.6</ele><time>2026-05-02T15:11:04Z</time></trkpt><trkpt lat="40.29962338026751" lon="15.079306771131536"><ele>367.20000000000005</ele><time>2026-05-02T15:11:07Z</time></trkpt><trkpt lat="40.29965660140202" lon="15.079408936165501"><ele>367.79999999999995</ele><time>2026-05-02T15:11:10Z</time></trkpt><trkpt lat="40.29971692280722" lon="15.079501135221514"><ele>368.4</ele><time>2026-05-02T15:11:12.999Z</time></trkpt><trkpt lat="40.29975029148166" lon="15.079615049559745"><ele>369.0</ele><time>2026-05-02T15:11:14.999Z</time></trkpt><trkpt lat="40.2998053317822" lon="15.0797093665848"><ele>371.0</ele><time>2026-05-02T15:11:18.999Z</time></trkpt><trkpt lat="40.29983349505992" lon="15.079816183194083"><ele>373.0</ele><time>2026-05-02T15:11:22Z</time></trkpt><trkpt lat="40.29987532901293" lon="15.079914498549533"><ele>375.0</ele><time>2026-05-02T15:11:25Z</time></trkpt><trkpt lat="40.29992694013725" lon="15.079990884414979"><ele>377.0</ele><time>2026-05-02T15:11:28Z</time></trkpt><trkpt lat="40.299976339174286" lon="15.08009111122315"><ele>379.0</ele><time>2026-05-02T15:11:31Z</time></trkpt><trkpt lat="40.2999967338499" lon="15.080208746803065"><ele>381.0</ele><time>2026-05-02T15:11:35Z</time></trkpt><trkpt lat="40.30000058572622" lon="15.080296397166693"><ele>382.0</ele><time>2026-05-02T15:11:39Z</time></trkpt><trkpt lat="40.30003630712569" lon="15.080386711956486"><ele>383.0</ele><time>2026-05-02T15:11:42Z</time></trkpt><trkpt lat="40.30005818129739" lon="15.080491202357962"><ele>384.0</ele><time>2026-05-02T15:11:45Z</time></trkpt><trkpt lat="40.3000963277037" lon="15.080579008031476"><ele>385.0</ele><time>2026-05-02T15:11:48Z</time></trkpt><trkpt lat="40.30001458703837" lon="15.080564388666337"><ele>386.0</ele><time>2026-05-02T15:12:30Z</time></trkpt><trkpt lat="40.2999838102008" lon="15.080466460323564"><ele>387.0</ele><time>2026-05-02T15:12:32Z</time></trkpt><trkpt lat="40.299960309529816" lon="15.08036921546187"><ele>387.0</ele><time>2026-05-02T15:12:34Z</time></trkpt><trkpt lat="40.299957099679794" lon="15.08025686035162"><ele>387.0</ele><time>2026-05-02T15:12:36Z</time></trkpt><trkpt lat="40.299939179959466" lon="15.080143547176892"><ele>387.0</ele><time>2026-05-02T15:12:38Z</time></trkpt><trkpt lat="40.29989895640383" lon="15.080025803702709"><ele>387.0</ele><time>2026-05-02T15:12:40Z</time></trkpt><trkpt lat="40.29984881922891" lon="15.07988471588173"><ele>387.0</ele><time>2026-05-02T15:12:42Z</time></trkpt><trkpt lat="40.29978824689665" lon="15.079743888873802"><ele>384.0</ele><time>2026-05-02T15:12:44Z</time></trkpt><trkpt lat="40.29975002920121" lon="15.07967046603659"><ele>381.0</ele><time>2026-05-02T15:12:45Z</time></trkpt><trkpt lat="40.299722628169484" lon="15.079567541665618"><ele>378.0</ele><time>2026-05-02T15:12:46Z</time></trkpt><trkpt lat="40.29968922581037" lon="15.079453105287218"><ele>375.0</ele><time>2026-05-02T15:12:47Z</time></trkpt><trkpt lat="40.29964798399625" lon="15.079373674801937"><ele>372.0</ele><time>2026-05-02T15:12:48Z</time></trkpt><trkpt lat="40.299619413455005" lon="15.079283408450708"><ele>369.0</ele><time>2026-05-02T15:12:49Z</time></trkpt><trkpt lat="40.29957205145071" lon="15.079203244654027"><ele>368.4</ele><time>2026-05-02T15:12:50Z</time></trkpt><trkpt lat="40.29956536871377" lon="15.079095832515334"><ele>367.79999999999995</ele><time>2026-05-02T15:12:51Z</time></trkpt><trkpt lat="40.29954974607455" lon="15.078977335251755"><ele>367.20000000000005</ele><time>2026-05-02T15:12:52Z</time></trkpt><trkpt lat="40.29952312886667" lon="15.078818530653786"><ele>366.6</ele><time>2026-05-02T15:12:54Z</time></trkpt><trkpt lat="40.299520584464766" lon="15.078699277690822"><ele>366.0</ele><time>2026-05-02T15:12:55Z</time></trkpt><trkpt lat="40.29952686954446" lon="15.078576795056156"><ele>366.0</ele><time>2026-05-02T15:12:56Z</time></trkpt><trkpt lat="40.29949484688979" lon="15.078473655429393"><ele>366.0</ele><time>2026-05-02T15:12:57Z</time></trkpt><trkpt lat="40.299520742677764" lon="15.078346177935199"><ele>366.0</ele><time>2026-05-02T15:12:58Z</time></trkpt><trkpt lat="40.299542178645304" lon="15.078232131249237"><ele>366.0</ele><time>2026-05-02T15:12:59Z</time></trkpt><trkpt lat="40.299574195401696" lon="15.078121204689785"><ele>366.0</ele><time>2026-05-02T15:13:00Z</time></trkpt><trkpt lat="40.29958573599898" lon="15.07799800868969"><ele>365.1666666666667</ele><time>2026-05-02T15:13:01Z</time></trkpt><trkpt lat="40.29958641616136" lon="15.077907680946065"><ele>364.3333333333333</ele><time>2026-05-02T15:13:02Z</time></trkpt><trkpt lat="40.29960806623257" lon="15.077819021814186"><ele>363.5</ele><time>2026-05-02T15:13:03Z</time></trkpt><trkpt lat="40.29962672220577" lon="15.077714079748832"><ele>362.66666666666663</ele><time>2026-05-02T15:13:04Z</time></trkpt><trkpt lat="40.2996484227705" lon="15.0776032001394"><ele>361.8333333333333</ele><time>2026-05-02T15:13:05Z</time></trkpt><trkpt lat="40.299674127599566" lon="15.077509036854293"><ele>361.0</ele><time>2026-05-02T15:13:06Z</time></trkpt><trkpt lat="40.29969761095386" lon="15.07742606128455"><ele>361.8333333333333</ele><time>2026-05-02T15:13:07Z</time></trkpt><trkpt lat="40.29974074266029" lon="15.077283733595282"><ele>362.66666666666663</ele><time>2026-05-02T15:13:09Z</time></trkpt><trkpt lat="40.29980983371734" lon="15.077164967863311"><ele>363.5</ele><time>2026-05-02T15:13:11Z</time></trkpt><trkpt lat="40.29985558518561" lon="15.077103313214936"><ele>364.3333333333333</ele><time>2026-05-02T15:13:12Z</time></trkpt><trkpt lat="40.299885316473414" lon="15.077012967583894"><ele>365.1666666666667</ele><time>2026-05-02T15:13:13Z</time></trkpt><trkpt lat="40.299921131971224" lon="15.076935210822617"><ele>366.0</ele><time>2026-05-02T15:13:14Z</time></trkpt><trkpt lat="40.29997385256079" lon="15.07681936804144"><ele>366.0</ele><time>2026-05-02T15:13:16Z</time></trkpt><trkpt lat="40.29999431576887" lon="15.07667811851909"><ele>366.0</ele><time>2026-05-02T15:13:18Z</time></trkpt><trkpt lat="40.29997748650732" lon="15.076528836065316"><ele>366.0</ele><time>2026-05-02T15:13:20Z</time></trkpt><trkpt lat="40.2999743635333" lon="15.076382701073461"><ele>366.0</ele><time>2026-05-02T15:13:22Z</time></trkpt><trkpt lat="40.29996513196619" lon="15.0762737086429"><ele>366.0</ele><time>2026-05-02T15:13:24Z</time></trkpt><trkpt lat="40.29993782257532" lon="15.076125220807292"><ele>366.1666666666667</ele><time>2026-05-02T15:13:26Z</time></trkpt><trkpt lat="40.29990643089175" lon="15.076049939793911"><ele>366.3333333333333</ele><time>2026-05-02T15:13:28Z</time></trkpt><trkpt lat="40.29993045242459" lon="15.07593002902042"><ele>366.5</ele><time>2026-05-02T15:13:31Z</time></trkpt><trkpt lat="40.29991993347632" lon="15.075843720832209"><ele>366.66666666666663</ele><time>2026-05-02T15:13:33Z</time></trkpt><trkpt lat="40.299908196193705" lon="15.075749999622085"><ele>366.8333333333333</ele><time>2026-05-02T15:13:36Z</time></trkpt><trkpt lat="40.299888230887255" lon="15.075643135213257"><ele>367.0</ele><time>2026-05-02T15:13:38Z</time></trkpt><trkpt lat="40.29987437510461" lon="15.075526854758913"><ele>366.66666666666663</ele><time>2026-05-02T15:13:40Z</time></trkpt><trkpt lat="40.29983065612476" lon="15.075403337482797"><ele>366.3333333333333</ele><time>2026-05-02T15:13:42Z</time></trkpt><trkpt lat="40.29979203096585" lon="15.075279649035725"><ele>366.0</ele><time>2026-05-02T15:13:44Z</time></trkpt><trkpt lat="40.29976521011684" lon="15.075164466450609"><ele>365.6666666666667</ele><time>2026-05-02T15:13:46Z</time></trkpt><trkpt lat="40.299746338904136" lon="15.075071699108582"><ele>365.33333333333337</ele><time>2026-05-02T15:13:48Z</time></trkpt><trkpt lat="40.299773224273615" lon="15.074996834518963"><ele>365.0</ele><time>2026-05-02T15:13:50Z</time></trkpt><trkpt lat="40.29981235519694" lon="15.074898411222046"><ele>364.2</ele><time>2026-05-02T15:13:52Z</time></trkpt><trkpt lat="40.29981360854681" lon="15.074775709589547"><ele>363.4</ele><time>2026-05-02T15:13:54Z</time></trkpt><trkpt lat="40.299780120979314" lon="15.074644875517313"><ele>362.6</ele><time>2026-05-02T15:13:56Z</time></trkpt><trkpt lat="40.29977796880626" lon="15.074532773596422"><ele>361.8</ele><time>2026-05-02T15:13:58Z</time></trkpt><trkpt lat="40.29977353517628" lon="15.074406000491061"><ele>361.0</ele><time>2026-05-02T15:14:00Z</time></trkpt><trkpt lat="40.29976103535249" lon="15.074256980908926"><ele>361.6</ele><time>2026-05-02T15:14:02Z</time></trkpt><trkpt lat="40.299734647920694" lon="15.074108042837226"><ele>362.20000000000005</ele><time>2026-05-02T15:14:04Z</time></trkpt><trkpt lat="40.29971587869075" lon="15.073947232608207"><ele>362.79999999999995</ele><time>2026-05-02T15:14:06Z</time></trkpt><trkpt lat="40.299705873742774" lon="15.073821637071939"><ele>363.4</ele><time>2026-05-02T15:14:08Z</time></trkpt><trkpt lat="40.299722949218314" lon="15.073694451910027"><ele>364.0</ele><time>2026-05-02T15:14:10Z</time></trkpt><trkpt lat="40.29974434469738" lon="15.073583278742355"><ele>364.0</ele><time>2026-05-02T15:14:12Z</time></trkpt><trkpt lat="40.29976142638519" lon="15.073462572699887"><ele>364.0</ele><time>2026-05-02T15:14:14Z</time></trkpt><trkpt lat="40.29980278176206" lon="15.073334358717721"><ele>364.0</ele><time>2026-05-02T15:14:16Z</time></trkpt><trkpt lat="40.29986052463335" lon="15.073208253260812"><ele>364.0</ele><time>2026-05-02T15:14:18Z</time></trkpt><trkpt lat="40.299918066952" lon="15.073076744420796"><ele>364.0</ele><time>2026-05-02T15:14:20Z</time></trkpt><trkpt lat="40.299975657941474" lon="15.072939927605363"><ele>366.16666666666663</ele><time>2026-05-02T15:14:22Z</time></trkpt><trkpt lat="40.30003610315378" lon="15.072807928208553"><ele>368.3333333333333</ele><time>2026-05-02T15:14:24Z</time></trkpt><trkpt lat="40.30011152116053" lon="15.072676506229666"><ele>370.5</ele><time>2026-05-02T15:14:26Z</time></trkpt><trkpt lat="40.30015514109509" lon="15.072614733700414"><ele>372.6666666666667</ele><time>2026-05-02T15:14:27Z</time></trkpt><trkpt lat="40.300196352528644" lon="15.072546720146176"><ele>374.83333333333337</ele><time>2026-05-02T15:14:28Z</time></trkpt><trkpt lat="40.30023871971357" lon="15.072480690616008"><ele>377.0</ele><time>2026-05-02T15:14:29Z</time></trkpt><trkpt lat="40.300278839373426" lon="15.072404852194081"><ele>378.57142857142856</ele><time>2026-05-02T15:14:30Z</time></trkpt><trkpt lat="40.30032838121581" lon="15.072340704086741"><ele>380.1428571428571</ele><time>2026-05-02T15:14:31Z</time></trkpt><trkpt lat="40.300375821256466" lon="15.07227676224798"><ele>381.71428571428567</ele><time>2026-05-02T15:14:32Z</time></trkpt><trkpt lat="40.300430623511254" lon="15.07221376431055"><ele>383.2857142857143</ele><time>2026-05-02T15:14:33Z</time></trkpt><trkpt lat="40.300474853657335" lon="15.07214280304415"><ele>384.8571428571429</ele><time>2026-05-02T15:14:34Z</time></trkpt><trkpt lat="40.300520807321035" lon="15.072075121950546"><ele>386.4285714285714</ele><time>2026-05-02T15:14:35Z</time></trkpt><trkpt lat="40.3005689243115" lon="15.072000236782767"><ele>388.0</ele><time>2026-05-02T15:14:36Z</time></trkpt><trkpt lat="40.30061454193511" lon="15.071923648777155"><ele>387.6666666666667</ele><time>2026-05-02T15:14:37Z</time></trkpt><trkpt lat="40.30066325880484" lon="15.071854842282335"><ele>387.33333333333337</ele><time>2026-05-02T15:14:38Z</time></trkpt><trkpt lat="40.30071255229458" lon="15.071780049007673"><ele>387.0</ele><time>2026-05-02T15:14:39Z</time></trkpt><trkpt lat="40.300755695349565" lon="15.071706421671395"><ele>386.66666666666663</ele><time>2026-05-02T15:14:40Z</time></trkpt><trkpt lat="40.30084467273711" lon="15.071582019542985"><ele>386.3333333333333</ele><time>2026-05-02T15:14:42Z</time></trkpt><trkpt lat="40.300894790114484" lon="15.071505993326053"><ele>386.0</ele><time>2026-05-02T15:14:43Z</time></trkpt><trkpt lat="40.30093579297374" lon="15.071440650560236"><ele>385.99999999999994</ele><time>2026-05-02T15:14:44Z</time></trkpt><trkpt lat="40.301021437757704" lon="15.071323446742456"><ele>386.0</ele><time>2026-05-02T15:14:46Z</time></trkpt><trkpt lat="40.30106892569464" lon="15.07126585983292"><ele>386.0</ele><time>2026-05-02T15:14:47Z</time></trkpt><trkpt lat="40.30110790440689" lon="15.071192995896876"><ele>386.0</ele><time>2026-05-02T15:14:48Z</time></trkpt><trkpt lat="40.301181905932935" lon="15.0710550133878"><ele>385.99999999999994</ele><time>2026-05-02T15:14:50Z</time></trkpt><trkpt lat="40.30121812243884" lon="15.070985239562997"><ele>386.0</ele><time>2026-05-02T15:14:51Z</time></trkpt><trkpt lat="40.30125382234267" lon="15.070905631887088"><ele>386.00000000000006</ele><time>2026-05-02T15:14:52Z</time></trkpt><trkpt lat="40.3012911324354" lon="15.070835153715219"><ele>386.0</ele><time>2026-05-02T15:14:53Z</time></trkpt><trkpt lat="40.30132344372586" lon="15.07075751086387"><ele>386.0</ele><time>2026-05-02T15:14:54Z</time></trkpt><trkpt lat="40.30136240649824" lon="15.070681617285986"><ele>386.0</ele><time>2026-05-02T15:14:55Z</time></trkpt><trkpt lat="40.301390606568994" lon="15.070604305151958"><ele>386.0</ele><time>2026-05-02T15:14:56Z</time></trkpt><trkpt lat="40.30142137879689" lon="15.070522768693085"><ele>386.00000000000006</ele><time>2026-05-02T15:14:57Z</time></trkpt><trkpt lat="40.30145465721533" lon="15.07044066700861"><ele>386.0</ele><time>2026-05-02T15:14:58Z</time></trkpt><trkpt lat="40.3014841590611" lon="15.070362321965824"><ele>384.99999999999994</ele><time>2026-05-02T15:14:59Z</time></trkpt><trkpt lat="40.30151309924147" lon="15.070284039893902"><ele>384.0</ele><time>2026-05-02T15:15:00Z</time></trkpt><trkpt lat="40.30154543228849" lon="15.070209132700002"><ele>383.0</ele><time>2026-05-02T15:15:01Z</time></trkpt><trkpt lat="40.30157825714028" lon="15.070127851441448"><ele>382.0</ele><time>2026-05-02T15:15:02Z</time></trkpt><trkpt lat="40.30161859961242" lon="15.07003323421483"><ele>381.0</ele><time>2026-05-02T15:15:03Z</time></trkpt><trkpt lat="40.30167890827212" lon="15.069893943500523"><ele>380.0</ele><time>2026-05-02T15:15:05Z</time></trkpt><trkpt lat="40.30171013636738" lon="15.06982024448583"><ele>380.0</ele><time>2026-05-02T15:15:06Z</time></trkpt><trkpt lat="40.30176876924434" lon="15.069678559125874"><ele>380.0</ele><time>2026-05-02T15:15:08Z</time></trkpt><trkpt lat="40.30181365772065" lon="15.069531893414998"><ele>380.0</ele><time>2026-05-02T15:15:10Z</time></trkpt><trkpt lat="40.3018520748174" lon="15.069380421086304"><ele>380.0</ele><time>2026-05-02T15:15:12Z</time></trkpt><trkpt lat="40.3018824126147" lon="15.069228441885604"><ele>384.25</ele><time>2026-05-02T15:15:14Z</time></trkpt><trkpt lat="40.30191192340628" lon="15.069075146788624"><ele>388.5</ele><time>2026-05-02T15:15:16Z</time></trkpt><trkpt lat="40.30193665122234" lon="15.068916098250433"><ele>392.75</ele><time>2026-05-02T15:15:18Z</time></trkpt><trkpt lat="40.30196958450675" lon="15.068765302496477"><ele>397.0</ele><time>2026-05-02T15:15:20Z</time></trkpt><trkpt lat="40.302011262504905" lon="15.06861586676227"><ele>397.0</ele><time>2026-05-02T15:15:22Z</time></trkpt><trkpt lat="40.302055077200365" lon="15.068476608436528"><ele>397.0</ele><time>2026-05-02T15:15:24Z</time></trkpt><trkpt lat="40.30210437915989" lon="15.068341066636746"><ele>397.0</ele><time>2026-05-02T15:15:26Z</time></trkpt><trkpt lat="40.30214913012663" lon="15.068221484852511"><ele>397.0</ele><time>2026-05-02T15:15:28Z</time></trkpt><trkpt lat="40.302206462560136" lon="15.06809834380428"><ele>397.0</ele><time>2026-05-02T15:15:30Z</time></trkpt><trkpt lat="40.30227254630271" lon="15.067978100974935"><ele>394.75</ele><time>2026-05-02T15:15:32Z</time></trkpt><trkpt lat="40.30234171100781" lon="15.067862064983634"><ele>392.5</ele><time>2026-05-02T15:15:34Z</time></trkpt><trkpt lat="40.30241224532899" lon="15.06774281423378"><ele>390.25</ele><time>2026-05-02T15:15:36Z</time></trkpt><trkpt lat="40.30248601023943" lon="15.067639222173131"><ele>388.0</ele><time>2026-05-02T15:15:38Z</time></trkpt><trkpt lat="40.30257746404773" lon="15.067548911416665"><ele>388.0</ele><time>2026-05-02T15:15:40Z</time></trkpt><trkpt lat="40.302668893187466" lon="15.067450541566366"><ele>388.0</ele><time>2026-05-02T15:15:42Z</time></trkpt><trkpt lat="40.30271961239228" lon="15.067400834088449"><ele>388.0</ele><time>2026-05-02T15:15:43Z</time></trkpt><trkpt lat="40.30281145109542" lon="15.067301930505915"><ele>388.0</ele><time>2026-05-02T15:15:45Z</time></trkpt><trkpt lat="40.3029139397957" lon="15.067209209300318"><ele>388.0</ele><time>2026-05-02T15:15:47Z</time></trkpt><trkpt lat="40.30298507071927" lon="15.06718611374558"><ele>387.25</ele><time>2026-05-02T15:15:48Z</time></trkpt><trkpt lat="40.303087631298034" lon="15.067092861976485"><ele>386.5</ele><time>2026-05-02T15:15:50Z</time></trkpt><trkpt lat="40.30318322456791" lon="15.067011542699971"><ele>385.75</ele><time>2026-05-02T15:15:52Z</time></trkpt><trkpt lat="40.30328017295482" lon="15.066927092776767"><ele>385.0</ele><time>2026-05-02T15:15:54Z</time></trkpt><trkpt lat="40.303365975752385" lon="15.066829106048825"><ele>385.0</ele><time>2026-05-02T15:15:56Z</time></trkpt><trkpt lat="40.30344147059216" lon="15.066721909973396"><ele>385.0</ele><time>2026-05-02T15:15:58Z</time></trkpt><trkpt lat="40.303519564381126" lon="15.066619554195"><ele>385.0</ele><time>2026-05-02T15:16:00Z</time></trkpt><trkpt lat="40.30358542549899" lon="15.066528842794966"><ele>385.0</ele><time>2026-05-02T15:16:02Z</time></trkpt><trkpt lat="40.303630806964414" lon="15.066451397939279"><ele>385.0</ele><time>2026-05-02T15:16:04Z</time></trkpt><trkpt lat="40.30370143267466" lon="15.066393293759653"><ele>386.0</ele><time>2026-05-02T15:16:06Z</time></trkpt><trkpt lat="40.30376794921921" lon="15.066306021533599"><ele>387.0</ele><time>2026-05-02T15:16:08Z</time></trkpt><trkpt lat="40.303835283233525" lon="15.066219462880339"><ele>388.0</ele><time>2026-05-02T15:16:10Z</time></trkpt><trkpt lat="40.303899022519005" lon="15.066117232063966"><ele>389.0</ele><time>2026-05-02T15:16:12Z</time></trkpt><trkpt lat="40.303970215067366" lon="15.0660230569921"><ele>390.0</ele><time>2026-05-02T15:16:14Z</time></trkpt><trkpt lat="40.304042668276836" lon="15.065940086667478"><ele>390.0</ele><time>2026-05-02T15:16:16Z</time></trkpt><trkpt lat="40.30411305511348" lon="15.065850813796631"><ele>390.0</ele><time>2026-05-02T15:16:18Z</time></trkpt><trkpt lat="40.304192358325814" lon="15.065772358380512"><ele>390.0</ele><time>2026-05-02T15:16:20Z</time></trkpt><trkpt lat="40.30426965993035" lon="15.065691770547996"><ele>390.0</ele><time>2026-05-02T15:16:22Z</time></trkpt><trkpt lat="40.30435232723291" lon="15.0656224722488"><ele>390.0</ele><time>2026-05-02T15:16:24Z</time></trkpt><trkpt lat="40.304430832053875" lon="15.065549251064953"><ele>390.6</ele><time>2026-05-02T15:16:26Z</time></trkpt><trkpt lat="40.304529844748004" lon="15.065508087664957"><ele>391.2</ele><time>2026-05-02T15:16:28Z</time></trkpt><trkpt lat="40.30462695875332" lon="15.06553486694732"><ele>391.79999999999995</ele><time>2026-05-02T15:16:30Z</time></trkpt><trkpt lat="40.304723980916236" lon="15.065618805465219"><ele>392.4</ele><time>2026-05-02T15:16:32Z</time></trkpt><trkpt lat="40.30480265048969" lon="15.065715587872281"><ele>393.0</ele><time>2026-05-02T15:16:34Z</time></trkpt><trkpt lat="40.30487788213806" lon="15.065820030767407"><ele>393.0</ele><time>2026-05-02T15:16:36Z</time></trkpt><trkpt lat="40.30495481832254" lon="15.065914556374958"><ele>393.0</ele><time>2026-05-02T15:16:38Z</time></trkpt><trkpt lat="40.30505343201688" lon="15.065990975807278"><ele>393.0</ele><time>2026-05-02T15:16:40Z</time></trkpt><trkpt lat="40.305164187370245" lon="15.066017052616905"><ele>393.0</ele><time>2026-05-02T15:16:42Z</time></trkpt><trkpt lat="40.3052702660055" lon="15.066004735527011"><ele>393.0</ele><time>2026-05-02T15:16:44Z</time></trkpt><trkpt lat="40.30537215152128" lon="15.065957300106785"><ele>393.0</ele><time>2026-05-02T15:16:46Z</time></trkpt><trkpt lat="40.30546846071333" lon="15.065915292871948"><ele>393.0</ele><time>2026-05-02T15:16:48Z</time></trkpt><trkpt lat="40.305568173584206" lon="15.065882202975343"><ele>393.0</ele><time>2026-05-02T15:16:50Z</time></trkpt><trkpt lat="40.30566576919479" lon="15.065851809620872"><ele>393.0</ele><time>2026-05-02T15:16:52Z</time></trkpt><trkpt lat="40.30575963593237" lon="15.065809997620711"><ele>393.0</ele><time>2026-05-02T15:16:54Z</time></trkpt><trkpt lat="40.30585141769383" lon="15.065770145942565"><ele>398.0</ele><time>2026-05-02T15:16:56Z</time></trkpt><trkpt lat="40.30594134910392" lon="15.065717172678372"><ele>403.0</ele><time>2026-05-02T15:16:58Z</time></trkpt><trkpt lat="40.306034707154716" lon="15.065649833428866"><ele>408.0</ele><time>2026-05-02T15:17:00Z</time></trkpt><trkpt lat="40.30611383573009" lon="15.065578724105816"><ele>413.0</ele><time>2026-05-02T15:17:02Z</time></trkpt><trkpt lat="40.3061953492856" lon="15.06550811632484"><ele>418.0</ele><time>2026-05-02T15:17:04Z</time></trkpt><trkpt lat="40.30627971688481" lon="15.065440509774096"><ele>418.0</ele><time>2026-05-02T15:17:06Z</time></trkpt><trkpt lat="40.3063584330147" lon="15.065368303797072"><ele>418.0</ele><time>2026-05-02T15:17:08Z</time></trkpt><trkpt lat="40.30644646439441" lon="15.06531414590583"><ele>418.0</ele><time>2026-05-02T15:17:10Z</time></trkpt><trkpt lat="40.30653694194729" lon="15.065273741093632"><ele>418.0</ele><time>2026-05-02T15:17:12Z</time></trkpt><trkpt lat="40.30663593902512" lon="15.065254298162422"><ele>418.0</ele><time>2026-05-02T15:17:14Z</time></trkpt><trkpt lat="40.30673424172517" lon="15.065271654558497"><ele>415.2</ele><time>2026-05-02T15:17:16Z</time></trkpt><trkpt lat="40.306832273769544" lon="15.065323561070434"><ele>412.4</ele><time>2026-05-02T15:17:18Z</time></trkpt><trkpt lat="40.30693549448628" lon="15.065380544299817"><ele>409.59999999999997</ele><time>2026-05-02T15:17:20Z</time></trkpt><trkpt lat="40.30704002247891" lon="15.065431205591711"><ele>406.79999999999995</ele><time>2026-05-02T15:17:22Z</time></trkpt><trkpt lat="40.30714024664002" lon="15.065479125708924"><ele>404.0</ele><time>2026-05-02T15:17:24Z</time></trkpt><trkpt lat="40.30724508709019" lon="15.065533723400478"><ele>403.0</ele><time>2026-05-02T15:17:26Z</time></trkpt><trkpt lat="40.30735299265664" lon="15.065595897787047"><ele>402.0</ele><time>2026-05-02T15:17:28Z</time></trkpt><trkpt lat="40.307448847666635" lon="15.065678239308923"><ele>401.0</ele><time>2026-05-02T15:17:30Z</time></trkpt><trkpt lat="40.30753387438096" lon="15.06576713992189"><ele>400.0</ele><time>2026-05-02T15:17:32Z</time></trkpt><trkpt lat="40.30762653636633" lon="15.06585253010479"><ele>400.0</ele><time>2026-05-02T15:17:34Z</time></trkpt><trkpt lat="40.3077210485878" lon="15.065919406032085"><ele>400.0</ele><time>2026-05-02T15:17:36Z</time></trkpt><trkpt lat="40.30781821576313" lon="15.065982256922904"><ele>400.0</ele><time>2026-05-02T15:17:38Z</time></trkpt><trkpt lat="40.30791899527845" lon="15.066038997042918"><ele>400.0</ele><time>2026-05-02T15:17:40Z</time></trkpt><trkpt lat="40.30803343606351" lon="15.066087466456969"><ele>400.0</ele><time>2026-05-02T15:17:42Z</time></trkpt><trkpt lat="40.30814295942221" lon="15.066127727216015"><ele>400.4</ele><time>2026-05-02T15:17:44Z</time></trkpt><trkpt lat="40.308253137091896" lon="15.066156843943505"><ele>400.8</ele><time>2026-05-02T15:17:46Z</time></trkpt><trkpt lat="40.3083599980211" lon="15.066181780918495"><ele>401.20000000000005</ele><time>2026-05-02T15:17:48Z</time></trkpt><trkpt lat="40.30846834483532" lon="15.066193309790973"><ele>401.6</ele><time>2026-05-02T15:17:50Z</time></trkpt><trkpt lat="40.30857223802246" lon="15.066185381203033"><ele>402.0</ele><time>2026-05-02T15:17:52Z</time></trkpt><trkpt lat="40.30868115664581" lon="15.066165927025608"><ele>402.0</ele><time>2026-05-02T15:17:54Z</time></trkpt><trkpt lat="40.308791795846474" lon="15.06614338795714"><ele>402.0</ele><time>2026-05-02T15:17:56Z</time></trkpt><trkpt lat="40.3089028087811" lon="15.066108580487311"><ele>402.0</ele><time>2026-05-02T15:17:58Z</time></trkpt><trkpt lat="40.30901850737839" lon="15.066061050563661"><ele>402.0</ele><time>2026-05-02T15:18:00Z</time></trkpt><trkpt lat="40.30912978251529" lon="15.06600592071575"><ele>403.0</ele><time>2026-05-02T15:18:02Z</time></trkpt><trkpt lat="40.30924235424193" lon="15.06595866490039"><ele>404.0</ele><time>2026-05-02T15:18:04Z</time></trkpt><trkpt lat="40.30934413972746" lon="15.065904488496077"><ele>405.0</ele><time>2026-05-02T15:18:06Z</time></trkpt><trkpt lat="40.309451733440085" lon="15.065906483581049"><ele>406.0</ele><time>2026-05-02T15:18:08Z</time></trkpt><trkpt lat="40.309564533712944" lon="15.066001898424025"><ele>406.0</ele><time>2026-05-02T15:18:10Z</time></trkpt><trkpt lat="40.30960749322624" lon="15.066072568768995"><ele>406.0</ele><time>2026-05-02T15:18:11Z</time></trkpt><trkpt lat="40.30965131140959" lon="15.066144072279897"><ele>406.0</ele><time>2026-05-02T15:18:12Z</time></trkpt><trkpt lat="40.30970716585534" lon="15.066191098199251"><ele>406.0</ele><time>2026-05-02T15:18:13Z</time></trkpt><trkpt lat="40.309780036935294" lon="15.066212748503135"><ele>406.0</ele><time>2026-05-02T15:18:14Z</time></trkpt><trkpt lat="40.30986071856763" lon="15.06620178062697"><ele>406.0</ele><time>2026-05-02T15:18:15Z</time></trkpt><trkpt lat="40.30993580502771" lon="15.066168035673382"><ele>406.0</ele><time>2026-05-02T15:18:16Z</time></trkpt><trkpt lat="40.31000918656505" lon="15.066112852719218"><ele>405.20000000000005</ele><time>2026-05-02T15:18:17Z</time></trkpt><trkpt lat="40.31008457342886" lon="15.066051993645846"><ele>404.40000000000003</ele><time>2026-05-02T15:18:18Z</time></trkpt><trkpt lat="40.310166575233836" lon="15.065989690186527"><ele>403.6</ele><time>2026-05-02T15:18:19Z</time></trkpt><trkpt lat="40.31025229001052" lon="15.0659550002986"><ele>402.8</ele><time>2026-05-02T15:18:20Z</time></trkpt><trkpt lat="40.310341160380865" lon="15.065909269423036"><ele>402.0</ele><time>2026-05-02T15:18:21Z</time></trkpt><trkpt lat="40.31042840755035" lon="15.065862832515249"><ele>402.0</ele><time>2026-05-02T15:18:22Z</time></trkpt><trkpt lat="40.310518751075804" lon="15.065819114355039"><ele>402.0</ele><time>2026-05-02T15:18:23Z</time></trkpt><trkpt lat="40.310610656151106" lon="15.06580820937383"><ele>402.0</ele><time>2026-05-02T15:18:24Z</time></trkpt><trkpt lat="40.310710486638555" lon="15.065837514497533"><ele>402.0</ele><time>2026-05-02T15:18:25Z</time></trkpt><trkpt lat="40.31079869797964" lon="15.065875866191261"><ele>402.0</ele><time>2026-05-02T15:18:26Z</time></trkpt><trkpt lat="40.31088537046935" lon="15.065926903797278"><ele>401.8</ele><time>2026-05-02T15:18:27Z</time></trkpt><trkpt lat="40.31097298565809" lon="15.06598108104878"><ele>401.6</ele><time>2026-05-02T15:18:28Z</time></trkpt><trkpt lat="40.311061801270476" lon="15.066016656689015"><ele>401.40000000000003</ele><time>2026-05-02T15:18:29Z</time></trkpt><trkpt lat="40.31114693751392" lon="15.066060674574368"><ele>401.20000000000005</ele><time>2026-05-02T15:18:30Z</time></trkpt><trkpt lat="40.311230098067895" lon="15.066114511692962"><ele>401.0</ele><time>2026-05-02T15:18:31Z</time></trkpt><trkpt lat="40.31130957152607" lon="15.066166881818187"><ele>401.0</ele><time>2026-05-02T15:18:32Z</time></trkpt><trkpt lat="40.31139375095035" lon="15.066226800230966"><ele>401.0</ele><time>2026-05-02T15:18:33Z</time></trkpt><trkpt lat="40.311476602952354" lon="15.066291683352247"><ele>401.0</ele><time>2026-05-02T15:18:34Z</time></trkpt><trkpt lat="40.31155160460595" lon="15.066368189773971"><ele>401.0</ele><time>2026-05-02T15:18:35Z</time></trkpt><trkpt lat="40.311640612922126" lon="15.06640641139993"><ele>401.0</ele><time>2026-05-02T15:18:36Z</time></trkpt><trkpt lat="40.31173130624133" lon="15.066434709539019"><ele>398.4</ele><time>2026-05-02T15:18:37Z</time></trkpt><trkpt lat="40.311820975102584" lon="15.066464404406638"><ele>395.8</ele><time>2026-05-02T15:18:38Z</time></trkpt><trkpt lat="40.31192381309788" lon="15.06646732252632"><ele>393.2</ele><time>2026-05-02T15:18:39Z</time></trkpt><trkpt lat="40.3120179765806" lon="15.066466647245708"><ele>390.59999999999997</ele><time>2026-05-02T15:18:40Z</time></trkpt><trkpt lat="40.31211547232548" lon="15.066461744867334"><ele>388.0</ele><time>2026-05-02T15:18:41Z</time></trkpt><trkpt lat="40.312210242657756" lon="15.066453245419238"><ele>387.59999999999997</ele><time>2026-05-02T15:18:42Z</time></trkpt><trkpt lat="40.31230637289585" lon="15.066442344942278"><ele>387.2</ele><time>2026-05-02T15:18:43Z</time></trkpt><trkpt lat="40.31240340412492" lon="15.066409848435162"><ele>386.8</ele><time>2026-05-02T15:18:44Z</time></trkpt><trkpt lat="40.312499027393976" lon="15.066369836555365"><ele>386.4</ele><time>2026-05-02T15:18:45Z</time></trkpt><trkpt lat="40.31258653841548" lon="15.066316217740297"><ele>386.0</ele><time>2026-05-02T15:18:46Z</time></trkpt><trkpt lat="40.31267469035198" lon="15.066248765722683"><ele>386.0</ele><time>2026-05-02T15:18:47Z</time></trkpt><trkpt lat="40.31276711064789" lon="15.066190031478047"><ele>386.0</ele><time>2026-05-02T15:18:48Z</time></trkpt><trkpt lat="40.31285376352154" lon="15.066120368537508"><ele>386.0</ele><time>2026-05-02T15:18:49Z</time></trkpt><trkpt lat="40.31293228048839" lon="15.066041951430503"><ele>386.0</ele><time>2026-05-02T15:18:50Z</time></trkpt><trkpt lat="40.31300563381246" lon="15.065949850793512"><ele>386.0</ele><time>2026-05-02T15:18:51Z</time></trkpt><trkpt lat="40.31307796006752" lon="15.065848659539009"><ele>385.6</ele><time>2026-05-02T15:18:52Z</time></trkpt><trkpt lat="40.31314624927772" lon="15.06574139833461"><ele>385.20000000000005</ele><time>2026-05-02T15:18:53Z</time></trkpt><trkpt lat="40.31321345571776" lon="15.065636416886084"><ele>384.79999999999995</ele><time>2026-05-02T15:18:54Z</time></trkpt><trkpt lat="40.3132770695909" lon="15.065533186195696"><ele>384.4</ele><time>2026-05-02T15:18:55Z</time></trkpt><trkpt lat="40.313333692579015" lon="15.065432883692175"><ele>384.0</ele><time>2026-05-02T15:18:56Z</time></trkpt><trkpt lat="40.313388021311106" lon="15.06532627283962"><ele>384.0</ele><time>2026-05-02T15:18:57Z</time></trkpt><trkpt lat="40.31343092950686" lon="15.065213898127977"><ele>384.0</ele><time>2026-05-02T15:18:58Z</time></trkpt><trkpt lat="40.31348072027906" lon="15.065111745651842"><ele>384.0</ele><time>2026-05-02T15:18:59Z</time></trkpt><trkpt lat="40.31352550957967" lon="15.065002515260627"><ele>384.0</ele><time>2026-05-02T15:19:00Z</time></trkpt><trkpt lat="40.31357277453845" lon="15.064897428496728"><ele>384.0</ele><time>2026-05-02T15:19:01Z</time></trkpt><trkpt lat="40.313604526349614" lon="15.064812210534036"><ele>384.0</ele><time>2026-05-02T15:19:02Z</time></trkpt><trkpt lat="40.31364586963494" lon="15.064727520777716"><ele>384.4285714285714</ele><time>2026-05-02T15:19:03Z</time></trkpt><trkpt lat="40.31368054157823" lon="15.064648457568882"><ele>384.85714285714283</ele><time>2026-05-02T15:19:04Z</time></trkpt><trkpt lat="40.31372801926841" lon="15.064585209122288"><ele>385.2857142857143</ele><time>2026-05-02T15:19:05Z</time></trkpt><trkpt lat="40.31377915693216" lon="15.064532172444455"><ele>385.71428571428567</ele><time>2026-05-02T15:19:06Z</time></trkpt><trkpt lat="40.3138342283589" lon="15.06448292765079"><ele>386.14285714285717</ele><time>2026-05-02T15:19:07Z</time></trkpt><trkpt lat="40.31388941830559" lon="15.064432627028692"><ele>386.57142857142856</ele><time>2026-05-02T15:19:08Z</time></trkpt><trkpt lat="40.3139670511413" lon="15.064351694578015"><ele>387.0</ele><time>2026-05-02T15:19:10Z</time></trkpt><trkpt lat="40.31402361010059" lon="15.06429135146199"><ele>387.0</ele><time>2026-05-02T15:19:12Z</time></trkpt><trkpt lat="40.31408589916178" lon="15.064237430930657"><ele>387.0</ele><time>2026-05-02T15:19:14Z</time></trkpt><trkpt lat="40.31415249795203" lon="15.06414279731152"><ele>387.0</ele><time>2026-05-02T15:19:16Z</time></trkpt><trkpt lat="40.31422819290266" lon="15.064040702299891"><ele>387.0</ele><time>2026-05-02T15:19:18Z</time></trkpt><trkpt lat="40.314281991615545" lon="15.063995259225543"><ele>387.0</ele><time>2026-05-02T15:19:19Z</time></trkpt><trkpt lat="40.31434702220173" lon="15.063925202806184"><ele>387.0</ele><time>2026-05-02T15:19:20Z</time></trkpt><trkpt lat="40.314416955951216" lon="15.063843760779008"><ele>387.0</ele><time>2026-05-02T15:19:21Z</time></trkpt><trkpt lat="40.314479888475255" lon="15.063751115643422"><ele>387.0</ele><time>2026-05-02T15:19:22Z</time></trkpt><trkpt lat="40.314552631148686" lon="15.063660490125805"><ele>387.0</ele><time>2026-05-02T15:19:23Z</time></trkpt><trkpt lat="40.31464264416078" lon="15.06357873830791"><ele>387.0</ele><time>2026-05-02T15:19:24Z</time></trkpt><trkpt lat="40.314730981218126" lon="15.06349061317909"><ele>387.0</ele><time>2026-05-02T15:19:25Z</time></trkpt><trkpt lat="40.314813708104424" lon="15.063397024427"><ele>383.5</ele><time>2026-05-02T15:19:26Z</time></trkpt><trkpt lat="40.314907114266525" lon="15.063307831762522"><ele>380.0</ele><time>2026-05-02T15:19:27Z</time></trkpt><trkpt lat="40.31498931816572" lon="15.06320015979822"><ele>376.5</ele><time>2026-05-02T15:19:28Z</time></trkpt><trkpt lat="40.31507999000568" lon="15.063101317518102"><ele>373.0</ele><time>2026-05-02T15:19:29Z</time></trkpt><trkpt lat="40.31517126527391" lon="15.063022321842304"><ele>372.79999999999995</ele><time>2026-05-02T15:19:30Z</time></trkpt><trkpt lat="40.315268775503" lon="15.06293690199849"><ele>372.6</ele><time>2026-05-02T15:19:31Z</time></trkpt><trkpt lat="40.31535979153477" lon="15.062863724286025"><ele>372.4</ele><time>2026-05-02T15:19:32Z</time></trkpt><trkpt lat="40.31542215069691" lon="15.062777588021964"><ele>372.20000000000005</ele><time>2026-05-02T15:19:33Z</time></trkpt><trkpt lat="40.31547455191856" lon="15.062707091579167"><ele>372.0</ele><time>2026-05-02T15:19:34Z</time></trkpt><trkpt lat="40.315513430363936" lon="15.062603147072663"><ele>370.6</ele><time>2026-05-02T15:19:36Z</time></trkpt><trkpt lat="40.3155817274332" lon="15.062483693153336"><ele>369.20000000000005</ele><time>2026-05-02T15:19:38Z</time></trkpt><trkpt lat="40.315683538058494" lon="15.06238143554154"><ele>367.8</ele><time>2026-05-02T15:19:40Z</time></trkpt><trkpt lat="40.31573559561084" lon="15.06233111268815"><ele>366.4</ele><time>2026-05-02T15:19:41Z</time></trkpt><trkpt lat="40.31580109384496" lon="15.062295990762685"><ele>365.0</ele><time>2026-05-02T15:19:42Z</time></trkpt><trkpt lat="40.315866534815456" lon="15.062255503670979"><ele>364.14285714285717</ele><time>2026-05-02T15:19:43Z</time></trkpt><trkpt lat="40.315921551756546" lon="15.062209715237843"><ele>363.2857142857143</ele><time>2026-05-02T15:19:44Z</time></trkpt><trkpt lat="40.315978191800966" lon="15.062167351025646"><ele>362.42857142857144</ele><time>2026-05-02T15:19:45Z</time></trkpt><trkpt lat="40.31603082919667" lon="15.06209481033371"><ele>361.57142857142856</ele><time>2026-05-02T15:19:46Z</time></trkpt><trkpt lat="40.316079565511316" lon="15.06200909314108"><ele>360.7142857142857</ele><time>2026-05-02T15:19:47Z</time></trkpt><trkpt lat="40.31612655321001" lon="15.061935584751922"><ele>359.8571428571429</ele><time>2026-05-02T15:19:48Z</time></trkpt><trkpt lat="40.316171109410114" lon="15.061872749548767"><ele>359.0</ele><time>2026-05-02T15:19:49Z</time></trkpt><trkpt lat="40.31622796462854" lon="15.06183087802232"><ele>359.0</ele><time>2026-05-02T15:19:50Z</time></trkpt><trkpt lat="40.316285800694345" lon="15.061772062486657"><ele>359.0</ele><time>2026-05-02T15:19:51Z</time></trkpt><trkpt lat="40.31634812250814" lon="15.061690856263423"><ele>359.0</ele><time>2026-05-02T15:19:53Z</time></trkpt><trkpt lat="40.31642397747098" lon="15.061585339841221"><ele>359.0</ele><time>2026-05-02T15:19:55Z</time></trkpt><trkpt lat="40.3165127382449" lon="15.061510202045902"><ele>359.0</ele><time>2026-05-02T15:19:57Z</time></trkpt><trkpt lat="40.316582818405664" lon="15.061413939735102"><ele>358.79999999999995</ele><time>2026-05-02T15:19:59Z</time></trkpt><trkpt lat="40.31666676108494" lon="15.061317251473058"><ele>358.59999999999997</ele><time>2026-05-02T15:20:01Z</time></trkpt><trkpt lat="40.31675733568384" lon="15.061266470687492"><ele>358.4</ele><time>2026-05-02T15:20:03Z</time></trkpt><trkpt lat="40.31685855868482" lon="15.06122791493369"><ele>358.2</ele><time>2026-05-02T15:20:05Z</time></trkpt><trkpt lat="40.31692204051831" lon="15.061133571912613"><ele>358.0</ele><time>2026-05-02T15:20:07Z</time></trkpt><trkpt lat="40.316991017154585" lon="15.061079904690818"><ele>358.0</ele><time>2026-05-02T15:20:09Z</time></trkpt><trkpt lat="40.317057898442876" lon="15.060996864672111"><ele>358.0</ele><time>2026-05-02T15:20:12Z</time></trkpt><trkpt lat="40.3170913337978" lon="15.060885892285299"><ele>358.0</ele><time>2026-05-02T15:20:15Z</time></trkpt><trkpt lat="40.317069099550324" lon="15.060776840398441"><ele>358.0</ele><time>2026-05-02T15:20:18Z</time></trkpt><trkpt lat="40.31705093633174" lon="15.060673481570255"><ele>358.0</ele><time>2026-05-02T15:20:23Z</time></trkpt><trkpt lat="40.31699547694588" lon="15.060622651272494"><ele>358.0</ele><time>2026-05-02T15:20:28Z</time></trkpt><trkpt lat="40.31695093261415" lon="15.060719032376067"><ele>358.00000000000006</ele><time>2026-05-02T15:20:32Z</time></trkpt><trkpt lat="40.31693623711894" lon="15.060810559374499"><ele>358.0</ele><time>2026-05-02T15:20:35Z</time></trkpt><trkpt lat="40.31691542054321" lon="15.060890007164604"><ele>358.0</ele><time>2026-05-02T15:20:40Z</time></trkpt><trkpt lat="40.316951048216985" lon="15.060993175007384"><ele>358.0</ele><time>2026-05-02T15:20:55Z</time></trkpt><trkpt lat="40.31700837140824" lon="15.061039897099995"><ele>358.0</ele><time>2026-05-02T15:20:59Z</time></trkpt><trkpt lat="40.31706313916051" lon="15.060988717250225"><ele>358.00000000000006</ele><time>2026-05-02T15:21:01Z</time></trkpt><trkpt lat="40.31709991407309" lon="15.060893627147308"><ele>358.0</ele><time>2026-05-02T15:21:03Z</time></trkpt><trkpt lat="40.31708305003331" lon="15.060792303553882"><ele>358.00000000000006</ele><time>2026-05-02T15:21:05Z</time></trkpt><trkpt lat="40.31704847942227" lon="15.060713375939473"><ele>358.0</ele><time>2026-05-02T15:21:07Z</time></trkpt><trkpt lat="40.31703588161175" lon="15.060622091537168"><ele>358.0</ele><time>2026-05-02T15:21:10Z</time></trkpt><trkpt lat="40.317002152753844" lon="15.060535674686767"><ele>358.0</ele><time>2026-05-02T15:22:34Z</time></trkpt><trkpt lat="40.31695731469833" lon="15.060605164947203"><ele>358.0</ele><time>2026-05-02T15:22:37Z</time></trkpt><trkpt lat="40.316944786454386" lon="15.060694144808203"><ele>358.00000000000006</ele><time>2026-05-02T15:22:39Z</time></trkpt><trkpt lat="40.3169288135009" lon="15.06077863843769"><ele>358.0</ele><time>2026-05-02T15:22:41Z</time></trkpt><trkpt lat="40.31691673167806" lon="15.060860260709601"><ele>358.0</ele><time>2026-05-02T15:22:45Z</time></trkpt><trkpt lat="40.31696668786012" lon="15.060960892617507"><ele>358.0</ele><time>2026-05-02T15:23:09Z</time></trkpt><trkpt lat="40.31706878330753" lon="15.060989620334755"><ele>358.0</ele><time>2026-05-02T15:23:11Z</time></trkpt><trkpt lat="40.317122450358085" lon="15.060851705221598"><ele>358.0</ele><time>2026-05-02T15:23:13Z</time></trkpt><trkpt lat="40.31709658285779" lon="15.06075225264159"><ele>358.0</ele><time>2026-05-02T15:23:14Z</time></trkpt><trkpt lat="40.317056451536494" lon="15.060667900727143"><ele>355.4</ele><time>2026-05-02T15:23:15Z</time></trkpt><trkpt lat="40.31702482007499" lon="15.06057337262884"><ele>352.79999999999995</ele><time>2026-05-02T15:23:16Z</time></trkpt><trkpt lat="40.31703434202455" lon="15.060457149351858"><ele>350.2</ele><time>2026-05-02T15:23:17Z</time></trkpt><trkpt lat="40.31706549947475" lon="15.060340006707921"><ele>347.6</ele><time>2026-05-02T15:23:18Z</time></trkpt><trkpt lat="40.3171017905746" lon="15.060219877089319"><ele>345.0</ele><time>2026-05-02T15:23:19Z</time></trkpt><trkpt lat="40.317139238788265" lon="15.060096662562486"><ele>345.0</ele><time>2026-05-02T15:23:20Z</time></trkpt><trkpt lat="40.31718400042303" lon="15.059981044732561"><ele>345.0</ele><time>2026-05-02T15:23:21Z</time></trkpt><trkpt lat="40.31722930822392" lon="15.059864306295658"><ele>345.0</ele><time>2026-05-02T15:23:22Z</time></trkpt><trkpt lat="40.3172822816563" lon="15.059754658360236"><ele>345.0</ele><time>2026-05-02T15:23:23Z</time></trkpt><trkpt lat="40.31733200958614" lon="15.059639402295149"><ele>345.0</ele><time>2026-05-02T15:23:24Z</time></trkpt><trkpt lat="40.31738290903856" lon="15.059523456419331"><ele>346.8</ele><time>2026-05-02T15:23:25Z</time></trkpt><trkpt lat="40.31743482302327" lon="15.059404832111907"><ele>348.6</ele><time>2026-05-02T15:23:26Z</time></trkpt><trkpt lat="40.31748381540963" lon="15.059282783013893"><ele>350.4</ele><time>2026-05-02T15:23:27Z</time></trkpt><trkpt lat="40.31751653410147" lon="15.05915422471544"><ele>352.2</ele><time>2026-05-02T15:23:28Z</time></trkpt><trkpt lat="40.317539571763106" lon="15.05901948050654"><ele>354.0</ele><time>2026-05-02T15:23:29Z</time></trkpt><trkpt lat="40.317556972411815" lon="15.058890087242181"><ele>354.0</ele><time>2026-05-02T15:23:30Z</time></trkpt><trkpt lat="40.317581745839966" lon="15.05877199097634"><ele>354.0</ele><time>2026-05-02T15:23:31Z</time></trkpt><trkpt lat="40.317594575364936" lon="15.058643217914376"><ele>354.0</ele><time>2026-05-02T15:23:32Z</time></trkpt><trkpt lat="40.31760536406583" lon="15.058523966075077"><ele>354.0</ele><time>2026-05-02T15:23:33Z</time></trkpt><trkpt lat="40.31762388387641" lon="15.05843048872239"><ele>354.0</ele><time>2026-05-02T15:23:34Z</time></trkpt><trkpt lat="40.31765626842141" lon="15.058334267589148"><ele>354.0</ele><time>2026-05-02T15:23:35Z</time></trkpt><trkpt lat="40.31770958667642" lon="15.058242756080364"><ele>351.8333333333333</ele><time>2026-05-02T15:23:36Z</time></trkpt><trkpt lat="40.3177231743067" lon="15.058143021918783"><ele>349.6666666666667</ele><time>2026-05-02T15:23:37Z</time></trkpt><trkpt lat="40.317769330347375" lon="15.058050370500675"><ele>347.5</ele><time>2026-05-02T15:23:38Z</time></trkpt><trkpt lat="40.317802533346956" lon="15.057977279551507"><ele>345.33333333333337</ele><time>2026-05-02T15:23:39Z</time></trkpt><trkpt lat="40.31784175801645" lon="15.05790977407219"><ele>343.1666666666667</ele><time>2026-05-02T15:23:40Z</time></trkpt><trkpt lat="40.31790346351758" lon="15.05783540623732"><ele>341.0</ele><time>2026-05-02T15:23:41Z</time></trkpt><trkpt lat="40.31797138596961" lon="15.057771690499234"><ele>341.0</ele><time>2026-05-02T15:23:42Z</time></trkpt><trkpt lat="40.31804563270543" lon="15.057703681719994"><ele>341.0</ele><time>2026-05-02T15:23:43Z</time></trkpt><trkpt lat="40.318121728370635" lon="15.057640930277403"><ele>341.0</ele><time>2026-05-02T15:23:44Z</time></trkpt><trkpt lat="40.318198770768284" lon="15.057575750377953"><ele>341.0</ele><time>2026-05-02T15:23:45Z</time></trkpt><trkpt lat="40.318273146302005" lon="15.057504443206149"><ele>341.0</ele><time>2026-05-02T15:23:46Z</time></trkpt><trkpt lat="40.31834895606159" lon="15.057429139626109"><ele>339.6</ele><time>2026-05-02T15:23:47Z</time></trkpt><trkpt lat="40.318429260742725" lon="15.057348957018407"><ele>338.20000000000005</ele><time>2026-05-02T15:23:48Z</time></trkpt><trkpt lat="40.31851426141806" lon="15.057281883750502"><ele>336.79999999999995</ele><time>2026-05-02T15:23:49Z</time></trkpt><trkpt lat="40.31860875497699" lon="15.057239161783771"><ele>335.4</ele><time>2026-05-02T15:23:50Z</time></trkpt><trkpt lat="40.31870951969945" lon="15.05721219294064"><ele>334.0</ele><time>2026-05-02T15:23:51Z</time></trkpt><trkpt lat="40.318810192020955" lon="15.057193821323107"><ele>335.4</ele><time>2026-05-02T15:23:52Z</time></trkpt><trkpt lat="40.31891117858874" lon="15.057171065715567"><ele>336.79999999999995</ele><time>2026-05-02T15:23:53Z</time></trkpt><trkpt lat="40.31900011613653" lon="15.057105916088087"><ele>338.20000000000005</ele><time>2026-05-02T15:23:54Z</time></trkpt><trkpt lat="40.31907620170353" lon="15.05702020269027"><ele>339.6</ele><time>2026-05-02T15:23:55Z</time></trkpt><trkpt lat="40.31915367427671" lon="15.056929404691404"><ele>341.0</ele><time>2026-05-02T15:23:56Z</time></trkpt><trkpt lat="40.319232002611535" lon="15.056845591053532"><ele>341.0</ele><time>2026-05-02T15:23:57Z</time></trkpt><trkpt lat="40.319314256960354" lon="15.056760017609767"><ele>341.0</ele><time>2026-05-02T15:23:58Z</time></trkpt><trkpt lat="40.31938770117647" lon="15.056666823780947"><ele>341.0</ele><time>2026-05-02T15:23:59Z</time></trkpt><trkpt lat="40.31946159698091" lon="15.056574289996085"><ele>341.0</ele><time>2026-05-02T15:24:00Z</time></trkpt><trkpt lat="40.31951380599634" lon="15.056468768519494"><ele>341.0</ele><time>2026-05-02T15:24:01Z</time></trkpt><trkpt lat="40.319545568039025" lon="15.056337322737642"><ele>338.20000000000005</ele><time>2026-05-02T15:24:02Z</time></trkpt><trkpt lat="40.31956401935992" lon="15.056196133141665"><ele>335.40000000000003</ele><time>2026-05-02T15:24:03Z</time></trkpt><trkpt lat="40.31957771394209" lon="15.056065263171993"><ele>332.6</ele><time>2026-05-02T15:24:04Z</time></trkpt><trkpt lat="40.319590517948676" lon="15.05592482309242"><ele>329.8</ele><time>2026-05-02T15:24:05Z</time></trkpt><trkpt lat="40.31959903903242" lon="15.055788610770472"><ele>327.0</ele><time>2026-05-02T15:24:06Z</time></trkpt><trkpt lat="40.31960685191711" lon="15.05564956018633"><ele>326.0</ele><time>2026-05-02T15:24:07Z</time></trkpt><trkpt lat="40.319593506162526" lon="15.055511705485033"><ele>325.0</ele><time>2026-05-02T15:24:08Z</time></trkpt><trkpt lat="40.31956463114109" lon="15.055372673337923"><ele>324.0</ele><time>2026-05-02T15:24:09Z</time></trkpt><trkpt lat="40.31951339886911" lon="15.055250831963665"><ele>323.0</ele><time>2026-05-02T15:24:10Z</time></trkpt><trkpt lat="40.3194680982023" lon="15.055139820033373"><ele>322.0</ele><time>2026-05-02T15:24:11Z</time></trkpt><trkpt lat="40.319461524044605" lon="15.054997473534714"><ele>320.6</ele><time>2026-05-02T15:24:12Z</time></trkpt><trkpt lat="40.31947830556097" lon="15.054852713763163"><ele>319.20000000000005</ele><time>2026-05-02T15:24:13Z</time></trkpt><trkpt lat="40.31949928909885" lon="15.054707601820875"><ele>317.8</ele><time>2026-05-02T15:24:14Z</time></trkpt><trkpt lat="40.31954214854739" lon="15.05457906303392"><ele>316.4</ele><time>2026-05-02T15:24:15Z</time></trkpt><trkpt lat="40.3196062150752" lon="15.054468425028878"><ele>315.0</ele><time>2026-05-02T15:24:16Z</time></trkpt><trkpt lat="40.31969054111852" lon="15.054375065376417"><ele>318.6</ele><time>2026-05-02T15:24:17Z</time></trkpt><trkpt lat="40.31979164965219" lon="15.054313454658308"><ele>322.2</ele><time>2026-05-02T15:24:18Z</time></trkpt><trkpt lat="40.31990035724392" lon="15.054276711361458"><ele>325.79999999999995</ele><time>2026-05-02T15:24:19Z</time></trkpt><trkpt lat="40.320006454183634" lon="15.054252710745873"><ele>329.4</ele><time>2026-05-02T15:24:20Z</time></trkpt><trkpt lat="40.32010745710012" lon="15.054210673571804"><ele>333.0</ele><time>2026-05-02T15:24:21Z</time></trkpt><trkpt lat="40.320199983224214" lon="15.054144140209669"><ele>328.79999999999995</ele><time>2026-05-02T15:24:22Z</time></trkpt><trkpt lat="40.320255145969654" lon="15.053999984969053"><ele>324.59999999999997</ele><time>2026-05-02T15:24:23Z</time></trkpt><trkpt lat="40.320295387055396" lon="15.053845905660117"><ele>320.4</ele><time>2026-05-02T15:24:24Z</time></trkpt><trkpt lat="40.32034454683902" lon="15.053750772051815"><ele>316.2</ele><time>2026-05-02T15:24:25Z</time></trkpt><trkpt lat="40.320387904217235" lon="15.053631697716057"><ele>312.0</ele><time>2026-05-02T15:24:26Z</time></trkpt><trkpt lat="40.320424977874616" lon="15.053505313896485"><ele>312.0</ele><time>2026-05-02T15:24:27Z</time></trkpt><trkpt lat="40.320463944339856" lon="15.053381798736927"><ele>312.0</ele><time>2026-05-02T15:24:28Z</time></trkpt><trkpt lat="40.320522816044225" lon="15.053273991146607"><ele>312.0</ele><time>2026-05-02T15:24:29Z</time></trkpt><trkpt lat="40.3205895165823" lon="15.053171774489172"><ele>312.0</ele><time>2026-05-02T15:24:30Z</time></trkpt><trkpt lat="40.320660066824864" lon="15.053065159018217"><ele>312.0</ele><time>2026-05-02T15:24:31Z</time></trkpt><trkpt lat="40.32072129103808" lon="15.052956209935461"><ele>312.6</ele><time>2026-05-02T15:24:32Z</time></trkpt><trkpt lat="40.32078608636556" lon="15.052848375076806"><ele>313.2</ele><time>2026-05-02T15:24:33Z</time></trkpt><trkpt lat="40.320853552846785" lon="15.052738262389147"><ele>313.8</ele><time>2026-05-02T15:24:34Z</time></trkpt><trkpt lat="40.32092934593476" lon="15.052642852411084"><ele>314.4</ele><time>2026-05-02T15:24:35Z</time></trkpt><trkpt lat="40.32100509655688" lon="15.052554447611756"><ele>315.0</ele><time>2026-05-02T15:24:36Z</time></trkpt><trkpt lat="40.32107962654802" lon="15.052475192146995"><ele>316.0</ele><time>2026-05-02T15:24:37Z</time></trkpt><trkpt lat="40.32115513408383" lon="15.052403871912777"><ele>317.0</ele><time>2026-05-02T15:24:38Z</time></trkpt><trkpt lat="40.32123291596675" lon="15.052347304151475"><ele>318.0</ele><time>2026-05-02T15:24:39Z</time></trkpt><trkpt lat="40.321321248105306" lon="15.05231054533833"><ele>319.0</ele><time>2026-05-02T15:24:40Z</time></trkpt><trkpt lat="40.32140400402915" lon="15.052297125290847"><ele>320.0</ele><time>2026-05-02T15:24:41Z</time></trkpt><trkpt lat="40.321477532635036" lon="15.052255600889964"><ele>321.0</ele><time>2026-05-02T15:24:42Z</time></trkpt><trkpt lat="40.32153452758537" lon="15.052180458543173"><ele>321.0</ele><time>2026-05-02T15:24:43Z</time></trkpt><trkpt lat="40.321559909107116" lon="15.052066156911012"><ele>321.0</ele><time>2026-05-02T15:24:44Z</time></trkpt><trkpt lat="40.32155132394941" lon="15.051944405220896"><ele>321.0</ele><time>2026-05-02T15:24:45Z</time></trkpt><trkpt lat="40.32155065526565" lon="15.051825731127675"><ele>321.0</ele><time>2026-05-02T15:24:46Z</time></trkpt><trkpt lat="40.32156306989728" lon="15.051718242394005"><ele>321.0</ele><time>2026-05-02T15:24:47Z</time></trkpt><trkpt lat="40.321578105568584" lon="15.051601712737728"><ele>321.0</ele><time>2026-05-02T15:24:48Z</time></trkpt><trkpt lat="40.3215911715417" lon="15.051487591563154"><ele>320.2</ele><time>2026-05-02T15:24:49Z</time></trkpt><trkpt lat="40.32160863459125" lon="15.051367777586707"><ele>319.40000000000003</ele><time>2026-05-02T15:24:50Z</time></trkpt><trkpt lat="40.321626958156635" lon="15.051243769602225"><ele>318.6</ele><time>2026-05-02T15:24:51Z</time></trkpt><trkpt lat="40.32163226220312" lon="15.051123728634764"><ele>317.8</ele><time>2026-05-02T15:24:52Z</time></trkpt><trkpt lat="40.32162537112293" lon="15.051002131293489"><ele>317.0</ele><time>2026-05-02T15:24:53Z</time></trkpt><trkpt lat="40.321582256316326" lon="15.050882748272155"><ele>316.6</ele><time>2026-05-02T15:24:54Z</time></trkpt><trkpt lat="40.321522521852636" lon="15.050774376183524"><ele>316.2</ele><time>2026-05-02T15:24:55Z</time></trkpt><trkpt lat="40.321465012094855" lon="15.050673967989507"><ele>315.8</ele><time>2026-05-02T15:24:56Z</time></trkpt><trkpt lat="40.32140614972902" lon="15.050566059066073"><ele>315.4</ele><time>2026-05-02T15:24:57Z</time></trkpt><trkpt lat="40.32135064897427" lon="15.050455275687385"><ele>315.0</ele><time>2026-05-02T15:24:58Z</time></trkpt><trkpt lat="40.32129259506193" lon="15.05034424351959"><ele>310.8</ele><time>2026-05-02T15:24:59Z</time></trkpt><trkpt lat="40.32122388594219" lon="15.050245144376445"><ele>306.6</ele><time>2026-05-02T15:25:00Z</time></trkpt><trkpt lat="40.321142119732855" lon="15.050163447351549"><ele>302.4</ele><time>2026-05-02T15:25:01Z</time></trkpt><trkpt lat="40.32107209225711" lon="15.050075333131176"><ele>298.2</ele><time>2026-05-02T15:25:02Z</time></trkpt><trkpt lat="40.321040315437244" lon="15.049965180205003"><ele>294.0</ele><time>2026-05-02T15:25:03Z</time></trkpt><trkpt lat="40.3210547877781" lon="15.049840189573494"><ele>293.2</ele><time>2026-05-02T15:25:04Z</time></trkpt><trkpt lat="40.3210885581286" lon="15.049721361355576"><ele>292.4</ele><time>2026-05-02T15:25:05Z</time></trkpt><trkpt lat="40.32114572435849" lon="15.049613081482317"><ele>291.6</ele><time>2026-05-02T15:25:06Z</time></trkpt><trkpt lat="40.321189185340714" lon="15.049496349254039"><ele>290.8</ele><time>2026-05-02T15:25:07Z</time></trkpt><trkpt lat="40.32123152279343" lon="15.049383997091898"><ele>290.0</ele><time>2026-05-02T15:25:08Z</time></trkpt><trkpt lat="40.32127657434675" lon="15.049266733412997"><ele>290.0</ele><time>2026-05-02T15:25:09Z</time></trkpt><trkpt lat="40.32132080492655" lon="15.04915194461811"><ele>290.0</ele><time>2026-05-02T15:25:10Z</time></trkpt><trkpt lat="40.32136520086634" lon="15.049035363595353"><ele>290.0</ele><time>2026-05-02T15:25:11Z</time></trkpt><trkpt lat="40.321413274152526" lon="15.048918588198834"><ele>290.0</ele><time>2026-05-02T15:25:12Z</time></trkpt><trkpt lat="40.32145515694497" lon="15.048797658797518"><ele>290.0</ele><time>2026-05-02T15:25:13Z</time></trkpt><trkpt lat="40.3214800593372" lon="15.048661053874474"><ele>293.4</ele><time>2026-05-02T15:25:14Z</time></trkpt><trkpt lat="40.3214794291053" lon="15.048521633179407"><ele>296.8</ele><time>2026-05-02T15:25:15Z</time></trkpt><trkpt lat="40.32147019554978" lon="15.048381429260111"><ele>300.2</ele><time>2026-05-02T15:25:16Z</time></trkpt><trkpt lat="40.32146514285862" lon="15.048241965894922"><ele>303.6</ele><time>2026-05-02T15:25:17Z</time></trkpt><trkpt lat="40.32146262953415" lon="15.048100184891625"><ele>307.0</ele><time>2026-05-02T15:25:18Z</time></trkpt><trkpt lat="40.32145175915189" lon="15.04796315879736"><ele>307.0</ele><time>2026-05-02T15:25:19Z</time></trkpt><trkpt lat="40.32143290411373" lon="15.047823802492635"><ele>307.0</ele><time>2026-05-02T15:25:20Z</time></trkpt><trkpt lat="40.321410418199626" lon="15.047692921496534"><ele>307.0</ele><time>2026-05-02T15:25:21Z</time></trkpt><trkpt lat="40.321360859109966" lon="15.047571823298897"><ele>307.0</ele><time>2026-05-02T15:25:22Z</time></trkpt><trkpt lat="40.32128738795341" lon="15.047456722423894"><ele>307.0</ele><time>2026-05-02T15:25:23Z</time></trkpt><trkpt lat="40.321219442222386" lon="15.04734629225166"><ele>302.4</ele><time>2026-05-02T15:25:24Z</time></trkpt><trkpt lat="40.32116107030396" lon="15.047233406848479"><ele>297.79999999999995</ele><time>2026-05-02T15:25:25Z</time></trkpt><trkpt lat="40.321119086991985" lon="15.047105211955044"><ele>293.2</ele><time>2026-05-02T15:25:26Z</time></trkpt><trkpt lat="40.321093681207735" lon="15.046968088824551"><ele>288.59999999999997</ele><time>2026-05-02T15:25:27Z</time></trkpt><trkpt lat="40.321070000910595" lon="15.046829766745562"><ele>284.0</ele><time>2026-05-02T15:25:28Z</time></trkpt><trkpt lat="40.32103539394904" lon="15.046700646217623"><ele>284.2</ele><time>2026-05-02T15:25:29Z</time></trkpt><trkpt lat="40.32096846960653" lon="15.046591172691675"><ele>284.4</ele><time>2026-05-02T15:25:30Z</time></trkpt><trkpt lat="40.32088574269132" lon="15.046498809442546"><ele>284.6</ele><time>2026-05-02T15:25:31Z</time></trkpt><trkpt lat="40.32080366674384" lon="15.046411173996683"><ele>284.8</ele><time>2026-05-02T15:25:32Z</time></trkpt><trkpt lat="40.32072552587971" lon="15.04630975879967"><ele>285.0</ele><time>2026-05-02T15:25:33Z</time></trkpt><trkpt lat="40.32065142476069" lon="15.046202776808476"><ele>285.0</ele><time>2026-05-02T15:25:34Z</time></trkpt><trkpt lat="40.32059121253665" lon="15.046077093479894"><ele>285.0</ele><time>2026-05-02T15:25:35Z</time></trkpt><trkpt lat="40.32054350853313" lon="15.045949450156066"><ele>285.0</ele><time>2026-05-02T15:25:36Z</time></trkpt><trkpt lat="40.320496128307866" lon="15.04584667106302"><ele>285.0</ele><time>2026-05-02T15:25:37Z</time></trkpt><trkpt lat="40.32045860909868" lon="15.045744701832467"><ele>285.0</ele><time>2026-05-02T15:25:38Z</time></trkpt><trkpt lat="40.320462102412804" lon="15.045635034003578"><ele>283.0</ele><time>2026-05-02T15:25:39Z</time></trkpt><trkpt lat="40.320489358721" lon="15.04555310155791"><ele>281.0</ele><time>2026-05-02T15:25:40Z</time></trkpt><trkpt lat="40.320520136066406" lon="15.045471659304162"><ele>279.0</ele><time>2026-05-02T15:26:01Z</time></trkpt><trkpt lat="40.32056752166616" lon="15.045390058556288"><ele>277.0</ele><time>2026-05-02T15:26:44Z</time></trkpt><trkpt lat="40.320638011476355" lon="15.04529368404508"><ele>275.0</ele><time>2026-05-02T15:26:46Z</time></trkpt><trkpt lat="40.32068435361673" lon="15.045217915594716"><ele>273.0</ele><time>2026-05-02T15:26:47Z</time></trkpt><trkpt lat="40.320738525717495" lon="15.045133046980371"><ele>273.0</ele><time>2026-05-02T15:26:48Z</time></trkpt><trkpt lat="40.32079335222472" lon="15.045029207358612"><ele>273.0</ele><time>2026-05-02T15:26:49Z</time></trkpt><trkpt lat="40.3208488092724" lon="15.04491533474027"><ele>273.0</ele><time>2026-05-02T15:26:50Z</time></trkpt><trkpt lat="40.3208900740681" lon="15.044780724776619"><ele>273.0</ele><time>2026-05-02T15:26:51Z</time></trkpt><trkpt lat="40.32092650355002" lon="15.044636846414086"><ele>273.0</ele><time>2026-05-02T15:26:52Z</time></trkpt><trkpt lat="40.320961696371555" lon="15.044486606618431"><ele>269.25</ele><time>2026-05-02T15:26:53Z</time></trkpt><trkpt lat="40.32100002295963" lon="15.044340446905093"><ele>265.5</ele><time>2026-05-02T15:26:54Z</time></trkpt><trkpt lat="40.32103694056724" lon="15.04419494940803"><ele>261.75</ele><time>2026-05-02T15:26:55Z</time></trkpt><trkpt lat="40.32107415910491" lon="15.044056416629207"><ele>258.0</ele><time>2026-05-02T15:26:56Z</time></trkpt><trkpt lat="40.32111516376298" lon="15.043922458164415"><ele>259.8</ele><time>2026-05-02T15:26:57Z</time></trkpt><trkpt lat="40.32115861807443" lon="15.043791212517599"><ele>261.6</ele><time>2026-05-02T15:26:58Z</time></trkpt><trkpt lat="40.321242250569185" lon="15.043690743395766"><ele>263.4</ele><time>2026-05-02T15:26:59Z</time></trkpt><trkpt lat="40.32132786444303" lon="15.04359531531601"><ele>265.2</ele><time>2026-05-02T15:27:00Z</time></trkpt><trkpt lat="40.321418402890764" lon="15.043506064971021"><ele>267.0</ele><time>2026-05-02T15:27:01Z</time></trkpt><trkpt lat="40.32150029090927" lon="15.043416242376594"><ele>267.0</ele><time>2026-05-02T15:27:02Z</time></trkpt><trkpt lat="40.32156913359504" lon="15.043322357142083"><ele>267.0</ele><time>2026-05-02T15:27:03Z</time></trkpt><trkpt lat="40.32162735886234" lon="15.043225008459494"><ele>267.0</ele><time>2026-05-02T15:27:04Z</time></trkpt><trkpt lat="40.32167213510354" lon="15.043132319357195"><ele>267.0</ele><time>2026-05-02T15:27:05Z</time></trkpt><trkpt lat="40.32170507627877" lon="15.043032952124353"><ele>267.0</ele><time>2026-05-02T15:27:06Z</time></trkpt><trkpt lat="40.32172669431451" lon="15.042938407492494"><ele>267.0</ele><time>2026-05-02T15:27:07Z</time></trkpt><trkpt lat="40.32174252465257" lon="15.042848168097406"><ele>265.4</ele><time>2026-05-02T15:27:08Z</time></trkpt><trkpt lat="40.321771921758895" lon="15.04270182700617"><ele>263.79999999999995</ele><time>2026-05-02T15:27:10Z</time></trkpt><trkpt lat="40.32179672215239" lon="15.042574713472273"><ele>262.2</ele><time>2026-05-02T15:27:12Z</time></trkpt><trkpt lat="40.321830171791234" lon="15.042467471960054"><ele>260.59999999999997</ele><time>2026-05-02T15:27:22Z</time></trkpt><trkpt lat="40.32186970822196" lon="15.042393920524402"><ele>259.0</ele><time>2026-05-02T15:27:24Z</time></trkpt><trkpt lat="40.3219255469553" lon="15.04228871684123"><ele>259.5</ele><time>2026-05-02T15:27:26Z</time></trkpt><trkpt lat="40.32199854313964" lon="15.042158867910707"><ele>260.0</ele><time>2026-05-02T15:27:28Z</time></trkpt><trkpt lat="40.32203622188239" lon="15.042087732571973"><ele>260.5</ele><time>2026-05-02T15:27:29Z</time></trkpt><trkpt lat="40.322082941111795" lon="15.042019137302942"><ele>261.0</ele><time>2026-05-02T15:27:30Z</time></trkpt><trkpt lat="40.32213148644892" lon="15.041954288359383"><ele>261.5</ele><time>2026-05-02T15:27:31Z</time></trkpt><trkpt lat="40.322188820460255" lon="15.041891380513167"><ele>262.0</ele><time>2026-05-02T15:27:32Z</time></trkpt><trkpt lat="40.322252810136916" lon="15.041824570289954"><ele>262.0</ele><time>2026-05-02T15:27:33Z</time></trkpt><trkpt lat="40.322317565749756" lon="15.041751519426994"><ele>262.0</ele><time>2026-05-02T15:27:34Z</time></trkpt><trkpt lat="40.32238459124143" lon="15.041685035309133"><ele>262.0</ele><time>2026-05-02T15:27:35Z</time></trkpt><trkpt lat="40.3224507514997" lon="15.041619051071876"><ele>262.0</ele><time>2026-05-02T15:27:36Z</time></trkpt><trkpt lat="40.322502032704044" lon="15.041564188440242"><ele>262.0</ele><time>2026-05-02T15:27:37Z</time></trkpt><trkpt lat="40.32257194704744" lon="15.041480678963481"><ele>262.0</ele><time>2026-05-02T15:27:38Z</time></trkpt><trkpt lat="40.32262259993293" lon="15.041407928967363"><ele>260.8333333333333</ele><time>2026-05-02T15:27:39Z</time></trkpt><trkpt lat="40.32266189932439" lon="15.041330100346084"><ele>259.66666666666663</ele><time>2026-05-02T15:27:40Z</time></trkpt><trkpt lat="40.32268900770287" lon="15.041239183227765"><ele>258.5</ele><time>2026-05-02T15:27:41Z</time></trkpt><trkpt lat="40.32270750894098" lon="15.041144853862631"><ele>257.3333333333333</ele><time>2026-05-02T15:27:42Z</time></trkpt><trkpt lat="40.32271661150439" lon="15.041037444567138"><ele>256.1666666666667</ele><time>2026-05-02T15:27:43Z</time></trkpt><trkpt lat="40.32271707379878" lon="15.04093273564404"><ele>255.0</ele><time>2026-05-02T15:27:44Z</time></trkpt><trkpt lat="40.32271071119524" lon="15.040825917979982"><ele>254.2</ele><time>2026-05-02T15:27:45Z</time></trkpt><trkpt lat="40.322692269547204" lon="15.040719858494128"><ele>253.4</ele><time>2026-05-02T15:27:46Z</time></trkpt><trkpt lat="40.32267105931707" lon="15.040605958861326"><ele>252.60000000000002</ele><time>2026-05-02T15:27:47Z</time></trkpt><trkpt lat="40.32263835627697" lon="15.040485842973894"><ele>251.8</ele><time>2026-05-02T15:27:48Z</time></trkpt><trkpt lat="40.32260450673155" lon="15.040366335305706"><ele>251.0</ele><time>2026-05-02T15:27:49Z</time></trkpt><trkpt lat="40.32256136252717" lon="15.040240105243912"><ele>251.0</ele><time>2026-05-02T15:27:50Z</time></trkpt><trkpt lat="40.32252717205962" lon="15.040101002190355"><ele>251.0</ele><time>2026-05-02T15:27:51Z</time></trkpt><trkpt lat="40.32250207187879" lon="15.039953075301023"><ele>251.0</ele><time>2026-05-02T15:27:52Z</time></trkpt><trkpt lat="40.322479468870796" lon="15.039801790302329"><ele>251.0</ele><time>2026-05-02T15:27:53Z</time></trkpt><trkpt lat="40.32245264537595" lon="15.039642410059983"><ele>249.75</ele><time>2026-05-02T15:27:54Z</time></trkpt><trkpt lat="40.32243470061147" lon="15.039481214036947"><ele>248.5</ele><time>2026-05-02T15:27:55Z</time></trkpt><trkpt lat="40.32238932393318" lon="15.039339767608759"><ele>247.25</ele><time>2026-05-02T15:27:56Z</time></trkpt><trkpt lat="40.32234613808821" lon="15.039188824726462"><ele>246.0</ele><time>2026-05-02T15:27:57Z</time></trkpt><trkpt lat="40.322306487967005" lon="15.03903687809864"><ele>244.25</ele><time>2026-05-02T15:27:58Z</time></trkpt><trkpt lat="40.32226258314338" lon="15.038886033268923"><ele>242.5</ele><time>2026-05-02T15:27:59Z</time></trkpt><trkpt lat="40.322219978221426" lon="15.038728119004478"><ele>240.75</ele><time>2026-05-02T15:28:00Z</time></trkpt><trkpt lat="40.322185328421064" lon="15.038567919685846"><ele>239.0</ele><time>2026-05-02T15:28:01Z</time></trkpt><trkpt lat="40.32215135646233" lon="15.038408178618106"><ele>236.75</ele><time>2026-05-02T15:28:02Z</time></trkpt><trkpt lat="40.322106322750365" lon="15.038253758715776"><ele>234.5</ele><time>2026-05-02T15:28:03Z</time></trkpt><trkpt lat="40.322053261688026" lon="15.038108621637402"><ele>232.25</ele><time>2026-05-02T15:28:04Z</time></trkpt><trkpt lat="40.32199064725619" lon="15.037970676973101"><ele>230.0</ele><time>2026-05-02T15:28:05Z</time></trkpt><trkpt lat="40.32193636214859" lon="15.037828770601434"><ele>230.0</ele><time>2026-05-02T15:28:06Z</time></trkpt><trkpt lat="40.32188741982071" lon="15.03768082709646"><ele>230.0</ele><time>2026-05-02T15:28:07Z</time></trkpt><trkpt lat="40.32186176684644" lon="15.037532003005229"><ele>230.0</ele><time>2026-05-02T15:28:08Z</time></trkpt><trkpt lat="40.32187389636408" lon="15.037364879686114"><ele>230.0</ele><time>2026-05-02T15:28:09Z</time></trkpt><trkpt lat="40.321897185233546" lon="15.037197708969265"><ele>228.5</ele><time>2026-05-02T15:28:10Z</time></trkpt><trkpt lat="40.32189946956768" lon="15.037024003676718"><ele>227.0</ele><time>2026-05-02T15:28:11Z</time></trkpt><trkpt lat="40.321887162055546" lon="15.036848538818695"><ele>225.5</ele><time>2026-05-02T15:28:12Z</time></trkpt><trkpt lat="40.32186836163894" lon="15.036662519636732"><ele>224.0</ele><time>2026-05-02T15:28:13Z</time></trkpt><trkpt lat="40.32184821737844" lon="15.036482982305154"><ele>221.25</ele><time>2026-05-02T15:28:14Z</time></trkpt><trkpt lat="40.32183587888684" lon="15.03630096355364"><ele>218.5</ele><time>2026-05-02T15:28:15Z</time></trkpt><trkpt lat="40.3218423264098" lon="15.036107374021645"><ele>215.75</ele><time>2026-05-02T15:28:16Z</time></trkpt><trkpt lat="40.32185412939182" lon="15.035915486269406"><ele>213.0</ele><time>2026-05-02T15:28:17Z</time></trkpt><trkpt lat="40.32185617136398" lon="15.035714823957173"><ele>209.0</ele><time>2026-05-02T15:28:18Z</time></trkpt><trkpt lat="40.32185782941547" lon="15.035510691672778"><ele>205.0</ele><time>2026-05-02T15:28:19Z</time></trkpt><trkpt lat="40.3218720801052" lon="15.035329165308834"><ele>201.0</ele><time>2026-05-02T15:28:20Z</time></trkpt><trkpt lat="40.32186241090905" lon="15.035104981274028"><ele>199.0</ele><time>2026-05-02T15:28:21Z</time></trkpt><trkpt lat="40.32186543276671" lon="15.034896367275664"><ele>197.0</ele><time>2026-05-02T15:28:22Z</time></trkpt><trkpt lat="40.321863022140825" lon="15.034696300947214"><ele>195.0</ele><time>2026-05-02T15:28:23Z</time></trkpt><trkpt lat="40.32186154988522" lon="15.034491433992896"><ele>195.0</ele><time>2026-05-02T15:28:24Z</time></trkpt><trkpt lat="40.321868807408194" lon="15.034291567924406"><ele>195.0</ele><time>2026-05-02T15:28:25Z</time></trkpt><trkpt lat="40.32187818935944" lon="15.03411788762753"><ele>195.0</ele><time>2026-05-02T15:28:26Z</time></trkpt><trkpt lat="40.32188792016987" lon="15.033940862437476"><ele>195.0</ele><time>2026-05-02T15:28:27Z</time></trkpt><trkpt lat="40.32189367620757" lon="15.033777978252935"><ele>193.25</ele><time>2026-05-02T15:28:28Z</time></trkpt><trkpt lat="40.32191386330165" lon="15.033626187349991"><ele>191.5</ele><time>2026-05-02T15:28:29Z</time></trkpt><trkpt lat="40.32196812552419" lon="15.033468887194621"><ele>189.75</ele><time>2026-05-02T15:28:30Z</time></trkpt><trkpt lat="40.32203601699429" lon="15.033314820225995"><ele>188.0</ele><time>2026-05-02T15:28:31Z</time></trkpt><trkpt lat="40.322096214051776" lon="15.033162220731423"><ele>186.25</ele><time>2026-05-02T15:28:32Z</time></trkpt><trkpt lat="40.32213978794179" lon="15.033000776125764"><ele>184.5</ele><time>2026-05-02T15:28:33Z</time></trkpt><trkpt lat="40.32217406139588" lon="15.032837188622032"><ele>182.75</ele><time>2026-05-02T15:28:34Z</time></trkpt><trkpt lat="40.32221198262175" lon="15.032666530630205"><ele>181.0</ele><time>2026-05-02T15:28:35Z</time></trkpt><trkpt lat="40.322251848843045" lon="15.03250297976601"><ele>181.0</ele><time>2026-05-02T15:28:36Z</time></trkpt><trkpt lat="40.322294275325575" lon="15.032339989741077"><ele>181.0</ele><time>2026-05-02T15:28:37Z</time></trkpt><trkpt lat="40.32233534732898" lon="15.032182632185094"><ele>181.0</ele><time>2026-05-02T15:28:38Z</time></trkpt><trkpt lat="40.3223654747714" lon="15.03201824657091"><ele>181.0</ele><time>2026-05-02T15:28:39Z</time></trkpt><trkpt lat="40.32238511921924" lon="15.031851612011826"><ele>181.0</ele><time>2026-05-02T15:28:40Z</time></trkpt><trkpt lat="40.32241129306719" lon="15.031698057824382"><ele>181.0</ele><time>2026-05-02T15:28:41Z</time></trkpt><trkpt lat="40.32243628056533" lon="15.03153688807348"><ele>181.0</ele><time>2026-05-02T15:28:42Z</time></trkpt><trkpt lat="40.32245688350501" lon="15.031379018773995"><ele>181.0</ele><time>2026-05-02T15:28:43Z</time></trkpt><trkpt lat="40.32246949847165" lon="15.031223248183428"><ele>180.5</ele><time>2026-05-02T15:28:44Z</time></trkpt><trkpt lat="40.32248749759053" lon="15.031065744232732"><ele>180.0</ele><time>2026-05-02T15:28:45Z</time></trkpt><trkpt lat="40.32249956461316" lon="15.030907981069078"><ele>179.5</ele><time>2026-05-02T15:28:46Z</time></trkpt><trkpt lat="40.3224941534443" lon="15.030749219739489"><ele>179.0</ele><time>2026-05-02T15:28:47Z</time></trkpt><trkpt lat="40.32248351640634" lon="15.030595109330966"><ele>177.5</ele><time>2026-05-02T15:28:48Z</time></trkpt><trkpt lat="40.32246911962169" lon="15.03043663203279"><ele>176.0</ele><time>2026-05-02T15:28:49Z</time></trkpt><trkpt lat="40.3224580627174" lon="15.030271986466477"><ele>174.5</ele><time>2026-05-02T15:28:50Z</time></trkpt><trkpt lat="40.32245552152377" lon="15.030108269434495"><ele>173.0</ele><time>2026-05-02T15:28:51Z</time></trkpt><trkpt lat="40.32247505818239" lon="15.029941214263745"><ele>170.75</ele><time>2026-05-02T15:28:52Z</time></trkpt><trkpt lat="40.32249886227183" lon="15.029771101189823"><ele>168.5</ele><time>2026-05-02T15:28:53Z</time></trkpt><trkpt lat="40.32251382837397" lon="15.029592240931116"><ele>166.25</ele><time>2026-05-02T15:28:54Z</time></trkpt><trkpt lat="40.322514493404704" lon="15.029409140416853"><ele>164.0</ele><time>2026-05-02T15:28:55Z</time></trkpt><trkpt lat="40.32251813197857" lon="15.029237453972044"><ele>160.75</ele><time>2026-05-02T15:28:56Z</time></trkpt><trkpt lat="40.322526911001894" lon="15.029067093406441"><ele>157.5</ele><time>2026-05-02T15:28:57Z</time></trkpt><trkpt lat="40.32254278969901" lon="15.028889565055591"><ele>154.25</ele><time>2026-05-02T15:28:58Z</time></trkpt><trkpt lat="40.322583321000025" lon="15.028704137140206"><ele>151.0</ele><time>2026-05-02T15:28:59Z</time></trkpt><trkpt lat="40.32262643881072" lon="15.028513607674746"><ele>151.0</ele><time>2026-05-02T15:29:00Z</time></trkpt><trkpt lat="40.32267306665895" lon="15.028312357562806"><ele>151.0</ele><time>2026-05-02T15:29:01Z</time></trkpt><trkpt lat="40.322725014262545" lon="15.02809921393185"><ele>151.0</ele><time>2026-05-02T15:29:02Z</time></trkpt><trkpt lat="40.32278514183472" lon="15.027893049602257"><ele>145.33333333333334</ele><time>2026-05-02T15:29:03Z</time></trkpt><trkpt lat="40.32284601838021" lon="15.027674104217043"><ele>139.66666666666666</ele><time>2026-05-02T15:29:04Z</time></trkpt><trkpt lat="40.322906003732506" lon="15.027446356021215"><ele>134.0</ele><time>2026-05-02T15:29:05Z</time></trkpt><trkpt lat="40.322963602087704" lon="15.027208156973007"><ele>132.33333333333331</ele><time>2026-05-02T15:29:06Z</time></trkpt><trkpt lat="40.323021522599014" lon="15.026999269560143"><ele>130.66666666666666</ele><time>2026-05-02T15:29:07Z</time></trkpt><trkpt lat="40.32307135417907" lon="15.02680820134224"><ele>129.0</ele><time>2026-05-02T15:29:08Z</time></trkpt><trkpt lat="40.32311227574783" lon="15.026648010715453"><ele>125.25</ele><time>2026-05-02T15:29:09Z</time></trkpt><trkpt lat="40.3231509978908" lon="15.026500080333356"><ele>121.5</ele><time>2026-05-02T15:29:10Z</time></trkpt><trkpt lat="40.323208925120475" lon="15.0263674258125"><ele>117.75</ele><time>2026-05-02T15:29:11Z</time></trkpt><trkpt lat="40.323290462268716" lon="15.026237184428432"><ele>114.0</ele><time>2026-05-02T15:29:12Z</time></trkpt><trkpt lat="40.32337650330602" lon="15.02612371467376"><ele>114.0</ele><time>2026-05-02T15:29:13Z</time></trkpt><trkpt lat="40.32345771968189" lon="15.026007803118087"><ele>114.0</ele><time>2026-05-02T15:29:14Z</time></trkpt><trkpt lat="40.32350622229112" lon="15.02584604834136"><ele>114.0</ele><time>2026-05-02T15:29:15Z</time></trkpt><trkpt lat="40.32352760288787" lon="15.025659189280061"><ele>114.0</ele><time>2026-05-02T15:29:16Z</time></trkpt><trkpt lat="40.32353127328533" lon="15.025469027707851"><ele>111.5</ele><time>2026-05-02T15:29:17Z</time></trkpt><trkpt lat="40.32353077954669" lon="15.025275918068461"><ele>109.0</ele><time>2026-05-02T15:29:18Z</time></trkpt><trkpt lat="40.323538370966915" lon="15.025088512029507"><ele>106.5</ele><time>2026-05-02T15:29:19Z</time></trkpt><trkpt lat="40.32355178358138" lon="15.024913606102915"><ele>104.0</ele><time>2026-05-02T15:29:20Z</time></trkpt><trkpt lat="40.3235843451337" lon="15.024769335290182"><ele>102.0</ele><time>2026-05-02T15:29:21Z</time></trkpt><trkpt lat="40.32360872555144" lon="15.024605012636277"><ele>100.0</ele><time>2026-05-02T15:29:22Z</time></trkpt><trkpt lat="40.32364783353998" lon="15.024451643504023"><ele>98.0</ele><time>2026-05-02T15:29:23Z</time></trkpt><trkpt lat="40.32369480285488" lon="15.024307103545228"><ele>96.0</ele><time>2026-05-02T15:29:24Z</time></trkpt><trkpt lat="40.323742688463895" lon="15.024169932058388"><ele>96.75</ele><time>2026-05-02T15:29:25Z</time></trkpt><trkpt lat="40.32379008545798" lon="15.024038555326314"><ele>97.5</ele><time>2026-05-02T15:29:26Z</time></trkpt><trkpt lat="40.32385448278848" lon="15.023913813241121"><ele>98.25</ele><time>2026-05-02T15:29:27Z</time></trkpt><trkpt lat="40.323909630777415" lon="15.023784369564975"><ele>99.0</ele><time>2026-05-02T15:29:28Z</time></trkpt><trkpt lat="40.323967624585435" lon="15.023659062000169"><ele>99.0</ele><time>2026-05-02T15:29:29Z</time></trkpt><trkpt lat="40.32400898172749" lon="15.023524265096441"><ele>99.0</ele><time>2026-05-02T15:29:30Z</time></trkpt><trkpt lat="40.32403026388643" lon="15.023384799585894"><ele>99.0</ele><time>2026-05-02T15:29:31Z</time></trkpt><trkpt lat="40.3240405080231" lon="15.02323855573448"><ele>99.0</ele><time>2026-05-02T15:29:32Z</time></trkpt><trkpt lat="40.32404417219278" lon="15.02308538523118"><ele>99.0</ele><time>2026-05-02T15:29:33Z</time></trkpt><trkpt lat="40.3240301102984" lon="15.02293583543279"><ele>96.5</ele><time>2026-05-02T15:29:34Z</time></trkpt><trkpt lat="40.324036769117804" lon="15.02277420816625"><ele>94.0</ele><time>2026-05-02T15:29:35Z</time></trkpt><trkpt lat="40.3240364169155" lon="15.022615070530149"><ele>91.5</ele><time>2026-05-02T15:29:36Z</time></trkpt><trkpt lat="40.32402462351804" lon="15.022445476498564"><ele>89.0</ele><time>2026-05-02T15:29:37Z</time></trkpt><trkpt lat="40.32400374740927" lon="15.022275647454551"><ele>86.5</ele><time>2026-05-02T15:29:38Z</time></trkpt><trkpt lat="40.323984617539885" lon="15.022099038113838"><ele>84.0</ele><time>2026-05-02T15:29:39Z</time></trkpt><trkpt lat="40.3239745835617" lon="15.021917892910624"><ele>81.5</ele><time>2026-05-02T15:29:40Z</time></trkpt><trkpt lat="40.323983217706086" lon="15.021723937998454"><ele>79.0</ele><time>2026-05-02T15:29:41Z</time></trkpt><trkpt lat="40.324014521035004" lon="15.021529352494568"><ele>76.66666666666666</ele><time>2026-05-02T15:29:42Z</time></trkpt><trkpt lat="40.32406479287466" lon="15.021341359129273"><ele>74.33333333333333</ele><time>2026-05-02T15:29:43Z</time></trkpt><trkpt lat="40.32410237401149" lon="15.021146099765"><ele>72.0</ele><time>2026-05-02T15:29:44Z</time></trkpt><trkpt lat="40.32414935092522" lon="15.02094811663624"><ele>69.75</ele><time>2026-05-02T15:29:45Z</time></trkpt><trkpt lat="40.324173667793794" lon="15.020771327636885"><ele>67.5</ele><time>2026-05-02T15:29:46Z</time></trkpt><trkpt lat="40.32420392829274" lon="15.020609264793913"><ele>65.25</ele><time>2026-05-02T15:29:47Z</time></trkpt><trkpt lat="40.3242222485968" lon="15.020445707821915"><ele>63.0</ele><time>2026-05-02T15:29:48Z</time></trkpt><trkpt lat="40.3242781116018" lon="15.020303638805323"><ele>63.0</ele><time>2026-05-02T15:29:49Z</time></trkpt><trkpt lat="40.324359491622694" lon="15.020187854414775"><ele>63.0</ele><time>2026-05-02T15:29:50Z</time></trkpt><trkpt lat="40.324441095443866" lon="15.020121884252363"><ele>63.0</ele><time>2026-05-02T15:29:51Z</time></trkpt><trkpt lat="40.32450196630618" lon="15.020047411241135"><ele>63.0</ele><time>2026-05-02T15:29:52Z</time></trkpt><trkpt lat="40.324521978268926" lon="15.01993580386808"><ele>63.0</ele><time>2026-05-02T15:29:53Z</time></trkpt><trkpt lat="40.3244913488506" lon="15.01980785825398"><ele>60.0</ele><time>2026-05-02T15:29:54Z</time></trkpt><trkpt lat="40.32444634136261" lon="15.019701531636201"><ele>57.0</ele><time>2026-05-02T15:29:55Z</time></trkpt><trkpt lat="40.324443464715785" lon="15.019582539749184"><ele>54.0</ele><time>2026-05-02T15:29:56Z</time></trkpt><trkpt lat="40.324488852071404" lon="15.019449315772308"><ele>51.0</ele><time>2026-05-02T15:29:57Z</time></trkpt><trkpt lat="40.324592343515775" lon="15.019307816430317"><ele>48.0</ele><time>2026-05-02T15:29:58Z</time></trkpt><trkpt lat="40.32470384883281" lon="15.01920943202015"><ele>45.25</ele><time>2026-05-02T15:29:59Z</time></trkpt><trkpt lat="40.32481203851311" lon="15.019097465266142"><ele>42.5</ele><time>2026-05-02T15:30:00Z</time></trkpt><trkpt lat="40.32488896447673" lon="15.018943931969714"><ele>39.75</ele><time>2026-05-02T15:30:01Z</time></trkpt><trkpt lat="40.32495582630506" lon="15.018745422562388"><ele>37.0</ele><time>2026-05-02T15:30:02Z</time></trkpt><trkpt lat="40.32502029509104" lon="15.018554408813527"><ele>37.0</ele><time>2026-05-02T15:30:03Z</time></trkpt><trkpt lat="40.325088146196265" lon="15.018367507474574"><ele>37.0</ele><time>2026-05-02T15:30:04Z</time></trkpt><trkpt lat="40.32513507436746" lon="15.018164482853514"><ele>37.0</ele><time>2026-05-02T15:30:05Z</time></trkpt><trkpt lat="40.32516645199567" lon="15.017979521601651"><ele>36.2</ele><time>2026-05-02T15:30:06Z</time></trkpt><trkpt lat="40.3251889552122" lon="15.017836941056803"><ele>35.400000000000006</ele><time>2026-05-02T15:30:07Z</time></trkpt><trkpt lat="40.32521113454515" lon="15.017705815825806"><ele>34.599999999999994</ele><time>2026-05-02T15:30:08Z</time></trkpt><trkpt lat="40.32525111075743" lon="15.017610021048917"><ele>33.8</ele><time>2026-05-02T15:30:09Z</time></trkpt><trkpt lat="40.325304360821306" lon="15.017532338364669"><ele>33.0</ele><time>2026-05-02T15:30:10Z</time></trkpt><trkpt lat="40.32537752326818" lon="15.017470577672338"><ele>32.5</ele><time>2026-05-02T15:30:11Z</time></trkpt><trkpt lat="40.32545737776824" lon="15.017432559744787"><ele>32.0</ele><time>2026-05-02T15:30:12Z</time></trkpt><trkpt lat="40.32553567145958" lon="15.017410253899369"><ele>31.5</ele><time>2026-05-02T15:30:13Z</time></trkpt><trkpt lat="40.32562619233943" lon="15.017394966423762"><ele>31.0</ele><time>2026-05-02T15:30:14Z</time></trkpt><trkpt lat="40.32570390427912" lon="15.01737856555136"><ele>30.5</ele><time>2026-05-02T15:30:15Z</time></trkpt><trkpt lat="40.32577923528571" lon="15.017357230672127"><ele>30.0</ele><time>2026-05-02T15:30:16Z</time></trkpt><trkpt lat="40.32585795667562" lon="15.017348337034237"><ele>29.833333333333332</ele><time>2026-05-02T15:30:17Z</time></trkpt><trkpt lat="40.325936510092475" lon="15.017340408310226"><ele>29.666666666666664</ele><time>2026-05-02T15:30:18Z</time></trkpt><trkpt lat="40.326007849179085" lon="15.01732388034416"><ele>29.5</ele><time>2026-05-02T15:30:19Z</time></trkpt><trkpt lat="40.32608258537956" lon="15.017309513975412"><ele>29.333333333333332</ele><time>2026-05-02T15:30:20Z</time></trkpt><trkpt lat="40.32615992431966" lon="15.017295963284617"><ele>29.166666666666664</ele><time>2026-05-02T15:30:21Z</time></trkpt><trkpt lat="40.32622823955274" lon="15.017271445949683"><ele>29.0</ele><time>2026-05-02T15:30:22Z</time></trkpt><trkpt lat="40.32630554905722" lon="15.017255543043412"><ele>28.999999999999996</ele><time>2026-05-02T15:30:23Z</time></trkpt><trkpt lat="40.32638181720758" lon="15.017247774405789"><ele>29.0</ele><time>2026-05-02T15:30:24Z</time></trkpt><trkpt lat="40.32645194950383" lon="15.017231545888809"><ele>29.0</ele><time>2026-05-02T15:30:25Z</time></trkpt><trkpt lat="40.32653011185699" lon="15.017214359172431"><ele>29.0</ele><time>2026-05-02T15:30:26Z</time></trkpt><trkpt lat="40.32660643652952" lon="15.017194983772146"><ele>28.999999999999996</ele><time>2026-05-02T15:30:27Z</time></trkpt><trkpt lat="40.326679661720746" lon="15.017172776394016"><ele>29.0</ele><time>2026-05-02T15:30:28Z</time></trkpt><trkpt lat="40.32675723341688" lon="15.017151515520942"><ele>28.666666666666664</ele><time>2026-05-02T15:30:29Z</time></trkpt><trkpt lat="40.32683258730299" lon="15.017120587139239"><ele>28.333333333333332</ele><time>2026-05-02T15:30:30Z</time></trkpt><trkpt lat="40.32690350999252" lon="15.01711216194463"><ele>28.0</ele><time>2026-05-02T15:30:31Z</time></trkpt><trkpt lat="40.32697801341824" lon="15.017144800586582"><ele>27.666666666666664</ele><time>2026-05-02T15:30:32Z</time></trkpt><trkpt lat="40.32704783818992" lon="15.017201414859157"><ele>27.333333333333332</ele><time>2026-05-02T15:30:33Z</time></trkpt><trkpt lat="40.32711717245601" lon="15.017251410829271"><ele>27.0</ele><time>2026-05-02T15:30:34Z</time></trkpt><trkpt lat="40.327201606332245" lon="15.017272459417503"><ele>27.333333333333332</ele><time>2026-05-02T15:30:35Z</time></trkpt><trkpt lat="40.3272753350892" lon="15.017280181827065"><ele>27.666666666666664</ele><time>2026-05-02T15:30:36Z</time></trkpt><trkpt lat="40.32734902146593" lon="15.017279254105793"><ele>28.0</ele><time>2026-05-02T15:30:37Z</time></trkpt><trkpt lat="40.32742582376945" lon="15.01728695584605"><ele>28.333333333333332</ele><time>2026-05-02T15:30:38Z</time></trkpt><trkpt lat="40.32750158150993" lon="15.017291050742273"><ele>28.666666666666664</ele><time>2026-05-02T15:30:39Z</time></trkpt><trkpt lat="40.327576119215784" lon="15.017294237676037"><ele>29.0</ele><time>2026-05-02T15:30:40Z</time></trkpt><trkpt lat="40.327650793041364" lon="15.017301079037871"><ele>28.999999999999996</ele><time>2026-05-02T15:30:41Z</time></trkpt><trkpt lat="40.327726719900106" lon="15.017301335455338"><ele>29.0</ele><time>2026-05-02T15:30:42Z</time></trkpt><trkpt lat="40.327804178858955" lon="15.017296267484912"><ele>29.0</ele><time>2026-05-02T15:30:43Z</time></trkpt><trkpt lat="40.32788437425372" lon="15.017288327673636"><ele>29.0</ele><time>2026-05-02T15:30:44Z</time></trkpt><trkpt lat="40.32796275563791" lon="15.017274908789577"><ele>28.999999999999996</ele><time>2026-05-02T15:30:45Z</time></trkpt><trkpt lat="40.32803902210002" lon="15.017249726102413"><ele>29.0</ele><time>2026-05-02T15:30:46Z</time></trkpt><trkpt lat="40.328120341611175" lon="15.017220484077036"><ele>28.833333333333332</ele><time>2026-05-02T15:30:47Z</time></trkpt><trkpt lat="40.328193955231946" lon="15.017186074498685"><ele>28.666666666666664</ele><time>2026-05-02T15:30:48Z</time></trkpt><trkpt lat="40.32826718811549" lon="15.01715293360516"><ele>28.5</ele><time>2026-05-02T15:30:49Z</time></trkpt><trkpt lat="40.32834024574744" lon="15.017114716673166"><ele>28.333333333333336</ele><time>2026-05-02T15:30:50Z</time></trkpt><trkpt lat="40.32841611557971" lon="15.017091912550544"><ele>28.166666666666668</ele><time>2026-05-02T15:30:51Z</time></trkpt><trkpt lat="40.32849152921579" lon="15.01706159699266"><ele>28.0</ele><time>2026-05-02T15:30:52Z</time></trkpt><trkpt lat="40.32856574283725" lon="15.017024463477417"><ele>28.000000000000004</ele><time>2026-05-02T15:30:53Z</time></trkpt><trkpt lat="40.32863956259982" lon="15.016986458953157"><ele>28.0</ele><time>2026-05-02T15:30:54Z</time></trkpt><trkpt lat="40.328710354492735" lon="15.016944763635156"><ele>28.0</ele><time>2026-05-02T15:30:55Z</time></trkpt><trkpt lat="40.32878362634598" lon="15.0168998061154"><ele>28.0</ele><time>2026-05-02T15:30:56Z</time></trkpt><trkpt lat="40.3288556900967" lon="15.016856469784715"><ele>28.000000000000004</ele><time>2026-05-02T15:30:57Z</time></trkpt><trkpt lat="40.32893047826065" lon="15.016812408777737"><ele>28.0</ele><time>2026-05-02T15:30:58Z</time></trkpt><trkpt lat="40.329007175597894" lon="15.016771945166488"><ele>27.833333333333336</ele><time>2026-05-02T15:30:59Z</time></trkpt><trkpt lat="40.329082937741035" lon="15.016731577053154"><ele>27.666666666666668</ele><time>2026-05-02T15:31:00Z</time></trkpt><trkpt lat="40.32915655283852" lon="15.016686082290674"><ele>27.5</ele><time>2026-05-02T15:31:01Z</time></trkpt><trkpt lat="40.32922684648772" lon="15.016637103858908"><ele>27.333333333333336</ele><time>2026-05-02T15:31:02Z</time></trkpt><trkpt lat="40.32929695535581" lon="15.016586116694997"><ele>27.166666666666668</ele><time>2026-05-02T15:31:03Z</time></trkpt><trkpt lat="40.32936762579069" lon="15.016537014647742"><ele>27.0</ele><time>2026-05-02T15:31:04Z</time></trkpt><trkpt lat="40.32944019805693" lon="15.01647138797092"><ele>27.0</ele><time>2026-05-02T15:31:05Z</time></trkpt><trkpt lat="40.32951571883081" lon="15.016405244979172"><ele>27.000000000000004</ele><time>2026-05-02T15:31:06Z</time></trkpt><trkpt lat="40.32959649829467" lon="15.016333971240934"><ele>27.000000000000004</ele><time>2026-05-02T15:31:07Z</time></trkpt><trkpt lat="40.32967283988544" lon="15.016260441690104"><ele>27.0</ele><time>2026-05-02T15:31:08Z</time></trkpt><trkpt lat="40.32974679676539" lon="15.01618677452328"><ele>27.0</ele><time>2026-05-02T15:31:09Z</time></trkpt><trkpt lat="40.329819592571994" lon="15.016120687946954"><ele>27.333333333333332</ele><time>2026-05-02T15:31:10Z</time></trkpt><trkpt lat="40.32989172931523" lon="15.01605601009224"><ele>27.666666666666664</ele><time>2026-05-02T15:31:11Z</time></trkpt><trkpt lat="40.32995956697737" lon="15.015996109298415"><ele>28.0</ele><time>2026-05-02T15:31:12Z</time></trkpt><trkpt lat="40.33002783901649" lon="15.015926951379932"><ele>28.333333333333332</ele><time>2026-05-02T15:31:13Z</time></trkpt><trkpt lat="40.3300977571293" lon="15.015855550049224"><ele>28.666666666666664</ele><time>2026-05-02T15:31:14Z</time></trkpt><trkpt lat="40.33017276181634" lon="15.01578240724884"><ele>29.0</ele><time>2026-05-02T15:31:15Z</time></trkpt><trkpt lat="40.33024774830836" lon="15.015709460963842"><ele>28.499999999999996</ele><time>2026-05-02T15:31:16Z</time></trkpt><trkpt lat="40.33031987376823" lon="15.015637777178334"><ele>28.0</ele><time>2026-05-02T15:31:17Z</time></trkpt><trkpt lat="40.33038892372881" lon="15.015564861855877"><ele>27.5</ele><time>2026-05-02T15:31:18Z</time></trkpt><trkpt lat="40.33045738262819" lon="15.015498814576453"><ele>27.0</ele><time>2026-05-02T15:31:19Z</time></trkpt><trkpt lat="40.330525650236055" lon="15.015437304750344"><ele>26.499999999999996</ele><time>2026-05-02T15:31:20Z</time></trkpt><trkpt lat="40.33059217454969" lon="15.015373021051875"><ele>26.0</ele><time>2026-05-02T15:31:21Z</time></trkpt><trkpt lat="40.33066667443281" lon="15.015317239533811"><ele>25.999999999999996</ele><time>2026-05-02T15:31:22Z</time></trkpt><trkpt lat="40.33074304514954" lon="15.015276218638935"><ele>26.0</ele><time>2026-05-02T15:31:23Z</time></trkpt><trkpt lat="40.33082114770016" lon="15.015231602655355"><ele>26.0</ele><time>2026-05-02T15:31:24Z</time></trkpt><trkpt lat="40.330899327136116" lon="15.015192745199874"><ele>26.0</ele><time>2026-05-02T15:31:25Z</time></trkpt><trkpt lat="40.330973517803194" lon="15.015148737483182"><ele>25.999999999999996</ele><time>2026-05-02T15:31:26Z</time></trkpt><trkpt lat="40.331046502086956" lon="15.015108744068527"><ele>26.0</ele><time>2026-05-02T15:31:27Z</time></trkpt><trkpt lat="40.33111864801811" lon="15.015061811740361"><ele>25.999999999999996</ele><time>2026-05-02T15:31:28Z</time></trkpt><trkpt lat="40.33119087913586" lon="15.015023045114877"><ele>26.0</ele><time>2026-05-02T15:31:29Z</time></trkpt><trkpt lat="40.33126165908692" lon="15.01497968649998"><ele>26.0</ele><time>2026-05-02T15:31:30Z</time></trkpt><trkpt lat="40.33133168904066" lon="15.014945712177003"><ele>26.0</ele><time>2026-05-02T15:31:31Z</time></trkpt><trkpt lat="40.33140550465072" lon="15.014914296167195"><ele>25.999999999999996</ele><time>2026-05-02T15:31:32Z</time></trkpt><trkpt lat="40.331480016595904" lon="15.014877703171015"><ele>26.0</ele><time>2026-05-02T15:31:33Z</time></trkpt><trkpt lat="40.33155109691257" lon="15.014843075843695"><ele>25.71428571428571</ele><time>2026-05-02T15:31:34Z</time></trkpt><trkpt lat="40.33161861567351" lon="15.014800146706758"><ele>25.42857142857143</ele><time>2026-05-02T15:31:35Z</time></trkpt><trkpt lat="40.33168796113641" lon="15.014763638239788"><ele>25.142857142857142</ele><time>2026-05-02T15:31:36Z</time></trkpt><trkpt lat="40.33175436084478" lon="15.014724842470951"><ele>24.857142857142854</ele><time>2026-05-02T15:31:37Z</time></trkpt><trkpt lat="40.331818150887656" lon="15.014682230602466"><ele>24.57142857142857</ele><time>2026-05-02T15:31:38Z</time></trkpt><trkpt lat="40.331879739574305" lon="15.01463187295981"><ele>24.285714285714285</ele><time>2026-05-02T15:31:39Z</time></trkpt><trkpt lat="40.33193605414505" lon="15.014579954761633"><ele>24.0</ele><time>2026-05-02T15:31:40Z</time></trkpt><trkpt lat="40.33199482055737" lon="15.014533305092426"><ele>24.0</ele><time>2026-05-02T15:31:41Z</time></trkpt><trkpt lat="40.332059239268546" lon="15.014482855630884"><ele>24.0</ele><time>2026-05-02T15:31:42Z</time></trkpt><trkpt lat="40.33212562334273" lon="15.014434943408332"><ele>24.0</ele><time>2026-05-02T15:31:43Z</time></trkpt><trkpt lat="40.33220204353865" lon="15.014402192567017"><ele>24.0</ele><time>2026-05-02T15:31:44Z</time></trkpt><trkpt lat="40.332276858964526" lon="15.014374205710409"><ele>24.0</ele><time>2026-05-02T15:31:45Z</time></trkpt><trkpt lat="40.33234940070155" lon="15.014347087267552"><ele>24.0</ele><time>2026-05-02T15:31:46Z</time></trkpt><trkpt lat="40.33242139942198" lon="15.014332797782465"><ele>24.166666666666668</ele><time>2026-05-02T15:31:47Z</time></trkpt><trkpt lat="40.332498430659776" lon="15.014318438401734"><ele>24.333333333333336</ele><time>2026-05-02T15:31:48Z</time></trkpt><trkpt lat="40.33257547014677" lon="15.014306692969667"><ele>24.5</ele><time>2026-05-02T15:31:49Z</time></trkpt><trkpt lat="40.332651159895946" lon="15.014295027075377"><ele>24.666666666666668</ele><time>2026-05-02T15:31:50Z</time></trkpt><trkpt lat="40.332727146259714" lon="15.014279992492648"><ele>24.833333333333336</ele><time>2026-05-02T15:31:51Z</time></trkpt><trkpt lat="40.33280279404074" lon="15.014274372530899"><ele>25.0</ele><time>2026-05-02T15:31:52Z</time></trkpt><trkpt lat="40.33287718865848" lon="15.014270368373637"><ele>25.000000000000004</ele><time>2026-05-02T15:31:53Z</time></trkpt><trkpt lat="40.332952619121635" lon="15.014266677043596"><ele>25.0</ele><time>2026-05-02T15:31:54Z</time></trkpt><trkpt lat="40.33302820962018" lon="15.014258812254354"><ele>25.0</ele><time>2026-05-02T15:31:55Z</time></trkpt><trkpt lat="40.333095267904795" lon="15.014249490447733"><ele>25.0</ele><time>2026-05-02T15:31:56Z</time></trkpt><trkpt lat="40.33316120755273" lon="15.01423678588104"><ele>25.0</ele><time>2026-05-02T15:31:57Z</time></trkpt><trkpt lat="40.333228206586504" lon="15.014217468376533"><ele>25.000000000000004</ele><time>2026-05-02T15:31:58Z</time></trkpt><trkpt lat="40.333292540938935" lon="15.01418608775341"><ele>25.0</ele><time>2026-05-02T15:31:59Z</time></trkpt><trkpt lat="40.333355890464325" lon="15.014160343935579"><ele>24.2</ele><time>2026-05-02T15:32:00Z</time></trkpt><trkpt lat="40.333421468953546" lon="15.014137824248762"><ele>23.4</ele><time>2026-05-02T15:32:01Z</time></trkpt><trkpt lat="40.33348432677301" lon="15.014118181506463"><ele>22.6</ele><time>2026-05-02T15:32:02Z</time></trkpt><trkpt lat="40.33360644440487" lon="15.014092121907584"><ele>21.8</ele><time>2026-05-02T15:32:04Z</time></trkpt><trkpt lat="40.333727920325735" lon="15.014072187160716"><ele>21.0</ele><time>2026-05-02T15:32:06Z</time></trkpt><trkpt lat="40.333831184920264" lon="15.014077448904718"><ele>21.6</ele><time>2026-05-02T15:32:08Z</time></trkpt><trkpt lat="40.33392543274443" lon="15.014081632628365"><ele>22.200000000000003</ele><time>2026-05-02T15:32:10Z</time></trkpt><trkpt lat="40.33403312692292" lon="15.014166162896897"><ele>22.799999999999997</ele><time>2026-05-02T15:32:12Z</time></trkpt><trkpt lat="40.33411065091833" lon="15.014279483600172"><ele>23.4</ele><time>2026-05-02T15:32:13.999Z</time></trkpt><trkpt lat="40.33417779812594" lon="15.014393944671125"><ele>24.0</ele><time>2026-05-02T15:32:16Z</time></trkpt><trkpt lat="40.33423421125029" lon="15.014505395110723"><ele>24.666666666666668</ele><time>2026-05-02T15:32:18Z</time></trkpt><trkpt lat="40.3342964618944" lon="15.01460566663004"><ele>25.333333333333336</ele><time>2026-05-02T15:32:20Z</time></trkpt><trkpt lat="40.33434188952205" lon="15.014701025190174"><ele>26.0</ele><time>2026-05-02T15:32:22Z</time></trkpt><trkpt lat="40.33436889786272" lon="15.01477634447485"><ele>26.666666666666668</ele><time>2026-05-02T15:32:24Z</time></trkpt><trkpt lat="40.33442420154929" lon="15.014831695802282"><ele>27.333333333333336</ele><time>2026-05-02T15:32:26Z</time></trkpt><trkpt lat="40.334528100703984" lon="15.014819357124296"><ele>28.0</ele><time>2026-05-02T15:32:28Z</time></trkpt><trkpt lat="40.33458752927033" lon="15.014785855559712"><ele>28.0</ele><time>2026-05-02T15:32:29Z</time></trkpt><trkpt lat="40.33470794112354" lon="15.014725785923025"><ele>27.999999999999996</ele><time>2026-05-02T15:32:31Z</time></trkpt><trkpt lat="40.33477831935836" lon="15.014682323635016"><ele>27.999999999999996</ele><time>2026-05-02T15:32:32Z</time></trkpt><trkpt lat="40.334844466740144" lon="15.014633346090713"><ele>28.0</ele><time>2026-05-02T15:32:33Z</time></trkpt><trkpt lat="40.334909313261626" lon="15.01456883998501"><ele>28.0</ele><time>2026-05-02T15:32:34Z</time></trkpt><trkpt lat="40.3349778730878" lon="15.014499967538177"><ele>27.833333333333336</ele><time>2026-05-02T15:32:35Z</time></trkpt><trkpt lat="40.33504600822997" lon="15.014427556271631"><ele>27.666666666666668</ele><time>2026-05-02T15:32:36Z</time></trkpt><trkpt lat="40.335112430711725" lon="15.014358022148125"><ele>27.5</ele><time>2026-05-02T15:32:37Z</time></trkpt><trkpt lat="40.33518062650632" lon="15.014281297803002"><ele>27.333333333333336</ele><time>2026-05-02T15:32:38Z</time></trkpt><trkpt lat="40.33525223934104" lon="15.014209852409758"><ele>27.166666666666668</ele><time>2026-05-02T15:32:39Z</time></trkpt><trkpt lat="40.33532133651604" lon="15.014137240346482"><ele>27.0</ele><time>2026-05-02T15:32:40Z</time></trkpt><trkpt lat="40.33538162498311" lon="15.01405378555072"><ele>27.0</ele><time>2026-05-02T15:32:41Z</time></trkpt><trkpt lat="40.33543784114635" lon="15.013968917731104"><ele>27.0</ele><time>2026-05-02T15:32:42Z</time></trkpt><trkpt lat="40.335494925275626" lon="15.013885832928883"><ele>27.0</ele><time>2026-05-02T15:32:43Z</time></trkpt><trkpt lat="40.33555683490297" lon="15.013817713494426"><ele>27.0</ele><time>2026-05-02T15:32:44Z</time></trkpt><trkpt lat="40.33561873889137" lon="15.013743823079146"><ele>27.0</ele><time>2026-05-02T15:32:45Z</time></trkpt><trkpt lat="40.33568385070067" lon="15.013665039951322"><ele>27.0</ele><time>2026-05-02T15:32:46Z</time></trkpt><trkpt lat="40.33575244874338" lon="15.013596600012738"><ele>27.200000000000003</ele><time>2026-05-02T15:32:47Z</time></trkpt><trkpt lat="40.335820483580044" lon="15.013518699939455"><ele>27.400000000000002</ele><time>2026-05-02T15:32:48Z</time></trkpt><trkpt lat="40.335893059549775" lon="15.01343726881997"><ele>27.599999999999998</ele><time>2026-05-02T15:32:49Z</time></trkpt><trkpt lat="40.335966885262394" lon="15.013365300784574"><ele>27.799999999999997</ele><time>2026-05-02T15:32:50Z</time></trkpt><trkpt lat="40.336044008083306" lon="15.013293340122793"><ele>28.0</ele><time>2026-05-02T15:32:51Z</time></trkpt><trkpt lat="40.33611562805649" lon="15.013228834065853"><ele>27.666666666666668</ele><time>2026-05-02T15:32:52Z</time></trkpt><trkpt lat="40.33619789797687" lon="15.013170863190894"><ele>27.333333333333336</ele><time>2026-05-02T15:32:53Z</time></trkpt><trkpt lat="40.336277326753994" lon="15.013110370392235"><ele>27.0</ele><time>2026-05-02T15:32:54Z</time></trkpt><trkpt lat="40.33634938272342" lon="15.013040529351015"><ele>26.666666666666664</ele><time>2026-05-02T15:32:55Z</time></trkpt><trkpt lat="40.33641624435211" lon="15.012976602481752"><ele>26.333333333333332</ele><time>2026-05-02T15:32:56Z</time></trkpt><trkpt lat="40.33648808940791" lon="15.01292302674512"><ele>26.0</ele><time>2026-05-02T15:32:57Z</time></trkpt><trkpt lat="40.336554706339264" lon="15.012855154273895"><ele>25.999999999999996</ele><time>2026-05-02T15:32:58Z</time></trkpt><trkpt lat="40.33661865566802" lon="15.012798200296483"><ele>26.0</ele><time>2026-05-02T15:32:59Z</time></trkpt><trkpt lat="40.33668860466629" lon="15.012731204217912"><ele>26.0</ele><time>2026-05-02T15:33:00Z</time></trkpt><trkpt lat="40.33675706662697" lon="15.012674231650836"><ele>26.0</ele><time>2026-05-02T15:33:01Z</time></trkpt><trkpt lat="40.33682497490126" lon="15.012613097188215"><ele>25.999999999999996</ele><time>2026-05-02T15:33:02Z</time></trkpt><trkpt lat="40.3368921012595" lon="15.012543268793662"><ele>26.0</ele><time>2026-05-02T15:33:03Z</time></trkpt><trkpt lat="40.33695743837645" lon="15.012491248739035"><ele>25.833333333333332</ele><time>2026-05-02T15:33:04Z</time></trkpt><trkpt lat="40.337021714500686" lon="15.01242655273779"><ele>25.666666666666664</ele><time>2026-05-02T15:33:05Z</time></trkpt><trkpt lat="40.337087284339724" lon="15.012366918910763"><ele>25.5</ele><time>2026-05-02T15:33:06Z</time></trkpt><trkpt lat="40.33715966400793" lon="15.012313068528934"><ele>25.333333333333336</ele><time>2026-05-02T15:33:07Z</time></trkpt><trkpt lat="40.33721948513567" lon="15.012253511524623"><ele>25.166666666666668</ele><time>2026-05-02T15:33:08Z</time></trkpt><trkpt lat="40.33728092885109" lon="15.01218451446854"><ele>25.0</ele><time>2026-05-02T15:33:09Z</time></trkpt><trkpt lat="40.33734713538569" lon="15.012095613566785"><ele>25.000000000000004</ele><time>2026-05-02T15:33:10Z</time></trkpt><trkpt lat="40.33739840965316" lon="15.012024277068893"><ele>25.0</ele><time>2026-05-02T15:33:11Z</time></trkpt><trkpt lat="40.33745586151676" lon="15.011977075591023"><ele>25.0</ele><time>2026-05-02T15:33:12Z</time></trkpt><trkpt lat="40.337509417033765" lon="15.011910361495055"><ele>25.0</ele><time>2026-05-02T15:33:13Z</time></trkpt><trkpt lat="40.33756504530958" lon="15.011842335348708"><ele>25.000000000000004</ele><time>2026-05-02T15:33:14Z</time></trkpt><trkpt lat="40.33762767866708" lon="15.011772881144003"><ele>25.0</ele><time>2026-05-02T15:33:15Z</time></trkpt><trkpt lat="40.337684795260856" lon="15.011702717557956"><ele>25.000000000000004</ele><time>2026-05-02T15:33:16Z</time></trkpt><trkpt lat="40.33773538256557" lon="15.011633995912984"><ele>25.0</ele><time>2026-05-02T15:33:17Z</time></trkpt><trkpt lat="40.33778433584203" lon="15.011563355966988"><ele>25.0</ele><time>2026-05-02T15:33:18Z</time></trkpt><trkpt lat="40.337831743971236" lon="15.011498020213597"><ele>25.0</ele><time>2026-05-02T15:33:19Z</time></trkpt><trkpt lat="40.33789353155185" lon="15.011424251871356"><ele>25.000000000000004</ele><time>2026-05-02T15:33:20Z</time></trkpt><trkpt lat="40.33793930685214" lon="15.011347384100121"><ele>25.0</ele><time>2026-05-02T15:33:21Z</time></trkpt><trkpt lat="40.33801052684766" lon="15.011291685174582"><ele>24.666666666666668</ele><time>2026-05-02T15:33:22Z</time></trkpt><trkpt lat="40.33806831318457" lon="15.011216056121686"><ele>24.333333333333336</ele><time>2026-05-02T15:33:23Z</time></trkpt><trkpt lat="40.33812827017025" lon="15.011145781979195"><ele>24.0</ele><time>2026-05-02T15:33:24Z</time></trkpt><trkpt lat="40.33818801362243" lon="15.01107812050066"><ele>23.666666666666668</ele><time>2026-05-02T15:33:25Z</time></trkpt><trkpt lat="40.33824803056678" lon="15.011009427094024"><ele>23.333333333333336</ele><time>2026-05-02T15:33:26Z</time></trkpt><trkpt lat="40.33830805497541" lon="15.010943749885232"><ele>23.0</ele><time>2026-05-02T15:33:27Z</time></trkpt><trkpt lat="40.33836381304085" lon="15.010871847934292"><ele>23.0</ele><time>2026-05-02T15:33:28Z</time></trkpt><trkpt lat="40.3384193006786" lon="15.01080339909791"><ele>23.0</ele><time>2026-05-02T15:33:29Z</time></trkpt><trkpt lat="40.33847429452166" lon="15.010741162610252"><ele>23.0</ele><time>2026-05-02T15:33:30Z</time></trkpt><trkpt lat="40.33852764655648" lon="15.010673036553241"><ele>23.0</ele><time>2026-05-02T15:33:31Z</time></trkpt><trkpt lat="40.3385802454164" lon="15.010606918683283"><ele>23.0</ele><time>2026-05-02T15:33:32Z</time></trkpt><trkpt lat="40.338630324005194" lon="15.010548237663105"><ele>23.0</ele><time>2026-05-02T15:33:33Z</time></trkpt><trkpt lat="40.338674570970134" lon="15.010485418682949"><ele>23.0</ele><time>2026-05-02T15:33:34Z</time></trkpt><trkpt lat="40.33871376111904" lon="15.010418415426424"><ele>23.0</ele><time>2026-05-02T15:33:35Z</time></trkpt><trkpt lat="40.3387963268836" lon="15.010305082675297"><ele>23.0</ele><time>2026-05-02T15:33:37Z</time></trkpt><trkpt lat="40.33887456291296" lon="15.010181188240704"><ele>23.0</ele><time>2026-05-02T15:33:39Z</time></trkpt><trkpt lat="40.33891162185765" lon="15.010110929599504"><ele>23.0</ele><time>2026-05-02T15:33:40Z</time></trkpt><trkpt lat="40.3389513048137" lon="15.010041947542812"><ele>23.0</ele><time>2026-05-02T15:33:41Z</time></trkpt><trkpt lat="40.338991267961596" lon="15.00997265142653"><ele>23.0</ele><time>2026-05-02T15:33:42Z</time></trkpt><trkpt lat="40.33903119469652" lon="15.00990604731206"><ele>22.571428571428573</ele><time>2026-05-02T15:33:43Z</time></trkpt><trkpt lat="40.33906918432298" lon="15.009832118275705"><ele>22.142857142857142</ele><time>2026-05-02T15:33:44Z</time></trkpt><trkpt lat="40.33911458839553" lon="15.00975849677159"><ele>21.714285714285715</ele><time>2026-05-02T15:33:45Z</time></trkpt><trkpt lat="40.339156432001495" lon="15.009687752465675"><ele>21.285714285714285</ele><time>2026-05-02T15:33:46Z</time></trkpt><trkpt lat="40.33919447648392" lon="15.009609485977393"><ele>20.857142857142858</ele><time>2026-05-02T15:33:47Z</time></trkpt><trkpt lat="40.339230437907595" lon="15.009533557641054"><ele>20.428571428571427</ele><time>2026-05-02T15:33:48Z</time></trkpt><trkpt lat="40.339268072355125" lon="15.009458562527008"><ele>20.0</ele><time>2026-05-02T15:33:49Z</time></trkpt><trkpt lat="40.33930920403113" lon="15.009380987382885"><ele>20.0</ele><time>2026-05-02T15:33:50Z</time></trkpt><trkpt lat="40.33935451893022" lon="15.009317019740553"><ele>20.0</ele><time>2026-05-02T15:33:51Z</time></trkpt><trkpt lat="40.33944137156071" lon="15.009211233895881"><ele>20.0</ele><time>2026-05-02T15:33:53Z</time></trkpt><trkpt lat="40.3395229552491" lon="15.009110461856805"><ele>20.0</ele><time>2026-05-02T15:33:55Z</time></trkpt><trkpt lat="40.3396120256594" lon="15.00902396238677"><ele>20.0</ele><time>2026-05-02T15:33:57Z</time></trkpt><trkpt lat="40.33971186602491" lon="15.008932091870305"><ele>20.166666666666668</ele><time>2026-05-02T15:33:59Z</time></trkpt><trkpt lat="40.339767823019734" lon="15.008886995496821"><ele>20.333333333333336</ele><time>2026-05-02T15:34:00Z</time></trkpt><trkpt lat="40.339831117345796" lon="15.00885577806121"><ele>20.5</ele><time>2026-05-02T15:34:01Z</time></trkpt><trkpt lat="40.33989040393599" lon="15.008812365289087"><ele>20.666666666666668</ele><time>2026-05-02T15:34:02Z</time></trkpt><trkpt lat="40.339960168231286" lon="15.008699808956603"><ele>20.833333333333332</ele><time>2026-05-02T15:34:03Z</time></trkpt><trkpt lat="40.34006907662665" lon="15.008652802716554"><ele>21.0</ele><time>2026-05-02T15:34:05Z</time></trkpt><trkpt lat="40.3401280663749" lon="15.008612550171481"><ele>21.0</ele><time>2026-05-02T15:34:06Z</time></trkpt><trkpt lat="40.340188044317124" lon="15.008566366356176"><ele>21.0</ele><time>2026-05-02T15:34:07Z</time></trkpt><trkpt lat="40.34030292836409" lon="15.00849924778842"><ele>21.0</ele><time>2026-05-02T15:34:09Z</time></trkpt><trkpt lat="40.340408797142125" lon="15.008421857655257"><ele>21.0</ele><time>2026-05-02T15:34:11Z</time></trkpt><trkpt lat="40.340465307022285" lon="15.008370946457914"><ele>21.0</ele><time>2026-05-02T15:34:12Z</time></trkpt><trkpt lat="40.340522464530665" lon="15.008332696996463"><ele>21.0</ele><time>2026-05-02T15:34:13Z</time></trkpt><trkpt lat="40.34057701196616" lon="15.008267079417026"><ele>20.428571428571427</ele><time>2026-05-02T15:34:14Z</time></trkpt><trkpt lat="40.340637824017755" lon="15.008229007702727"><ele>19.857142857142858</ele><time>2026-05-02T15:34:15Z</time></trkpt><trkpt lat="40.340694321177985" lon="15.008184336269837"><ele>19.285714285714285</ele><time>2026-05-02T15:34:16Z</time></trkpt><trkpt lat="40.340749228089365" lon="15.008123279795727"><ele>18.714285714285715</ele><time>2026-05-02T15:34:17Z</time></trkpt><trkpt lat="40.34080730579596" lon="15.008068802138917"><ele>18.142857142857142</ele><time>2026-05-02T15:34:18Z</time></trkpt><trkpt lat="40.3408665455046" lon="15.008022068343255"><ele>17.57142857142857</ele><time>2026-05-02T15:34:19Z</time></trkpt><trkpt lat="40.340936923635404" lon="15.007978127799953"><ele>17.0</ele><time>2026-05-02T15:34:20Z</time></trkpt><trkpt lat="40.34099168343135" lon="15.00791869751649"><ele>17.0</ele><time>2026-05-02T15:34:21Z</time></trkpt><trkpt lat="40.34104272856092" lon="15.007861322354069"><ele>17.0</ele><time>2026-05-02T15:34:22Z</time></trkpt><trkpt lat="40.34110079074729" lon="15.00781949564956"><ele>17.0</ele><time>2026-05-02T15:34:23Z</time></trkpt><trkpt lat="40.341155356214955" lon="15.007767285708857"><ele>17.0</ele><time>2026-05-02T15:34:24Z</time></trkpt><trkpt lat="40.341245642858674" lon="15.007687082776016"><ele>17.0</ele><time>2026-05-02T15:34:26Z</time></trkpt><trkpt lat="40.341294113778105" lon="15.00761519075457"><ele>17.0</ele><time>2026-05-02T15:34:27Z</time></trkpt><trkpt lat="40.341348951947275" lon="15.007557449564201"><ele>17.142857142857142</ele><time>2026-05-02T15:34:28Z</time></trkpt><trkpt lat="40.34139847699178" lon="15.007504074995273"><ele>17.285714285714285</ele><time>2026-05-02T15:34:29Z</time></trkpt><trkpt lat="40.34144837173668" lon="15.007436963644794"><ele>17.42857142857143</ele><time>2026-05-02T15:34:30Z</time></trkpt><trkpt lat="40.34149298052702" lon="15.007376828638836"><ele>17.57142857142857</ele><time>2026-05-02T15:34:31Z</time></trkpt><trkpt lat="40.34154652206136" lon="15.007317265463406"><ele>17.714285714285715</ele><time>2026-05-02T15:34:32Z</time></trkpt><trkpt lat="40.34159692097173" lon="15.007255422930623"><ele>17.857142857142858</ele><time>2026-05-02T15:34:33Z</time></trkpt><trkpt lat="40.34165147136153" lon="15.007194461714828"><ele>18.0</ele><time>2026-05-02T15:34:34Z</time></trkpt><trkpt lat="40.34170827894465" lon="15.007140185026453"><ele>18.0</ele><time>2026-05-02T15:34:35Z</time></trkpt><trkpt lat="40.34176369176455" lon="15.007074581269226"><ele>18.0</ele><time>2026-05-02T15:34:36Z</time></trkpt><trkpt lat="40.34182107959837" lon="15.007009316313837"><ele>18.0</ele><time>2026-05-02T15:34:37Z</time></trkpt><trkpt lat="40.34187543640116" lon="15.00693793502115"><ele>18.0</ele><time>2026-05-02T15:34:38Z</time></trkpt><trkpt lat="40.34193214395132" lon="15.006866896459961"><ele>18.0</ele><time>2026-05-02T15:34:39Z</time></trkpt><trkpt lat="40.341988258978404" lon="15.006798127581996"><ele>18.0</ele><time>2026-05-02T15:34:40Z</time></trkpt><trkpt lat="40.342045276037354" lon="15.006719246749908"><ele>18.166666666666668</ele><time>2026-05-02T15:34:41Z</time></trkpt><trkpt lat="40.342094205346626" lon="15.006648105421245"><ele>18.333333333333332</ele><time>2026-05-02T15:34:42Z</time></trkpt><trkpt lat="40.34213463232378" lon="15.006574257566774"><ele>18.5</ele><time>2026-05-02T15:34:43Z</time></trkpt><trkpt lat="40.342182472824845" lon="15.006499736395202"><ele>18.666666666666664</ele><time>2026-05-02T15:34:44Z</time></trkpt><trkpt lat="40.34227333511563" lon="15.006358277587735"><ele>18.833333333333332</ele><time>2026-05-02T15:34:46Z</time></trkpt><trkpt lat="40.342316615973616" lon="15.006280132553611"><ele>19.0</ele><time>2026-05-02T15:34:47Z</time></trkpt><trkpt lat="40.34236306674159" lon="15.006197682515442"><ele>19.0</ele><time>2026-05-02T15:34:48Z</time></trkpt><trkpt lat="40.342410148718045" lon="15.006113842614349"><ele>19.0</ele><time>2026-05-02T15:34:49Z</time></trkpt><trkpt lat="40.342461054065545" lon="15.006033704486297"><ele>19.0</ele><time>2026-05-02T15:34:50Z</time></trkpt><trkpt lat="40.34250764055592" lon="15.005947348949286"><ele>19.0</ele><time>2026-05-02T15:34:51Z</time></trkpt><trkpt lat="40.34255298536142" lon="15.005857940136309"><ele>19.0</ele><time>2026-05-02T15:34:52Z</time></trkpt><trkpt lat="40.34260401755545" lon="15.005770953815327"><ele>19.0</ele><time>2026-05-02T15:34:53Z</time></trkpt><trkpt lat="40.342656157891064" lon="15.00567960722592"><ele>18.333333333333332</ele><time>2026-05-02T15:34:54Z</time></trkpt><trkpt lat="40.342703642999574" lon="15.005583689034646"><ele>17.666666666666664</ele><time>2026-05-02T15:34:55Z</time></trkpt><trkpt lat="40.34275091394015" lon="15.005487642132776"><ele>17.0</ele><time>2026-05-02T15:34:56Z</time></trkpt><trkpt lat="40.34279963777261" lon="15.00539135186881"><ele>16.333333333333332</ele><time>2026-05-02T15:34:57Z</time></trkpt><trkpt lat="40.34285096907672" lon="15.005292560998704"><ele>15.666666666666666</ele><time>2026-05-02T15:34:58Z</time></trkpt><trkpt lat="40.342904989394846" lon="15.005191210311406"><ele>15.0</ele><time>2026-05-02T15:34:59Z</time></trkpt><trkpt lat="40.342959010620774" lon="15.005091675050826"><ele>15.0</ele><time>2026-05-02T15:35:00Z</time></trkpt><trkpt lat="40.34301283224854" lon="15.00498901626952"><ele>15.0</ele><time>2026-05-02T15:35:01Z</time></trkpt><trkpt lat="40.343062047483464" lon="15.004883248922718"><ele>15.0</ele><time>2026-05-02T15:35:02Z</time></trkpt><trkpt lat="40.343117963657626" lon="15.004779773672094"><ele>15.0</ele><time>2026-05-02T15:35:03Z</time></trkpt><trkpt lat="40.34317397635237" lon="15.004676844550447"><ele>15.0</ele><time>2026-05-02T15:35:04Z</time></trkpt><trkpt lat="40.343228363881416" lon="15.004572313980708"><ele>15.0</ele><time>2026-05-02T15:35:05Z</time></trkpt><trkpt lat="40.34328665456163" lon="15.004468016192739"><ele>15.0</ele><time>2026-05-02T15:35:06Z</time></trkpt><trkpt lat="40.34334209680311" lon="15.00436890767832"><ele>15.0</ele><time>2026-05-02T15:35:07Z</time></trkpt><trkpt lat="40.343397503210106" lon="15.004269342338436"><ele>15.0</ele><time>2026-05-02T15:35:08Z</time></trkpt><trkpt lat="40.34345531782985" lon="15.004173757287896"><ele>15.0</ele><time>2026-05-02T15:35:09Z</time></trkpt><trkpt lat="40.343511154313575" lon="15.004076800214577"><ele>15.0</ele><time>2026-05-02T15:35:10Z</time></trkpt><trkpt lat="40.343566112768954" lon="15.003983111601027"><ele>15.0</ele><time>2026-05-02T15:35:11Z</time></trkpt><trkpt lat="40.34362219258582" lon="15.00389455715941"><ele>15.0</ele><time>2026-05-02T15:35:12Z</time></trkpt><trkpt lat="40.34367861650072" lon="15.003807371603797"><ele>15.0</ele><time>2026-05-02T15:35:13Z</time></trkpt><trkpt lat="40.34373560592816" lon="15.003720682788694"><ele>15.0</ele><time>2026-05-02T15:35:14Z</time></trkpt><trkpt lat="40.343795334045" lon="15.003631565304637"><ele>15.0</ele><time>2026-05-02T15:35:15Z</time></trkpt><trkpt lat="40.34385374342765" lon="15.003547032701997"><ele>14.833333333333334</ele><time>2026-05-02T15:35:16Z</time></trkpt><trkpt lat="40.34391253037446" lon="15.003468162499072"><ele>14.666666666666668</ele><time>2026-05-02T15:35:17Z</time></trkpt><trkpt lat="40.343968631276006" lon="15.003394529477287"><ele>14.5</ele><time>2026-05-02T15:35:18Z</time></trkpt><trkpt lat="40.344029201035106" lon="15.003319562835081"><ele>14.333333333333334</ele><time>2026-05-02T15:35:19Z</time></trkpt><trkpt lat="40.344084063042175" lon="15.00324310180465"><ele>14.166666666666668</ele><time>2026-05-02T15:35:20Z</time></trkpt><trkpt lat="40.34414379376625" lon="15.003169687905679"><ele>14.0</ele><time>2026-05-02T15:35:21Z</time></trkpt><trkpt lat="40.34420817901249" lon="15.003109621540773"><ele>13.666666666666668</ele><time>2026-05-02T15:35:22Z</time></trkpt><trkpt lat="40.34427075468865" lon="15.003042135349114"><ele>13.333333333333334</ele><time>2026-05-02T15:35:23Z</time></trkpt><trkpt lat="40.34433036268739" lon="15.002978149305886"><ele>13.0</ele><time>2026-05-02T15:35:24Z</time></trkpt><trkpt lat="40.34439134039109" lon="15.002919673540974"><ele>12.666666666666668</ele><time>2026-05-02T15:35:25Z</time></trkpt><trkpt lat="40.34444716237153" lon="15.002855507720607"><ele>12.333333333333334</ele><time>2026-05-02T15:35:26Z</time></trkpt><trkpt lat="40.34450138557732" lon="15.00279497026982"><ele>12.0</ele><time>2026-05-02T15:35:27Z</time></trkpt><trkpt lat="40.34455925549834" lon="15.002739806632489"><ele>12.0</ele><time>2026-05-02T15:35:28Z</time></trkpt><trkpt lat="40.34461796026821" lon="15.00268174686663"><ele>12.0</ele><time>2026-05-02T15:35:29Z</time></trkpt><trkpt lat="40.34467791168405" lon="15.002617387067083"><ele>12.0</ele><time>2026-05-02T15:35:30Z</time></trkpt><trkpt lat="40.344742719807286" lon="15.002570321326381"><ele>12.0</ele><time>2026-05-02T15:35:31Z</time></trkpt><trkpt lat="40.344805009090386" lon="15.002512822062362"><ele>12.0</ele><time>2026-05-02T15:35:32Z</time></trkpt><trkpt lat="40.34487073083717" lon="15.00245714500727"><ele>12.0</ele><time>2026-05-02T15:35:33Z</time></trkpt><trkpt lat="40.344936623394" lon="15.002407169476145"><ele>11.833333333333334</ele><time>2026-05-02T15:35:34Z</time></trkpt><trkpt lat="40.34500439939345" lon="15.002352042577611"><ele>11.666666666666666</ele><time>2026-05-02T15:35:35Z</time></trkpt><trkpt lat="40.345074124387494" lon="15.002297313956262"><ele>11.5</ele><time>2026-05-02T15:35:36Z</time></trkpt><trkpt lat="40.345147114492825" lon="15.002247805220211"><ele>11.333333333333332</ele><time>2026-05-02T15:35:37Z</time></trkpt><trkpt lat="40.34521938419813" lon="15.002198870048622"><ele>11.166666666666666</ele><time>2026-05-02T15:35:38Z</time></trkpt><trkpt lat="40.34529172775345" lon="15.002147804169692"><ele>11.0</ele><time>2026-05-02T15:35:39Z</time></trkpt><trkpt lat="40.345366147316234" lon="15.00209197899702"><ele>11.0</ele><time>2026-05-02T15:35:40Z</time></trkpt><trkpt lat="40.34544112698626" lon="15.00203883202012"><ele>11.0</ele><time>2026-05-02T15:35:41Z</time></trkpt><trkpt lat="40.34551570521852" lon="15.001991300572659"><ele>11.0</ele><time>2026-05-02T15:35:42Z</time></trkpt><trkpt lat="40.3455896664445" lon="15.001936025911153"><ele>11.0</ele><time>2026-05-02T15:35:43Z</time></trkpt><trkpt lat="40.345664508906275" lon="15.001878478657419"><ele>11.0</ele><time>2026-05-02T15:35:44Z</time></trkpt><trkpt lat="40.345736643987806" lon="15.001828707514882"><ele>11.0</ele><time>2026-05-02T15:35:45Z</time></trkpt><trkpt lat="40.34578450761067" lon="15.001767776928622"><ele>11.0</ele><time>2026-05-02T15:35:46Z</time></trkpt><trkpt lat="40.34586370963714" lon="15.001704406670054"><ele>11.0</ele><time>2026-05-02T15:35:47Z</time></trkpt><trkpt lat="40.34594716867603" lon="15.001662855524506"><ele>11.0</ele><time>2026-05-02T15:35:48Z</time></trkpt><trkpt lat="40.34602387753598" lon="15.001617459677298"><ele>11.0</ele><time>2026-05-02T15:35:49Z</time></trkpt><trkpt lat="40.3460909555551" lon="15.001580161519339"><ele>11.0</ele><time>2026-05-02T15:35:50Z</time></trkpt><trkpt lat="40.346163236626246" lon="15.001549935025192"><ele>11.0</ele><time>2026-05-02T15:35:51Z</time></trkpt><trkpt lat="40.346222314040645" lon="15.001498575732699"><ele>11.0</ele><time>2026-05-02T15:35:52Z</time></trkpt><trkpt lat="40.346284320782715" lon="15.00147646676827"><ele>11.0</ele><time>2026-05-02T15:35:53Z</time></trkpt><trkpt lat="40.34634840625239" lon="15.001439255013677"><ele>11.0</ele><time>2026-05-02T15:35:54Z</time></trkpt><trkpt lat="40.346467888458314" lon="15.001380105464879"><ele>11.0</ele><time>2026-05-02T15:35:56Z</time></trkpt><trkpt lat="40.34657912170826" lon="15.00132118714988"><ele>11.0</ele><time>2026-05-02T15:35:58Z</time></trkpt><trkpt lat="40.34669154332247" lon="15.001273462092167"><ele>10.833333333333332</ele><time>2026-05-02T15:36:00Z</time></trkpt><trkpt lat="40.34681921776133" lon="15.001217088752343"><ele>10.666666666666666</ele><time>2026-05-02T15:36:02Z</time></trkpt><trkpt lat="40.346891040308755" lon="15.001193466309607"><ele>10.5</ele><time>2026-05-02T15:36:03Z</time></trkpt><trkpt lat="40.3469660008839" lon="15.001166435991674"><ele>10.333333333333334</ele><time>2026-05-02T15:36:04Z</time></trkpt><trkpt lat="40.347042387227106" lon="15.001150154817877"><ele>10.166666666666668</ele><time>2026-05-02T15:36:05Z</time></trkpt><trkpt lat="40.34712334315721" lon="15.001131996698762"><ele>10.0</ele><time>2026-05-02T15:36:06Z</time></trkpt><trkpt lat="40.34720451741709" lon="15.001114065691649"><ele>10.333333333333334</ele><time>2026-05-02T15:36:07Z</time></trkpt><trkpt lat="40.34726965265105" lon="15.001102970285592"><ele>10.666666666666668</ele><time>2026-05-02T15:36:08Z</time></trkpt><trkpt lat="40.34735061650769" lon="15.001079030810402"><ele>11.0</ele><time>2026-05-02T15:36:09Z</time></trkpt><trkpt lat="40.34742280161629" lon="15.001072631824824"><ele>11.333333333333334</ele><time>2026-05-02T15:36:10Z</time></trkpt><trkpt lat="40.347501527180626" lon="15.001063313099111"><ele>11.666666666666666</ele><time>2026-05-02T15:36:11Z</time></trkpt><trkpt lat="40.347585806564595" lon="15.001069676568601"><ele>12.0</ele><time>2026-05-02T15:36:12Z</time></trkpt><trkpt lat="40.34765875823301" lon="15.00105740021651"><ele>12.0</ele><time>2026-05-02T15:36:13Z</time></trkpt><trkpt lat="40.347734129501006" lon="15.001050267756396"><ele>12.0</ele><time>2026-05-02T15:36:14Z</time></trkpt><trkpt lat="40.347807004460805" lon="15.001049074043847"><ele>12.0</ele><time>2026-05-02T15:36:15Z</time></trkpt><trkpt lat="40.347885921229775" lon="15.001045858583726"><ele>12.0</ele><time>2026-05-02T15:36:16Z</time></trkpt><trkpt lat="40.34796829263475" lon="15.001051773483695"><ele>12.0</ele><time>2026-05-02T15:36:17Z</time></trkpt><trkpt lat="40.348049950711456" lon="15.001058047375007"><ele>12.0</ele><time>2026-05-02T15:36:18Z</time></trkpt><trkpt lat="40.34812934525792" lon="15.001065487752731"><ele>11.999999999999998</ele><time>2026-05-02T15:36:19Z</time></trkpt><trkpt lat="40.348206109836234" lon="15.001081512779502"><ele>12.0</ele><time>2026-05-02T15:36:20Z</time></trkpt><trkpt lat="40.34827963633875" lon="15.00108898789265"><ele>12.0</ele><time>2026-05-02T15:36:21Z</time></trkpt><trkpt lat="40.34835392800196" lon="15.001095879232233"><ele>12.0</ele><time>2026-05-02T15:36:22Z</time></trkpt><trkpt lat="40.3484233801216" lon="15.001103406726067"><ele>12.0</ele><time>2026-05-02T15:36:23Z</time></trkpt><trkpt lat="40.348493673813444" lon="15.001114335456643"><ele>11.999999999999998</ele><time>2026-05-02T15:36:24Z</time></trkpt><trkpt lat="40.34856010812815" lon="15.00112126861428"><ele>12.0</ele><time>2026-05-02T15:36:25Z</time></trkpt><trkpt lat="40.34862501099892" lon="15.00112389110796"><ele>12.0</ele><time>2026-05-02T15:36:26Z</time></trkpt><trkpt lat="40.34874342332907" lon="15.001111872716534"><ele>12.0</ele><time>2026-05-02T15:36:28Z</time></trkpt><trkpt lat="40.348865853266645" lon="15.001122149315702"><ele>12.0</ele><time>2026-05-02T15:36:30Z</time></trkpt><trkpt lat="40.34898225262196" lon="15.00113313566588"><ele>12.0</ele><time>2026-05-02T15:36:32Z</time></trkpt><trkpt lat="40.3490993482326" lon="15.00114193171541"><ele>11.6</ele><time>2026-05-02T15:36:34Z</time></trkpt><trkpt lat="40.3491913818913" lon="15.00115347225756"><ele>11.2</ele><time>2026-05-02T15:36:36Z</time></trkpt><trkpt lat="40.34930858184252" lon="15.001155654423542"><ele>10.8</ele><time>2026-05-02T15:36:38Z</time></trkpt><trkpt lat="40.349421058301054" lon="15.001153789325278"><ele>10.4</ele><time>2026-05-02T15:36:40Z</time></trkpt><trkpt lat="40.34952383890244" lon="15.001181868061954"><ele>10.0</ele><time>2026-05-02T15:36:42Z</time></trkpt><trkpt lat="40.34959966583646" lon="15.001184895474076"><ele>9.8</ele><time>2026-05-02T15:36:43Z</time></trkpt><trkpt lat="40.34973848929931" lon="15.001247814904259"><ele>9.6</ele><time>2026-05-02T15:36:45Z</time></trkpt><trkpt lat="40.34981223751329" lon="15.001255162218145"><ele>9.4</ele><time>2026-05-02T15:36:46Z</time></trkpt><trkpt lat="40.349882287826176" lon="15.00127511847455"><ele>9.2</ele><time>2026-05-02T15:36:47Z</time></trkpt><trkpt lat="40.34996096998166" lon="15.001300971464493"><ele>9.0</ele><time>2026-05-02T15:36:48Z</time></trkpt><trkpt lat="40.35004089762816" lon="15.001315771976019"><ele>9.0</ele><time>2026-05-02T15:36:49Z</time></trkpt><trkpt lat="40.350119731718635" lon="15.001332192846615"><ele>9.0</ele><time>2026-05-02T15:36:50Z</time></trkpt><trkpt lat="40.35020553131287" lon="15.00134576965595"><ele>9.0</ele><time>2026-05-02T15:36:51Z</time></trkpt><trkpt lat="40.3502826513313" lon="15.001363787317098"><ele>9.0</ele><time>2026-05-02T15:36:52Z</time></trkpt><trkpt lat="40.35036269723218" lon="15.001387365729578"><ele>9.0</ele><time>2026-05-02T15:36:53Z</time></trkpt><trkpt lat="40.35043916513089" lon="15.00141094102304"><ele>9.0</ele><time>2026-05-02T15:36:54Z</time></trkpt><trkpt lat="40.35051828112022" lon="15.001412536896536"><ele>9.0</ele><time>2026-05-02T15:36:55Z</time></trkpt><trkpt lat="40.3506197446506" lon="15.001424750352465"><ele>9.0</ele><time>2026-05-02T15:36:57Z</time></trkpt><trkpt lat="40.35071904501212" lon="15.00143186151335"><ele>9.0</ele><time>2026-05-02T15:36:59Z</time></trkpt><trkpt lat="40.35077787807328" lon="15.001310115107213"><ele>9.0</ele><time>2026-05-02T15:37:01Z</time></trkpt><trkpt lat="40.35078571213262" lon="15.001219160220945"><ele>9.0</ele><time>2026-05-02T15:37:02Z</time></trkpt><trkpt lat="40.35079104787771" lon="15.001119912853639"><ele>9.000000000000002</ele><time>2026-05-02T15:37:03Z</time></trkpt><trkpt lat="40.3508076247071" lon="15.00103139917728"><ele>9.0</ele><time>2026-05-02T15:37:04Z</time></trkpt><trkpt lat="40.35082577330305" lon="15.000943352394826"><ele>9.0</ele><time>2026-05-02T15:37:05Z</time></trkpt><trkpt lat="40.35084227732529" lon="15.0008515943121"><ele>9.0</ele><time>2026-05-02T15:37:06Z</time></trkpt><trkpt lat="40.350853722282494" lon="15.000753988818989"><ele>9.0</ele><time>2026-05-02T15:37:07Z</time></trkpt><trkpt lat="40.350865729787486" lon="15.000654301465023"><ele>9.000000000000002</ele><time>2026-05-02T15:37:08Z</time></trkpt><trkpt lat="40.350886625951034" lon="15.000550436486254"><ele>9.0</ele><time>2026-05-02T15:37:09Z</time></trkpt><trkpt lat="40.35089930039405" lon="15.000447531932826"><ele>8.833333333333334</ele><time>2026-05-02T15:37:10Z</time></trkpt><trkpt lat="40.350904486234064" lon="15.00034483627637"><ele>8.666666666666666</ele><time>2026-05-02T15:37:11Z</time></trkpt><trkpt lat="40.350930295069084" lon="15.000248427776926"><ele>8.5</ele><time>2026-05-02T15:37:12Z</time></trkpt><trkpt lat="40.350945745365905" lon="15.000145653180578"><ele>8.333333333333332</ele><time>2026-05-02T15:37:13Z</time></trkpt><trkpt lat="40.350961820536554" lon="15.000043822047996"><ele>8.166666666666666</ele><time>2026-05-02T15:37:14Z</time></trkpt><trkpt lat="40.35097780510243" lon="14.999944631593603"><ele>8.0</ele><time>2026-05-02T15:37:15Z</time></trkpt><trkpt lat="40.35099149122093" lon="14.99984795226801"><ele>8.0</ele><time>2026-05-02T15:37:16Z</time></trkpt><trkpt lat="40.351017142675694" lon="14.999754825280204"><ele>7.999999999999999</ele><time>2026-05-02T15:37:17Z</time></trkpt><trkpt lat="40.35103112985498" lon="14.999657244381902"><ele>8.0</ele><time>2026-05-02T15:37:18Z</time></trkpt><trkpt lat="40.35103995176626" lon="14.999565393025524"><ele>8.0</ele><time>2026-05-02T15:37:19Z</time></trkpt><trkpt lat="40.35105029118918" lon="14.999474842081163"><ele>7.999999999999999</ele><time>2026-05-02T15:37:20Z</time></trkpt><trkpt lat="40.35105592228349" lon="14.999386814514244"><ele>8.0</ele><time>2026-05-02T15:37:21Z</time></trkpt><trkpt lat="40.351068660040774" lon="14.999300885803862"><ele>8.0</ele><time>2026-05-02T15:37:22Z</time></trkpt><trkpt lat="40.351080616696365" lon="14.999214288381799"><ele>7.833333333333333</ele><time>2026-05-02T15:37:23Z</time></trkpt><trkpt lat="40.35109201060223" lon="14.999131853657063"><ele>7.666666666666666</ele><time>2026-05-02T15:37:24Z</time></trkpt><trkpt lat="40.351107872606484" lon="14.999050471214034"><ele>7.5</ele><time>2026-05-02T15:37:25Z</time></trkpt><trkpt lat="40.351120553881856" lon="14.99896780056582"><ele>7.333333333333334</ele><time>2026-05-02T15:37:26Z</time></trkpt><trkpt lat="40.3511421090669" lon="14.998811838739579"><ele>7.166666666666667</ele><time>2026-05-02T15:37:28Z</time></trkpt><trkpt lat="40.35116237152006" lon="14.998657783014131"><ele>7.0</ele><time>2026-05-02T15:37:30Z</time></trkpt><trkpt lat="40.35117421158595" lon="14.998575415742854"><ele>7.0</ele><time>2026-05-02T15:37:31Z</time></trkpt><trkpt lat="40.351188325308534" lon="14.998491390274166"><ele>7.0</ele><time>2026-05-02T15:37:32Z</time></trkpt><trkpt lat="40.35119514463111" lon="14.998401090171116"><ele>7.0</ele><time>2026-05-02T15:37:33Z</time></trkpt><trkpt lat="40.35120884265103" lon="14.998311303886481"><ele>7.0</ele><time>2026-05-02T15:37:34Z</time></trkpt><trkpt lat="40.351224385164315" lon="14.998222843089257"><ele>7.0</ele><time>2026-05-02T15:37:35Z</time></trkpt><trkpt lat="40.351232982331304" lon="14.998136850986452"><ele>7.0</ele><time>2026-05-02T15:37:36Z</time></trkpt><trkpt lat="40.351245583032345" lon="14.998053708235155"><ele>7.0</ele><time>2026-05-02T15:37:37Z</time></trkpt><trkpt lat="40.35125460550298" lon="14.997962929211388"><ele>7.0</ele><time>2026-05-02T15:37:38Z</time></trkpt><trkpt lat="40.351269826621156" lon="14.997876872958084"><ele>7.0</ele><time>2026-05-02T15:37:39Z</time></trkpt><trkpt lat="40.35127668038454" lon="14.997787377864906"><ele>7.0</ele><time>2026-05-02T15:37:40Z</time></trkpt><trkpt lat="40.351292670079715" lon="14.997698500084766"><ele>7.0</ele><time>2026-05-02T15:37:41Z</time></trkpt><trkpt lat="40.35130852774646" lon="14.997612701369802"><ele>7.0</ele><time>2026-05-02T15:37:42Z</time></trkpt><trkpt lat="40.351329152420774" lon="14.997525573633716"><ele>7.0</ele><time>2026-05-02T15:37:43Z</time></trkpt><trkpt lat="40.351344907333264" lon="14.997436966649738"><ele>7.0</ele><time>2026-05-02T15:37:44Z</time></trkpt><trkpt lat="40.35136369323637" lon="14.997354750484517"><ele>7.0</ele><time>2026-05-02T15:37:45Z</time></trkpt><trkpt lat="40.35137507313583" lon="14.997191656637819"><ele>7.0</ele><time>2026-05-02T15:37:47Z</time></trkpt><trkpt lat="40.35139681962948" lon="14.997039711421298"><ele>7.0</ele><time>2026-05-02T15:37:49Z</time></trkpt><trkpt lat="40.351421901025454" lon="14.996892376144444"><ele>7.0</ele><time>2026-05-02T15:37:51Z</time></trkpt><trkpt lat="40.35144082412886" lon="14.996759056188838"><ele>7.0</ele><time>2026-05-02T15:37:53Z</time></trkpt><trkpt lat="40.35154262005867" lon="14.996706914537388"><ele>6.999999999999999</ele><time>2026-05-02T15:37:55Z</time></trkpt><trkpt lat="40.351645272928465" lon="14.996714993628817"><ele>6.999999999999999</ele><time>2026-05-02T15:37:57Z</time></trkpt><trkpt lat="40.35174630600621" lon="14.996751009259096"><ele>7.0</ele><time>2026-05-02T15:37:59Z</time></trkpt><trkpt lat="40.351831392743925" lon="14.996760075773384"><ele>7.0</ele><time>2026-05-02T15:38:01Z</time></trkpt><trkpt lat="40.35192978584301" lon="14.996762623282752"><ele>7.0</ele><time>2026-05-02T15:38:03Z</time></trkpt><trkpt lat="40.352044290238474" lon="14.996769551495564"><ele>6.999999999999999</ele><time>2026-05-02T15:38:05Z</time></trkpt><trkpt lat="40.3521579675354" lon="14.996787166139766"><ele>6.999999999999999</ele><time>2026-05-02T15:38:07Z</time></trkpt><trkpt lat="40.352259420808274" lon="14.996794516102499"><ele>7.0</ele><time>2026-05-02T15:38:09Z</time></trkpt><trkpt lat="40.35235577763708" lon="14.996804286426551"><ele>7.0</ele><time>2026-05-02T15:38:11Z</time></trkpt><trkpt lat="40.35246560927777" lon="14.996825121097716"><ele>6.714285714285714</ele><time>2026-05-02T15:38:13Z</time></trkpt><trkpt lat="40.35252803435616" lon="14.996842349756113"><ele>6.428571428571429</ele><time>2026-05-02T15:38:14Z</time></trkpt><trkpt lat="40.35259515134126" lon="14.996859897043521"><ele>6.142857142857142</ele><time>2026-05-02T15:38:15Z</time></trkpt><trkpt lat="40.352665437246365" lon="14.99686284875895"><ele>5.857142857142858</ele><time>2026-05-02T15:38:16Z</time></trkpt><trkpt lat="40.35273905817773" lon="14.996869285954732"><ele>5.571428571428571</ele><time>2026-05-02T15:38:17Z</time></trkpt><trkpt lat="40.35280551633081" lon="14.996884617488435"><ele>5.285714285714286</ele><time>2026-05-02T15:38:18Z</time></trkpt><trkpt lat="40.352872528176384" lon="14.996902748915705"><ele>5.0</ele><time>2026-05-02T15:38:19Z</time></trkpt><trkpt lat="40.35293742118385" lon="14.996917693474186"><ele>5.333333333333334</ele><time>2026-05-02T15:38:20Z</time></trkpt><trkpt lat="40.35304785344035" lon="14.996944548469404"><ele>5.666666666666667</ele><time>2026-05-02T15:38:22Z</time></trkpt><trkpt lat="40.3531189838189" lon="14.996956418103297"><ele>6.0</ele><time>2026-05-02T15:38:24.001Z</time></trkpt><trkpt lat="40.35318448925638" lon="14.996962471901591"><ele>6.333333333333334</ele><time>2026-05-02T15:38:26.001Z</time></trkpt><trkpt lat="40.353258240551455" lon="14.996974686038437"><ele>6.666666666666667</ele><time>2026-05-02T15:38:28.001Z</time></trkpt><trkpt lat="40.3533370810694" lon="14.996986650314682"><ele>7.0</ele><time>2026-05-02T15:38:31Z</time></trkpt><trkpt lat="40.35341300958087" lon="14.997006663187172"><ele>7.000000000000001</ele><time>2026-05-02T15:38:36Z</time></trkpt><trkpt lat="40.35349071528506" lon="14.997020539880307"><ele>7.0</ele><time>2026-05-02T15:38:39Z</time></trkpt><trkpt lat="40.35357030779247" lon="14.997029621383616"><ele>7.0</ele><time>2026-05-02T15:38:42Z</time></trkpt><trkpt lat="40.35365556494398" lon="14.997033367057428"><ele>7.0</ele><time>2026-05-02T15:38:45Z</time></trkpt><trkpt lat="40.35373510116192" lon="14.997043352463919"><ele>7.000000000000001</ele><time>2026-05-02T15:38:47Z</time></trkpt><trkpt lat="40.35382177877209" lon="14.997055354010334"><ele>7.0</ele><time>2026-05-02T15:38:49Z</time></trkpt><trkpt lat="40.353918218553744" lon="14.997073978304797"><ele>6.3999999999999995</ele><time>2026-05-02T15:38:51Z</time></trkpt><trkpt lat="40.35401885544745" lon="14.99708858498527"><ele>5.799999999999999</ele><time>2026-05-02T15:38:53Z</time></trkpt><trkpt lat="40.354130427455644" lon="14.997112749921728"><ele>5.2</ele><time>2026-05-02T15:38:55Z</time></trkpt><trkpt lat="40.354245412979196" lon="14.997119647245057"><ele>4.6</ele><time>2026-05-02T15:38:57Z</time></trkpt><trkpt lat="40.35436354327333" lon="14.997135002022087"><ele>4.0</ele><time>2026-05-02T15:38:59Z</time></trkpt><trkpt lat="40.35444906911327" lon="14.997152828060742"><ele>3.9999999999999996</ele><time>2026-05-02T15:39:01Z</time></trkpt><trkpt lat="40.354513372764345" lon="14.997140050359228"><ele>4.0</ele><time>2026-05-02T15:39:04Z</time></trkpt><trkpt lat="40.354524810917475" lon="14.997018641011024"><ele>4.0</ele><time>2026-05-02T15:39:07Z</time></trkpt><trkpt lat="40.35456426442559" lon="14.99691024544135"><ele>4.0</ele><time>2026-05-02T15:39:11Z</time></trkpt><trkpt lat="40.35459932419665" lon="14.99680913060761"><ele>3.9999999999999996</ele><time>2026-05-02T15:39:13Z</time></trkpt><trkpt lat="40.354636542953486" lon="14.996703121634408"><ele>4.0</ele><time>2026-05-02T15:39:15Z</time></trkpt><trkpt lat="40.354667628649906" lon="14.996582582698073"><ele>5.0</ele><time>2026-05-02T15:39:17Z</time></trkpt><trkpt lat="40.354738260108775" lon="14.996578545905694"><ele>5.0</ele><time>2026-05-02T15:39:20Z</time></trkpt><trkpt lat="40.354762795897855" lon="14.996450797799552"><ele>5.0</ele><time>2026-05-02T15:39:23Z</time></trkpt></trkseg><trkseg><trkpt lat="40.36713386514363" lon="15.002255790969354"><ele>13.428571428571427</ele><time>2026-05-03T09:18:02.999Z</time></trkpt><trkpt lat="40.36721387515263" lon="15.00226208471218"><ele>13.857142857142858</ele><time>2026-05-03T09:18:06.999Z</time></trkpt><trkpt lat="40.36727779958557" lon="15.002271762608288"><ele>14.285714285714285</ele><time>2026-05-03T09:18:09.999Z</time></trkpt><trkpt lat="40.36734479317296" lon="15.002271446757613"><ele>14.714285714285714</ele><time>2026-05-03T09:18:12.999Z</time></trkpt><trkpt lat="40.36741994541121" lon="15.00227647279648"><ele>15.142857142857142</ele><time>2026-05-03T09:18:16Z</time></trkpt><trkpt lat="40.36748617857426" lon="15.002281717036697"><ele>15.571428571428571</ele><time>2026-05-03T09:18:19Z</time></trkpt><trkpt lat="40.367553095034644" lon="15.002283362960135"><ele>16.0</ele><time>2026-05-03T09:18:22Z</time></trkpt><trkpt lat="40.367624124611524" lon="15.002299253491016"><ele>16.0</ele><time>2026-05-03T09:18:25Z</time></trkpt><trkpt lat="40.36768549163044" lon="15.002318334235651"><ele>15.999999999999998</ele><time>2026-05-03T09:18:28Z</time></trkpt><trkpt lat="40.36775491523899" lon="15.002322611586303"><ele>16.0</ele><time>2026-05-03T09:18:31Z</time></trkpt><trkpt lat="40.36782204404539" lon="15.002334182382665"><ele>16.0</ele><time>2026-05-03T09:18:34Z</time></trkpt><trkpt lat="40.367889090412255" lon="15.002346074771562"><ele>15.999999999999998</ele><time>2026-05-03T09:18:38Z</time></trkpt><trkpt lat="40.367959540925376" lon="15.002378767725968"><ele>16.0</ele><time>2026-05-03T09:18:42Z</time></trkpt><trkpt lat="40.36803922227122" lon="15.002382006841884"><ele>16.0</ele><time>2026-05-03T09:18:46Z</time></trkpt><trkpt lat="40.36811521873035" lon="15.002360886461314"><ele>16.833333333333332</ele><time>2026-05-03T09:18:49Z</time></trkpt><trkpt lat="40.368170924539335" lon="15.002321642031895"><ele>17.666666666666664</ele><time>2026-05-03T09:18:51Z</time></trkpt><trkpt lat="40.368240566468764" lon="15.00228477014658"><ele>18.5</ele><time>2026-05-03T09:18:53Z</time></trkpt><trkpt lat="40.36831931707929" lon="15.002262515280394"><ele>19.333333333333332</ele><time>2026-05-03T09:18:55Z</time></trkpt><trkpt lat="40.36841180807951" lon="15.002229020660494"><ele>20.166666666666668</ele><time>2026-05-03T09:18:57Z</time></trkpt><trkpt lat="40.36851027909858" lon="15.002199235284998"><ele>21.0</ele><time>2026-05-03T09:18:59Z</time></trkpt><trkpt lat="40.36862746977774" lon="15.002168661875935"><ele>21.0</ele><time>2026-05-03T09:19:01Z</time></trkpt><trkpt lat="40.36875033516175" lon="15.002133832367013"><ele>21.0</ele><time>2026-05-03T09:19:03Z</time></trkpt><trkpt lat="40.36881321635864" lon="15.002110776906092"><ele>21.0</ele><time>2026-05-03T09:19:04Z</time></trkpt><trkpt lat="40.368878754348046" lon="15.002091099196413"><ele>21.0</ele><time>2026-05-03T09:19:05Z</time></trkpt><trkpt lat="40.36895133454829" lon="15.002072868608645"><ele>21.0</ele><time>2026-05-03T09:19:06Z</time></trkpt><trkpt lat="40.3690238499822" lon="15.002043116942495"><ele>21.0</ele><time>2026-05-03T09:19:07Z</time></trkpt><trkpt lat="40.36909648931252" lon="15.002025977541946"><ele>21.0</ele><time>2026-05-03T09:19:08Z</time></trkpt><trkpt lat="40.36917030921424" lon="15.00200645242457"><ele>21.0</ele><time>2026-05-03T09:19:09Z</time></trkpt><trkpt lat="40.3692443774772" lon="15.001987844082995"><ele>21.0</ele><time>2026-05-03T09:19:10Z</time></trkpt><trkpt lat="40.36931038405004" lon="15.001964236084904"><ele>21.0</ele><time>2026-05-03T09:19:11Z</time></trkpt><trkpt lat="40.36937385233571" lon="15.001953842988689"><ele>21.0</ele><time>2026-05-03T09:19:12Z</time></trkpt><trkpt lat="40.369497470044585" lon="15.001942297781055"><ele>21.0</ele><time>2026-05-03T09:19:14Z</time></trkpt><trkpt lat="40.36956035481854" lon="15.001924693587842"><ele>21.0</ele><time>2026-05-03T09:19:15Z</time></trkpt><trkpt lat="40.36962516578297" lon="15.001905317669772"><ele>21.0</ele><time>2026-05-03T09:19:16Z</time></trkpt><trkpt lat="40.36969191029975" lon="15.001883807556005"><ele>21.0</ele><time>2026-05-03T09:19:17Z</time></trkpt><trkpt lat="40.36975716859276" lon="15.001865584855967"><ele>21.0</ele><time>2026-05-03T09:19:18Z</time></trkpt><trkpt lat="40.3698231823564" lon="15.001844955179834"><ele>21.0</ele><time>2026-05-03T09:19:19Z</time></trkpt><trkpt lat="40.369889172139054" lon="15.00181775793526"><ele>21.0</ele><time>2026-05-03T09:19:20Z</time></trkpt><trkpt lat="40.370007417242306" lon="15.00172589071134"><ele>20.857142857142858</ele><time>2026-05-03T09:19:22Z</time></trkpt><trkpt lat="40.370075613946575" lon="15.001682627390194"><ele>20.714285714285715</ele><time>2026-05-03T09:19:23Z</time></trkpt><trkpt lat="40.370135927243034" lon="15.001633374355544"><ele>20.57142857142857</ele><time>2026-05-03T09:19:24Z</time></trkpt><trkpt lat="40.37020238998915" lon="15.00159380566858"><ele>20.42857142857143</ele><time>2026-05-03T09:19:25Z</time></trkpt><trkpt lat="40.37026402754098" lon="15.001555243686516"><ele>20.285714285714285</ele><time>2026-05-03T09:19:26Z</time></trkpt><trkpt lat="40.37033628343155" lon="15.001533975386067"><ele>20.142857142857142</ele><time>2026-05-03T09:19:27Z</time></trkpt><trkpt lat="40.37036851204577" lon="15.001451841351416"><ele>20.0</ele><time>2026-05-03T09:19:28Z</time></trkpt><trkpt lat="40.370437932160954" lon="15.001423794826962"><ele>19.5</ele><time>2026-05-03T09:19:29Z</time></trkpt><trkpt lat="40.370532493265735" lon="15.001406554109217"><ele>19.0</ele><time>2026-05-03T09:19:31Z</time></trkpt><trkpt lat="40.37059512597275" lon="15.001421736187462"><ele>18.5</ele><time>2026-05-03T09:19:33Z</time></trkpt><trkpt lat="40.37067678409996" lon="15.001410846346273"><ele>18.0</ele><time>2026-05-03T09:19:37Z</time></trkpt><trkpt lat="40.370743760939945" lon="15.001421495500068"><ele>17.5</ele><time>2026-05-03T09:19:39Z</time></trkpt><trkpt lat="40.37082114911042" lon="15.00144232552748"><ele>17.0</ele><time>2026-05-03T09:19:42Z</time></trkpt><trkpt lat="40.37088626989451" lon="15.001424742848362"><ele>17.0</ele><time>2026-05-03T09:20:39Z</time></trkpt><trkpt lat="40.37081641427976" lon="15.00138705951709"><ele>17.0</ele><time>2026-05-03T09:20:43Z</time></trkpt><trkpt lat="40.370752013837375" lon="15.00137437638171"><ele>17.0</ele><time>2026-05-03T09:20:45Z</time></trkpt><trkpt lat="40.37067100577017" lon="15.001369351494136"><ele>17.0</ele><time>2026-05-03T09:20:47Z</time></trkpt><trkpt lat="40.37057843239046" lon="15.001366255332016"><ele>17.0</ele><time>2026-05-03T09:20:49Z</time></trkpt><trkpt lat="40.37047161724131" lon="15.001374678608038"><ele>17.0</ele><time>2026-05-03T09:20:51Z</time></trkpt><trkpt lat="40.37035644990834" lon="15.001438820264045"><ele>16.666666666666668</ele><time>2026-05-03T09:20:53Z</time></trkpt><trkpt lat="40.37029936188588" lon="15.001481864725259"><ele>16.333333333333336</ele><time>2026-05-03T09:20:54Z</time></trkpt><trkpt lat="40.37024443861163" lon="15.001527247322304"><ele>16.0</ele><time>2026-05-03T09:20:55Z</time></trkpt><trkpt lat="40.370192004667864" lon="15.00157417135118"><ele>15.666666666666668</ele><time>2026-05-03T09:20:56Z</time></trkpt><trkpt lat="40.37009137818005" lon="15.001651995270256"><ele>15.333333333333334</ele><time>2026-05-03T09:20:58Z</time></trkpt><trkpt lat="40.37000942239286" lon="15.001699493200926"><ele>15.0</ele><time>2026-05-03T09:21:00Z</time></trkpt><trkpt lat="40.36994252016521" lon="15.001731141216954"><ele>15.833333333333334</ele><time>2026-05-03T09:21:02Z</time></trkpt><trkpt lat="40.36987327761573" lon="15.001777382062626"><ele>16.666666666666668</ele><time>2026-05-03T09:21:05Z</time></trkpt><trkpt lat="40.36978964389965" lon="15.001805574006314"><ele>17.5</ele><time>2026-05-03T09:21:08Z</time></trkpt><trkpt lat="40.36969361487076" lon="15.001836821132473"><ele>18.333333333333336</ele><time>2026-05-03T09:21:11Z</time></trkpt><trkpt lat="40.369618965759344" lon="15.001852820464956"><ele>19.166666666666668</ele><time>2026-05-03T09:21:14Z</time></trkpt><trkpt lat="40.36954038210534" lon="15.001895444628449"><ele>20.0</ele><time>2026-05-03T09:22:21.999Z</time></trkpt><trkpt lat="40.36946415841536" lon="15.001917811579911"><ele>20.166666666666668</ele><time>2026-05-03T09:22:25.999Z</time></trkpt><trkpt lat="40.36944537870549" lon="15.002014156079394"><ele>20.333333333333336</ele><time>2026-05-03T09:22:28.999Z</time></trkpt><trkpt lat="40.36947475791795" lon="15.002130549546456"><ele>20.5</ele><time>2026-05-03T09:22:32Z</time></trkpt><trkpt lat="40.369495919865194" lon="15.00221552717527"><ele>20.666666666666668</ele><time>2026-05-03T09:22:34Z</time></trkpt><trkpt lat="40.36950932178416" lon="15.002300915372494"><ele>20.833333333333332</ele><time>2026-05-03T09:22:36Z</time></trkpt><trkpt lat="40.369529724353754" lon="15.002383957361575"><ele>21.0</ele><time>2026-05-03T09:22:38Z</time></trkpt><trkpt lat="40.36955346353974" lon="15.002502636761653"><ele>22.166666666666668</ele><time>2026-05-03T09:22:41Z</time></trkpt><trkpt lat="40.36958132475372" lon="15.002579945986705"><ele>23.333333333333336</ele><time>2026-05-03T09:22:43Z</time></trkpt><trkpt lat="40.36960870055499" lon="15.002695357903155"><ele>24.5</ele><time>2026-05-03T09:22:46Z</time></trkpt><trkpt lat="40.36963391021009" lon="15.002813654015378"><ele>25.666666666666668</ele><time>2026-05-03T09:22:49Z</time></trkpt><trkpt lat="40.369659431756226" lon="15.002928355115316"><ele>26.833333333333336</ele><time>2026-05-03T09:22:52Z</time></trkpt><trkpt lat="40.36967781784625" lon="15.003008969456829"><ele>28.0</ele><time>2026-05-03T09:22:54Z</time></trkpt><trkpt lat="40.36970152331447" lon="15.003119673337334"><ele>28.000000000000004</ele><time>2026-05-03T09:22:57Z</time></trkpt><trkpt lat="40.369700688702665" lon="15.00323831708601"><ele>28.0</ele><time>2026-05-03T09:23:00Z</time></trkpt><trkpt lat="40.36970391829955" lon="15.003356931362466"><ele>28.0</ele><time>2026-05-03T09:23:03Z</time></trkpt><trkpt lat="40.36970045149963" lon="15.003445523186686"><ele>28.0</ele><time>2026-05-03T09:23:06Z</time></trkpt><trkpt lat="40.36968825331599" lon="15.00354638811321"><ele>28.000000000000004</ele><time>2026-05-03T09:23:10Z</time></trkpt><trkpt lat="40.369678969767975" lon="15.003636478995396"><ele>28.0</ele><time>2026-05-03T09:23:14Z</time></trkpt><trkpt lat="40.36967463066785" lon="15.00374022711365"><ele>29.142857142857142</ele><time>2026-05-03T09:23:19Z</time></trkpt><trkpt lat="40.36972630103805" lon="15.003801311260824"><ele>30.285714285714285</ele><time>2026-05-03T09:23:24Z</time></trkpt><trkpt lat="40.36979947432249" lon="15.00383956834287"><ele>31.42857142857143</ele><time>2026-05-03T09:23:28Z</time></trkpt><trkpt lat="40.36986969834392" lon="15.003852099189126"><ele>32.57142857142857</ele><time>2026-05-03T09:23:32Z</time></trkpt><trkpt lat="40.369941404524994" lon="15.003867755406587"><ele>33.714285714285715</ele><time>2026-05-03T09:23:37Z</time></trkpt><trkpt lat="40.36999951132364" lon="15.003902838678425"><ele>34.85714285714286</ele><time>2026-05-03T09:23:40Z</time></trkpt><trkpt lat="40.370060415007586" lon="15.003935548499694"><ele>36.0</ele><time>2026-05-03T09:23:44Z</time></trkpt><trkpt lat="40.3701186198272" lon="15.003994834345104"><ele>36.00000000000001</ele><time>2026-05-03T09:23:48Z</time></trkpt><trkpt lat="40.370163530424804" lon="15.004056086153259"><ele>36.0</ele><time>2026-05-03T09:23:52Z</time></trkpt><trkpt lat="40.37021069498966" lon="15.00412075293378"><ele>36.0</ele><time>2026-05-03T09:23:56Z</time></trkpt><trkpt lat="40.37025189924626" lon="15.004192644224252"><ele>36.0</ele><time>2026-05-03T09:24:00Z</time></trkpt><trkpt lat="40.37030257039415" lon="15.004270225262067"><ele>36.0</ele><time>2026-05-03T09:24:04.999Z</time></trkpt><trkpt lat="40.370366829954946" lon="15.004323416192053"><ele>36.00000000000001</ele><time>2026-05-03T09:24:09.999Z</time></trkpt><trkpt lat="40.37043595212103" lon="15.004333041125937"><ele>36.0</ele><time>2026-05-03T09:24:13.999Z</time></trkpt><trkpt lat="40.3705048273986" lon="15.004299332566145"><ele>40.28571428571429</ele><time>2026-05-03T09:24:18.999Z</time></trkpt><trkpt lat="40.37057123426257" lon="15.004287652657181"><ele>44.57142857142857</ele><time>2026-05-03T09:24:22.999Z</time></trkpt><trkpt lat="40.37061827867852" lon="15.00435193808528"><ele>48.85714285714286</ele><time>2026-05-03T09:24:26.999Z</time></trkpt><trkpt lat="40.37062860110481" lon="15.004437397728571"><ele>53.142857142857146</ele><time>2026-05-03T09:24:30.999Z</time></trkpt><trkpt lat="40.37062458852078" lon="15.00452799133598"><ele>57.42857142857143</ele><time>2026-05-03T09:24:35Z</time></trkpt><trkpt lat="40.370609828655056" lon="15.00460847381608"><ele>61.714285714285715</ele><time>2026-05-03T09:24:39Z</time></trkpt><trkpt lat="40.37058558021209" lon="15.004686506831895"><ele>66.0</ele><time>2026-05-03T09:24:43Z</time></trkpt><trkpt lat="40.37054842087424" lon="15.004765173756198"><ele>65.71428571428571</ele><time>2026-05-03T09:24:47Z</time></trkpt><trkpt lat="40.37050831279029" lon="15.0048342831748"><ele>65.42857142857143</ele><time>2026-05-03T09:24:51Z</time></trkpt><trkpt lat="40.37048112487812" lon="15.0049129147979"><ele>65.14285714285714</ele><time>2026-05-03T09:24:55Z</time></trkpt><trkpt lat="40.3704678920274" lon="15.005011342977898"><ele>64.85714285714286</ele><time>2026-05-03T09:25:00Z</time></trkpt><trkpt lat="40.370452120874184" lon="15.005110049957763"><ele>64.57142857142857</ele><time>2026-05-03T09:25:05Z</time></trkpt><trkpt lat="40.37044580658253" lon="15.005207684266331"><ele>64.28571428571428</ele><time>2026-05-03T09:25:10Z</time></trkpt><trkpt lat="40.370497372526295" lon="15.005287307181439"><ele>64.0</ele><time>2026-05-03T09:25:15Z</time></trkpt><trkpt lat="40.37056944201285" lon="15.005320156130896"><ele>65.71428571428571</ele><time>2026-05-03T09:25:20Z</time></trkpt><trkpt lat="40.37063551583029" lon="15.005345575728661"><ele>67.42857142857142</ele><time>2026-05-03T09:25:24Z</time></trkpt><trkpt lat="40.370708527909244" lon="15.005354425092039"><ele>69.14285714285714</ele><time>2026-05-03T09:25:29Z</time></trkpt><trkpt lat="40.37077694906549" lon="15.00537684473546"><ele>70.85714285714286</ele><time>2026-05-03T09:25:34Z</time></trkpt><trkpt lat="40.370835457547415" lon="15.005407664188185"><ele>72.57142857142858</ele><time>2026-05-03T09:25:38Z</time></trkpt><trkpt lat="40.37085228506757" lon="15.005495841279263"><ele>74.28571428571428</ele><time>2026-05-03T09:25:43Z</time></trkpt><trkpt lat="40.370808500158454" lon="15.005561902432373"><ele>76.0</ele><time>2026-05-03T09:25:47Z</time></trkpt><trkpt lat="40.370744996679534" lon="15.005609444859754"><ele>76.0</ele><time>2026-05-03T09:25:51.001Z</time></trkpt><trkpt lat="40.37068533007896" lon="15.005636905232722"><ele>76.0</ele><time>2026-05-03T09:25:54.001Z</time></trkpt><trkpt lat="40.37062900597423" lon="15.005682305126973"><ele>76.0</ele><time>2026-05-03T09:25:58.001Z</time></trkpt><trkpt lat="40.37056418368338" lon="15.005723258231905"><ele>76.0</ele><time>2026-05-03T09:26:01.001Z</time></trkpt><trkpt lat="40.370494786762684" lon="15.00576815317344"><ele>76.0</ele><time>2026-05-03T09:26:05.001Z</time></trkpt><trkpt lat="40.370430628099754" lon="15.005824434782086"><ele>76.0</ele><time>2026-05-03T09:26:09.001Z</time></trkpt><trkpt lat="40.37037421854395" lon="15.005887644503021"><ele>76.0</ele><time>2026-05-03T09:26:12.999Z</time></trkpt><trkpt lat="40.370353966211624" lon="15.005989407408343"><ele>76.14285714285714</ele><time>2026-05-03T09:26:16.999Z</time></trkpt><trkpt lat="40.370352515880484" lon="15.006075185814503"><ele>76.28571428571429</ele><time>2026-05-03T09:26:19.999Z</time></trkpt><trkpt lat="40.37037034711578" lon="15.006155716442354"><ele>76.42857142857143</ele><time>2026-05-03T09:26:22.999Z</time></trkpt><trkpt lat="40.37038479545084" lon="15.006238955051115"><ele>76.57142857142857</ele><time>2026-05-03T09:26:25.999Z</time></trkpt><trkpt lat="40.37040218573963" lon="15.00634555951913"><ele>76.71428571428572</ele><time>2026-05-03T09:26:29.999Z</time></trkpt><trkpt lat="40.37040927044766" lon="15.006452527446251"><ele>76.85714285714286</ele><time>2026-05-03T09:26:33.999Z</time></trkpt><trkpt lat="40.370418493328856" lon="15.00653955507099"><ele>77.0</ele><time>2026-05-03T09:26:36.999Z</time></trkpt><trkpt lat="40.37044869618254" lon="15.00661558220613"><ele>78.42857142857143</ele><time>2026-05-03T09:26:40Z</time></trkpt><trkpt lat="40.370501441203324" lon="15.006668554646136"><ele>79.85714285714286</ele><time>2026-05-03T09:26:43Z</time></trkpt><trkpt lat="40.370584467172996" lon="15.00668728936029"><ele>81.28571428571428</ele><time>2026-05-03T09:26:47Z</time></trkpt><trkpt lat="40.37065731102828" lon="15.00668683514464"><ele>82.71428571428572</ele><time>2026-05-03T09:26:50Z</time></trkpt><trkpt lat="40.37072659712131" lon="15.006689308356107"><ele>84.14285714285714</ele><time>2026-05-03T09:26:53Z</time></trkpt><trkpt lat="40.3707950557873" lon="15.006683734080184"><ele>85.57142857142857</ele><time>2026-05-03T09:26:56Z</time></trkpt><trkpt lat="40.37086512259414" lon="15.006668336685237"><ele>87.0</ele><time>2026-05-03T09:26:59Z</time></trkpt><trkpt lat="40.37093920291077" lon="15.006659044032995"><ele>87.0</ele><time>2026-05-03T09:27:03Z</time></trkpt><trkpt lat="40.37102081869707" lon="15.006626631046332"><ele>87.0</ele><time>2026-05-03T09:27:07Z</time></trkpt><trkpt lat="40.371095425090054" lon="15.006610707030537"><ele>87.0</ele><time>2026-05-03T09:27:11Z</time></trkpt><trkpt lat="40.37117148001118" lon="15.006602267776108"><ele>87.0</ele><time>2026-05-03T09:27:15Z</time></trkpt><trkpt lat="40.37121522674737" lon="15.006536565627492"><ele>87.0</ele><time>2026-05-03T09:27:18Z</time></trkpt><trkpt lat="40.371265127259115" lon="15.006474310185334"><ele>87.0</ele><time>2026-05-03T09:27:21Z</time></trkpt><trkpt lat="40.37132524945893" lon="15.006395138881429"><ele>89.57142857142857</ele><time>2026-05-03T09:27:25Z</time></trkpt><trkpt lat="40.37137873850879" lon="15.006316584763882"><ele>92.14285714285714</ele><time>2026-05-03T09:27:29Z</time></trkpt><trkpt lat="40.37142026564531" lon="15.006249999599092"><ele>94.71428571428572</ele><time>2026-05-03T09:27:32Z</time></trkpt><trkpt lat="40.37146835437198" lon="15.006167921386057"><ele>97.28571428571428</ele><time>2026-05-03T09:27:36.001Z</time></trkpt><trkpt lat="40.37150100050199" lon="15.006096189295791"><ele>99.85714285714286</ele><time>2026-05-03T09:27:39.001Z</time></trkpt><trkpt lat="40.371536655517964" lon="15.006016951497523"><ele>102.42857142857143</ele><time>2026-05-03T09:27:42.001Z</time></trkpt><trkpt lat="40.37155583674971" lon="15.005936929785424"><ele>105.0</ele><time>2026-05-03T09:27:45.001Z</time></trkpt><trkpt lat="40.37157868223568" lon="15.005856799038373"><ele>104.28571428571429</ele><time>2026-05-03T09:27:48.001Z</time></trkpt><trkpt lat="40.37158510825319" lon="15.005748207929445"><ele>103.57142857142857</ele><time>2026-05-03T09:27:52.001Z</time></trkpt><trkpt lat="40.37158030937835" lon="15.005663620345311"><ele>102.85714285714286</ele><time>2026-05-03T09:27:55.001Z</time></trkpt><trkpt lat="40.371585077851876" lon="15.005580876251882"><ele>102.14285714285714</ele><time>2026-05-03T09:27:58.001Z</time></trkpt><trkpt lat="40.37158629269656" lon="15.005497251008942"><ele>101.42857142857143</ele><time>2026-05-03T09:28:01.001Z</time></trkpt><trkpt lat="40.371589503234674" lon="15.00539794956764"><ele>100.71428571428572</ele><time>2026-05-03T09:28:05.001Z</time></trkpt><trkpt lat="40.371604896614706" lon="15.005308012916279"><ele>100.0</ele><time>2026-05-03T09:28:08.001Z</time></trkpt><trkpt lat="40.371612134939795" lon="15.005199915926875"><ele>100.00000000000001</ele><time>2026-05-03T09:28:12.001Z</time></trkpt><trkpt lat="40.37163311177008" lon="15.005101738735458"><ele>100.0</ele><time>2026-05-03T09:28:16.001Z</time></trkpt><trkpt lat="40.37165894284024" lon="15.005021018785488"><ele>100.0</ele><time>2026-05-03T09:28:18.999Z</time></trkpt><trkpt lat="40.371697464648" lon="15.00494153807745"><ele>100.0</ele><time>2026-05-03T09:28:21.999Z</time></trkpt><trkpt lat="40.37174035348501" lon="15.004871995335698"><ele>100.0</ele><time>2026-05-03T09:28:24.999Z</time></trkpt><trkpt lat="40.371784552250105" lon="15.004810417270194"><ele>100.00000000000001</ele><time>2026-05-03T09:28:27.999Z</time></trkpt><trkpt lat="40.37183999130757" lon="15.004765397569345"><ele>100.0</ele><time>2026-05-03T09:28:30.999Z</time></trkpt><trkpt lat="40.371912340444744" lon="15.004753804776389"><ele>97.57142857142858</ele><time>2026-05-03T09:28:33.999Z</time></trkpt><trkpt lat="40.371980251119204" lon="15.004747667184036"><ele>95.14285714285714</ele><time>2026-05-03T09:28:36.999Z</time></trkpt><trkpt lat="40.37204851084124" lon="15.00475331410079"><ele>92.71428571428572</ele><time>2026-05-03T09:28:39.999Z</time></trkpt><trkpt lat="40.372111221126595" lon="15.004767023278095"><ele>90.28571428571429</ele><time>2026-05-03T09:28:43Z</time></trkpt><trkpt lat="40.372184954827816" lon="15.004774399066367"><ele>87.85714285714286</ele><time>2026-05-03T09:28:46Z</time></trkpt><trkpt lat="40.372247284916284" lon="15.004813074728844"><ele>85.42857142857143</ele><time>2026-05-03T09:28:49Z</time></trkpt><trkpt lat="40.37229597322296" lon="15.00487355685047"><ele>83.0</ele><time>2026-05-03T09:28:52Z</time></trkpt><trkpt lat="40.37230815122698" lon="15.00496112322048"><ele>85.71428571428571</ele><time>2026-05-03T09:28:55Z</time></trkpt><trkpt lat="40.37229886812622" lon="15.005048631915912"><ele>88.42857142857143</ele><time>2026-05-03T09:28:58Z</time></trkpt><trkpt lat="40.37228912885865" lon="15.005131057572935"><ele>91.14285714285714</ele><time>2026-05-03T09:29:01Z</time></trkpt><trkpt lat="40.37229014010829" lon="15.005219136695064"><ele>93.85714285714286</ele><time>2026-05-03T09:29:04Z</time></trkpt><trkpt lat="40.372305953516346" lon="15.005301437231134"><ele>96.57142857142858</ele><time>2026-05-03T09:29:07Z</time></trkpt><trkpt lat="40.37231554189399" lon="15.00538604664463"><ele>99.28571428571429</ele><time>2026-05-03T09:29:10Z</time></trkpt><trkpt lat="40.372314888280485" lon="15.005496746765761"><ele>102.0</ele><time>2026-05-03T09:29:14Z</time></trkpt><trkpt lat="40.372298770522015" lon="15.005581179039147"><ele>102.0</ele><time>2026-05-03T09:29:17Z</time></trkpt><trkpt lat="40.372279297101095" lon="15.005690192147824"><ele>102.0</ele><time>2026-05-03T09:29:21Z</time></trkpt><trkpt lat="40.37227366448864" lon="15.005773049725404"><ele>102.0</ele><time>2026-05-03T09:29:24Z</time></trkpt><trkpt lat="40.372277511286924" lon="15.005855802432237"><ele>102.0</ele><time>2026-05-03T09:29:27Z</time></trkpt><trkpt lat="40.37228591734074" lon="15.005940848368853"><ele>102.0</ele><time>2026-05-03T09:29:30Z</time></trkpt><trkpt lat="40.37230831519756" lon="15.006029736892355"><ele>102.0</ele><time>2026-05-03T09:29:33.001Z</time></trkpt><trkpt lat="40.372328627343265" lon="15.006132324908332"><ele>102.0</ele><time>2026-05-03T09:29:37.001Z</time></trkpt><trkpt lat="40.372344742486426" lon="15.006235684035003"><ele>103.85714285714286</ele><time>2026-05-03T09:29:41.001Z</time></trkpt><trkpt lat="40.37236335158202" lon="15.006337444404055"><ele>105.71428571428572</ele><time>2026-05-03T09:29:45.001Z</time></trkpt><trkpt lat="40.37237720475933" lon="15.006438134836289"><ele>107.57142857142856</ele><time>2026-05-03T09:29:49.001Z</time></trkpt><trkpt lat="40.37237760845057" lon="15.006528450364215"><ele>109.42857142857142</ele><time>2026-05-03T09:29:53.001Z</time></trkpt><trkpt lat="40.37238508836714" lon="15.0066265164335"><ele>111.28571428571428</ele><time>2026-05-03T09:29:58.001Z</time></trkpt><trkpt lat="40.37238269266671" lon="15.006724564500848"><ele>113.14285714285712</ele><time>2026-05-03T09:30:03.001Z</time></trkpt><trkpt lat="40.372392181913504" lon="15.006814304979335"><ele>114.99999999999999</ele><time>2026-05-03T09:30:08.001Z</time></trkpt><trkpt lat="40.372390600615006" lon="15.006914766658982"><ele>116.28571428571428</ele><time>2026-05-03T09:30:13.001Z</time></trkpt><trkpt lat="40.37238378418061" lon="15.007017908170779"><ele>117.57142857142857</ele><time>2026-05-03T09:30:18.001Z</time></trkpt><trkpt lat="40.37240402519338" lon="15.00711354894125"><ele>118.85714285714286</ele><time>2026-05-03T09:30:23.999Z</time></trkpt><trkpt lat="40.37241346470082" lon="15.007214314602807"><ele>120.14285714285714</ele><time>2026-05-03T09:30:28.999Z</time></trkpt><trkpt lat="40.37242046893352" lon="15.007313495857314"><ele>121.42857142857144</ele><time>2026-05-03T09:30:33.999Z</time></trkpt><trkpt lat="40.37242028152242" lon="15.007397939589008"><ele>122.71428571428572</ele><time>2026-05-03T09:30:37.999Z</time></trkpt><trkpt lat="40.37242101776161" lon="15.007487742029044"><ele>124.0</ele><time>2026-05-03T09:30:42.999Z</time></trkpt><trkpt lat="40.372424207395994" lon="15.007578190250786"><ele>125.14285714285715</ele><time>2026-05-03T09:30:47.999Z</time></trkpt><trkpt lat="40.372422293198966" lon="15.007678979276422"><ele>126.2857142857143</ele><time>2026-05-03T09:30:53Z</time></trkpt><trkpt lat="40.372415272100454" lon="15.007773480777042"><ele>127.42857142857143</ele><time>2026-05-03T09:30:57Z</time></trkpt><trkpt lat="40.3724211051215" lon="15.007867940133945"><ele>128.57142857142858</ele><time>2026-05-03T09:31:02Z</time></trkpt><trkpt lat="40.37242125579851" lon="15.007960182468388"><ele>129.71428571428572</ele><time>2026-05-03T09:31:07Z</time></trkpt><trkpt lat="40.37242706033663" lon="15.008054266471039"><ele>130.85714285714286</ele><time>2026-05-03T09:31:12Z</time></trkpt><trkpt lat="40.37243441860987" lon="15.00814395748417"><ele>132.0</ele><time>2026-05-03T09:31:17Z</time></trkpt><trkpt lat="40.37243990041444" lon="15.008242737213429"><ele>132.66666666666666</ele><time>2026-05-03T09:31:22Z</time></trkpt><trkpt lat="40.37242814230953" lon="15.00834415041564"><ele>133.33333333333334</ele><time>2026-05-03T09:31:27Z</time></trkpt><trkpt lat="40.37239989852995" lon="15.008439634337453"><ele>134.0</ele><time>2026-05-03T09:31:32.001Z</time></trkpt><trkpt lat="40.37235847327593" lon="15.008526900324986"><ele>134.66666666666669</ele><time>2026-05-03T09:31:36.001Z</time></trkpt><trkpt lat="40.37229498590867" lon="15.008600217584153"><ele>135.33333333333334</ele><time>2026-05-03T09:31:38.001Z</time></trkpt><trkpt lat="40.37220494536145" lon="15.0087156773468"><ele>136.0</ele><time>2026-05-03T09:31:40.001Z</time></trkpt><trkpt lat="40.37215292520585" lon="15.00877368802746"><ele>136.0</ele><time>2026-05-03T09:31:41.001Z</time></trkpt><trkpt lat="40.37209890128663" lon="15.008834455185502"><ele>136.0</ele><time>2026-05-03T09:31:42.001Z</time></trkpt><trkpt lat="40.37203535284688" lon="15.008891160432714"><ele>136.0</ele><time>2026-05-03T09:31:43.001Z</time></trkpt><trkpt lat="40.37197027351044" lon="15.008955216353757"><ele>136.0</ele><time>2026-05-03T09:31:44.001Z</time></trkpt><trkpt lat="40.37191102487125" lon="15.009023612586265"><ele>136.0</ele><time>2026-05-03T09:31:45.001Z</time></trkpt><trkpt lat="40.37185920746168" lon="15.009093672501017"><ele>136.0</ele><time>2026-05-03T09:31:46.001Z</time></trkpt><trkpt lat="40.37179610160414" lon="15.009155612863527"><ele>137.85714285714283</ele><time>2026-05-03T09:31:47.001Z</time></trkpt><trkpt lat="40.371740868781764" lon="15.009214089977425"><ele>139.71428571428572</ele><time>2026-05-03T09:31:48.001Z</time></trkpt><trkpt lat="40.37168899096524" lon="15.00927128144677"><ele>141.57142857142856</ele><time>2026-05-03T09:31:49.001Z</time></trkpt><trkpt lat="40.37163991965608" lon="15.0093261094531"><ele>143.42857142857142</ele><time>2026-05-03T09:31:50.001Z</time></trkpt><trkpt lat="40.37158796819349" lon="15.009380809961195"><ele>145.28571428571428</ele><time>2026-05-03T09:31:51.001Z</time></trkpt><trkpt lat="40.37153004016517" lon="15.0094310091794"><ele>147.14285714285714</ele><time>2026-05-03T09:31:52.001Z</time></trkpt><trkpt lat="40.37147805999583" lon="15.00947818482179"><ele>149.0</ele><time>2026-05-03T09:31:53.001Z</time></trkpt><trkpt lat="40.37138129042182" lon="15.009584843065099"><ele>145.66666666666666</ele><time>2026-05-03T09:31:55.001Z</time></trkpt><trkpt lat="40.37129235546118" lon="15.009689149389663"><ele>142.33333333333331</ele><time>2026-05-03T09:31:57.001Z</time></trkpt><trkpt lat="40.37124519220329" lon="15.009749113869619"><ele>139.0</ele><time>2026-05-03T09:31:58.001Z</time></trkpt><trkpt lat="40.37119393766164" lon="15.009807187614914"><ele>135.66666666666666</ele><time>2026-05-03T09:31:59.001Z</time></trkpt><trkpt lat="40.371138155853615" lon="15.009867905269495"><ele>132.33333333333334</ele><time>2026-05-03T09:32:00.001Z</time></trkpt><trkpt lat="40.3710802409391" lon="15.009927739005256"><ele>129.0</ele><time>2026-05-03T09:32:01.001Z</time></trkpt><trkpt lat="40.371019866388096" lon="15.009985636647496"><ele>131.0</ele><time>2026-05-03T09:32:02.001Z</time></trkpt><trkpt lat="40.370975185448565" lon="15.0100572250471"><ele>133.0</ele><time>2026-05-03T09:32:03.001Z</time></trkpt><trkpt lat="40.3709707425152" lon="15.010151050186437"><ele>135.0</ele><time>2026-05-03T09:32:04.001Z</time></trkpt><trkpt lat="40.37099975790757" lon="15.010293264553823"><ele>137.0</ele><time>2026-05-03T09:32:06.001Z</time></trkpt><trkpt lat="40.371006205282775" lon="15.010383741823238"><ele>139.0</ele><time>2026-05-03T09:32:08.001Z</time></trkpt><trkpt lat="40.371009212302006" lon="15.010472948170042"><ele>141.0</ele><time>2026-05-03T09:32:11.001Z</time></trkpt><trkpt lat="40.37097838863592" lon="15.010570756847544"><ele>141.0</ele><time>2026-05-03T09:32:14.001Z</time></trkpt><trkpt lat="40.37091570429131" lon="15.010645302369285"><ele>141.0</ele><time>2026-05-03T09:32:17.001Z</time></trkpt><trkpt lat="40.37083200668229" lon="15.010689530574446"><ele>141.0</ele><time>2026-05-03T09:32:20.002Z</time></trkpt><trkpt lat="40.370739782964684" lon="15.010711894345278"><ele>141.0</ele><time>2026-05-03T09:32:23.002Z</time></trkpt><trkpt lat="40.37066423564538" lon="15.010762686199698"><ele>141.0</ele><time>2026-05-03T09:32:26.002Z</time></trkpt><trkpt lat="40.370586407310284" lon="15.01079183446305"><ele>141.0</ele><time>2026-05-03T09:32:28.999Z</time></trkpt><trkpt lat="40.37050363218591" lon="15.01082241849189"><ele>142.0</ele><time>2026-05-03T09:32:31.999Z</time></trkpt><trkpt lat="40.370420921963344" lon="15.010863278608445"><ele>143.0</ele><time>2026-05-03T09:32:34.999Z</time></trkpt><trkpt lat="40.37034420548351" lon="15.010927551736577"><ele>144.0</ele><time>2026-05-03T09:32:37.999Z</time></trkpt><trkpt lat="40.37026765965233" lon="15.01098487409072"><ele>145.0</ele><time>2026-05-03T09:32:40.999Z</time></trkpt><trkpt lat="40.37020494052939" lon="15.011065295769974"><ele>146.0</ele><time>2026-05-03T09:32:43.999Z</time></trkpt><trkpt lat="40.370151558821966" lon="15.01113604676428"><ele>147.0</ele><time>2026-05-03T09:32:46.999Z</time></trkpt><trkpt lat="40.3700925834497" lon="15.011184663211699"><ele>147.0</ele><time>2026-05-03T09:32:50Z</time></trkpt><trkpt lat="40.37004231111427" lon="15.011247517224652"><ele>147.0</ele><time>2026-05-03T09:32:53Z</time></trkpt><trkpt lat="40.369982119374306" lon="15.011295457024962"><ele>147.0</ele><time>2026-05-03T09:32:56Z</time></trkpt><trkpt lat="40.36992742161647" lon="15.011347295336146"><ele>147.0</ele><time>2026-05-03T09:32:59Z</time></trkpt><trkpt lat="40.36987827874006" lon="15.011406141978458"><ele>147.0</ele><time>2026-05-03T09:33:02Z</time></trkpt><trkpt lat="40.369802579855254" lon="15.011462596853931"><ele>147.0</ele><time>2026-05-03T09:33:06Z</time></trkpt><trkpt lat="40.369735123951806" lon="15.011494983615792"><ele>147.0</ele><time>2026-05-03T09:33:09Z</time></trkpt><trkpt lat="40.369661192563164" lon="15.011513756378704"><ele>146.16666666666666</ele><time>2026-05-03T09:33:12Z</time></trkpt><trkpt lat="40.3695864390462" lon="15.011535494876052"><ele>145.33333333333334</ele><time>2026-05-03T09:33:15Z</time></trkpt><trkpt lat="40.369507852051754" lon="15.011554620882782"><ele>144.5</ele><time>2026-05-03T09:33:18Z</time></trkpt><trkpt lat="40.369423657420604" lon="15.011568431787497"><ele>143.66666666666669</ele><time>2026-05-03T09:33:21Z</time></trkpt><trkpt lat="40.369351632233716" lon="15.01158063240308"><ele>142.83333333333334</ele><time>2026-05-03T09:33:24.001Z</time></trkpt><trkpt lat="40.36927485759544" lon="15.011590478687381"><ele>142.0</ele><time>2026-05-03T09:33:27.001Z</time></trkpt><trkpt lat="40.369196915415365" lon="15.011601787432785"><ele>142.0</ele><time>2026-05-03T09:33:30.001Z</time></trkpt><trkpt lat="40.36912581142162" lon="15.011621022006292"><ele>142.0</ele><time>2026-05-03T09:33:33.001Z</time></trkpt><trkpt lat="40.3690519364846" lon="15.0116281118013"><ele>142.0</ele><time>2026-05-03T09:33:36.001Z</time></trkpt><trkpt lat="40.36898014759191" lon="15.011643029819583"><ele>142.0</ele><time>2026-05-03T09:33:39.001Z</time></trkpt><trkpt lat="40.36892281012951" lon="15.011703308360758"><ele>142.0</ele><time>2026-05-03T09:33:42.001Z</time></trkpt><trkpt lat="40.36888008606964" lon="15.011789388569067"><ele>142.0</ele><time>2026-05-03T09:33:46.001Z</time></trkpt><trkpt lat="40.36883099337227" lon="15.011848127281905"><ele>142.0</ele><time>2026-05-03T09:33:49.001Z</time></trkpt><trkpt lat="40.368779647233296" lon="15.011898592723078"><ele>144.0</ele><time>2026-05-03T09:33:52.001Z</time></trkpt><trkpt lat="40.36874141458988" lon="15.011968113949466"><ele>146.0</ele><time>2026-05-03T09:33:55.001Z</time></trkpt><trkpt lat="40.36869027007756" lon="15.012050837620388"><ele>148.0</ele><time>2026-05-03T09:33:59.001Z</time></trkpt><trkpt lat="40.36865115412233" lon="15.012137704324182"><ele>150.0</ele><time>2026-05-03T09:34:03.001Z</time></trkpt><trkpt lat="40.368648634617706" lon="15.012234007859846"><ele>152.0</ele><time>2026-05-03T09:34:07.002Z</time></trkpt><trkpt lat="40.36868279443786" lon="15.012307074086262"><ele>154.0</ele><time>2026-05-03T09:34:11.002Z</time></trkpt><trkpt lat="40.36873473572229" lon="15.012362001182664"><ele>156.0</ele><time>2026-05-03T09:34:15.002Z</time></trkpt><trkpt lat="40.36880393177598" lon="15.012376878361618"><ele>158.2857142857143</ele><time>2026-05-03T09:34:19.002Z</time></trkpt><trkpt lat="40.36887485030275" lon="15.01236140434231"><ele>160.57142857142856</ele><time>2026-05-03T09:34:23.002Z</time></trkpt><trkpt lat="40.368926696170526" lon="15.012313396024451"><ele>162.85714285714286</ele><time>2026-05-03T09:34:27.002Z</time></trkpt><trkpt lat="40.36897228832269" lon="15.012239249981066"><ele>165.14285714285717</ele><time>2026-05-03T09:34:31.002Z</time></trkpt><trkpt lat="40.36902868142397" lon="15.012194390520664"><ele>167.42857142857144</ele><time>2026-05-03T09:34:35Z</time></trkpt><trkpt lat="40.36909181084869" lon="15.01214386240973"><ele>169.71428571428572</ele><time>2026-05-03T09:34:39Z</time></trkpt><trkpt lat="40.369161205184064" lon="15.012109563041516"><ele>172.0</ele><time>2026-05-03T09:34:43Z</time></trkpt><trkpt lat="40.36923315059287" lon="15.012091380064192"><ele>172.0</ele><time>2026-05-03T09:34:47Z</time></trkpt><trkpt lat="40.369311594812686" lon="15.01207901739319"><ele>172.0</ele><time>2026-05-03T09:34:51Z</time></trkpt><trkpt lat="40.369381809637176" lon="15.012068841238058"><ele>172.0</ele><time>2026-05-03T09:34:55Z</time></trkpt><trkpt lat="40.36945490893808" lon="15.012062298240247"><ele>172.0</ele><time>2026-05-03T09:34:59Z</time></trkpt><trkpt lat="40.3695333512671" lon="15.012097516576048"><ele>172.0</ele><time>2026-05-03T09:35:03Z</time></trkpt><trkpt lat="40.3696040432208" lon="15.012125626537738"><ele>172.0</ele><time>2026-05-03T09:35:07Z</time></trkpt><trkpt lat="40.36966852426997" lon="15.0121700726205"><ele>171.71428571428572</ele><time>2026-05-03T09:35:11.001Z</time></trkpt><trkpt lat="40.36971514958777" lon="15.012235788749178"><ele>171.42857142857144</ele><time>2026-05-03T09:35:24.001Z</time></trkpt><trkpt lat="40.36975231256402" lon="15.012303716010177"><ele>171.14285714285717</ele><time>2026-05-03T09:35:33.001Z</time></trkpt><trkpt lat="40.3698060538286" lon="15.012359945200899"><ele>170.85714285714286</ele><time>2026-05-03T09:36:05.002Z</time></trkpt><trkpt lat="40.369854775617995" lon="15.01241806037262"><ele>170.57142857142856</ele><time>2026-05-03T09:36:32.002Z</time></trkpt><trkpt lat="40.36990968889663" lon="15.012461629611078"><ele>170.2857142857143</ele><time>2026-05-03T09:36:40.003Z</time></trkpt><trkpt lat="40.369961937519136" lon="15.012509748700552"><ele>170.0</ele><time>2026-05-03T09:36:51.001Z</time></trkpt><trkpt lat="40.3699960622355" lon="15.01258323126765"><ele>174.0</ele><time>2026-05-03T09:36:55.001Z</time></trkpt><trkpt lat="40.370048551079456" lon="15.012643951080312"><ele>178.0</ele><time>2026-05-03T09:36:59.001Z</time></trkpt><trkpt lat="40.37010301009927" lon="15.012688783590795"><ele>182.0</ele><time>2026-05-03T09:37:03.001Z</time></trkpt><trkpt lat="40.37015703256159" lon="15.012733436674198"><ele>186.0</ele><time>2026-05-03T09:37:07.001Z</time></trkpt><trkpt lat="40.37019526501026" lon="15.0128031729391"><ele>190.0</ele><time>2026-05-03T09:37:11.001Z</time></trkpt><trkpt lat="40.370246004812934" lon="15.012857124281078"><ele>194.0</ele><time>2026-05-03T09:37:15.001Z</time></trkpt><trkpt lat="40.37023407873473" lon="15.012947590069345"><ele>198.0</ele><time>2026-05-03T09:37:20.001Z</time></trkpt><trkpt lat="40.37016679234246" lon="15.012959448942425"><ele>198.0</ele><time>2026-05-03T09:37:24.001Z</time></trkpt><trkpt lat="40.37011083632236" lon="15.012903064170224"><ele>198.0</ele><time>2026-05-03T09:37:28.001Z</time></trkpt><trkpt lat="40.37004573797587" lon="15.01286289141086"><ele>198.0</ele><time>2026-05-03T09:37:32.001Z</time></trkpt><trkpt lat="40.3699780852982" lon="15.012823838734464"><ele>198.0</ele><time>2026-05-03T09:37:36.001Z</time></trkpt><trkpt lat="40.36989716028418" lon="15.012807233408637"><ele>198.0</ele><time>2026-05-03T09:37:40.001Z</time></trkpt><trkpt lat="40.369826868544266" lon="15.01275614220203"><ele>198.0</ele><time>2026-05-03T09:37:44.001Z</time></trkpt><trkpt lat="40.369750406512416" lon="15.012717721770112"><ele>198.2857142857143</ele><time>2026-05-03T09:37:48.001Z</time></trkpt><trkpt lat="40.369689953433785" lon="15.012683879978706"><ele>198.57142857142856</ele><time>2026-05-03T09:37:51.001Z</time></trkpt><trkpt lat="40.36962292492952" lon="15.012680067941584"><ele>198.85714285714286</ele><time>2026-05-03T09:37:54.002Z</time></trkpt><trkpt lat="40.36954012146227" lon="15.012677093143973"><ele>199.14285714285717</ele><time>2026-05-03T09:37:58.002Z</time></trkpt><trkpt lat="40.36947692801674" lon="15.012701346803384"><ele>199.42857142857144</ele><time>2026-05-03T09:38:01.002Z</time></trkpt><trkpt lat="40.369403681319234" lon="15.012751983344028"><ele>199.71428571428572</ele><time>2026-05-03T09:38:05.002Z</time></trkpt><trkpt lat="40.369351491290026" lon="15.012806880291476"><ele>200.0</ele><time>2026-05-03T09:38:08.002Z</time></trkpt><trkpt lat="40.36930109774996" lon="15.012894488871632"><ele>200.00000000000003</ele><time>2026-05-03T09:38:12.002Z</time></trkpt><trkpt lat="40.36926833249583" lon="15.012993936776029"><ele>200.0</ele><time>2026-05-03T09:38:16.002Z</time></trkpt><trkpt lat="40.36924162047162" lon="15.013089676290454"><ele>200.0</ele><time>2026-05-03T09:38:20.002Z</time></trkpt><trkpt lat="40.369233246235424" lon="15.01319085314925"><ele>200.0</ele><time>2026-05-03T09:38:24.002Z</time></trkpt><trkpt lat="40.36927273448327" lon="15.013267090667737"><ele>200.00000000000003</ele><time>2026-05-03T09:38:28.002Z</time></trkpt><trkpt lat="40.36931396242251" lon="15.013372421542526"><ele>200.0</ele><time>2026-05-03T09:38:32.002Z</time></trkpt><trkpt lat="40.36936610828132" lon="15.013439450396474"><ele>200.00000000000003</ele><time>2026-05-03T09:38:37.002Z</time></trkpt><trkpt lat="40.369441150257245" lon="15.013449324490873"><ele>200.0</ele><time>2026-05-03T09:38:41.003Z</time></trkpt><trkpt lat="40.369502208476504" lon="15.013426016009038"><ele>200.0</ele><time>2026-05-03T09:38:44.003Z</time></trkpt><trkpt lat="40.36956960377255" lon="15.013376936583796"><ele>200.0</ele><time>2026-05-03T09:38:48Z</time></trkpt><trkpt lat="40.36963085157693" lon="15.013313592048323"><ele>200.0</ele><time>2026-05-03T09:38:52Z</time></trkpt><trkpt lat="40.369696270978686" lon="15.013253754695146"><ele>200.00000000000003</ele><time>2026-05-03T09:38:56Z</time></trkpt><trkpt lat="40.36975092923555" lon="15.013202706851692"><ele>200.0</ele><time>2026-05-03T09:39:00Z</time></trkpt><trkpt lat="40.369813939180574" lon="15.013193887047693"><ele>199.71428571428572</ele><time>2026-05-03T09:39:04Z</time></trkpt><trkpt lat="40.36986341720864" lon="15.013246678714697"><ele>199.42857142857144</ele><time>2026-05-03T09:39:07Z</time></trkpt><trkpt lat="40.36991897675943" lon="15.013320068668168"><ele>199.14285714285717</ele><time>2026-05-03T09:39:11Z</time></trkpt><trkpt lat="40.369963292381414" lon="15.013400117169727"><ele>198.85714285714286</ele><time>2026-05-03T09:39:15.001Z</time></trkpt><trkpt lat="40.369987625145036" lon="15.01348250775875"><ele>198.57142857142856</ele><time>2026-05-03T09:39:19.001Z</time></trkpt><trkpt lat="40.37003634979776" lon="15.013554668090643"><ele>198.2857142857143</ele><time>2026-05-03T09:39:23.001Z</time></trkpt><trkpt lat="40.370105636148644" lon="15.013617883882853"><ele>198.0</ele><time>2026-05-03T09:39:28.001Z</time></trkpt><trkpt lat="40.37016555615839" lon="15.013654553527688"><ele>201.85714285714286</ele><time>2026-05-03T09:39:32.001Z</time></trkpt><trkpt lat="40.37019257400195" lon="15.013747407017872"><ele>205.71428571428572</ele><time>2026-05-03T09:39:36.001Z</time></trkpt><trkpt lat="40.37025587467488" lon="15.013788217576176"><ele>209.57142857142858</ele><time>2026-05-03T09:39:40.001Z</time></trkpt><trkpt lat="40.370269722577014" lon="15.013892869793315"><ele>213.42857142857144</ele><time>2026-05-03T09:39:45.001Z</time></trkpt><trkpt lat="40.37023698984339" lon="15.01398025021788"><ele>217.28571428571428</ele><time>2026-05-03T09:39:50.001Z</time></trkpt><trkpt lat="40.37018272792501" lon="15.01402923446907"><ele>221.14285714285717</ele><time>2026-05-03T09:39:54.001Z</time></trkpt><trkpt lat="40.37012603446518" lon="15.014086420757774"><ele>225.00000000000003</ele><time>2026-05-03T09:39:58.001Z</time></trkpt><trkpt lat="40.37007045753208" lon="15.014163899270466"><ele>227.14285714285717</ele><time>2026-05-03T09:40:03.001Z</time></trkpt><trkpt lat="40.370017295760825" lon="15.014208626828067"><ele>229.28571428571428</ele><time>2026-05-03T09:40:06.002Z</time></trkpt><trkpt lat="40.36996687494619" lon="15.01426014028527"><ele>231.42857142857144</ele><time>2026-05-03T09:40:11.002Z</time></trkpt><trkpt lat="40.369917685623975" lon="15.014316237096391"><ele>233.57142857142858</ele><time>2026-05-03T09:40:15.002Z</time></trkpt><trkpt lat="40.3698563230564" lon="15.014370826276636"><ele>235.71428571428572</ele><time>2026-05-03T09:40:20.002Z</time></trkpt><trkpt lat="40.369795463718845" lon="15.01441394507197"><ele>237.85714285714286</ele><time>2026-05-03T09:40:25.002Z</time></trkpt><trkpt lat="40.36973603822631" lon="15.01445605024424"><ele>240.0</ele><time>2026-05-03T09:40:30.002Z</time></trkpt><trkpt lat="40.36967651613644" lon="15.014490147238167"><ele>240.0</ele><time>2026-05-03T09:41:19Z</time></trkpt><trkpt lat="40.36965187119226" lon="15.014585036756745"><ele>240.0</ele><time>2026-05-03T09:44:51.002Z</time></trkpt><trkpt lat="40.369577515372825" lon="15.014583254264059"><ele>240.0</ele><time>2026-05-03T09:44:55.002Z</time></trkpt><trkpt lat="40.36951383875032" lon="15.014599458472272"><ele>240.0</ele><time>2026-05-03T09:44:59.002Z</time></trkpt><trkpt lat="40.36944281569597" lon="15.014607032285914"><ele>240.0</ele><time>2026-05-03T09:45:04.002Z</time></trkpt><trkpt lat="40.36937263906034" lon="15.014631306090154"><ele>240.0</ele><time>2026-05-03T09:45:08Z</time></trkpt><trkpt lat="40.36930372762049" lon="15.014627983789463"><ele>240.0</ele><time>2026-05-03T09:45:12Z</time></trkpt><trkpt lat="40.369231970914186" lon="15.01464674333068"><ele>240.0</ele><time>2026-05-03T09:45:16Z</time></trkpt><trkpt lat="40.369167131403394" lon="15.014660823317545"><ele>240.0</ele><time>2026-05-03T09:45:19Z</time></trkpt><trkpt lat="40.369094912539396" lon="15.01468436888989"><ele>240.0</ele><time>2026-05-03T09:45:23Z</time></trkpt><trkpt lat="40.369021851268506" lon="15.014695563480878"><ele>240.0</ele><time>2026-05-03T09:45:27Z</time></trkpt><trkpt lat="40.36894280859186" lon="15.014717437941082"><ele>240.0</ele><time>2026-05-03T09:45:31Z</time></trkpt><trkpt lat="40.36886981023754" lon="15.014739040050383"><ele>240.0</ele><time>2026-05-03T09:45:34Z</time></trkpt><trkpt lat="40.36878499681064" lon="15.014776542457566"><ele>238.85714285714286</ele><time>2026-05-03T09:45:37Z</time></trkpt><trkpt lat="40.36869333684888" lon="15.014806416450014"><ele>237.71428571428572</ele><time>2026-05-03T09:45:40Z</time></trkpt><trkpt lat="40.36862972625225" lon="15.014828483904052"><ele>236.57142857142858</ele><time>2026-05-03T09:45:42Z</time></trkpt><trkpt lat="40.36856897940638" lon="15.014855876367356"><ele>235.42857142857144</ele><time>2026-05-03T09:45:44Z</time></trkpt><trkpt lat="40.368498726797704" lon="15.014886941429364"><ele>234.28571428571428</ele><time>2026-05-03T09:45:46Z</time></trkpt><trkpt lat="40.368426037798365" lon="15.014930006220368"><ele>233.14285714285717</ele><time>2026-05-03T09:45:48.001Z</time></trkpt><trkpt lat="40.36836738608816" lon="15.014970742219578"><ele>232.00000000000003</ele><time>2026-05-03T09:45:50.001Z</time></trkpt><trkpt lat="40.3683046143204" lon="15.015028283045051"><ele>235.33333333333331</ele><time>2026-05-03T09:45:54.001Z</time></trkpt><trkpt lat="40.36830504996987" lon="15.015119434514672"><ele>238.66666666666666</ele><time>2026-05-03T09:45:57.001Z</time></trkpt><trkpt lat="40.36828167888958" lon="15.015216038851253"><ele>242.0</ele><time>2026-05-03T09:45:59.001Z</time></trkpt><trkpt lat="40.36821989388874" lon="15.015297656266139"><ele>245.33333333333331</ele><time>2026-05-03T09:46:03.001Z</time></trkpt><trkpt lat="40.3681665966637" lon="15.015370727435762"><ele>248.66666666666666</ele><time>2026-05-03T09:46:06.001Z</time></trkpt><trkpt lat="40.368106367121314" lon="15.015466284161107"><ele>252.0</ele><time>2026-05-03T09:46:10.001Z</time></trkpt><trkpt lat="40.36806032644977" lon="15.015554700180717"><ele>251.71428571428572</ele><time>2026-05-03T09:46:13.001Z</time></trkpt><trkpt lat="40.368019665839604" lon="15.01562229640553"><ele>251.42857142857144</ele><time>2026-05-03T09:46:16.001Z</time></trkpt><trkpt lat="40.367977635293165" lon="15.015693324267412"><ele>251.14285714285714</ele><time>2026-05-03T09:46:19.001Z</time></trkpt><trkpt lat="40.3679367343053" lon="15.01576045712815"><ele>250.85714285714286</ele><time>2026-05-03T09:46:22.001Z</time></trkpt><trkpt lat="40.367885064950656" lon="15.015824212087827"><ele>250.57142857142858</ele><time>2026-05-03T09:46:26.001Z</time></trkpt><trkpt lat="40.36787574863336" lon="15.015914947667092"><ele>250.28571428571428</ele><time>2026-05-03T09:46:31.002Z</time></trkpt><trkpt lat="40.36781856551817" lon="15.015980218509538"><ele>250.0</ele><time>2026-05-03T09:46:35.002Z</time></trkpt><trkpt lat="40.3678841843359" lon="15.015923691855509"><ele>250.33333333333331</ele><time>2026-05-03T09:46:46.002Z</time></trkpt><trkpt lat="40.36793422654831" lon="15.015816301395143"><ele>250.66666666666666</ele><time>2026-05-03T09:46:49.002Z</time></trkpt><trkpt lat="40.367966289559384" lon="15.015737267919862"><ele>251.0</ele><time>2026-05-03T09:46:51.002Z</time></trkpt><trkpt lat="40.3680114174715" lon="15.015645182455074"><ele>251.33333333333331</ele><time>2026-05-03T09:46:53.002Z</time></trkpt><trkpt lat="40.368070638989515" lon="15.01555915702793"><ele>251.66666666666666</ele><time>2026-05-03T09:46:55.002Z</time></trkpt><trkpt lat="40.36812856935298" lon="15.01548338165688"><ele>252.0</ele><time>2026-05-03T09:46:57.002Z</time></trkpt><trkpt lat="40.368170503377016" lon="15.015401704634504"><ele>252.0</ele><time>2026-05-03T09:47:00.002Z</time></trkpt><trkpt lat="40.36821413146152" lon="15.015326157347433"><ele>252.0</ele><time>2026-05-03T09:47:02.002Z</time></trkpt><trkpt lat="40.36826524289069" lon="15.01526626999513"><ele>252.0</ele><time>2026-05-03T09:47:04.002Z</time></trkpt><trkpt lat="40.368318412846946" lon="15.015197461247348"><ele>252.0</ele><time>2026-05-03T09:47:06.002Z</time></trkpt><trkpt lat="40.36834634897734" lon="15.015098170648178"><ele>252.0</ele><time>2026-05-03T09:47:09.003Z</time></trkpt><trkpt lat="40.36825986416924" lon="15.015053696640699"><ele>252.0</ele><time>2026-05-03T09:47:13Z</time></trkpt><trkpt lat="40.368193054493176" lon="15.015134758950625"><ele>252.0</ele><time>2026-05-03T09:47:16Z</time></trkpt><trkpt lat="40.36814218530677" lon="15.015189621679736"><ele>252.0</ele><time>2026-05-03T09:47:19Z</time></trkpt><trkpt lat="40.368077630233145" lon="15.015259055953264"><ele>252.0</ele><time>2026-05-03T09:47:24Z</time></trkpt><trkpt lat="40.36802264769599" lon="15.015313544945407"><ele>252.0</ele><time>2026-05-03T09:47:27Z</time></trkpt><trkpt lat="40.367962588441806" lon="15.015361982415179"><ele>252.0</ele><time>2026-05-03T09:47:29Z</time></trkpt><trkpt lat="40.367919951878626" lon="15.0154236026582"><ele>252.0</ele><time>2026-05-03T09:47:30Z</time></trkpt><trkpt lat="40.36785255174135" lon="15.015488123928199"><ele>252.0</ele><time>2026-05-03T09:47:32Z</time></trkpt><trkpt lat="40.367759565768026" lon="15.015588050526782"><ele>251.66666666666666</ele><time>2026-05-03T09:47:34Z</time></trkpt><trkpt lat="40.36766331007652" lon="15.015678879998713"><ele>251.33333333333331</ele><time>2026-05-03T09:47:36Z</time></trkpt><trkpt lat="40.36762402378995" lon="15.015751891536697"><ele>251.0</ele><time>2026-05-03T09:47:37Z</time></trkpt><trkpt lat="40.36756198911779" lon="15.015819874934367"><ele>250.66666666666666</ele><time>2026-05-03T09:47:38Z</time></trkpt><trkpt lat="40.36749025713029" lon="15.01586610846762"><ele>250.33333333333331</ele><time>2026-05-03T09:47:39Z</time></trkpt><trkpt lat="40.36742975282997" lon="15.015918129130535"><ele>250.0</ele><time>2026-05-03T09:47:40Z</time></trkpt><trkpt lat="40.36737732904788" lon="15.015964610491825"><ele>250.0</ele><time>2026-05-03T09:47:41Z</time></trkpt><trkpt lat="40.36728374304455" lon="15.015992824173647"><ele>250.0</ele><time>2026-05-03T09:47:43Z</time></trkpt><trkpt lat="40.36722629208229" lon="15.016031151304473"><ele>250.0</ele><time>2026-05-03T09:47:44Z</time></trkpt><trkpt lat="40.36713592351469" lon="15.016123986174357"><ele>250.0</ele><time>2026-05-03T09:47:46Z</time></trkpt><trkpt lat="40.36704774751236" lon="15.016235929273789"><ele>250.0</ele><time>2026-05-03T09:47:48Z</time></trkpt><trkpt lat="40.36693489433338" lon="15.016323611034512"><ele>249.2</ele><time>2026-05-03T09:47:50Z</time></trkpt><trkpt lat="40.36687782331698" lon="15.01637777060131"><ele>248.4</ele><time>2026-05-03T09:47:51Z</time></trkpt><trkpt lat="40.36677558318132" lon="15.01646114821282"><ele>247.60000000000002</ele><time>2026-05-03T09:47:53Z</time></trkpt><trkpt lat="40.366697464733775" lon="15.01656953607564"><ele>246.8</ele><time>2026-05-03T09:47:55Z</time></trkpt><trkpt lat="40.366630282054594" lon="15.01665310165682"><ele>246.0</ele><time>2026-05-03T09:47:58.001Z</time></trkpt><trkpt lat="40.36659583513886" lon="15.016731746224348"><ele>243.16666666666666</ele><time>2026-05-03T09:48:28.001Z</time></trkpt><trkpt lat="40.36665081039517" lon="15.016648601962187"><ele>240.33333333333331</ele><time>2026-05-03T09:48:38.002Z</time></trkpt><trkpt lat="40.36672008987777" lon="15.016576669775128"><ele>237.5</ele><time>2026-05-03T09:48:41.002Z</time></trkpt><trkpt lat="40.3667799380942" lon="15.016492772748034"><ele>234.66666666666666</ele><time>2026-05-03T09:48:44.002Z</time></trkpt><trkpt lat="40.36685321360589" lon="15.016425951913659"><ele>231.83333333333331</ele><time>2026-05-03T09:48:47.002Z</time></trkpt><trkpt lat="40.3669221435075" lon="15.016354430940792"><ele>229.0</ele><time>2026-05-03T09:48:50.002Z</time></trkpt><trkpt lat="40.366993331468755" lon="15.01627493290172"><ele>228.99999999999997</ele><time>2026-05-03T09:48:53.002Z</time></trkpt><trkpt lat="40.367067261379184" lon="15.016210566827732"><ele>229.0</ele><time>2026-05-03T09:48:56.002Z</time></trkpt><trkpt lat="40.36715027555188" lon="15.016124224454465"><ele>229.0</ele><time>2026-05-03T09:48:59.002Z</time></trkpt><trkpt lat="40.36720104970929" lon="15.01606847542489"><ele>229.0</ele><time>2026-05-03T09:49:01.002Z</time></trkpt><trkpt lat="40.36727902761431" lon="15.01600289008894"><ele>228.99999999999997</ele><time>2026-05-03T09:49:04.002Z</time></trkpt><trkpt lat="40.36735392883272" lon="15.015943505618594"><ele>229.0</ele><time>2026-05-03T09:49:07.002Z</time></trkpt><trkpt lat="40.36743127074635" lon="15.015891933069604"><ele>230.16666666666666</ele><time>2026-05-03T09:49:10.002Z</time></trkpt><trkpt lat="40.36750077174341" lon="15.015818988499621"><ele>231.33333333333331</ele><time>2026-05-03T09:49:13.002Z</time></trkpt><trkpt lat="40.3675702051924" lon="15.01576139461387"><ele>232.5</ele><time>2026-05-03T09:49:16.003Z</time></trkpt><trkpt lat="40.36763376218365" lon="15.015695944979269"><ele>233.66666666666669</ele><time>2026-05-03T09:49:18Z</time></trkpt><trkpt lat="40.36769905474271" lon="15.015631226919643"><ele>234.83333333333334</ele><time>2026-05-03T09:49:21Z</time></trkpt><trkpt lat="40.367748923140596" lon="15.015580730361826"><ele>236.0</ele><time>2026-05-03T09:49:23Z</time></trkpt><trkpt lat="40.36779914873082" lon="15.015530382180025"><ele>236.0</ele><time>2026-05-03T09:49:25Z</time></trkpt><trkpt lat="40.36786762095617" lon="15.015446607623502"><ele>236.0</ele><time>2026-05-03T09:49:28Z</time></trkpt><trkpt lat="40.36794101632521" lon="15.015374866354211"><ele>236.0</ele><time>2026-05-03T09:49:31Z</time></trkpt><trkpt lat="40.36799506159489" lon="15.01532536201848"><ele>236.0</ele><time>2026-05-03T09:49:33Z</time></trkpt><trkpt lat="40.368048508075944" lon="15.015273334845368"><ele>236.0</ele><time>2026-05-03T09:49:35Z</time></trkpt><trkpt lat="40.36809974548466" lon="15.015221006720633"><ele>236.0</ele><time>2026-05-03T09:49:37Z</time></trkpt><trkpt lat="40.368146274696464" lon="15.015164019200402"><ele>236.0</ele><time>2026-05-03T09:49:39Z</time></trkpt><trkpt lat="40.36820898392961" lon="15.015103575525144"><ele>238.28571428571428</ele><time>2026-05-03T09:49:42Z</time></trkpt><trkpt lat="40.3682678725703" lon="15.01506997918932"><ele>240.57142857142858</ele><time>2026-05-03T09:49:45.001Z</time></trkpt><trkpt lat="40.36833051098443" lon="15.01511385477361"><ele>242.85714285714286</ele><time>2026-05-03T09:49:49.001Z</time></trkpt><trkpt lat="40.36829829798849" lon="15.015195173848651"><ele>245.14285714285714</ele><time>2026-05-03T09:49:52.001Z</time></trkpt><trkpt lat="40.36824401207931" lon="15.015266515300947"><ele>247.42857142857144</ele><time>2026-05-03T09:49:55.001Z</time></trkpt><trkpt lat="40.3681910023163" lon="15.015347560757501"><ele>249.71428571428572</ele><time>2026-05-03T09:49:58.001Z</time></trkpt><trkpt lat="40.36814024683893" lon="15.015413905759145"><ele>252.0</ele><time>2026-05-03T09:50:01.001Z</time></trkpt><trkpt lat="40.36809605290676" lon="15.015490118181258"><ele>252.0</ele><time>2026-05-03T09:50:05.001Z</time></trkpt><trkpt lat="40.3681016487075" lon="15.015602358178633"><ele>252.0</ele><time>2026-05-03T09:50:09.001Z</time></trkpt><trkpt lat="40.36808243686934" lon="15.01571431529394"><ele>252.0</ele><time>2026-05-03T09:50:14.001Z</time></trkpt><trkpt lat="40.36808956153354" lon="15.01580496035854"><ele>252.0</ele><time>2026-05-03T09:50:19.001Z</time></trkpt><trkpt lat="40.36804183440887" lon="15.015873522286304"><ele>252.0</ele><time>2026-05-03T09:50:23.002Z</time></trkpt><trkpt lat="40.36799148389245" lon="15.015957346660548"><ele>252.0</ele><time>2026-05-03T09:50:28.002Z</time></trkpt><trkpt lat="40.367951950986836" lon="15.01602662490158"><ele>252.0</ele><time>2026-05-03T09:50:32.002Z</time></trkpt><trkpt lat="40.367997719628576" lon="15.015951504476355"><ele>252.0</ele><time>2026-05-03T09:51:07.003Z</time></trkpt><trkpt lat="40.36804320246313" lon="15.015855387311952"><ele>252.0</ele><time>2026-05-03T09:51:11.003Z</time></trkpt><trkpt lat="40.36809163434419" lon="15.015785414312882"><ele>252.0</ele><time>2026-05-03T09:51:14.003Z</time></trkpt><trkpt lat="40.36810131167119" lon="15.015701023496137"><ele>252.0</ele><time>2026-05-03T09:51:21.003Z</time></trkpt><trkpt lat="40.368115765333286" lon="15.01559001692092"><ele>252.0</ele><time>2026-05-03T09:51:26.001Z</time></trkpt><trkpt lat="40.36810339446852" lon="15.015506652208328"><ele>252.0</ele><time>2026-05-03T09:51:29.001Z</time></trkpt><trkpt lat="40.36815759025816" lon="15.015423255715179"><ele>252.0</ele><time>2026-05-03T09:51:36.001Z</time></trkpt><trkpt lat="40.36821808177859" lon="15.015347131628749"><ele>252.0</ele><time>2026-05-03T09:51:38.001Z</time></trkpt><trkpt lat="40.368273298702356" lon="15.01524918715223"><ele>252.0</ele><time>2026-05-03T09:51:40.001Z</time></trkpt><trkpt lat="40.368332843551585" lon="15.015170860971015"><ele>252.0</ele><time>2026-05-03T09:51:42.001Z</time></trkpt><trkpt lat="40.368322760707834" lon="15.015069600311275"><ele>252.0</ele><time>2026-05-03T09:51:45.001Z</time></trkpt><trkpt lat="40.368247096667524" lon="15.015047148460324"><ele>252.0</ele><time>2026-05-03T09:51:48.001Z</time></trkpt><trkpt lat="40.368208738778215" lon="15.015120109891019"><ele>252.0</ele><time>2026-05-03T09:51:50.001Z</time></trkpt><trkpt lat="40.36814477550813" lon="15.015193911902873"><ele>252.0</ele><time>2026-05-03T09:51:53.001Z</time></trkpt><trkpt lat="40.368068572871834" lon="15.015262881487988"><ele>252.0</ele><time>2026-05-03T09:51:56.001Z</time></trkpt><trkpt lat="40.368002043903324" lon="15.01532563351578"><ele>252.0</ele><time>2026-05-03T09:51:58.001Z</time></trkpt><trkpt lat="40.367925132168814" lon="15.015403557006469"><ele>252.0</ele><time>2026-05-03T09:52:00.001Z</time></trkpt><trkpt lat="40.367847549232415" lon="15.015485083642133"><ele>251.6</ele><time>2026-05-03T09:52:02.001Z</time></trkpt><trkpt lat="40.36773328615458" lon="15.015582342720522"><ele>251.2</ele><time>2026-05-03T09:52:04.001Z</time></trkpt><trkpt lat="40.36767328036466" lon="15.015647053567413"><ele>250.8</ele><time>2026-05-03T09:52:05.001Z</time></trkpt><trkpt lat="40.36761017598853" lon="15.015721202688358"><ele>250.4</ele><time>2026-05-03T09:52:06.001Z</time></trkpt><trkpt lat="40.36754385172891" lon="15.015772181627925"><ele>250.0</ele><time>2026-05-03T09:52:07.001Z</time></trkpt><trkpt lat="40.36746615756768" lon="15.015842167047799"><ele>250.0</ele><time>2026-05-03T09:52:08.001Z</time></trkpt><trkpt lat="40.36738841449407" lon="15.015898961496612"><ele>250.0</ele><time>2026-05-03T09:52:09.001Z</time></trkpt><trkpt lat="40.367300153252614" lon="15.016014801525577"><ele>250.0</ele><time>2026-05-03T09:52:10.001Z</time></trkpt><trkpt lat="40.36721592121943" lon="15.016047498279859"><ele>250.0</ele><time>2026-05-03T09:52:11.001Z</time></trkpt><trkpt lat="40.36712836522864" lon="15.01612393047364"><ele>250.0</ele><time>2026-05-03T09:52:12.001Z</time></trkpt><trkpt lat="40.367055688195926" lon="15.016211254628706"><ele>245.8</ele><time>2026-05-03T09:52:13.001Z</time></trkpt><trkpt lat="40.366966578494775" lon="15.016290366001828"><ele>241.6</ele><time>2026-05-03T09:52:14.001Z</time></trkpt><trkpt lat="40.36689040750966" lon="15.016373517450736"><ele>237.39999999999998</ele><time>2026-05-03T09:52:15.001Z</time></trkpt><trkpt lat="40.36682001780273" lon="15.016462026772185"><ele>233.2</ele><time>2026-05-03T09:52:16.002Z</time></trkpt><trkpt lat="40.36673849953976" lon="15.01654879421929"><ele>229.0</ele><time>2026-05-03T09:52:17.002Z</time></trkpt><trkpt lat="40.36667265474172" lon="15.016621372570619"><ele>231.83333333333331</ele><time>2026-05-03T09:52:18.002Z</time></trkpt><trkpt lat="40.3666127313442" lon="15.016656927434004"><ele>234.66666666666666</ele><time>2026-05-03T09:52:20.002Z</time></trkpt><trkpt lat="40.366573203013864" lon="15.016748432028795"><ele>237.5</ele><time>2026-05-03T09:52:24.002Z</time></trkpt><trkpt lat="40.3666094623142" lon="15.016858862165403"><ele>240.33333333333331</ele><time>2026-05-03T09:52:26.002Z</time></trkpt><trkpt lat="40.36666321113612" lon="15.01693121688492"><ele>243.16666666666666</ele><time>2026-05-03T09:52:28.002Z</time></trkpt><trkpt lat="40.36669302549324" lon="15.017021244781407"><ele>246.0</ele><time>2026-05-03T09:52:30.002Z</time></trkpt><trkpt lat="40.3667165652712" lon="15.017122541259914"><ele>246.0</ele><time>2026-05-03T09:52:32.002Z</time></trkpt><trkpt lat="40.366735099172644" lon="15.017225161202697"><ele>246.0</ele><time>2026-05-03T09:52:34.002Z</time></trkpt><trkpt lat="40.36674119091178" lon="15.017335626416909"><ele>246.0</ele><time>2026-05-03T09:52:36.002Z</time></trkpt><trkpt lat="40.36676898303703" lon="15.017436320268482"><ele>246.0</ele><time>2026-05-03T09:52:38.002Z</time></trkpt><trkpt lat="40.366791429163854" lon="15.017538348543134"><ele>246.0</ele><time>2026-05-03T09:52:40.002Z</time></trkpt><trkpt lat="40.36681443410379" lon="15.017641159812545"><ele>246.0</ele><time>2026-05-03T09:52:42.002Z</time></trkpt><trkpt lat="40.36684226451014" lon="15.01774680933135"><ele>245.42857142857144</ele><time>2026-05-03T09:52:44.002Z</time></trkpt><trkpt lat="40.36684802543278" lon="15.017846483186977"><ele>244.85714285714286</ele><time>2026-05-03T09:52:46.002Z</time></trkpt><trkpt lat="40.36687352202504" lon="15.017941388875952"><ele>244.28571428571428</ele><time>2026-05-03T09:52:48.002Z</time></trkpt><trkpt lat="40.366893756333305" lon="15.01802062105217"><ele>243.71428571428572</ele><time>2026-05-03T09:52:50.002Z</time></trkpt><trkpt lat="40.366910119008615" lon="15.018115278219167"><ele>243.1428571428571</ele><time>2026-05-03T09:52:52.002Z</time></trkpt><trkpt lat="40.36691937769984" lon="15.018200626151174"><ele>242.57142857142856</ele><time>2026-05-03T09:52:54.002Z</time></trkpt><trkpt lat="40.36694846452106" lon="15.018282874675736"><ele>242.0</ele><time>2026-05-03T09:52:56.002Z</time></trkpt><trkpt lat="40.36697917168703" lon="15.018367849336403"><ele>241.42857142857142</ele><time>2026-05-03T09:52:58.002Z</time></trkpt><trkpt lat="40.36700748430219" lon="15.018450795610178"><ele>240.85714285714283</ele><time>2026-05-03T09:53:00.002Z</time></trkpt><trkpt lat="40.36703540747727" lon="15.018534157622536"><ele>240.28571428571428</ele><time>2026-05-03T09:53:02.002Z</time></trkpt><trkpt lat="40.36706270631436" lon="15.018619010050573"><ele>239.71428571428572</ele><time>2026-05-03T09:53:04.003Z</time></trkpt><trkpt lat="40.36709459727103" lon="15.018705349882465"><ele>239.14285714285714</ele><time>2026-05-03T09:53:06.003Z</time></trkpt><trkpt lat="40.367139267956844" lon="15.0187798983055"><ele>238.57142857142856</ele><time>2026-05-03T09:53:08.003Z</time></trkpt><trkpt lat="40.36717649634354" lon="15.01886961766801"><ele>238.0</ele><time>2026-05-03T09:53:10.003Z</time></trkpt><trkpt lat="40.36721256766906" lon="15.01894717543331"><ele>242.49999999999997</ele><time>2026-05-03T09:53:12.003Z</time></trkpt><trkpt lat="40.3672529724265" lon="15.019027641490357"><ele>247.0</ele><time>2026-05-03T09:53:14.003Z</time></trkpt><trkpt lat="40.367291197786685" lon="15.019110309050488"><ele>251.5</ele><time>2026-05-03T09:53:16.003Z</time></trkpt><trkpt lat="40.367331512063735" lon="15.019198082820182"><ele>256.0</ele><time>2026-05-03T09:53:18.003Z</time></trkpt><trkpt lat="40.36737698341409" lon="15.01927159113505"><ele>260.5</ele><time>2026-05-03T09:53:20.003Z</time></trkpt><trkpt lat="40.3674276226851" lon="15.01935920162027"><ele>265.0</ele><time>2026-05-03T09:53:22.003Z</time></trkpt><trkpt lat="40.36748159507694" lon="15.019441900096037"><ele>265.0</ele><time>2026-05-03T09:53:24.003Z</time></trkpt><trkpt lat="40.36753176801142" lon="15.019521156875452"><ele>265.0</ele><time>2026-05-03T09:53:26.003Z</time></trkpt><trkpt lat="40.36759318594236" lon="15.019587992390841"><ele>265.0</ele><time>2026-05-03T09:53:28.003Z</time></trkpt><trkpt lat="40.367657316330195" lon="15.019648026313227"><ele>265.0</ele><time>2026-05-03T09:53:30.001Z</time></trkpt><trkpt lat="40.367721368342465" lon="15.019708520554325"><ele>265.0</ele><time>2026-05-03T09:53:32.001Z</time></trkpt><trkpt lat="40.367778123301946" lon="15.019780028100177"><ele>265.0</ele><time>2026-05-03T09:53:34.001Z</time></trkpt><trkpt lat="40.367836264127696" lon="15.019848101951517"><ele>264.99999999999994</ele><time>2026-05-03T09:53:36.001Z</time></trkpt><trkpt lat="40.367886390458324" lon="15.019912874852677"><ele>265.0</ele><time>2026-05-03T09:53:38.001Z</time></trkpt><trkpt lat="40.367937726639866" lon="15.01997999446991"><ele>265.0</ele><time>2026-05-03T09:53:40.001Z</time></trkpt><trkpt lat="40.36798409618562" lon="15.020056917300236"><ele>265.0</ele><time>2026-05-03T09:53:42.001Z</time></trkpt><trkpt lat="40.3680306861845" lon="15.02013071368819"><ele>265.0</ele><time>2026-05-03T09:53:44.001Z</time></trkpt><trkpt lat="40.36808101388071" lon="15.020201029478072"><ele>264.99999999999994</ele><time>2026-05-03T09:53:46.001Z</time></trkpt><trkpt lat="40.36812362106045" lon="15.020263939745153"><ele>265.0</ele><time>2026-05-03T09:53:48.001Z</time></trkpt><trkpt lat="40.36815918496846" lon="15.020340874883214"><ele>264.8333333333333</ele><time>2026-05-03T09:53:50.001Z</time></trkpt><trkpt lat="40.36818493817974" lon="15.02045315982918"><ele>264.66666666666663</ele><time>2026-05-03T09:53:53.001Z</time></trkpt><trkpt lat="40.36819279537901" lon="15.020546358375624"><ele>264.5</ele><time>2026-05-03T09:53:56.001Z</time></trkpt><trkpt lat="40.36820084706222" lon="15.020655924136014"><ele>264.3333333333333</ele><time>2026-05-03T09:53:59.001Z</time></trkpt><trkpt lat="40.36818043600347" lon="15.020749547408133"><ele>264.1666666666667</ele><time>2026-05-03T09:54:02.001Z</time></trkpt><trkpt lat="40.36818341805174" lon="15.02084275950844"><ele>264.0</ele><time>2026-05-03T09:54:06.001Z</time></trkpt><trkpt lat="40.368213580905326" lon="15.02095762922444"><ele>263.42857142857144</ele><time>2026-05-03T09:54:09.001Z</time></trkpt><trkpt lat="40.36822362436087" lon="15.021053476140287"><ele>262.8571428571429</ele><time>2026-05-03T09:54:11.001Z</time></trkpt><trkpt lat="40.3682326387758" lon="15.021140954432733"><ele>262.28571428571433</ele><time>2026-05-03T09:54:13.001Z</time></trkpt><trkpt lat="40.3682439399049" lon="15.021226811913344"><ele>261.7142857142857</ele><time>2026-05-03T09:54:15.001Z</time></trkpt><trkpt lat="40.36824958648626" lon="15.021310023799877"><ele>261.14285714285717</ele><time>2026-05-03T09:54:17.001Z</time></trkpt><trkpt lat="40.368210070570214" lon="15.02140055810273"><ele>260.5714285714286</ele><time>2026-05-03T09:54:19.001Z</time></trkpt><trkpt lat="40.36816580664939" lon="15.021512719863885"><ele>260.0</ele><time>2026-05-03T09:54:21.001Z</time></trkpt><trkpt lat="40.368118272358046" lon="15.021592186019413"><ele>259.8</ele><time>2026-05-03T09:54:23.001Z</time></trkpt><trkpt lat="40.36806414224459" lon="15.021667773404245"><ele>259.6</ele><time>2026-05-03T09:54:25.001Z</time></trkpt><trkpt lat="40.36801899611027" lon="15.021770217855202"><ele>259.4</ele><time>2026-05-03T09:54:27.001Z</time></trkpt><trkpt lat="40.36798732594309" lon="15.021910472392388"><ele>259.2</ele><time>2026-05-03T09:54:29.001Z</time></trkpt><trkpt lat="40.36795791756575" lon="15.022038967643633"><ele>259.0</ele><time>2026-05-03T09:54:31.001Z</time></trkpt><trkpt lat="40.36793798943972" lon="15.02218545224769"><ele>258.3333333333333</ele><time>2026-05-03T09:54:33.001Z</time></trkpt><trkpt lat="40.3679132350296" lon="15.022348800519753"><ele>257.66666666666663</ele><time>2026-05-03T09:54:35.002Z</time></trkpt><trkpt lat="40.367901066016024" lon="15.022432588748103"><ele>257.0</ele><time>2026-05-03T09:54:36.002Z</time></trkpt><trkpt lat="40.367886205176845" lon="15.022521839677289"><ele>256.3333333333333</ele><time>2026-05-03T09:54:37.002Z</time></trkpt><trkpt lat="40.36786411951466" lon="15.022615217110127"><ele>255.66666666666666</ele><time>2026-05-03T09:54:38.002Z</time></trkpt><trkpt lat="40.36785228132771" lon="15.02271734616305"><ele>255.0</ele><time>2026-05-03T09:54:39.002Z</time></trkpt><trkpt lat="40.36784864770461" lon="15.02282740841495"><ele>255.0</ele><time>2026-05-03T09:54:40.002Z</time></trkpt><trkpt lat="40.367866856977614" lon="15.022943850047394"><ele>255.0</ele><time>2026-05-03T09:54:41.002Z</time></trkpt><trkpt lat="40.36789150889461" lon="15.023064866868284"><ele>255.0</ele><time>2026-05-03T09:54:42.002Z</time></trkpt><trkpt lat="40.36791189647365" lon="15.0231801147666"><ele>255.0</ele><time>2026-05-03T09:54:43.002Z</time></trkpt><trkpt lat="40.367932500090056" lon="15.023278268834405"><ele>255.0</ele><time>2026-05-03T09:54:44.002Z</time></trkpt><trkpt lat="40.36795678458976" lon="15.02339819460579"><ele>255.0</ele><time>2026-05-03T09:54:45.002Z</time></trkpt><trkpt lat="40.36798562599774" lon="15.02349380100302"><ele>253.66666666666666</ele><time>2026-05-03T09:54:46.002Z</time></trkpt><trkpt lat="40.36799968439833" lon="15.023587419848726"><ele>252.33333333333331</ele><time>2026-05-03T09:54:47.002Z</time></trkpt><trkpt lat="40.368015988704904" lon="15.023714142796557"><ele>251.0</ele><time>2026-05-03T09:54:49.002Z</time></trkpt><trkpt lat="40.368023163346514" lon="15.023811771775897"><ele>249.66666666666666</ele><time>2026-05-03T09:54:51.002Z</time></trkpt><trkpt lat="40.36804577330778" lon="15.023902482226033"><ele>248.33333333333331</ele><time>2026-05-03T09:54:53.002Z</time></trkpt><trkpt lat="40.36808763877944" lon="15.024016868235972"><ele>247.0</ele><time>2026-05-03T09:54:56.002Z</time></trkpt><trkpt lat="40.3681094245833" lon="15.024097252354872"><ele>248.33333333333331</ele><time>2026-05-03T09:54:58.002Z</time></trkpt><trkpt lat="40.368139640358514" lon="15.02417208910941"><ele>249.66666666666666</ele><time>2026-05-03T09:55:00.002Z</time></trkpt><trkpt lat="40.368183937416326" lon="15.02423487477879"><ele>251.0</ele><time>2026-05-03T09:55:02.002Z</time></trkpt><trkpt lat="40.36823928522669" lon="15.024330462389527"><ele>252.33333333333331</ele><time>2026-05-03T09:55:05.002Z</time></trkpt><trkpt lat="40.368276264097545" lon="15.024440233755541"><ele>253.66666666666666</ele><time>2026-05-03T09:55:08.002Z</time></trkpt><trkpt lat="40.368275328300975" lon="15.024574064815704"><ele>255.0</ele><time>2026-05-03T09:55:11.002Z</time></trkpt><trkpt lat="40.36826283547622" lon="15.024667953469864"><ele>255.0</ele><time>2026-05-03T09:55:13.002Z</time></trkpt><trkpt lat="40.36823987198143" lon="15.0247551812152"><ele>255.0</ele><time>2026-05-03T09:55:15.002Z</time></trkpt><trkpt lat="40.3682100986475" lon="15.024850652211269"><ele>255.0</ele><time>2026-05-03T09:55:17.002Z</time></trkpt><trkpt lat="40.368166980935726" lon="15.024932377954777"><ele>255.0</ele><time>2026-05-03T09:55:19.002Z</time></trkpt><trkpt lat="40.36811207403443" lon="15.025004892152147"><ele>255.0</ele><time>2026-05-03T09:55:21.002Z</time></trkpt><trkpt lat="40.36806060824532" lon="15.02507716055559"><ele>255.0</ele><time>2026-05-03T09:55:23.002Z</time></trkpt><trkpt lat="40.367997170467774" lon="15.02513450956252"><ele>256.14285714285717</ele><time>2026-05-03T09:55:25.002Z</time></trkpt><trkpt lat="40.36792556830975" lon="15.025176364238286"><ele>257.28571428571433</ele><time>2026-05-03T09:55:27.002Z</time></trkpt><trkpt lat="40.367856718761594" lon="15.025220318945097"><ele>258.42857142857144</ele><time>2026-05-03T09:55:29.003Z</time></trkpt><trkpt lat="40.36778901487161" lon="15.025261490429296"><ele>259.57142857142856</ele><time>2026-05-03T09:55:31.003Z</time></trkpt><trkpt lat="40.367722735466714" lon="15.025306534105907"><ele>260.71428571428567</ele><time>2026-05-03T09:55:33.003Z</time></trkpt><trkpt lat="40.36765885318852" lon="15.025350372670026"><ele>261.85714285714283</ele><time>2026-05-03T09:55:35.001Z</time></trkpt><trkpt lat="40.36759408795753" lon="15.025387239036862"><ele>263.0</ele><time>2026-05-03T09:55:37.001Z</time></trkpt><trkpt lat="40.367531733011084" lon="15.025415918001615"><ele>263.0</ele><time>2026-05-03T09:55:39.001Z</time></trkpt><trkpt lat="40.36747421477432" lon="15.025455886098271"><ele>263.0</ele><time>2026-05-03T09:55:41.001Z</time></trkpt><trkpt lat="40.36742054483855" lon="15.025508701087883"><ele>263.0</ele><time>2026-05-03T09:55:43.001Z</time></trkpt><trkpt lat="40.36736985922041" lon="15.025567827600904"><ele>263.0</ele><time>2026-05-03T09:55:45.001Z</time></trkpt><trkpt lat="40.36731985274808" lon="15.025626819885273"><ele>263.0</ele><time>2026-05-03T09:55:47.001Z</time></trkpt><trkpt lat="40.36727105148053" lon="15.02568413489729"><ele>263.0</ele><time>2026-05-03T09:55:49.001Z</time></trkpt><trkpt lat="40.36721822516765" lon="15.025734293468208"><ele>263.0</ele><time>2026-05-03T09:55:51.001Z</time></trkpt><trkpt lat="40.367164524461636" lon="15.025779484501346"><ele>264.7142857142857</ele><time>2026-05-03T09:55:53.001Z</time></trkpt><trkpt lat="40.36711291386781" lon="15.025831900191152"><ele>266.4285714285714</ele><time>2026-05-03T09:55:55.001Z</time></trkpt><trkpt lat="40.36704935878443" lon="15.025899407611764"><ele>268.1428571428571</ele><time>2026-05-03T09:55:58.001Z</time></trkpt><trkpt lat="40.366993392001085" lon="15.025964906350813"><ele>269.85714285714283</ele><time>2026-05-03T09:57:06.002Z</time></trkpt><trkpt lat="40.366964296143856" lon="15.026038406150972"><ele>271.57142857142856</ele><time>2026-05-03T09:57:09.002Z</time></trkpt><trkpt lat="40.36691248991048" lon="15.026126303744887"><ele>273.2857142857143</ele><time>2026-05-03T09:57:13.002Z</time></trkpt><trkpt lat="40.366885300147175" lon="15.026208051580788"><ele>275.0</ele><time>2026-05-03T09:57:16.002Z</time></trkpt><trkpt lat="40.366866792436916" lon="15.026307138008148"><ele>275.0</ele><time>2026-05-03T09:57:19.002Z</time></trkpt><trkpt lat="40.36684517459362" lon="15.026411361265827"><ele>275.0</ele><time>2026-05-03T09:57:22.002Z</time></trkpt><trkpt lat="40.36682502150059" lon="15.026508607973065"><ele>275.0</ele><time>2026-05-03T09:57:25.002Z</time></trkpt><trkpt lat="40.366760937432105" lon="15.026582057688401"><ele>275.0</ele><time>2026-05-03T09:57:28.002Z</time></trkpt><trkpt lat="40.36669695152348" lon="15.026656835401118"><ele>275.0</ele><time>2026-05-03T09:57:31.002Z</time></trkpt><trkpt lat="40.366623252890626" lon="15.026719806341069"><ele>275.0</ele><time>2026-05-03T09:57:34.002Z</time></trkpt><trkpt lat="40.366554026601776" lon="15.026785008369558"><ele>274.33333333333337</ele><time>2026-05-03T09:57:37.002Z</time></trkpt><trkpt lat="40.3664824877273" lon="15.02683220463461"><ele>273.6666666666667</ele><time>2026-05-03T09:57:40.002Z</time></trkpt><trkpt lat="40.36640722602707" lon="15.02688949375044"><ele>273.0</ele><time>2026-05-03T09:57:43Z</time></trkpt><trkpt lat="40.36634166225256" lon="15.026944070339853"><ele>272.3333333333333</ele><time>2026-05-03T09:57:46Z</time></trkpt><trkpt lat="40.36629039866484" lon="15.0270285511087"><ele>271.66666666666663</ele><time>2026-05-03T09:57:49Z</time></trkpt><trkpt lat="40.3662572045205" lon="15.027129989244392"><ele>271.0</ele><time>2026-05-03T09:57:52Z</time></trkpt><trkpt lat="40.366243429990995" lon="15.027240495973954"><ele>271.0</ele><time>2026-05-03T09:57:55Z</time></trkpt><trkpt lat="40.36621748355532" lon="15.027345669095252"><ele>271.0</ele><time>2026-05-03T09:57:58Z</time></trkpt><trkpt lat="40.3661778154276" lon="15.02745375281757"><ele>271.0</ele><time>2026-05-03T09:58:01Z</time></trkpt><trkpt lat="40.36613888372472" lon="15.027546830434604"><ele>271.0</ele><time>2026-05-03T09:58:04Z</time></trkpt><trkpt lat="40.36608875783312" lon="15.027647915540197"><ele>271.0</ele><time>2026-05-03T09:58:07Z</time></trkpt><trkpt lat="40.36605843647076" lon="15.027757210888588"><ele>271.0</ele><time>2026-05-03T09:58:10Z</time></trkpt><trkpt lat="40.36602940291879" lon="15.027851643510852"><ele>273.3333333333333</ele><time>2026-05-03T09:58:13Z</time></trkpt><trkpt lat="40.36600221555203" lon="15.027957530707322"><ele>275.66666666666663</ele><time>2026-05-03T09:58:16Z</time></trkpt><trkpt lat="40.36595454068744" lon="15.02804816100507"><ele>278.0</ele><time>2026-05-03T09:58:19.001Z</time></trkpt><trkpt lat="40.36588389881112" lon="15.02811694494856"><ele>280.3333333333333</ele><time>2026-05-03T09:58:22.001Z</time></trkpt><trkpt lat="40.36580824694989" lon="15.0281685094832"><ele>282.6666666666667</ele><time>2026-05-03T09:58:25.001Z</time></trkpt><trkpt lat="40.36573871125483" lon="15.028222450250366"><ele>285.0</ele><time>2026-05-03T09:58:28.001Z</time></trkpt><trkpt lat="40.36567122231875" lon="15.02829040128993"><ele>285.6666666666667</ele><time>2026-05-03T09:58:31.001Z</time></trkpt><trkpt lat="40.36560457661949" lon="15.028353621685584"><ele>286.3333333333333</ele><time>2026-05-03T09:58:34.001Z</time></trkpt><trkpt lat="40.3655417323383" lon="15.028421247447094"><ele>287.0</ele><time>2026-05-03T09:58:37.001Z</time></trkpt><trkpt lat="40.36549134425921" lon="15.028491960041512"><ele>287.66666666666663</ele><time>2026-05-03T09:58:40.001Z</time></trkpt><trkpt lat="40.36541968485031" lon="15.028558160842268"><ele>288.3333333333333</ele><time>2026-05-03T09:58:43.001Z</time></trkpt><trkpt lat="40.365355831100096" lon="15.028618249076192"><ele>289.0</ele><time>2026-05-03T09:58:46.001Z</time></trkpt><trkpt lat="40.365287176999466" lon="15.028688477501989"><ele>289.0</ele><time>2026-05-03T09:58:49.001Z</time></trkpt><trkpt lat="40.36522024622131" lon="15.028758469801618"><ele>289.0</ele><time>2026-05-03T09:58:52.001Z</time></trkpt><trkpt lat="40.36515265077245" lon="15.028830635725916"><ele>289.0</ele><time>2026-05-03T09:58:55.001Z</time></trkpt><trkpt lat="40.36508888724473" lon="15.028909248556072"><ele>289.0</ele><time>2026-05-03T09:58:58.001Z</time></trkpt><trkpt lat="40.365016756375944" lon="15.028978641802626"><ele>289.0</ele><time>2026-05-03T09:59:01.001Z</time></trkpt><trkpt lat="40.3649411280577" lon="15.029021416839562"><ele>289.0</ele><time>2026-05-03T09:59:04.001Z</time></trkpt><trkpt lat="40.36487639707854" lon="15.029033791833442"><ele>289.0</ele><time>2026-05-03T09:59:06.001Z</time></trkpt><trkpt lat="40.364807217252554" lon="15.029055328992493"><ele>289.0</ele><time>2026-05-03T09:59:08.001Z</time></trkpt><trkpt lat="40.3647354755213" lon="15.029090550704556"><ele>289.0</ele><time>2026-05-03T09:59:10.001Z</time></trkpt><trkpt lat="40.36465093099172" lon="15.029117109312624"><ele>289.0</ele><time>2026-05-03T09:59:13.001Z</time></trkpt><trkpt lat="40.36455583671636" lon="15.029151673778426"><ele>289.0</ele><time>2026-05-03T09:59:16.001Z</time></trkpt><trkpt lat="40.36448435660827" lon="15.029188855234594"><ele>289.0</ele><time>2026-05-03T09:59:18.001Z</time></trkpt><trkpt lat="40.36441201904027" lon="15.029221825546912"><ele>291.42857142857144</ele><time>2026-05-03T09:59:20.002Z</time></trkpt><trkpt lat="40.364346357019386" lon="15.02925414123354"><ele>293.85714285714283</ele><time>2026-05-03T09:59:22.002Z</time></trkpt><trkpt lat="40.36428456199079" lon="15.029296795620438"><ele>296.2857142857143</ele><time>2026-05-03T09:59:24.002Z</time></trkpt><trkpt lat="40.36421678186506" lon="15.029340604803027"><ele>298.7142857142857</ele><time>2026-05-03T09:59:26.002Z</time></trkpt><trkpt lat="40.364155729650314" lon="15.029388359412435"><ele>301.14285714285717</ele><time>2026-05-03T09:59:28.002Z</time></trkpt><trkpt lat="40.36409379638439" lon="15.02943317289978"><ele>303.57142857142856</ele><time>2026-05-03T09:59:30.002Z</time></trkpt><trkpt lat="40.364019837622344" lon="15.029468280960053"><ele>306.0</ele><time>2026-05-03T09:59:32.002Z</time></trkpt><trkpt lat="40.363944281104246" lon="15.029502061430016"><ele>306.0</ele><time>2026-05-03T09:59:34.002Z</time></trkpt><trkpt lat="40.36387232772922" lon="15.02954386455607"><ele>306.0</ele><time>2026-05-03T09:59:36.002Z</time></trkpt><trkpt lat="40.36380075541959" lon="15.029591629406692"><ele>306.0</ele><time>2026-05-03T09:59:38.002Z</time></trkpt><trkpt lat="40.363732399493394" lon="15.029640615728967"><ele>306.0</ele><time>2026-05-03T09:59:40.002Z</time></trkpt><trkpt lat="40.36366736772977" lon="15.029690927093226"><ele>306.0</ele><time>2026-05-03T09:59:42.002Z</time></trkpt><trkpt lat="40.363603536431604" lon="15.029740138831269"><ele>306.0</ele><time>2026-05-03T09:59:44.002Z</time></trkpt><trkpt lat="40.36355082007822" lon="15.02980270961066"><ele>306.8</ele><time>2026-05-03T09:59:46.002Z</time></trkpt><trkpt lat="40.363506698584374" lon="15.029883186860674"><ele>307.6</ele><time>2026-05-03T09:59:48Z</time></trkpt><trkpt lat="40.36346399695935" lon="15.02996870679465"><ele>308.4</ele><time>2026-05-03T09:59:50Z</time></trkpt><trkpt lat="40.363411649206554" lon="15.03006979675956"><ele>309.2</ele><time>2026-05-03T09:59:52Z</time></trkpt><trkpt lat="40.36334753628081" lon="15.030183093598186"><ele>310.0</ele><time>2026-05-03T09:59:54Z</time></trkpt><trkpt lat="40.363278612962574" lon="15.030301749910894"><ele>310.0</ele><time>2026-05-03T09:59:56Z</time></trkpt><trkpt lat="40.36321207975098" lon="15.030429031818286"><ele>310.0</ele><time>2026-05-03T09:59:58Z</time></trkpt><trkpt lat="40.363147936206026" lon="15.030562628153003"><ele>310.0</ele><time>2026-05-03T10:00:00Z</time></trkpt><trkpt lat="40.363086495915375" lon="15.030700237152612"><ele>310.0</ele><time>2026-05-03T10:00:02Z</time></trkpt><trkpt lat="40.36302982637296" lon="15.030845289477314"><ele>306.5</ele><time>2026-05-03T10:00:04Z</time></trkpt><trkpt lat="40.362970085240995" lon="15.030991946268276"><ele>303.0</ele><time>2026-05-03T10:00:06Z</time></trkpt><trkpt lat="40.36293725208166" lon="15.031068974756625"><ele>299.5</ele><time>2026-05-03T10:00:07Z</time></trkpt><trkpt lat="40.36290256890676" lon="15.031149444735844"><ele>296.0</ele><time>2026-05-03T10:00:08Z</time></trkpt><trkpt lat="40.36286404060388" lon="15.03122550909678"><ele>292.5</ele><time>2026-05-03T10:00:09Z</time></trkpt><trkpt lat="40.362826253924794" lon="15.031312662836282"><ele>289.0</ele><time>2026-05-03T10:00:10Z</time></trkpt><trkpt lat="40.3627764720168" lon="15.031399823039283"><ele>289.0</ele><time>2026-05-03T10:00:11Z</time></trkpt><trkpt lat="40.362727710444005" lon="15.031484335602117"><ele>289.0</ele><time>2026-05-03T10:00:12Z</time></trkpt><trkpt lat="40.36267391574864" lon="15.031566069234097"><ele>289.0</ele><time>2026-05-03T10:00:13Z</time></trkpt><trkpt lat="40.36261672539631" lon="15.031652744021828"><ele>289.0</ele><time>2026-05-03T10:00:14Z</time></trkpt><trkpt lat="40.362564999691536" lon="15.031740055701906"><ele>289.0</ele><time>2026-05-03T10:00:15Z</time></trkpt><trkpt lat="40.36251620031228" lon="15.03183956438469"><ele>289.0</ele><time>2026-05-03T10:00:16Z</time></trkpt><trkpt lat="40.3624656442541" lon="15.03193596245239"><ele>288.16666666666663</ele><time>2026-05-03T10:00:17Z</time></trkpt><trkpt lat="40.36241326683149" lon="15.032029555950315"><ele>287.3333333333333</ele><time>2026-05-03T10:00:18Z</time></trkpt><trkpt lat="40.36236061118231" lon="15.032118184686363"><ele>286.5</ele><time>2026-05-03T10:00:19Z</time></trkpt><trkpt lat="40.362306776895245" lon="15.03220974672659"><ele>285.6666666666667</ele><time>2026-05-03T10:00:20Z</time></trkpt><trkpt lat="40.3622503521713" lon="15.032293687684508"><ele>284.83333333333337</ele><time>2026-05-03T10:00:21Z</time></trkpt><trkpt lat="40.362187414230924" lon="15.032376125212085"><ele>284.0</ele><time>2026-05-03T10:00:22Z</time></trkpt><trkpt lat="40.362123529330034" lon="15.032453537331914"><ele>286.4</ele><time>2026-05-03T10:00:23Z</time></trkpt><trkpt lat="40.36205117905072" lon="15.032523349501973"><ele>288.79999999999995</ele><time>2026-05-03T10:00:24Z</time></trkpt><trkpt lat="40.361974001102" lon="15.03258841361103"><ele>291.20000000000005</ele><time>2026-05-03T10:00:25Z</time></trkpt><trkpt lat="40.3618923357947" lon="15.032649121034467"><ele>293.6</ele><time>2026-05-03T10:00:26Z</time></trkpt><trkpt lat="40.361806665463085" lon="15.032710924812896"><ele>296.0</ele><time>2026-05-03T10:00:27Z</time></trkpt><trkpt lat="40.36171903643941" lon="15.032769085778616"><ele>296.0</ele><time>2026-05-03T10:00:28Z</time></trkpt><trkpt lat="40.36163036667485" lon="15.032830798766026"><ele>296.0</ele><time>2026-05-03T10:00:29Z</time></trkpt><trkpt lat="40.36154601729567" lon="15.032893804704369"><ele>296.0</ele><time>2026-05-03T10:00:30Z</time></trkpt><trkpt lat="40.361461282057306" lon="15.032950204848158"><ele>296.0</ele><time>2026-05-03T10:00:31Z</time></trkpt><trkpt lat="40.361375656516856" lon="15.033004942141623"><ele>296.0</ele><time>2026-05-03T10:00:32Z</time></trkpt><trkpt lat="40.3612911038542" lon="15.033053696375895"><ele>295.6666666666667</ele><time>2026-05-03T10:00:33Z</time></trkpt><trkpt lat="40.36120870955633" lon="15.03310185508248"><ele>295.33333333333337</ele><time>2026-05-03T10:00:34Z</time></trkpt><trkpt lat="40.36112996089616" lon="15.033154711879208"><ele>295.0</ele><time>2026-05-03T10:00:35Z</time></trkpt><trkpt lat="40.36105521921581" lon="15.033205043052062"><ele>294.6666666666667</ele><time>2026-05-03T10:00:36Z</time></trkpt><trkpt lat="40.36098444617563" lon="15.03324973064062"><ele>294.3333333333333</ele><time>2026-05-03T10:00:37Z</time></trkpt><trkpt lat="40.36091728526106" lon="15.033294855029158"><ele>294.0</ele><time>2026-05-03T10:00:38Z</time></trkpt><trkpt lat="40.36085643239098" lon="15.03334116584147"><ele>294.0</ele><time>2026-05-03T10:00:39.001Z</time></trkpt><trkpt lat="40.36080319914641" lon="15.033397527928997"><ele>294.0</ele><time>2026-05-03T10:00:40.001Z</time></trkpt><trkpt lat="40.36075251584225" lon="15.033452047146945"><ele>294.0</ele><time>2026-05-03T10:00:41.001Z</time></trkpt><trkpt lat="40.360702565666294" lon="15.03350342095568"><ele>294.0</ele><time>2026-05-03T10:00:42.001Z</time></trkpt><trkpt lat="40.36060379287274" lon="15.033598897991162"><ele>294.0</ele><time>2026-05-03T10:00:44.001Z</time></trkpt><trkpt lat="40.36050249616362" lon="15.033680308536725"><ele>294.0</ele><time>2026-05-03T10:00:46.001Z</time></trkpt><trkpt lat="40.360404376087985" lon="15.03376341100625"><ele>294.2</ele><time>2026-05-03T10:00:48.001Z</time></trkpt><trkpt lat="40.36031115996618" lon="15.033866559089283"><ele>294.4</ele><time>2026-05-03T10:00:50.001Z</time></trkpt><trkpt lat="40.360268529554894" lon="15.03392957956632"><ele>294.6</ele><time>2026-05-03T10:00:51.001Z</time></trkpt><trkpt lat="40.36019008556653" lon="15.034059590317549"><ele>294.8</ele><time>2026-05-03T10:00:53.001Z</time></trkpt><trkpt lat="40.36014710796953" lon="15.034126381096446"><ele>295.0</ele><time>2026-05-03T10:00:54.001Z</time></trkpt><trkpt lat="40.36009485668487" lon="15.034191969050752"><ele>295.0</ele><time>2026-05-03T10:00:55.001Z</time></trkpt><trkpt lat="40.36004324566881" lon="15.034264574513804"><ele>295.0</ele><time>2026-05-03T10:00:56.001Z</time></trkpt><trkpt lat="40.35999020777594" lon="15.034343643362526"><ele>295.0</ele><time>2026-05-03T10:00:57.001Z</time></trkpt><trkpt lat="40.35992297125602" lon="15.034411665944463"><ele>295.0</ele><time>2026-05-03T10:00:58.001Z</time></trkpt><trkpt lat="40.35984323452448" lon="15.034465761240572"><ele>295.0</ele><time>2026-05-03T10:00:59.001Z</time></trkpt><trkpt lat="40.35975299551764" lon="15.034522660451984"><ele>295.0</ele><time>2026-05-03T10:01:00.001Z</time></trkpt><trkpt lat="40.35965879304146" lon="15.034575797505607"><ele>291.2</ele><time>2026-05-03T10:01:01.001Z</time></trkpt><trkpt lat="40.35956812033565" lon="15.034639608584897"><ele>287.4</ele><time>2026-05-03T10:01:02.001Z</time></trkpt><trkpt lat="40.359475559577206" lon="15.034697921795013"><ele>283.6</ele><time>2026-05-03T10:01:03.001Z</time></trkpt><trkpt lat="40.359380279618826" lon="15.03475482353083"><ele>279.8</ele><time>2026-05-03T10:01:04.001Z</time></trkpt><trkpt lat="40.359290218280535" lon="15.03481762977293"><ele>276.0</ele><time>2026-05-03T10:01:05.001Z</time></trkpt><trkpt lat="40.35920430038451" lon="15.034887255616894"><ele>276.0</ele><time>2026-05-03T10:01:06.001Z</time></trkpt><trkpt lat="40.35913114395206" lon="15.034954432702728"><ele>276.0</ele><time>2026-05-03T10:01:07.001Z</time></trkpt><trkpt lat="40.35906625825554" lon="15.035014446263215"><ele>276.0</ele><time>2026-05-03T10:01:08.001Z</time></trkpt><trkpt lat="40.358981408000695" lon="15.035088801550833"><ele>276.0</ele><time>2026-05-03T10:01:10.001Z</time></trkpt><trkpt lat="40.358917545482086" lon="15.035164648424946"><ele>276.0</ele><time>2026-05-03T10:01:14.001Z</time></trkpt><trkpt lat="40.358825693473875" lon="15.03517918932694"><ele>276.0</ele><time>2026-05-03T10:01:17.001Z</time></trkpt><trkpt lat="40.358759200023414" lon="15.035163505780478"><ele>276.2</ele><time>2026-05-03T10:01:19.001Z</time></trkpt><trkpt lat="40.35867426617422" lon="15.0351423885204"><ele>276.40000000000003</ele><time>2026-05-03T10:01:22.001Z</time></trkpt><trkpt lat="40.35855772273895" lon="15.035294801485493"><ele>276.6</ele><time>2026-05-03T10:06:33.001Z</time></trkpt><trkpt lat="40.358482989075625" lon="15.03531412036329"><ele>276.8</ele><time>2026-05-03T10:07:52.002Z</time></trkpt><trkpt lat="40.35842092789696" lon="15.035282434725872"><ele>277.0</ele><time>2026-05-03T10:07:54.002Z</time></trkpt><trkpt lat="40.35834578427627" lon="15.035272635506294"><ele>277.0</ele><time>2026-05-03T10:07:56.002Z</time></trkpt><trkpt lat="40.35827210974317" lon="15.035274626997182"><ele>277.0</ele><time>2026-05-03T10:07:58.002Z</time></trkpt><trkpt lat="40.358189902808675" lon="15.035266737095165"><ele>277.0</ele><time>2026-05-03T10:08:00.002Z</time></trkpt><trkpt lat="40.35810233961053" lon="15.035258243873704"><ele>277.0</ele><time>2026-05-03T10:08:02.002Z</time></trkpt><trkpt lat="40.35801221927272" lon="15.035227655376318"><ele>277.0</ele><time>2026-05-03T10:08:04.002Z</time></trkpt><trkpt lat="40.35792236722395" lon="15.035186896920386"><ele>277.0</ele><time>2026-05-03T10:08:06.002Z</time></trkpt><trkpt lat="40.35783216026602" lon="15.035152814304604"><ele>277.8</ele><time>2026-05-03T10:08:08.002Z</time></trkpt><trkpt lat="40.357736384840145" lon="15.03512744132387"><ele>278.6</ele><time>2026-05-03T10:08:10.002Z</time></trkpt><trkpt lat="40.35764005639643" lon="15.03510368812251"><ele>279.40000000000003</ele><time>2026-05-03T10:08:12.001Z</time></trkpt><trkpt lat="40.35753769802245" lon="15.035077628689908"><ele>280.2</ele><time>2026-05-03T10:08:14.001Z</time></trkpt><trkpt lat="40.357448157975774" lon="15.03505146955625"><ele>281.0</ele><time>2026-05-03T10:08:16.001Z</time></trkpt><trkpt lat="40.35737902770748" lon="15.03503563773043"><ele>281.0</ele><time>2026-05-03T10:08:18.001Z</time></trkpt><trkpt lat="40.357280770868805" lon="15.035024907159972"><ele>281.0</ele><time>2026-05-03T10:08:21.001Z</time></trkpt><trkpt lat="40.35720757221039" lon="15.035004709294336"><ele>281.0</ele><time>2026-05-03T10:08:23.001Z</time></trkpt><trkpt lat="40.35713005666132" lon="15.034975055080537"><ele>281.0</ele><time>2026-05-03T10:08:25.001Z</time></trkpt><trkpt lat="40.357046270916875" lon="15.034950553249596"><ele>281.0</ele><time>2026-05-03T10:08:27.001Z</time></trkpt><trkpt lat="40.35696026162015" lon="15.03490614103234"><ele>281.0</ele><time>2026-05-03T10:08:29.001Z</time></trkpt><trkpt lat="40.356874961580225" lon="15.03483552778922"><ele>279.0</ele><time>2026-05-03T10:08:31.001Z</time></trkpt><trkpt lat="40.35679767664696" lon="15.034746536281427"><ele>277.0</ele><time>2026-05-03T10:08:33.001Z</time></trkpt><trkpt lat="40.35672849375076" lon="15.034636427675027"><ele>275.0</ele><time>2026-05-03T10:08:35.001Z</time></trkpt><trkpt lat="40.35665387518587" lon="15.034541631234047"><ele>273.0</ele><time>2026-05-03T10:08:37.001Z</time></trkpt><trkpt lat="40.35657494159643" lon="15.034440704587496"><ele>271.0</ele><time>2026-05-03T10:08:39.001Z</time></trkpt><trkpt lat="40.356474949044944" lon="15.034373373840882"><ele>271.0</ele><time>2026-05-03T10:08:41.001Z</time></trkpt><trkpt lat="40.356370205001404" lon="15.03435821127933"><ele>271.0</ele><time>2026-05-03T10:08:43.001Z</time></trkpt><trkpt lat="40.35626602912543" lon="15.034366111968826"><ele>271.0</ele><time>2026-05-03T10:08:45.001Z</time></trkpt><trkpt lat="40.35616695272008" lon="15.034393432077888"><ele>271.0</ele><time>2026-05-03T10:08:47.001Z</time></trkpt><trkpt lat="40.356064646103974" lon="15.034434829783665"><ele>271.0</ele><time>2026-05-03T10:08:49.001Z</time></trkpt><trkpt lat="40.35596262247544" lon="15.034421549284103"><ele>274.5</ele><time>2026-05-03T10:08:51.001Z</time></trkpt><trkpt lat="40.35585416821168" lon="15.03437252440266"><ele>278.0</ele><time>2026-05-03T10:08:53.001Z</time></trkpt><trkpt lat="40.355750444561" lon="15.03431292992923"><ele>281.5</ele><time>2026-05-03T10:08:55.001Z</time></trkpt><trkpt lat="40.3556450665576" lon="15.034254968752789"><ele>285.0</ele><time>2026-05-03T10:08:57.001Z</time></trkpt><trkpt lat="40.35554407568867" lon="15.034185128251869"><ele>284.0</ele><time>2026-05-03T10:08:59.001Z</time></trkpt><trkpt lat="40.35543988577471" lon="15.034112751080205"><ele>283.0</ele><time>2026-05-03T10:09:01.001Z</time></trkpt><trkpt lat="40.355337198387595" lon="15.03403150475496"><ele>282.0</ele><time>2026-05-03T10:09:03.001Z</time></trkpt><trkpt lat="40.35523379366659" lon="15.033955846780843"><ele>281.0</ele><time>2026-05-03T10:09:05.001Z</time></trkpt><trkpt lat="40.35512931115627" lon="15.033900851320412"><ele>281.0</ele><time>2026-05-03T10:09:07.001Z</time></trkpt><trkpt lat="40.35503447825794" lon="15.033834932018864"><ele>281.0</ele><time>2026-05-03T10:09:09.001Z</time></trkpt><trkpt lat="40.35493489414164" lon="15.033762305988562"><ele>281.0</ele><time>2026-05-03T10:09:11.001Z</time></trkpt><trkpt lat="40.35483101155976" lon="15.03370453843592"><ele>281.0</ele><time>2026-05-03T10:09:13.001Z</time></trkpt><trkpt lat="40.354727498915665" lon="15.033624121219171"><ele>286.0</ele><time>2026-05-03T10:09:15.001Z</time></trkpt><trkpt lat="40.35461985597618" lon="15.033556115916753"><ele>291.0</ele><time>2026-05-03T10:09:17.001Z</time></trkpt><trkpt lat="40.35450903840755" lon="15.03348606578581"><ele>296.0</ele><time>2026-05-03T10:09:19.001Z</time></trkpt><trkpt lat="40.354398088864194" lon="15.033414679992983"><ele>301.0</ele><time>2026-05-03T10:09:21.001Z</time></trkpt><trkpt lat="40.354295836596584" lon="15.033351536676518"><ele>300.8</ele><time>2026-05-03T10:09:23.001Z</time></trkpt><trkpt lat="40.354192167597134" lon="15.033291159110426"><ele>300.6</ele><time>2026-05-03T10:09:25.001Z</time></trkpt><trkpt lat="40.35409080730677" lon="15.033233612953477"><ele>300.4</ele><time>2026-05-03T10:09:27.001Z</time></trkpt><trkpt lat="40.3540054517606" lon="15.0331699224134"><ele>300.2</ele><time>2026-05-03T10:09:29.001Z</time></trkpt><trkpt lat="40.35391091631445" lon="15.033110205507032"><ele>300.0</ele><time>2026-05-03T10:09:31.001Z</time></trkpt><trkpt lat="40.3538155379763" lon="15.033056795953907"><ele>300.0</ele><time>2026-05-03T10:09:33.001Z</time></trkpt><trkpt lat="40.353717509329705" lon="15.032988215716212"><ele>300.0</ele><time>2026-05-03T10:09:35.001Z</time></trkpt><trkpt lat="40.3536191755251" lon="15.03292527763796"><ele>300.0</ele><time>2026-05-03T10:09:37.001Z</time></trkpt><trkpt lat="40.35351890675329" lon="15.03285432603109"><ele>300.0</ele><time>2026-05-03T10:09:39.001Z</time></trkpt><trkpt lat="40.35343507582992" lon="15.03275027863907"><ele>300.0</ele><time>2026-05-03T10:09:41.001Z</time></trkpt><trkpt lat="40.35336027683349" lon="15.032645648202843"><ele>300.0</ele><time>2026-05-03T10:09:43.001Z</time></trkpt><trkpt lat="40.35331481818205" lon="15.03258050266139"><ele>300.0</ele><time>2026-05-03T10:09:44.001Z</time></trkpt><trkpt lat="40.35325275440008" lon="15.03248836698728"><ele>300.0</ele><time>2026-05-03T10:09:46.001Z</time></trkpt><trkpt lat="40.353170196233854" lon="15.03239845465874"><ele>300.0</ele><time>2026-05-03T10:09:48.001Z</time></trkpt><trkpt lat="40.35309123937652" lon="15.032303364231744"><ele>300.1666666666667</ele><time>2026-05-03T10:09:50.001Z</time></trkpt><trkpt lat="40.35303629040255" lon="15.032234669291377"><ele>300.3333333333333</ele><time>2026-05-03T10:09:51.001Z</time></trkpt><trkpt lat="40.35296485010239" lon="15.032177299748039"><ele>300.5</ele><time>2026-05-03T10:09:53.001Z</time></trkpt><trkpt lat="40.35288010907329" lon="15.03209524139983"><ele>300.66666666666663</ele><time>2026-05-03T10:09:55.001Z</time></trkpt><trkpt lat="40.352806448828346" lon="15.03203239515081"><ele>300.8333333333333</ele><time>2026-05-03T10:09:57.001Z</time></trkpt><trkpt lat="40.352749272281706" lon="15.031956713947244"><ele>301.0</ele><time>2026-05-03T10:09:59.001Z</time></trkpt><trkpt lat="40.35267675478913" lon="15.031876255864802"><ele>301.0</ele><time>2026-05-03T10:10:01.001Z</time></trkpt><trkpt lat="40.35259547246131" lon="15.03181266126321"><ele>301.0</ele><time>2026-05-03T10:10:03.002Z</time></trkpt><trkpt lat="40.3525104245984" lon="15.031776709720349"><ele>301.0</ele><time>2026-05-03T10:10:05.002Z</time></trkpt><trkpt lat="40.35243088561852" lon="15.031742104359587"><ele>301.0</ele><time>2026-05-03T10:10:07.002Z</time></trkpt><trkpt lat="40.35234587461377" lon="15.031759174306396"><ele>301.0</ele><time>2026-05-03T10:10:10.002Z</time></trkpt><trkpt lat="40.35227000400353" lon="15.031817169497055"><ele>301.0</ele><time>2026-05-03T10:10:13.002Z</time></trkpt><trkpt lat="40.35223006764853" lon="15.031896845487491"><ele>303.0</ele><time>2026-05-03T10:10:15.002Z</time></trkpt><trkpt lat="40.3521931972942" lon="15.032002973437773"><ele>305.0</ele><time>2026-05-03T10:10:17Z</time></trkpt><trkpt lat="40.3521881879986" lon="15.03212587970078"><ele>307.0</ele><time>2026-05-03T10:10:19Z</time></trkpt><trkpt lat="40.352181642954065" lon="15.032255472097505"><ele>309.0</ele><time>2026-05-03T10:10:21Z</time></trkpt><trkpt lat="40.35219817425079" lon="15.03238600514302"><ele>311.0</ele><time>2026-05-03T10:10:23Z</time></trkpt><trkpt lat="40.35223113140916" lon="15.032515456271023"><ele>311.0</ele><time>2026-05-03T10:10:25Z</time></trkpt><trkpt lat="40.35225986534267" lon="15.032653182862061"><ele>311.0</ele><time>2026-05-03T10:10:27Z</time></trkpt><trkpt lat="40.3522739881276" lon="15.032799362610904"><ele>311.0</ele><time>2026-05-03T10:10:29Z</time></trkpt><trkpt lat="40.352258785437094" lon="15.032953999304077"><ele>311.0</ele><time>2026-05-03T10:10:31Z</time></trkpt><trkpt lat="40.352227266291415" lon="15.033113039258204"><ele>309.0</ele><time>2026-05-03T10:10:33Z</time></trkpt><trkpt lat="40.352175762742974" lon="15.033251686130729"><ele>307.0</ele><time>2026-05-03T10:10:35Z</time></trkpt><trkpt lat="40.35210841861581" lon="15.033384974691003"><ele>305.0</ele><time>2026-05-03T10:10:37Z</time></trkpt><trkpt lat="40.352027608567866" lon="15.033498909085031"><ele>303.0</ele><time>2026-05-03T10:10:39Z</time></trkpt><trkpt lat="40.35194987520675" lon="15.033607839606287"><ele>303.0</ele><time>2026-05-03T10:10:41Z</time></trkpt><trkpt lat="40.35187858917743" lon="15.033725971515414"><ele>303.0</ele><time>2026-05-03T10:10:43Z</time></trkpt><trkpt lat="40.35183410329177" lon="15.033857653507782"><ele>303.0</ele><time>2026-05-03T10:10:45Z</time></trkpt><trkpt lat="40.35184563197706" lon="15.034003480950377"><ele>303.0</ele><time>2026-05-03T10:10:47Z</time></trkpt><trkpt lat="40.35189411260639" lon="15.034142529682551"><ele>303.6</ele><time>2026-05-03T10:10:49Z</time></trkpt><trkpt lat="40.351952716316035" lon="15.034285874773179"><ele>304.20000000000005</ele><time>2026-05-03T10:10:51Z</time></trkpt><trkpt lat="40.3519877523663" lon="15.034387901253156"><ele>304.8</ele><time>2026-05-03T10:10:52Z</time></trkpt><trkpt lat="40.352030154342216" lon="15.034519968145428"><ele>305.40000000000003</ele><time>2026-05-03T10:10:54Z</time></trkpt><trkpt lat="40.35209587915802" lon="15.034659581740446"><ele>306.0</ele><time>2026-05-03T10:10:56Z</time></trkpt><trkpt lat="40.352175149718" lon="15.034792295597267"><ele>309.4</ele><time>2026-05-03T10:10:58Z</time></trkpt><trkpt lat="40.35226689925336" lon="15.034886564797965"><ele>312.8</ele><time>2026-05-03T10:11:00Z</time></trkpt><trkpt lat="40.352374817492986" lon="15.034954147152298"><ele>316.2</ele><time>2026-05-03T10:11:02Z</time></trkpt><trkpt lat="40.35247822670974" lon="15.03502557558116"><ele>319.59999999999997</ele><time>2026-05-03T10:11:04Z</time></trkpt><trkpt lat="40.352558156614755" lon="15.03509148250318"><ele>323.0</ele><time>2026-05-03T10:11:06Z</time></trkpt><trkpt lat="40.35265594959771" lon="15.035181530282117"><ele>323.0</ele><time>2026-05-03T10:11:08Z</time></trkpt><trkpt lat="40.352740428781026" lon="15.035273145382337"><ele>323.0</ele><time>2026-05-03T10:11:10Z</time></trkpt><trkpt lat="40.352795171788195" lon="15.035330693890124"><ele>323.0</ele><time>2026-05-03T10:11:11Z</time></trkpt><trkpt lat="40.35288726757839" lon="15.035392314338225"><ele>323.0</ele><time>2026-05-03T10:11:13Z</time></trkpt><trkpt lat="40.35297957899368" lon="15.035472033107236"><ele>323.0</ele><time>2026-05-03T10:11:15Z</time></trkpt><trkpt lat="40.353071546327165" lon="15.035555421659025"><ele>323.2</ele><time>2026-05-03T10:11:17.001Z</time></trkpt><trkpt lat="40.353133280387624" lon="15.03559681592084"><ele>323.4</ele><time>2026-05-03T10:11:18.001Z</time></trkpt><trkpt lat="40.353210063702846" lon="15.03567520613757"><ele>323.59999999999997</ele><time>2026-05-03T10:11:20.001Z</time></trkpt><trkpt lat="40.353292866757535" lon="15.035762478653243"><ele>323.79999999999995</ele><time>2026-05-03T10:11:22.001Z</time></trkpt><trkpt lat="40.3533739769738" lon="15.035856882347645"><ele>324.0</ele><time>2026-05-03T10:11:24.001Z</time></trkpt><trkpt lat="40.35346358135067" lon="15.035956283945016"><ele>324.0</ele><time>2026-05-03T10:11:26.001Z</time></trkpt><trkpt lat="40.35354952615276" lon="15.036041720601421"><ele>324.0</ele><time>2026-05-03T10:11:28.001Z</time></trkpt><trkpt lat="40.35358840840845" lon="15.036107112293424"><ele>324.0</ele><time>2026-05-03T10:11:29.001Z</time></trkpt><trkpt lat="40.3536430535256" lon="15.03615334778746"><ele>324.0</ele><time>2026-05-03T10:11:30.001Z</time></trkpt><trkpt lat="40.353736401108605" lon="15.036254271635075"><ele>324.0</ele><time>2026-05-03T10:11:32.001Z</time></trkpt><trkpt lat="40.35383421940446" lon="15.03634215018013"><ele>328.25</ele><time>2026-05-03T10:11:34.001Z</time></trkpt><trkpt lat="40.35394358343883" lon="15.036409503480854"><ele>332.5</ele><time>2026-05-03T10:11:36.001Z</time></trkpt><trkpt lat="40.354049462146214" lon="15.036463129364828"><ele>336.75</ele><time>2026-05-03T10:11:38.001Z</time></trkpt><trkpt lat="40.35415412007048" lon="15.036515071853493"><ele>341.0</ele><time>2026-05-03T10:11:40.001Z</time></trkpt><trkpt lat="40.354255638296294" lon="15.036578442637001"><ele>338.8</ele><time>2026-05-03T10:11:42.001Z</time></trkpt><trkpt lat="40.35433143943684" lon="15.036645526350124"><ele>336.6</ele><time>2026-05-03T10:11:44.001Z</time></trkpt><trkpt lat="40.35435902477095" lon="15.036750928771875"><ele>334.4</ele><time>2026-05-03T10:11:45.001Z</time></trkpt><trkpt lat="40.354408678658054" lon="15.036894939862886"><ele>332.2</ele><time>2026-05-03T10:11:47.001Z</time></trkpt><trkpt lat="40.354460665980746" lon="15.037020863814025"><ele>330.0</ele><time>2026-05-03T10:11:49.001Z</time></trkpt><trkpt lat="40.35451651810336" lon="15.037154152676738"><ele>330.0</ele><time>2026-05-03T10:11:51.001Z</time></trkpt><trkpt lat="40.35456713239302" lon="15.03728458861381"><ele>330.0</ele><time>2026-05-03T10:11:53.001Z</time></trkpt><trkpt lat="40.35461372785569" lon="15.037416647053583"><ele>330.0</ele><time>2026-05-03T10:11:55.001Z</time></trkpt><trkpt lat="40.35465795547474" lon="15.03754397875895"><ele>330.0</ele><time>2026-05-03T10:11:57.001Z</time></trkpt><trkpt lat="40.35469413293879" lon="15.037686917693035"><ele>330.0</ele><time>2026-05-03T10:11:59.001Z</time></trkpt><trkpt lat="40.35471136161179" lon="15.037836424200888"><ele>330.8</ele><time>2026-05-03T10:12:01.001Z</time></trkpt><trkpt lat="40.3547170684918" lon="15.037983954987462"><ele>331.6</ele><time>2026-05-03T10:12:03.001Z</time></trkpt><trkpt lat="40.3547161442818" lon="15.038128343430044"><ele>332.4</ele><time>2026-05-03T10:12:05.001Z</time></trkpt><trkpt lat="40.354714300841096" lon="15.038266770037975"><ele>333.2</ele><time>2026-05-03T10:12:07.001Z</time></trkpt><trkpt lat="40.3547190127295" lon="15.038386923894395"><ele>334.0</ele><time>2026-05-03T10:12:09.001Z</time></trkpt><trkpt lat="40.35471383831135" lon="15.03849630783323"><ele>334.0</ele><time>2026-05-03T10:12:11.001Z</time></trkpt><trkpt lat="40.35470508172629" lon="15.038591519724438"><ele>334.0</ele><time>2026-05-03T10:12:13.001Z</time></trkpt><trkpt lat="40.354683688662" lon="15.038710435760478"><ele>334.0</ele><time>2026-05-03T10:12:15.001Z</time></trkpt><trkpt lat="40.35466200357108" lon="15.038824465807732"><ele>334.0</ele><time>2026-05-03T10:12:17.001Z</time></trkpt><trkpt lat="40.3546671180147" lon="15.038962724334521"><ele>334.0</ele><time>2026-05-03T10:12:19.001Z</time></trkpt><trkpt lat="40.35466872090325" lon="15.039098077063741"><ele>334.0</ele><time>2026-05-03T10:12:21.001Z</time></trkpt><trkpt lat="40.35466681669099" lon="15.039218187329263"><ele>334.0</ele><time>2026-05-03T10:12:23Z</time></trkpt><trkpt lat="40.35471714979878" lon="15.03930851264326"><ele>334.0</ele><time>2026-05-03T10:12:26Z</time></trkpt><trkpt lat="40.354776573765186" lon="15.039242025158268"><ele>334.0</ele><time>2026-05-03T10:12:28Z</time></trkpt><trkpt lat="40.35478894054359" lon="15.039131604209382"><ele>334.0</ele><time>2026-05-03T10:12:30Z</time></trkpt><trkpt lat="40.354822380121085" lon="15.039029789105046"><ele>334.0</ele><time>2026-05-03T10:12:32Z</time></trkpt><trkpt lat="40.35484958905794" lon="15.038930386860919"><ele>334.0</ele><time>2026-05-03T10:12:34Z</time></trkpt><trkpt lat="40.354880083964986" lon="15.038828122428818"><ele>334.0</ele><time>2026-05-03T10:12:36Z</time></trkpt><trkpt lat="40.35489932472279" lon="15.038743394408046"><ele>334.0</ele><time>2026-05-03T10:12:38Z</time></trkpt><trkpt lat="40.35491909277088" lon="15.038663752383881"><ele>334.0</ele><time>2026-05-03T10:12:40Z</time></trkpt><trkpt lat="40.35494472961552" lon="15.038563685309672"><ele>334.0</ele><time>2026-05-03T10:12:42Z</time></trkpt><trkpt lat="40.35496851184088" lon="15.038458497377507"><ele>334.0</ele><time>2026-05-03T10:12:44Z</time></trkpt><trkpt lat="40.354997005055445" lon="15.038376300869691"><ele>334.0</ele><time>2026-05-03T10:12:46Z</time></trkpt><trkpt lat="40.355028835189785" lon="15.038283361690727"><ele>334.85714285714283</ele><time>2026-05-03T10:12:49Z</time></trkpt><trkpt lat="40.355045265586156" lon="15.038200343058064"><ele>335.7142857142857</ele><time>2026-05-03T10:12:53Z</time></trkpt><trkpt lat="40.35501978403125" lon="15.038124175630019"><ele>336.57142857142856</ele><time>2026-05-03T10:13:46.001Z</time></trkpt><trkpt lat="40.354990306668356" lon="15.03804182017605"><ele>337.42857142857144</ele><time>2026-05-03T10:13:49.001Z</time></trkpt><trkpt lat="40.354975224374776" lon="15.037925664029165"><ele>338.2857142857143</ele><time>2026-05-03T10:13:52.001Z</time></trkpt><trkpt lat="40.35496184846677" lon="15.037838313139133"><ele>339.14285714285717</ele><time>2026-05-03T10:13:54.001Z</time></trkpt><trkpt lat="40.354940727232105" lon="15.037754556294484"><ele>340.0</ele><time>2026-05-03T10:13:56.001Z</time></trkpt><trkpt lat="40.354927489030956" lon="15.037671775202252"><ele>340.0</ele><time>2026-05-03T10:13:58.001Z</time></trkpt><trkpt lat="40.35491916589081" lon="15.037584853447452"><ele>340.0</ele><time>2026-05-03T10:14:01.001Z</time></trkpt><trkpt lat="40.354892336127094" lon="15.0374965343871"><ele>340.0</ele><time>2026-05-03T10:14:33.999Z</time></trkpt><trkpt lat="40.35488139512933" lon="15.037407213415063"><ele>340.0</ele><time>2026-05-03T10:14:35.999Z</time></trkpt><trkpt lat="40.35486613398292" lon="15.037309918455428"><ele>340.0</ele><time>2026-05-03T10:14:37.999Z</time></trkpt><trkpt lat="40.354851744850606" lon="15.03720513768517"><ele>340.0</ele><time>2026-05-03T10:14:39.999Z</time></trkpt><trkpt lat="40.3548375774823" lon="15.037101579616587"><ele>340.0</ele><time>2026-05-03T10:14:41.999Z</time></trkpt><trkpt lat="40.354824252502866" lon="15.036998195361328"><ele>340.3333333333333</ele><time>2026-05-03T10:14:43.999Z</time></trkpt><trkpt lat="40.354835244576584" lon="15.036896650655114"><ele>340.66666666666663</ele><time>2026-05-03T10:14:45.999Z</time></trkpt><trkpt lat="40.35484215697379" lon="15.036796367264065"><ele>341.0</ele><time>2026-05-03T10:14:47.999Z</time></trkpt><trkpt lat="40.354838271196726" lon="15.036704354184618"><ele>341.3333333333333</ele><time>2026-05-03T10:14:49.999Z</time></trkpt><trkpt lat="40.35482498492733" lon="15.036608913390182"><ele>341.6666666666667</ele><time>2026-05-03T10:14:51.999Z</time></trkpt><trkpt lat="40.35479456902482" lon="15.036520097260775"><ele>342.0</ele><time>2026-05-03T10:14:53.999Z</time></trkpt><trkpt lat="40.35477008655296" lon="15.036412837220489"><ele>341.8333333333333</ele><time>2026-05-03T10:14:56Z</time></trkpt><trkpt lat="40.35473679782418" lon="15.036315962353727"><ele>341.6666666666667</ele><time>2026-05-03T10:14:58Z</time></trkpt><trkpt lat="40.3546822039321" lon="15.036237449669908"><ele>341.5</ele><time>2026-05-03T10:15:00Z</time></trkpt><trkpt lat="40.35461724369295" lon="15.036168134672401"><ele>341.33333333333337</ele><time>2026-05-03T10:15:02Z</time></trkpt><trkpt lat="40.354547711201946" lon="15.036082322643482"><ele>341.1666666666667</ele><time>2026-05-03T10:15:04Z</time></trkpt><trkpt lat="40.354500603247025" lon="15.036008694604575"><ele>341.0</ele><time>2026-05-03T10:15:07Z</time></trkpt><trkpt lat="40.35444739914318" lon="15.035941362447357"><ele>341.0</ele><time>2026-05-03T10:15:19Z</time></trkpt><trkpt lat="40.35439450387858" lon="15.035870233774544"><ele>341.0</ele><time>2026-05-03T10:15:22Z</time></trkpt><trkpt lat="40.3543508907307" lon="15.03578673990937"><ele>341.0</ele><time>2026-05-03T10:15:25Z</time></trkpt><trkpt lat="40.35430967796717" lon="15.035687468729444"><ele>341.0</ele><time>2026-05-03T10:15:28Z</time></trkpt><trkpt lat="40.35425917937668" lon="15.035595907327108"><ele>341.0</ele><time>2026-05-03T10:15:31Z</time></trkpt><trkpt lat="40.35418958793081" lon="15.035528346458356"><ele>341.0</ele><time>2026-05-03T10:15:34Z</time></trkpt><trkpt lat="40.35413029187287" lon="15.035442430505714"><ele>341.0</ele><time>2026-05-03T10:15:37Z</time></trkpt><trkpt lat="40.35407425720261" lon="15.035355025174619"><ele>341.0</ele><time>2026-05-03T10:15:40Z</time></trkpt><trkpt lat="40.35400329945348" lon="15.035286122496585"><ele>341.0</ele><time>2026-05-03T10:15:43Z</time></trkpt><trkpt lat="40.353935825413984" lon="15.035234237371538"><ele>341.0</ele><time>2026-05-03T10:15:45Z</time></trkpt><trkpt lat="40.35387530908329" lon="15.035173545456521"><ele>341.0</ele><time>2026-05-03T10:15:47Z</time></trkpt><trkpt lat="40.35381711575753" lon="15.03510973899963"><ele>341.0</ele><time>2026-05-03T10:15:49Z</time></trkpt><trkpt lat="40.35375675641441" lon="15.035053903156"><ele>341.20000000000005</ele><time>2026-05-03T10:15:51Z</time></trkpt><trkpt lat="40.3536917203665" lon="15.035009849063105"><ele>341.40000000000003</ele><time>2026-05-03T10:15:53.001Z</time></trkpt><trkpt lat="40.35362128408702" lon="15.034953807797324"><ele>341.6</ele><time>2026-05-03T10:15:55.001Z</time></trkpt><trkpt lat="40.35354214939286" lon="15.034889048351761"><ele>341.8</ele><time>2026-05-03T10:15:57.001Z</time></trkpt><trkpt lat="40.35346160077271" lon="15.03480847946166"><ele>342.0</ele><time>2026-05-03T10:15:59.001Z</time></trkpt><trkpt lat="40.35337367495723" lon="15.034718411923912"><ele>340.75</ele><time>2026-05-03T10:16:01.001Z</time></trkpt><trkpt lat="40.353273676258674" lon="15.034620341967177"><ele>339.5</ele><time>2026-05-03T10:16:03.001Z</time></trkpt><trkpt lat="40.353179059200926" lon="15.034531334848102"><ele>338.25</ele><time>2026-05-03T10:16:05.001Z</time></trkpt><trkpt lat="40.35308543203226" lon="15.03443967491689"><ele>337.0</ele><time>2026-05-03T10:16:07.001Z</time></trkpt><trkpt lat="40.352997521297425" lon="15.034356888172274"><ele>336.40000000000003</ele><time>2026-05-03T10:16:09.001Z</time></trkpt><trkpt lat="40.352964791096284" lon="15.034264415355915"><ele>335.8</ele><time>2026-05-03T10:16:11.001Z</time></trkpt><trkpt lat="40.352955216833955" lon="15.034140857420816"><ele>335.2</ele><time>2026-05-03T10:16:13.001Z</time></trkpt><trkpt lat="40.35292018674084" lon="15.033990772864948"><ele>334.6</ele><time>2026-05-03T10:16:15.001Z</time></trkpt><trkpt lat="40.35289521045113" lon="15.033892567020564"><ele>334.0</ele><time>2026-05-03T10:16:16.001Z</time></trkpt><trkpt lat="40.35286179191429" lon="15.033793469131982"><ele>332.3333333333333</ele><time>2026-05-03T10:16:17.001Z</time></trkpt><trkpt lat="40.352835816342484" lon="15.03370367273986"><ele>330.66666666666663</ele><time>2026-05-03T10:16:18.001Z</time></trkpt><trkpt lat="40.35281228787885" lon="15.033612407129741"><ele>329.0</ele><time>2026-05-03T10:16:19.001Z</time></trkpt><trkpt lat="40.35277330040548" lon="15.033505043044025"><ele>327.3333333333333</ele><time>2026-05-03T10:16:20.001Z</time></trkpt><trkpt lat="40.352733207734914" lon="15.033386408053087"><ele>325.6666666666667</ele><time>2026-05-03T10:16:21.001Z</time></trkpt><trkpt lat="40.35269429097214" lon="15.03326216265008"><ele>324.0</ele><time>2026-05-03T10:16:22.001Z</time></trkpt><trkpt lat="40.35265668127214" lon="15.033130694946813"><ele>320.75</ele><time>2026-05-03T10:16:23.001Z</time></trkpt><trkpt lat="40.35262297747892" lon="15.032979943354572"><ele>317.5</ele><time>2026-05-03T10:16:24.001Z</time></trkpt><trkpt lat="40.352586038624196" lon="15.032808989508581"><ele>314.25</ele><time>2026-05-03T10:16:25.001Z</time></trkpt><trkpt lat="40.35255326574461" lon="15.03263538504365"><ele>311.0</ele><time>2026-05-03T10:16:26.001Z</time></trkpt><trkpt lat="40.35254355031059" lon="15.032464621862283"><ele>309.0</ele><time>2026-05-03T10:16:27.001Z</time></trkpt><trkpt lat="40.35252540234227" lon="15.0323218427412"><ele>307.0</ele><time>2026-05-03T10:16:28.001Z</time></trkpt><trkpt lat="40.35250335776591" lon="15.032231419152975"><ele>305.0</ele><time>2026-05-03T10:16:29.001Z</time></trkpt><trkpt lat="40.352456785850016" lon="15.03208980051579"><ele>303.0</ele><time>2026-05-03T10:16:31.001Z</time></trkpt><trkpt lat="40.35242243376929" lon="15.03201142124878"><ele>301.0</ele><time>2026-05-03T10:16:33.001Z</time></trkpt><trkpt lat="40.35251833300571" lon="15.031962617621513"><ele>301.0</ele><time>2026-05-03T10:16:34.999Z</time></trkpt><trkpt lat="40.35259909846988" lon="15.031996213509894"><ele>301.0</ele><time>2026-05-03T10:16:35.999Z</time></trkpt><trkpt lat="40.35266902881959" lon="15.032038015534377"><ele>301.0</ele><time>2026-05-03T10:16:36.999Z</time></trkpt><trkpt lat="40.352721976105876" lon="15.032088584199347"><ele>301.0</ele><time>2026-05-03T10:16:37.999Z</time></trkpt><trkpt lat="40.352788101808734" lon="15.032167135760218"><ele>301.0</ele><time>2026-05-03T10:16:39.999Z</time></trkpt><trkpt lat="40.35286197930351" lon="15.03222622817022"><ele>301.0</ele><time>2026-05-03T10:16:41.999Z</time></trkpt><trkpt lat="40.35292631953269" lon="15.032212347215811"><ele>301.0</ele><time>2026-05-03T10:16:57.999Z</time></trkpt><trkpt lat="40.35291425115656" lon="15.032110251011279"><ele>301.0</ele><time>2026-05-03T10:17:03Z</time></trkpt><trkpt lat="40.35285573200908" lon="15.032052078750533"><ele>301.0</ele><time>2026-05-03T10:17:05Z</time></trkpt><trkpt lat="40.352790052401666" lon="15.031989024276381"><ele>301.0</ele><time>2026-05-03T10:17:07Z</time></trkpt><trkpt lat="40.352728683484656" lon="15.031909475588412"><ele>301.0</ele><time>2026-05-03T10:17:09Z</time></trkpt><trkpt lat="40.352657588523655" lon="15.031843656066755"><ele>301.0</ele><time>2026-05-03T10:17:11Z</time></trkpt><trkpt lat="40.352585749811595" lon="15.031777700606463"><ele>301.0</ele><time>2026-05-03T10:17:13Z</time></trkpt><trkpt lat="40.35250470462522" lon="15.031737666310518"><ele>301.0</ele><time>2026-05-03T10:17:15Z</time></trkpt><trkpt lat="40.352424990507465" lon="15.031731663537395"><ele>301.0</ele><time>2026-05-03T10:17:17Z</time></trkpt><trkpt lat="40.352352112181784" lon="15.031710681969637"><ele>301.0</ele><time>2026-05-03T10:17:20Z</time></trkpt><trkpt lat="40.3523014694455" lon="15.03160734984669"><ele>301.0</ele><time>2026-05-03T10:17:23Z</time></trkpt><trkpt lat="40.35227097968029" lon="15.031482274896007"><ele>301.0</ele><time>2026-05-03T10:17:25Z</time></trkpt><trkpt lat="40.352214423033125" lon="15.031341872360672"><ele>297.5</ele><time>2026-05-03T10:17:27Z</time></trkpt><trkpt lat="40.35218930148669" lon="15.03126186309803"><ele>294.0</ele><time>2026-05-03T10:17:28Z</time></trkpt><trkpt lat="40.3521652168655" lon="15.031172560989434"><ele>290.5</ele><time>2026-05-03T10:17:29Z</time></trkpt><trkpt lat="40.352155203046905" lon="15.031065577514433"><ele>287.0</ele><time>2026-05-03T10:17:30Z</time></trkpt><trkpt lat="40.35216404310934" lon="15.030945447555231"><ele>283.5</ele><time>2026-05-03T10:17:31Z</time></trkpt><trkpt lat="40.352174459056506" lon="15.030817452875414"><ele>280.0</ele><time>2026-05-03T10:17:32Z</time></trkpt><trkpt lat="40.35219376837253" lon="15.030687160734258"><ele>281.0</ele><time>2026-05-03T10:17:33Z</time></trkpt><trkpt lat="40.35221057841343" lon="15.030545438861251"><ele>282.0</ele><time>2026-05-03T10:17:34Z</time></trkpt><trkpt lat="40.35221977862149" lon="15.030400870257635"><ele>283.0</ele><time>2026-05-03T10:17:35Z</time></trkpt><trkpt lat="40.35223276483052" lon="15.030256889384239"><ele>284.0</ele><time>2026-05-03T10:17:36Z</time></trkpt><trkpt lat="40.352249481596516" lon="15.030115103570454"><ele>285.0</ele><time>2026-05-03T10:17:37Z</time></trkpt><trkpt lat="40.3522640811449" lon="15.02997681700731"><ele>285.2</ele><time>2026-05-03T10:17:38Z</time></trkpt><trkpt lat="40.35227955885926" lon="15.029845360651903"><ele>285.4</ele><time>2026-05-03T10:17:39Z</time></trkpt><trkpt lat="40.35229626582084" lon="15.0297166255638"><ele>285.6</ele><time>2026-05-03T10:17:40Z</time></trkpt><trkpt lat="40.35231119240177" lon="15.029590905152977"><ele>285.8</ele><time>2026-05-03T10:17:41Z</time></trkpt><trkpt lat="40.352337069294464" lon="15.02947491204276"><ele>286.0</ele><time>2026-05-03T10:17:42Z</time></trkpt><trkpt lat="40.35236804966975" lon="15.029362878528008"><ele>286.0</ele><time>2026-05-03T10:17:43Z</time></trkpt><trkpt lat="40.352400164938096" lon="15.029242161379951"><ele>286.0</ele><time>2026-05-03T10:17:44Z</time></trkpt><trkpt lat="40.352418414285026" lon="15.029127397004633"><ele>286.0</ele><time>2026-05-03T10:17:45Z</time></trkpt><trkpt lat="40.35245828926172" lon="15.029033083897243"><ele>286.0</ele><time>2026-05-03T10:17:46Z</time></trkpt><trkpt lat="40.35247757616608" lon="15.02892999615407"><ele>286.0</ele><time>2026-05-03T10:17:47Z</time></trkpt><trkpt lat="40.35247405934557" lon="15.028818423248449"><ele>286.0</ele><time>2026-05-03T10:17:48Z</time></trkpt><trkpt lat="40.352435572454304" lon="15.028719103287905"><ele>285.2</ele><time>2026-05-03T10:17:49.001Z</time></trkpt><trkpt lat="40.35239762619723" lon="15.028633964789783"><ele>284.40000000000003</ele><time>2026-05-03T10:17:50.001Z</time></trkpt><trkpt lat="40.35233913033207" lon="15.028575030010641"><ele>283.6</ele><time>2026-05-03T10:17:51.001Z</time></trkpt><trkpt lat="40.35226531246172" lon="15.028433463641758"><ele>282.8</ele><time>2026-05-03T10:17:52.001Z</time></trkpt><trkpt lat="40.35220497835566" lon="15.028355738872998"><ele>282.0</ele><time>2026-05-03T10:17:53.001Z</time></trkpt><trkpt lat="40.35213440130358" lon="15.028289611382572"><ele>279.4</ele><time>2026-05-03T10:17:54.001Z</time></trkpt><trkpt lat="40.35206234308067" lon="15.028220680277949"><ele>276.79999999999995</ele><time>2026-05-03T10:17:55.001Z</time></trkpt><trkpt lat="40.35198351464604" lon="15.028146240395369"><ele>274.2</ele><time>2026-05-03T10:17:56.001Z</time></trkpt><trkpt lat="40.351899446216684" lon="15.028065340962323"><ele>271.59999999999997</ele><time>2026-05-03T10:17:57.001Z</time></trkpt><trkpt lat="40.351807927764064" lon="15.027977116132606"><ele>269.0</ele><time>2026-05-03T10:17:58.001Z</time></trkpt><trkpt lat="40.35172179071698" lon="15.027872963557156"><ele>269.0</ele><time>2026-05-03T10:17:59.001Z</time></trkpt><trkpt lat="40.3516164336749" lon="15.027785926651449"><ele>269.0</ele><time>2026-05-03T10:18:00.001Z</time></trkpt><trkpt lat="40.35152626371965" lon="15.027667690481897"><ele>269.0</ele><time>2026-05-03T10:18:01.001Z</time></trkpt><trkpt lat="40.351470510987774" lon="15.027528821113442"><ele>269.0</ele><time>2026-05-03T10:18:02.001Z</time></trkpt><trkpt lat="40.35139386830594" lon="15.027378741648342"><ele>267.75</ele><time>2026-05-03T10:18:03.001Z</time></trkpt><trkpt lat="40.35131957473682" lon="15.027222735531"><ele>266.5</ele><time>2026-05-03T10:18:04.001Z</time></trkpt><trkpt lat="40.35125157425125" lon="15.027071547580887"><ele>265.25</ele><time>2026-05-03T10:18:05.001Z</time></trkpt><trkpt lat="40.35118339473132" lon="15.026917579801001"><ele>264.0</ele><time>2026-05-03T10:18:06.001Z</time></trkpt><trkpt lat="40.3511225421914" lon="15.026767068346008"><ele>263.5</ele><time>2026-05-03T10:18:07.001Z</time></trkpt><trkpt lat="40.35105429401827" lon="15.026622452573706"><ele>263.0</ele><time>2026-05-03T10:18:08.001Z</time></trkpt><trkpt lat="40.35099023526651" lon="15.026473554728677"><ele>262.5</ele><time>2026-05-03T10:18:09.001Z</time></trkpt><trkpt lat="40.35092774850684" lon="15.026327199193588"><ele>262.0</ele><time>2026-05-03T10:18:10.001Z</time></trkpt><trkpt lat="40.35085930865698" lon="15.026194939643199"><ele>262.0</ele><time>2026-05-03T10:18:11.001Z</time></trkpt><trkpt lat="40.350787301042885" lon="15.02607436062368"><ele>262.0</ele><time>2026-05-03T10:18:12.001Z</time></trkpt><trkpt lat="40.35071054118001" lon="15.02595691261141"><ele>262.0</ele><time>2026-05-03T10:18:13.001Z</time></trkpt><trkpt lat="40.35064252049406" lon="15.025842379856666"><ele>262.0</ele><time>2026-05-03T10:18:14.001Z</time></trkpt><trkpt lat="40.35055571309796" lon="15.02573115080795"><ele>262.0</ele><time>2026-05-03T10:18:15.001Z</time></trkpt><trkpt lat="40.350479507905995" lon="15.025630059676743"><ele>262.0</ele><time>2026-05-03T10:18:16.001Z</time></trkpt><trkpt lat="40.35040548251727" lon="15.025524663024637"><ele>262.0</ele><time>2026-05-03T10:18:17.001Z</time></trkpt><trkpt lat="40.35032843635285" lon="15.025431394062876"><ele>262.0</ele><time>2026-05-03T10:18:18.001Z</time></trkpt><trkpt lat="40.35025009159636" lon="15.025344807067798"><ele>262.0</ele><time>2026-05-03T10:18:19.001Z</time></trkpt><trkpt lat="40.35017431901013" lon="15.025263876655956"><ele>262.0</ele><time>2026-05-03T10:18:20.001Z</time></trkpt><trkpt lat="40.3500996760726" lon="15.025177766093286"><ele>262.0</ele><time>2026-05-03T10:18:21.001Z</time></trkpt><trkpt lat="40.35002601671136" lon="15.025101612547891"><ele>262.0</ele><time>2026-05-03T10:18:22.001Z</time></trkpt><trkpt lat="40.349952268634866" lon="15.025034642982787"><ele>262.0</ele><time>2026-05-03T10:18:23.001Z</time></trkpt><trkpt lat="40.34987863974739" lon="15.024974496447557"><ele>262.0</ele><time>2026-05-03T10:18:24.001Z</time></trkpt><trkpt lat="40.34979447416725" lon="15.024915024522695"><ele>261.3333333333333</ele><time>2026-05-03T10:18:25.001Z</time></trkpt><trkpt lat="40.34971612858469" lon="15.024861143644213"><ele>260.66666666666663</ele><time>2026-05-03T10:18:26.001Z</time></trkpt><trkpt lat="40.34963591332872" lon="15.024810133901008"><ele>260.0</ele><time>2026-05-03T10:18:27.001Z</time></trkpt><trkpt lat="40.34955520047409" lon="15.024764540838781"><ele>259.3333333333333</ele><time>2026-05-03T10:18:28.001Z</time></trkpt><trkpt lat="40.34947314794325" lon="15.024710800914029"><ele>258.6666666666667</ele><time>2026-05-03T10:18:29.001Z</time></trkpt><trkpt lat="40.34939719924284" lon="15.024648999361691"><ele>258.0</ele><time>2026-05-03T10:18:30.001Z</time></trkpt><trkpt lat="40.349315423421984" lon="15.02458834895708"><ele>258.0</ele><time>2026-05-03T10:18:31.001Z</time></trkpt><trkpt lat="40.34923639737516" lon="15.024514386685572"><ele>258.0</ele><time>2026-05-03T10:18:32.001Z</time></trkpt><trkpt lat="40.34917019123102" lon="15.024426859735433"><ele>258.0</ele><time>2026-05-03T10:18:33.001Z</time></trkpt><trkpt lat="40.34910298395663" lon="15.024330912456382"><ele>258.0</ele><time>2026-05-03T10:18:34.001Z</time></trkpt><trkpt lat="40.3490400829032" lon="15.024229073207142"><ele>258.0</ele><time>2026-05-03T10:18:35.001Z</time></trkpt><trkpt lat="40.34898220247338" lon="15.024114744501297"><ele>255.0</ele><time>2026-05-03T10:18:36.001Z</time></trkpt><trkpt lat="40.34891927206992" lon="15.023997455533737"><ele>252.0</ele><time>2026-05-03T10:18:37.001Z</time></trkpt><trkpt lat="40.34884917887309" lon="15.023883408872841"><ele>249.0</ele><time>2026-05-03T10:18:38.001Z</time></trkpt><trkpt lat="40.348776573827415" lon="15.023771074593613"><ele>246.0</ele><time>2026-05-03T10:18:39.001Z</time></trkpt><trkpt lat="40.348696901650364" lon="15.023648548288167"><ele>246.0</ele><time>2026-05-03T10:18:40.001Z</time></trkpt><trkpt lat="40.34862648614697" lon="15.023507355845382"><ele>246.0</ele><time>2026-05-03T10:18:40.999Z</time></trkpt><trkpt lat="40.348557170474315" lon="15.023376053127102"><ele>246.0</ele><time>2026-05-03T10:18:41.999Z</time></trkpt><trkpt lat="40.348510303058674" lon="15.023219361104795"><ele>246.0</ele><time>2026-05-03T10:18:42.999Z</time></trkpt><trkpt lat="40.34843931277168" lon="15.023074046112692"><ele>244.25</ele><time>2026-05-03T10:18:43.999Z</time></trkpt><trkpt lat="40.34836722882835" lon="15.022923374794102"><ele>242.5</ele><time>2026-05-03T10:18:44.999Z</time></trkpt><trkpt lat="40.34831339478453" lon="15.022761049819653"><ele>240.75</ele><time>2026-05-03T10:18:45.999Z</time></trkpt><trkpt lat="40.34826792346556" lon="15.022616331799021"><ele>239.0</ele><time>2026-05-03T10:18:46.999Z</time></trkpt><trkpt lat="40.34823492214" lon="15.022480768089055"><ele>236.25</ele><time>2026-05-03T10:18:47.999Z</time></trkpt><trkpt lat="40.34822875278389" lon="15.022328473959123"><ele>233.5</ele><time>2026-05-03T10:18:48.999Z</time></trkpt><trkpt lat="40.348248690427496" lon="15.02216609545529"><ele>230.75</ele><time>2026-05-03T10:18:49.999Z</time></trkpt><trkpt lat="40.348272981057995" lon="15.021995672013"><ele>228.0</ele><time>2026-05-03T10:18:50.999Z</time></trkpt><trkpt lat="40.34829057340159" lon="15.021830177276692"><ele>228.0</ele><time>2026-05-03T10:18:51.999Z</time></trkpt><trkpt lat="40.348314960501774" lon="15.021677634785751"><ele>228.0</ele><time>2026-05-03T10:18:52.999Z</time></trkpt><trkpt lat="40.34834267228758" lon="15.021538858812253"><ele>228.0</ele><time>2026-05-03T10:18:53.999Z</time></trkpt><trkpt lat="40.3483651606313" lon="15.021405486808572"><ele>228.0</ele><time>2026-05-03T10:18:54.999Z</time></trkpt><trkpt lat="40.348360395929895" lon="15.021241840206208"><ele>225.25</ele><time>2026-05-03T10:18:55.999Z</time></trkpt><trkpt lat="40.34832909844742" lon="15.021079694010627"><ele>222.5</ele><time>2026-05-03T10:18:56.999Z</time></trkpt><trkpt lat="40.34829227506" lon="15.02090932717383"><ele>219.75</ele><time>2026-05-03T10:18:57.999Z</time></trkpt><trkpt lat="40.34825407566719" lon="15.02073469454873"><ele>217.0</ele><time>2026-05-03T10:18:58.999Z</time></trkpt><trkpt lat="40.34819412563336" lon="15.020559898374017"><ele>211.66666666666666</ele><time>2026-05-03T10:18:59.999Z</time></trkpt><trkpt lat="40.34810760468711" lon="15.020377193542897"><ele>206.33333333333331</ele><time>2026-05-03T10:19:00.999Z</time></trkpt><trkpt lat="40.34801108489829" lon="15.02022931363786"><ele>201.0</ele><time>2026-05-03T10:19:01.999Z</time></trkpt><trkpt lat="40.34791196160974" lon="15.020073663426759"><ele>198.66666666666669</ele><time>2026-05-03T10:19:02.999Z</time></trkpt><trkpt lat="40.34782521275112" lon="15.019901566966464"><ele>196.33333333333334</ele><time>2026-05-03T10:19:03.999Z</time></trkpt><trkpt lat="40.347734084428545" lon="15.019729887001857"><ele>194.0</ele><time>2026-05-03T10:19:05Z</time></trkpt><trkpt lat="40.347643428867684" lon="15.019563829833745"><ele>194.0</ele><time>2026-05-03T10:19:06Z</time></trkpt><trkpt lat="40.34755524533053" lon="15.019396056199238"><ele>194.0</ele><time>2026-05-03T10:19:07Z</time></trkpt><trkpt lat="40.3474577545547" lon="15.019232864448531"><ele>194.0</ele><time>2026-05-03T10:19:08Z</time></trkpt><trkpt lat="40.3473617324266" lon="15.0190626397833"><ele>193.0</ele><time>2026-05-03T10:19:09Z</time></trkpt><trkpt lat="40.34727065212264" lon="15.018891603042018"><ele>192.0</ele><time>2026-05-03T10:19:10Z</time></trkpt><trkpt lat="40.34717942216605" lon="15.018722507098518"><ele>191.0</ele><time>2026-05-03T10:19:11Z</time></trkpt><trkpt lat="40.34708159898562" lon="15.01855532853554"><ele>191.0</ele><time>2026-05-03T10:19:12Z</time></trkpt><trkpt lat="40.346983517527356" lon="15.018395378636036"><ele>191.0</ele><time>2026-05-03T10:19:13Z</time></trkpt><trkpt lat="40.34687121914038" lon="15.01825313815447"><ele>191.0</ele><time>2026-05-03T10:19:14Z</time></trkpt><trkpt lat="40.34675278500862" lon="15.018118490167742"><ele>189.66666666666666</ele><time>2026-05-03T10:19:15Z</time></trkpt><trkpt lat="40.34664375590648" lon="15.017978036574815"><ele>188.33333333333334</ele><time>2026-05-03T10:19:16Z</time></trkpt><trkpt lat="40.3465362518581" lon="15.017834875824386"><ele>187.0</ele><time>2026-05-03T10:19:17Z</time></trkpt><trkpt lat="40.34642507414432" lon="15.017690912644879"><ele>184.75</ele><time>2026-05-03T10:19:18Z</time></trkpt><trkpt lat="40.346319372275666" lon="15.01755146931563"><ele>182.5</ele><time>2026-05-03T10:19:19Z</time></trkpt><trkpt lat="40.34622957725238" lon="15.017400562719716"><ele>180.25</ele><time>2026-05-03T10:19:20Z</time></trkpt><trkpt lat="40.34615006417557" lon="15.017235503419982"><ele>178.0</ele><time>2026-05-03T10:19:21Z</time></trkpt><trkpt lat="40.34608540546638" lon="15.017056554565453"><ele>178.0</ele><time>2026-05-03T10:19:22Z</time></trkpt><trkpt lat="40.346031303079535" lon="15.016871955940658"><ele>178.0</ele><time>2026-05-03T10:19:23Z</time></trkpt><trkpt lat="40.34597476721531" lon="15.016685875346614"><ele>178.0</ele><time>2026-05-03T10:19:24Z</time></trkpt><trkpt lat="40.345923027017754" lon="15.01650004490088"><ele>176.33333333333334</ele><time>2026-05-03T10:19:25Z</time></trkpt><trkpt lat="40.345871947051414" lon="15.01631747714327"><ele>174.66666666666666</ele><time>2026-05-03T10:19:26Z</time></trkpt><trkpt lat="40.34581560650168" lon="15.016128058789203"><ele>173.0</ele><time>2026-05-03T10:19:27Z</time></trkpt><trkpt lat="40.34576286155534" lon="15.015935721603281"><ele>166.33333333333331</ele><time>2026-05-03T10:19:28Z</time></trkpt><trkpt lat="40.345704467960196" lon="15.015741184322321"><ele>159.66666666666666</ele><time>2026-05-03T10:19:29Z</time></trkpt><trkpt lat="40.34563586583336" lon="15.015544528759193"><ele>153.0</ele><time>2026-05-03T10:19:30Z</time></trkpt><trkpt lat="40.3455569764892" lon="15.015358623642"><ele>153.25</ele><time>2026-05-03T10:19:31Z</time></trkpt><trkpt lat="40.34546837839306" lon="15.015213702406317"><ele>153.5</ele><time>2026-05-03T10:19:32Z</time></trkpt><trkpt lat="40.345393185913714" lon="15.015070863635179"><ele>153.75</ele><time>2026-05-03T10:19:33Z</time></trkpt><trkpt lat="40.34532170662525" lon="15.014959296259269"><ele>154.0</ele><time>2026-05-03T10:19:34Z</time></trkpt><trkpt lat="40.3452502833101" lon="15.014856308486939"><ele>154.0</ele><time>2026-05-03T10:19:35Z</time></trkpt><trkpt lat="40.3451801321827" lon="15.014777120295397"><ele>154.0</ele><time>2026-05-03T10:19:36Z</time></trkpt><trkpt lat="40.345109612268736" lon="15.014740903598257"><ele>154.0</ele><time>2026-05-03T10:19:37Z</time></trkpt><trkpt lat="40.345041435325996" lon="15.014750072454783"><ele>154.0</ele><time>2026-05-03T10:19:38Z</time></trkpt><trkpt lat="40.34498511010218" lon="15.014825109810664"><ele>154.0</ele><time>2026-05-03T10:19:39Z</time></trkpt><trkpt lat="40.3449479841542" lon="15.01493393283073"><ele>154.0</ele><time>2026-05-03T10:19:40Z</time></trkpt><trkpt lat="40.34492120074024" lon="15.015042783647754"><ele>154.0</ele><time>2026-05-03T10:19:41Z</time></trkpt><trkpt lat="40.34489797232383" lon="15.015155726199632"><ele>154.0</ele><time>2026-05-03T10:19:42Z</time></trkpt><trkpt lat="40.344873635816015" lon="15.015272328364693"><ele>154.0</ele><time>2026-05-03T10:19:43.001Z</time></trkpt><trkpt lat="40.34486382360834" lon="15.015402306474519"><ele>154.0</ele><time>2026-05-03T10:19:44.001Z</time></trkpt><trkpt lat="40.34488354251141" lon="15.015534642338466"><ele>154.0</ele><time>2026-05-03T10:19:45.001Z</time></trkpt><trkpt lat="40.34492087657318" lon="15.015647994396918"><ele>154.0</ele><time>2026-05-03T10:19:46.001Z</time></trkpt><trkpt lat="40.344927009717466" lon="15.015767822436793"><ele>154.0</ele><time>2026-05-03T10:19:47.001Z</time></trkpt><trkpt lat="40.344904327572586" lon="15.015846363603009"><ele>154.0</ele><time>2026-05-03T10:19:48.001Z</time></trkpt><trkpt lat="40.344835681575944" lon="15.015904763212518"><ele>154.0</ele><time>2026-05-03T10:19:49.001Z</time></trkpt><trkpt lat="40.344729111372104" lon="15.015901453344513"><ele>154.0</ele><time>2026-05-03T10:19:50.001Z</time></trkpt><trkpt lat="40.344636124283326" lon="15.015827338921902"><ele>147.5</ele><time>2026-05-03T10:19:51.001Z</time></trkpt><trkpt lat="40.34458233649403" lon="15.015722692464271"><ele>141.0</ele><time>2026-05-03T10:19:52.001Z</time></trkpt><trkpt lat="40.3445223245655" lon="15.015574425345653"><ele>134.5</ele><time>2026-05-03T10:19:53.001Z</time></trkpt><trkpt lat="40.34449986120706" lon="15.01541687450581"><ele>128.0</ele><time>2026-05-03T10:19:54.001Z</time></trkpt><trkpt lat="40.34449920925641" lon="15.015259144786226"><ele>128.0</ele><time>2026-05-03T10:19:55.001Z</time></trkpt><trkpt lat="40.34448493980396" lon="15.015108890576617"><ele>128.0</ele><time>2026-05-03T10:19:56.001Z</time></trkpt><trkpt lat="40.34445730197813" lon="15.014956669804961"><ele>128.0</ele><time>2026-05-03T10:19:57.001Z</time></trkpt><trkpt lat="40.34445628507404" lon="15.014831504474426"><ele>128.0</ele><time>2026-05-03T10:19:58.001Z</time></trkpt><trkpt lat="40.34441277637828" lon="15.014649595792008"><ele>127.25</ele><time>2026-05-03T10:19:59.001Z</time></trkpt><trkpt lat="40.34438499147577" lon="15.014490140064359"><ele>126.5</ele><time>2026-05-03T10:20:00.001Z</time></trkpt><trkpt lat="40.344357010327066" lon="15.014325141878773"><ele>125.75</ele><time>2026-05-03T10:20:01.001Z</time></trkpt><trkpt lat="40.34432947740935" lon="15.014163258016925"><ele>125.0</ele><time>2026-05-03T10:20:02.001Z</time></trkpt><trkpt lat="40.34430301685765" lon="15.013995212752423"><ele>123.25</ele><time>2026-05-03T10:20:03.001Z</time></trkpt><trkpt lat="40.34427392146385" lon="15.013831703786188"><ele>121.5</ele><time>2026-05-03T10:20:04.001Z</time></trkpt><trkpt lat="40.3442456894949" lon="15.013673802965105"><ele>119.75</ele><time>2026-05-03T10:20:05.001Z</time></trkpt><trkpt lat="40.34420943930193" lon="15.013524535843375"><ele>118.0</ele><time>2026-05-03T10:20:06.001Z</time></trkpt><trkpt lat="40.344148556135096" lon="15.01338730326561"><ele>114.0</ele><time>2026-05-03T10:20:07.001Z</time></trkpt><trkpt lat="40.344054689535625" lon="15.013248461106441"><ele>110.0</ele><time>2026-05-03T10:20:08.001Z</time></trkpt><trkpt lat="40.34394551638629" lon="15.01312741549343"><ele>106.0</ele><time>2026-05-03T10:20:09.001Z</time></trkpt><trkpt lat="40.34384291008894" lon="15.013007659856546"><ele>102.0</ele><time>2026-05-03T10:20:10.001Z</time></trkpt><trkpt lat="40.34374103807876" lon="15.01285394007005"><ele>102.0</ele><time>2026-05-03T10:20:11.001Z</time></trkpt><trkpt lat="40.34365349108816" lon="15.012686275838693"><ele>102.0</ele><time>2026-05-03T10:20:12.001Z</time></trkpt><trkpt lat="40.343563739932065" lon="15.012505962117272"><ele>102.0</ele><time>2026-05-03T10:20:13.001Z</time></trkpt><trkpt lat="40.3434788622381" lon="15.012321142421024"><ele>98.66666666666667</ele><time>2026-05-03T10:20:14.001Z</time></trkpt><trkpt lat="40.3433951305597" lon="15.0121428982555"><ele>95.33333333333334</ele><time>2026-05-03T10:20:15.001Z</time></trkpt><trkpt lat="40.34329871713506" lon="15.011969313529418"><ele>92.0</ele><time>2026-05-03T10:20:16.001Z</time></trkpt><trkpt lat="40.34319243953749" lon="15.011810684836178"><ele>91.0</ele><time>2026-05-03T10:20:17.001Z</time></trkpt><trkpt lat="40.343085911587394" lon="15.011652208410327"><ele>90.0</ele><time>2026-05-03T10:20:18.001Z</time></trkpt><trkpt lat="40.342977519219836" lon="15.01150838189602"><ele>89.0</ele><time>2026-05-03T10:20:19.001Z</time></trkpt><trkpt lat="40.34286037008272" lon="15.011370997017874"><ele>89.0</ele><time>2026-05-03T10:20:20.001Z</time></trkpt><trkpt lat="40.34275062016561" lon="15.011234211262627"><ele>89.0</ele><time>2026-05-03T10:20:21.001Z</time></trkpt><trkpt lat="40.34264908738501" lon="15.011090930251239"><ele>89.0</ele><time>2026-05-03T10:20:22.001Z</time></trkpt><trkpt lat="40.342552102522795" lon="15.010951943031476"><ele>89.0</ele><time>2026-05-03T10:20:23.001Z</time></trkpt><trkpt lat="40.34246445494644" lon="15.01082250628525"><ele>86.8</ele><time>2026-05-03T10:20:24.001Z</time></trkpt><trkpt lat="40.342400295239955" lon="15.010725436410029"><ele>84.60000000000001</ele><time>2026-05-03T10:20:25.001Z</time></trkpt><trkpt lat="40.34234119791538" lon="15.010655988571132"><ele>82.4</ele><time>2026-05-03T10:20:26.001Z</time></trkpt><trkpt lat="40.34225342241201" lon="15.01063217304931"><ele>80.2</ele><time>2026-05-03T10:20:27.001Z</time></trkpt><trkpt lat="40.342153841462675" lon="15.010660954849547"><ele>78.0</ele><time>2026-05-03T10:20:28.001Z</time></trkpt><trkpt lat="40.342060040612736" lon="15.010725295967946"><ele>79.25</ele><time>2026-05-03T10:20:29.001Z</time></trkpt><trkpt lat="40.34195904787365" lon="15.010773414263301"><ele>80.5</ele><time>2026-05-03T10:20:30.001Z</time></trkpt><trkpt lat="40.341851492837996" lon="15.01081821388696"><ele>81.75</ele><time>2026-05-03T10:20:31.001Z</time></trkpt><trkpt lat="40.34173895871603" lon="15.01085927403168"><ele>83.0</ele><time>2026-05-03T10:20:32.002Z</time></trkpt><trkpt lat="40.341617399253984" lon="15.010885691112277"><ele>83.0</ele><time>2026-05-03T10:20:33.002Z</time></trkpt><trkpt lat="40.341497642612445" lon="15.010896597023615"><ele>83.0</ele><time>2026-05-03T10:20:34.002Z</time></trkpt><trkpt lat="40.34137753407811" lon="15.01089869458669"><ele>83.0</ele><time>2026-05-03T10:20:35.002Z</time></trkpt><trkpt lat="40.34125493431843" lon="15.010909976492506"><ele>83.0</ele><time>2026-05-03T10:20:36.002Z</time></trkpt><trkpt lat="40.34114139257223" lon="15.010948638178863"><ele>81.0</ele><time>2026-05-03T10:20:37.002Z</time></trkpt><trkpt lat="40.34101839928337" lon="15.010996022841686"><ele>79.0</ele><time>2026-05-03T10:20:38.002Z</time></trkpt><trkpt lat="40.340890762606705" lon="15.011042214964295"><ele>77.0</ele><time>2026-05-03T10:20:39.002Z</time></trkpt><trkpt lat="40.34076625590814" lon="15.011085611030833"><ele>75.0</ele><time>2026-05-03T10:20:40.002Z</time></trkpt><trkpt lat="40.34064554329075" lon="15.011143914106817"><ele>70.5</ele><time>2026-05-03T10:20:41.002Z</time></trkpt><trkpt lat="40.340538133121555" lon="15.011209383002422"><ele>66.0</ele><time>2026-05-03T10:20:42.002Z</time></trkpt><trkpt lat="40.34044408403747" lon="15.011313201356423"><ele>61.5</ele><time>2026-05-03T10:20:43.002Z</time></trkpt><trkpt lat="40.340363092793304" lon="15.0114260753543"><ele>57.0</ele><time>2026-05-03T10:20:44.002Z</time></trkpt><trkpt lat="40.3403130289873" lon="15.011535345540949"><ele>57.0</ele><time>2026-05-03T10:20:45.002Z</time></trkpt><trkpt lat="40.3403063448801" lon="15.011644172666411"><ele>57.0</ele><time>2026-05-03T10:20:46.002Z</time></trkpt><trkpt lat="40.340353350220944" lon="15.011737471191745"><ele>57.0</ele><time>2026-05-03T10:20:47Z</time></trkpt><trkpt lat="40.340422390925006" lon="15.011812943696706"><ele>57.0</ele><time>2026-05-03T10:20:48Z</time></trkpt><trkpt lat="40.34050970606999" lon="15.011828701494897"><ele>57.0</ele><time>2026-05-03T10:20:49Z</time></trkpt><trkpt lat="40.34059925873639" lon="15.011835463129357"><ele>57.0</ele><time>2026-05-03T10:20:50Z</time></trkpt><trkpt lat="40.34068498634465" lon="15.011850535443227"><ele>60.0</ele><time>2026-05-03T10:20:51Z</time></trkpt><trkpt lat="40.340761151420544" lon="15.01185077919534"><ele>63.0</ele><time>2026-05-03T10:20:52Z</time></trkpt><trkpt lat="40.3408454991488" lon="15.011854131104457"><ele>66.0</ele><time>2026-05-03T10:20:53Z</time></trkpt><trkpt lat="40.34093014880936" lon="15.0118572362532"><ele>69.0</ele><time>2026-05-03T10:20:54Z</time></trkpt><trkpt lat="40.341014467035556" lon="15.011861804774979"><ele>72.0</ele><time>2026-05-03T10:20:55Z</time></trkpt><trkpt lat="40.341098688905234" lon="15.01187803727222"><ele>75.0</ele><time>2026-05-03T10:20:56Z</time></trkpt><trkpt lat="40.34118504731452" lon="15.011888350321891"><ele>75.0</ele><time>2026-05-03T10:20:57Z</time></trkpt><trkpt lat="40.34126992305191" lon="15.011916135706995"><ele>75.0</ele><time>2026-05-03T10:20:58Z</time></trkpt><trkpt lat="40.34134839434223" lon="15.011973661868529"><ele>75.0</ele><time>2026-05-03T10:20:59Z</time></trkpt><trkpt lat="40.34142429524664" lon="15.012028490422658"><ele>75.0</ele><time>2026-05-03T10:21:00Z</time></trkpt><trkpt lat="40.34149890480115" lon="15.012091061100955"><ele>75.0</ele><time>2026-05-03T10:21:01Z</time></trkpt><trkpt lat="40.341569406226796" lon="15.012156874249815"><ele>75.0</ele><time>2026-05-03T10:21:02Z</time></trkpt><trkpt lat="40.341636587992156" lon="15.012223109053272"><ele>75.8</ele><time>2026-05-03T10:21:03Z</time></trkpt><trkpt lat="40.341701422160085" lon="15.01227700264676"><ele>76.6</ele><time>2026-05-03T10:21:04Z</time></trkpt><trkpt lat="40.341790258966974" lon="15.012375135430455"><ele>77.4</ele><time>2026-05-03T10:21:05Z</time></trkpt><trkpt lat="40.34184072299093" lon="15.012462143551371"><ele>78.2</ele><time>2026-05-03T10:21:06Z</time></trkpt><trkpt lat="40.34188959363475" lon="15.01257028153381"><ele>79.0</ele><time>2026-05-03T10:21:07Z</time></trkpt><trkpt lat="40.34189722990488" lon="15.012684415288282"><ele>76.2</ele><time>2026-05-03T10:21:08Z</time></trkpt><trkpt lat="40.34186029708061" lon="15.012794685296761"><ele>73.4</ele><time>2026-05-03T10:21:09Z</time></trkpt><trkpt lat="40.3417870532" lon="15.012892461998813"><ele>70.6</ele><time>2026-05-03T10:21:10Z</time></trkpt><trkpt lat="40.341689497978514" lon="15.012953378363449"><ele>67.8</ele><time>2026-05-03T10:21:11Z</time></trkpt><trkpt lat="40.34157651455124" lon="15.01294742690544"><ele>65.0</ele><time>2026-05-03T10:21:12Z</time></trkpt><trkpt lat="40.34146538717698" lon="15.01288132356569"><ele>63.0</ele><time>2026-05-03T10:21:13Z</time></trkpt><trkpt lat="40.34135638766612" lon="15.01282593436202"><ele>61.0</ele><time>2026-05-03T10:21:14Z</time></trkpt><trkpt lat="40.341255206051784" lon="15.012763120048415"><ele>59.0</ele><time>2026-05-03T10:21:15Z</time></trkpt><trkpt lat="40.34115118323455" lon="15.012705854071912"><ele>57.0</ele><time>2026-05-03T10:21:16Z</time></trkpt><trkpt lat="40.34104534495664" lon="15.012653684795447"><ele>57.0</ele><time>2026-05-03T10:21:17Z</time></trkpt><trkpt lat="40.34093644296994" lon="15.012612650596406"><ele>57.0</ele><time>2026-05-03T10:21:18Z</time></trkpt><trkpt lat="40.34082961768757" lon="15.01256567065241"><ele>57.0</ele><time>2026-05-03T10:21:19Z</time></trkpt><trkpt lat="40.34072294067021" lon="15.012526766892062"><ele>57.0</ele><time>2026-05-03T10:21:20Z</time></trkpt><trkpt lat="40.340613292400626" lon="15.01250367096497"><ele>57.0</ele><time>2026-05-03T10:21:21Z</time></trkpt><trkpt lat="40.34050997940283" lon="15.012488169345767"><ele>58.6</ele><time>2026-05-03T10:21:22Z</time></trkpt><trkpt lat="40.340404404342955" lon="15.012475443065647"><ele>60.2</ele><time>2026-05-03T10:21:23Z</time></trkpt><trkpt lat="40.340304880853765" lon="15.012452057731434"><ele>61.8</ele><time>2026-05-03T10:21:24Z</time></trkpt><trkpt lat="40.34020272278006" lon="15.01243074296087"><ele>63.4</ele><time>2026-05-03T10:21:25Z</time></trkpt><trkpt lat="40.340110658541924" lon="15.012404247449044"><ele>65.0</ele><time>2026-05-03T10:21:26.001Z</time></trkpt><trkpt lat="40.340007724724835" lon="15.012377746041789"><ele>65.0</ele><time>2026-05-03T10:21:27.001Z</time></trkpt><trkpt lat="40.339904548510226" lon="15.012355502608305"><ele>65.0</ele><time>2026-05-03T10:21:28.001Z</time></trkpt><trkpt lat="40.339798297176294" lon="15.0123400830354"><ele>65.0</ele><time>2026-05-03T10:21:29.001Z</time></trkpt><trkpt lat="40.339686101523526" lon="15.012323095815665"><ele>65.0</ele><time>2026-05-03T10:21:30.001Z</time></trkpt><trkpt lat="40.339568854579525" lon="15.012306369474341"><ele>65.0</ele><time>2026-05-03T10:21:31.001Z</time></trkpt><trkpt lat="40.33945096959645" lon="15.012284040664765"><ele>59.25</ele><time>2026-05-03T10:21:32.001Z</time></trkpt><trkpt lat="40.33933177320028" lon="15.012267914715435"><ele>53.5</ele><time>2026-05-03T10:21:33.001Z</time></trkpt><trkpt lat="40.33920513622831" lon="15.012256348141321"><ele>47.75</ele><time>2026-05-03T10:21:34.001Z</time></trkpt><trkpt lat="40.339091343833495" lon="15.012227620600783"><ele>42.0</ele><time>2026-05-03T10:21:35.001Z</time></trkpt><trkpt lat="40.338988690652975" lon="15.012178127017057"><ele>42.0</ele><time>2026-05-03T10:21:36.001Z</time></trkpt><trkpt lat="40.338899363227874" lon="15.012139865073676"><ele>42.0</ele><time>2026-05-03T10:21:37.001Z</time></trkpt><trkpt lat="40.338811629179126" lon="15.012143545916699"><ele>42.0</ele><time>2026-05-03T10:21:38.001Z</time></trkpt><trkpt lat="40.33873050106628" lon="15.012204084151337"><ele>42.0</ele><time>2026-05-03T10:21:39.001Z</time></trkpt><trkpt lat="40.338660562310814" lon="15.012306060865303"><ele>42.0</ele><time>2026-05-03T10:21:40.001Z</time></trkpt><trkpt lat="40.33862249995558" lon="15.012450667756855"><ele>38.75</ele><time>2026-05-03T10:21:41.001Z</time></trkpt><trkpt lat="40.338610296492234" lon="15.012607699995689"><ele>35.5</ele><time>2026-05-03T10:21:42.001Z</time></trkpt><trkpt lat="40.33858415630634" lon="15.012755790603524"><ele>32.25</ele><time>2026-05-03T10:21:43.001Z</time></trkpt><trkpt lat="40.338547357670365" lon="15.012900900417065"><ele>29.0</ele><time>2026-05-03T10:21:44.001Z</time></trkpt><trkpt lat="40.33847901469727" lon="15.013026864077302"><ele>29.0</ele><time>2026-05-03T10:21:45.001Z</time></trkpt><trkpt lat="40.33839886792025" lon="15.01313584288033"><ele>29.0</ele><time>2026-05-03T10:21:46.001Z</time></trkpt><trkpt lat="40.33830820764165" lon="15.013233290564113"><ele>29.0</ele><time>2026-05-03T10:21:47.001Z</time></trkpt><trkpt lat="40.33823093268593" lon="15.01331446457718"><ele>29.0</ele><time>2026-05-03T10:21:48.001Z</time></trkpt><trkpt lat="40.33818462100253" lon="15.013373800964768"><ele>29.0</ele><time>2026-05-03T10:21:49.001Z</time></trkpt><trkpt lat="40.33810383869894" lon="15.01340041290895"><ele>28.4</ele><time>2026-05-03T10:21:51.001Z</time></trkpt><trkpt lat="40.33801648234721" lon="15.013340895799672"><ele>27.799999999999997</ele><time>2026-05-03T10:21:53.001Z</time></trkpt><trkpt lat="40.33796060154367" lon="15.013259103799733"><ele>27.200000000000003</ele><time>2026-05-03T10:21:54.001Z</time></trkpt><trkpt lat="40.337915231911964" lon="15.013199024282802"><ele>26.6</ele><time>2026-05-03T10:21:55.001Z</time></trkpt><trkpt lat="40.33786616059648" lon="15.013120522065211"><ele>26.0</ele><time>2026-05-03T10:21:56.001Z</time></trkpt><trkpt lat="40.337807119035624" lon="15.012958068586839"><ele>25.857142857142858</ele><time>2026-05-03T10:21:58.001Z</time></trkpt><trkpt lat="40.337793355899514" lon="15.012860909739942"><ele>25.714285714285715</ele><time>2026-05-03T10:21:59.001Z</time></trkpt><trkpt lat="40.33780013527046" lon="15.01276222700695"><ele>25.571428571428573</ele><time>2026-05-03T10:22:00.001Z</time></trkpt><trkpt lat="40.33783415321931" lon="15.012674721866723"><ele>25.42857142857143</ele><time>2026-05-03T10:22:01.001Z</time></trkpt><trkpt lat="40.337898937939144" lon="15.012618481311813"><ele>25.285714285714285</ele><time>2026-05-03T10:22:02.001Z</time></trkpt><trkpt lat="40.33794445539311" lon="15.012538466811938"><ele>25.142857142857146</ele><time>2026-05-03T10:22:03.001Z</time></trkpt><trkpt lat="40.337987201741626" lon="15.012471460942136"><ele>25.0</ele><time>2026-05-03T10:22:04.001Z</time></trkpt><trkpt lat="40.33802804203804" lon="15.012401478907744"><ele>25.0</ele><time>2026-05-03T10:22:05.001Z</time></trkpt><trkpt lat="40.3380717556379" lon="15.012334073426006"><ele>25.0</ele><time>2026-05-03T10:22:06.001Z</time></trkpt><trkpt lat="40.33812459556507" lon="15.01225592586005"><ele>25.0</ele><time>2026-05-03T10:22:07.001Z</time></trkpt><trkpt lat="40.33819034599813" lon="15.012093268202555"><ele>25.0</ele><time>2026-05-03T10:22:09.001Z</time></trkpt><trkpt lat="40.33822448971654" lon="15.012014579653886"><ele>25.0</ele><time>2026-05-03T10:22:10.001Z</time></trkpt><trkpt lat="40.33829066920409" lon="15.011892614261559"><ele>25.000000000000004</ele><time>2026-05-03T10:22:12.002Z</time></trkpt><trkpt lat="40.33831519028611" lon="15.011790231196535"><ele>25.0</ele><time>2026-05-03T10:22:13.002Z</time></trkpt><trkpt lat="40.33833871041093" lon="15.011699469397382"><ele>25.0</ele><time>2026-05-03T10:22:14.002Z</time></trkpt><trkpt lat="40.33835954882766" lon="15.01161483520734"><ele>25.0</ele><time>2026-05-03T10:22:15.002Z</time></trkpt><trkpt lat="40.33837995291708" lon="15.011528080843545"><ele>25.0</ele><time>2026-05-03T10:22:16.002Z</time></trkpt><trkpt lat="40.33840132839628" lon="15.01144448171803"><ele>25.000000000000004</ele><time>2026-05-03T10:22:17.002Z</time></trkpt><trkpt lat="40.338429978194036" lon="15.011355355373734"><ele>25.0</ele><time>2026-05-03T10:22:18.002Z</time></trkpt><trkpt lat="40.338446856817306" lon="15.011266590286844"><ele>24.666666666666668</ele><time>2026-05-03T10:22:19.002Z</time></trkpt><trkpt lat="40.33846299695448" lon="15.011176832400606"><ele>24.333333333333336</ele><time>2026-05-03T10:22:20.002Z</time></trkpt><trkpt lat="40.33848175963465" lon="15.01108749891094"><ele>24.0</ele><time>2026-05-03T10:22:21.002Z</time></trkpt><trkpt lat="40.33850598420206" lon="15.011006060875868"><ele>23.666666666666668</ele><time>2026-05-03T10:22:22.002Z</time></trkpt><trkpt lat="40.33852519667609" lon="15.010922353192667"><ele>23.333333333333336</ele><time>2026-05-03T10:22:23.002Z</time></trkpt><trkpt lat="40.338580631270794" lon="15.010783285268014"><ele>23.0</ele><time>2026-05-03T10:22:25.002Z</time></trkpt><trkpt lat="40.33862561512903" lon="15.010656856541864"><ele>23.0</ele><time>2026-05-03T10:22:27.002Z</time></trkpt><trkpt lat="40.33866102861898" lon="15.010556042583085"><ele>23.0</ele><time>2026-05-03T10:22:29.002Z</time></trkpt><trkpt lat="40.33872276651931" lon="15.010452903640015"><ele>23.0</ele><time>2026-05-03T10:22:31.002Z</time></trkpt><trkpt lat="40.33880233290367" lon="15.010353620444231"><ele>23.0</ele><time>2026-05-03T10:22:33.002Z</time></trkpt><trkpt lat="40.33887577755025" lon="15.010236633494529"><ele>23.0</ele><time>2026-05-03T10:22:35.002Z</time></trkpt><trkpt lat="40.33894517646086" lon="15.010102438034213"><ele>22.5</ele><time>2026-05-03T10:22:37.002Z</time></trkpt><trkpt lat="40.33901292761481" lon="15.00996985620787"><ele>22.0</ele><time>2026-05-03T10:22:39.002Z</time></trkpt><trkpt lat="40.339079643569015" lon="15.009838882507964"><ele>21.5</ele><time>2026-05-03T10:22:41.002Z</time></trkpt><trkpt lat="40.339116960551756" lon="15.009772027604035"><ele>21.0</ele><time>2026-05-03T10:22:42.002Z</time></trkpt><trkpt lat="40.33915475592888" lon="15.009698929498287"><ele>20.5</ele><time>2026-05-03T10:22:43.002Z</time></trkpt><trkpt lat="40.339197934714306" lon="15.009632098712519"><ele>20.0</ele><time>2026-05-03T10:22:44.002Z</time></trkpt><trkpt lat="40.339234945521035" lon="15.009561621297655"><ele>20.0</ele><time>2026-05-03T10:22:45.002Z</time></trkpt><trkpt lat="40.33927343352475" lon="15.009485571565435"><ele>20.0</ele><time>2026-05-03T10:22:46.002Z</time></trkpt><trkpt lat="40.33930937511681" lon="15.009411412366294"><ele>20.0</ele><time>2026-05-03T10:22:47.002Z</time></trkpt><trkpt lat="40.33941033110038" lon="15.009306263783992"><ele>20.0</ele><time>2026-05-03T10:22:49.002Z</time></trkpt><trkpt lat="40.339470310933535" lon="15.009230650136868"><ele>20.0</ele><time>2026-05-03T10:22:50.002Z</time></trkpt><trkpt lat="40.33956493187012" lon="15.009105967576087"><ele>20.0</ele><time>2026-05-03T10:22:52.002Z</time></trkpt><trkpt lat="40.339621052033884" lon="15.009053003138384"><ele>20.0</ele><time>2026-05-03T10:22:53.001Z</time></trkpt><trkpt lat="40.339673491581955" lon="15.009000948353647"><ele>20.0</ele><time>2026-05-03T10:22:54.001Z</time></trkpt><trkpt lat="40.33973096558075" lon="15.008949825833618"><ele>20.0</ele><time>2026-05-03T10:22:55.001Z</time></trkpt><trkpt lat="40.33979030877072" lon="15.008903435693101"><ele>20.0</ele><time>2026-05-03T10:22:56.001Z</time></trkpt><trkpt lat="40.339848087085386" lon="15.008862067835251"><ele>20.0</ele><time>2026-05-03T10:22:57.001Z</time></trkpt><trkpt lat="40.3399091892462" lon="15.008817742218257"><ele>20.0</ele><time>2026-05-03T10:22:58.001Z</time></trkpt><trkpt lat="40.34002393972107" lon="15.008734766306409"><ele>20.142857142857142</ele><time>2026-05-03T10:23:00.001Z</time></trkpt><trkpt lat="40.34008547713656" lon="15.008691073882842"><ele>20.285714285714285</ele><time>2026-05-03T10:23:01.001Z</time></trkpt><trkpt lat="40.34014098018366" lon="15.008650173164636"><ele>20.42857142857143</ele><time>2026-05-03T10:23:02.001Z</time></trkpt><trkpt lat="40.34020826645813" lon="15.008596771591606"><ele>20.57142857142857</ele><time>2026-05-03T10:23:03.001Z</time></trkpt><trkpt lat="40.34027065301642" lon="15.008551318722933"><ele>20.714285714285715</ele><time>2026-05-03T10:23:04.001Z</time></trkpt><trkpt lat="40.340332266392195" lon="15.008503325262037"><ele>20.857142857142858</ele><time>2026-05-03T10:23:05.001Z</time></trkpt><trkpt lat="40.34039547782475" lon="15.00845112859692"><ele>21.0</ele><time>2026-05-03T10:23:06.001Z</time></trkpt><trkpt lat="40.340458175415186" lon="15.008403951497163"><ele>21.0</ele><time>2026-05-03T10:23:07.001Z</time></trkpt><trkpt lat="40.34051802134329" lon="15.008361077158582"><ele>21.0</ele><time>2026-05-03T10:23:08.001Z</time></trkpt><trkpt lat="40.340577837903524" lon="15.008308039583532"><ele>21.0</ele><time>2026-05-03T10:23:09.001Z</time></trkpt><trkpt lat="40.34063931677153" lon="15.008266865518683"><ele>21.0</ele><time>2026-05-03T10:23:10.001Z</time></trkpt><trkpt lat="40.34069939361758" lon="15.008221646492734"><ele>21.0</ele><time>2026-05-03T10:23:11.001Z</time></trkpt><trkpt lat="40.34079022659159" lon="15.008126642104191"><ele>21.0</ele><time>2026-05-03T10:23:13.001Z</time></trkpt><trkpt lat="40.34085626672823" lon="15.008058922303166"><ele>20.428571428571427</ele><time>2026-05-03T10:23:14.001Z</time></trkpt><trkpt lat="40.340921475289335" lon="15.00800341130873"><ele>19.857142857142858</ele><time>2026-05-03T10:23:15.001Z</time></trkpt><trkpt lat="40.34098509407603" lon="15.00795213610205"><ele>19.285714285714285</ele><time>2026-05-03T10:23:16.001Z</time></trkpt><trkpt lat="40.34103816090752" lon="15.00788769511163"><ele>18.714285714285715</ele><time>2026-05-03T10:23:17.001Z</time></trkpt><trkpt lat="40.34109019665413" lon="15.00781857531622"><ele>18.142857142857142</ele><time>2026-05-03T10:23:18.001Z</time></trkpt><trkpt lat="40.34114774385793" lon="15.007756850992982"><ele>17.57142857142857</ele><time>2026-05-03T10:23:19.001Z</time></trkpt><trkpt lat="40.34120211539339" lon="15.007700448641362"><ele>17.0</ele><time>2026-05-03T10:23:20.001Z</time></trkpt><trkpt lat="40.34125696396908" lon="15.007637867214756"><ele>16.999999999999996</ele><time>2026-05-03T10:23:21.001Z</time></trkpt><trkpt lat="40.34131177438735" lon="15.007578703739336"><ele>17.0</ele><time>2026-05-03T10:23:22.001Z</time></trkpt><trkpt lat="40.341369678576136" lon="15.007520060731458"><ele>17.0</ele><time>2026-05-03T10:23:23.001Z</time></trkpt><trkpt lat="40.341422573463625" lon="15.007456629294616"><ele>17.0</ele><time>2026-05-03T10:23:24.001Z</time></trkpt><trkpt lat="40.34147629220438" lon="15.007397169469744"><ele>17.0</ele><time>2026-05-03T10:23:25.001Z</time></trkpt><trkpt lat="40.34153575823154" lon="15.007348644734213"><ele>16.999999999999996</ele><time>2026-05-03T10:23:26.001Z</time></trkpt><trkpt lat="40.34158871145873" lon="15.00728245170838"><ele>17.0</ele><time>2026-05-03T10:23:27.001Z</time></trkpt><trkpt lat="40.34164403121264" lon="15.007223296126927"><ele>17.142857142857142</ele><time>2026-05-03T10:23:28.001Z</time></trkpt><trkpt lat="40.341697384481066" lon="15.007168306131017"><ele>17.285714285714285</ele><time>2026-05-03T10:23:29.001Z</time></trkpt><trkpt lat="40.34174656774771" lon="15.007079745989788"><ele>17.42857142857143</ele><time>2026-05-03T10:23:30.001Z</time></trkpt><trkpt lat="40.34180366159697" lon="15.00702837259499"><ele>17.57142857142857</ele><time>2026-05-03T10:23:31.001Z</time></trkpt><trkpt lat="40.34185424739868" lon="15.006965404349897"><ele>17.714285714285715</ele><time>2026-05-03T10:23:32.001Z</time></trkpt><trkpt lat="40.34190883526693" lon="15.006901161307788"><ele>17.857142857142858</ele><time>2026-05-03T10:23:33.001Z</time></trkpt><trkpt lat="40.34195871837471" lon="15.00683110494228"><ele>18.0</ele><time>2026-05-03T10:23:34.001Z</time></trkpt><trkpt lat="40.342007326772716" lon="15.006758209208163"><ele>18.000000000000004</ele><time>2026-05-03T10:23:35.001Z</time></trkpt><trkpt lat="40.342055659210274" lon="15.006686882506436"><ele>18.0</ele><time>2026-05-03T10:23:36.001Z</time></trkpt><trkpt lat="40.34210114431376" lon="15.006613043980586"><ele>18.0</ele><time>2026-05-03T10:23:37.001Z</time></trkpt><trkpt lat="40.34215307396218" lon="15.006535299819722"><ele>18.0</ele><time>2026-05-03T10:23:38.001Z</time></trkpt><trkpt lat="40.34219671048776" lon="15.006468328080143"><ele>18.0</ele><time>2026-05-03T10:23:39.001Z</time></trkpt><trkpt lat="40.342237306819925" lon="15.006393586619602"><ele>18.000000000000004</ele><time>2026-05-03T10:23:40.001Z</time></trkpt><trkpt lat="40.34227912735528" lon="15.006325401661156"><ele>18.0</ele><time>2026-05-03T10:23:41.001Z</time></trkpt><trkpt lat="40.342320043524346" lon="15.006260994535651"><ele>18.142857142857146</ele><time>2026-05-03T10:23:42.001Z</time></trkpt><trkpt lat="40.342395996882246" lon="15.006135011799042"><ele>18.285714285714285</ele><time>2026-05-03T10:23:44.001Z</time></trkpt><trkpt lat="40.34243472951568" lon="15.006067488221495"><ele>18.42857142857143</ele><time>2026-05-03T10:23:45.001Z</time></trkpt><trkpt lat="40.34246998603981" lon="15.005997005353894"><ele>18.571428571428573</ele><time>2026-05-03T10:23:46.001Z</time></trkpt><trkpt lat="40.34250747518978" lon="15.00592722939223"><ele>18.714285714285715</ele><time>2026-05-03T10:23:47.001Z</time></trkpt><trkpt lat="40.342546760719074" lon="15.005858594524526"><ele>18.857142857142858</ele><time>2026-05-03T10:23:48.001Z</time></trkpt><trkpt lat="40.34258720122569" lon="15.005789431323977"><ele>19.0</ele><time>2026-05-03T10:23:49.001Z</time></trkpt><trkpt lat="40.342623956059406" lon="15.00571323101193"><ele>18.428571428571427</ele><time>2026-05-03T10:23:50.001Z</time></trkpt><trkpt lat="40.34266524686084" lon="15.00563990566841"><ele>17.857142857142858</ele><time>2026-05-03T10:23:51.001Z</time></trkpt><trkpt lat="40.342705016287425" lon="15.005567403680557"><ele>17.285714285714285</ele><time>2026-05-03T10:23:52.001Z</time></trkpt><trkpt lat="40.34274392774547" lon="15.005491511221338"><ele>16.714285714285715</ele><time>2026-05-03T10:23:53.001Z</time></trkpt><trkpt lat="40.34278255342147" lon="15.00541391669334"><ele>16.142857142857142</ele><time>2026-05-03T10:23:54.001Z</time></trkpt><trkpt lat="40.34282095030775" lon="15.005333686324374"><ele>15.571428571428573</ele><time>2026-05-03T10:23:55.001Z</time></trkpt><trkpt lat="40.342857960187935" lon="15.005255959027318"><ele>15.0</ele><time>2026-05-03T10:23:56.001Z</time></trkpt><trkpt lat="40.34289733121836" lon="15.005181309819589"><ele>15.0</ele><time>2026-05-03T10:23:57.001Z</time></trkpt><trkpt lat="40.34293806019698" lon="15.005106357109586"><ele>15.0</ele><time>2026-05-03T10:23:58.001Z</time></trkpt><trkpt lat="40.34297843477898" lon="15.005030280886023"><ele>15.0</ele><time>2026-05-03T10:23:59.001Z</time></trkpt><trkpt lat="40.343015193959644" lon="15.00495229375881"><ele>15.0</ele><time>2026-05-03T10:24:00.001Z</time></trkpt><trkpt lat="40.34306047808236" lon="15.004874394748096"><ele>15.0</ele><time>2026-05-03T10:24:01.001Z</time></trkpt><trkpt lat="40.343098662295205" lon="15.00480298324115"><ele>15.0</ele><time>2026-05-03T10:24:02.001Z</time></trkpt><trkpt lat="40.343139941433066" lon="15.00472738584963"><ele>15.0</ele><time>2026-05-03T10:24:03.001Z</time></trkpt><trkpt lat="40.34318004848011" lon="15.004653626010434"><ele>15.0</ele><time>2026-05-03T10:24:04.001Z</time></trkpt><trkpt lat="40.343215658720055" lon="15.004576962276534"><ele>15.0</ele><time>2026-05-03T10:24:05.001Z</time></trkpt><trkpt lat="40.34325367702725" lon="15.004500976948677"><ele>15.0</ele><time>2026-05-03T10:24:06.002Z</time></trkpt><trkpt lat="40.34329653262597" lon="15.0044285665448"><ele>15.0</ele><time>2026-05-03T10:24:07.002Z</time></trkpt><trkpt lat="40.343338419013705" lon="15.004356156490672"><ele>15.0</ele><time>2026-05-03T10:24:08.002Z</time></trkpt><trkpt lat="40.343378543093436" lon="15.004279219227111"><ele>15.0</ele><time>2026-05-03T10:24:09.002Z</time></trkpt><trkpt lat="40.34342353969513" lon="15.004201282858462"><ele>15.0</ele><time>2026-05-03T10:24:10.002Z</time></trkpt><trkpt lat="40.34347080428016" lon="15.004124123737421"><ele>15.0</ele><time>2026-05-03T10:24:11.002Z</time></trkpt><trkpt lat="40.34351973591178" lon="15.004053334568123"><ele>15.0</ele><time>2026-05-03T10:24:12.002Z</time></trkpt><trkpt lat="40.343568173047935" lon="15.003977496567245"><ele>15.0</ele><time>2026-05-03T10:24:13.002Z</time></trkpt><trkpt lat="40.34361539096612" lon="15.003901415697655"><ele>15.0</ele><time>2026-05-03T10:24:14.002Z</time></trkpt><trkpt lat="40.34366365290047" lon="15.003827507282548"><ele>15.0</ele><time>2026-05-03T10:24:15.002Z</time></trkpt><trkpt lat="40.343712771588294" lon="15.003760783957627"><ele>15.0</ele><time>2026-05-03T10:24:16.002Z</time></trkpt><trkpt lat="40.3437606249277" lon="15.003687289236979"><ele>15.0</ele><time>2026-05-03T10:24:17.002Z</time></trkpt><trkpt lat="40.34381125357871" lon="15.003618398962391"><ele>15.0</ele><time>2026-05-03T10:24:18.002Z</time></trkpt><trkpt lat="40.34386526535365" lon="15.003547288297494"><ele>15.0</ele><time>2026-05-03T10:24:19.002Z</time></trkpt><trkpt lat="40.343915740211415" lon="15.003474526655475"><ele>15.0</ele><time>2026-05-03T10:24:20.002Z</time></trkpt><trkpt lat="40.34397060475148" lon="15.003404008890218"><ele>15.0</ele><time>2026-05-03T10:24:21.002Z</time></trkpt><trkpt lat="40.34402636323792" lon="15.003335504846138"><ele>15.0</ele><time>2026-05-03T10:24:22.002Z</time></trkpt><trkpt lat="40.344079739519806" lon="15.003268814593866"><ele>15.0</ele><time>2026-05-03T10:24:23.002Z</time></trkpt><trkpt lat="40.34413215673585" lon="15.003202137312211"><ele>14.571428571428571</ele><time>2026-05-03T10:24:24.002Z</time></trkpt><trkpt lat="40.34418913627334" lon="15.003140632578877"><ele>14.142857142857142</ele><time>2026-05-03T10:24:25.002Z</time></trkpt><trkpt lat="40.34424422887563" lon="15.003081896028252"><ele>13.714285714285714</ele><time>2026-05-03T10:24:26.002Z</time></trkpt><trkpt lat="40.34429730181491" lon="15.003024842752913"><ele>13.285714285714285</ele><time>2026-05-03T10:24:27.002Z</time></trkpt><trkpt lat="40.34434767609798" lon="15.002965021786668"><ele>12.857142857142858</ele><time>2026-05-03T10:24:28.002Z</time></trkpt><trkpt lat="40.34439749439344" lon="15.00290672183514"><ele>12.428571428571427</ele><time>2026-05-03T10:24:29.002Z</time></trkpt><trkpt lat="40.34444601188962" lon="15.002854034630833"><ele>12.0</ele><time>2026-05-03T10:24:30.002Z</time></trkpt><trkpt lat="40.34449391238909" lon="15.002800031874324"><ele>12.0</ele><time>2026-05-03T10:24:31.002Z</time></trkpt><trkpt lat="40.34459504863303" lon="15.002699541403762"><ele>12.0</ele><time>2026-05-03T10:24:33.002Z</time></trkpt><trkpt lat="40.34464561815798" lon="15.002642473471028"><ele>12.0</ele><time>2026-05-03T10:24:34.002Z</time></trkpt><trkpt lat="40.34469940444457" lon="15.00259053333651"><ele>12.0</ele><time>2026-05-03T10:24:35.002Z</time></trkpt><trkpt lat="40.34475526407501" lon="15.002543503178748"><ele>12.0</ele><time>2026-05-03T10:24:36.002Z</time></trkpt><trkpt lat="40.34481216060834" lon="15.002492236983905"><ele>12.0</ele><time>2026-05-03T10:24:37.002Z</time></trkpt><trkpt lat="40.344869086119424" lon="15.00244401882097"><ele>11.833333333333334</ele><time>2026-05-03T10:24:38.002Z</time></trkpt><trkpt lat="40.34492673046567" lon="15.00239902390504"><ele>11.666666666666666</ele><time>2026-05-03T10:24:39.002Z</time></trkpt><trkpt lat="40.34498338514434" lon="15.002357616704247"><ele>11.5</ele><time>2026-05-03T10:24:40.002Z</time></trkpt><trkpt lat="40.34503993558823" lon="15.00231559635976"><ele>11.333333333333332</ele><time>2026-05-03T10:24:41.002Z</time></trkpt><trkpt lat="40.34509761434601" lon="15.002279319791828"><ele>11.166666666666666</ele><time>2026-05-03T10:24:42.002Z</time></trkpt><trkpt lat="40.34520780560401" lon="15.002200653701346"><ele>11.0</ele><time>2026-05-03T10:24:44.002Z</time></trkpt><trkpt lat="40.34526428821267" lon="15.002161232843838"><ele>11.0</ele><time>2026-05-03T10:24:45.002Z</time></trkpt><trkpt lat="40.34532285848723" lon="15.002121849091255"><ele>11.0</ele><time>2026-05-03T10:24:46.002Z</time></trkpt><trkpt lat="40.34537963487836" lon="15.002079580137844"><ele>11.0</ele><time>2026-05-03T10:24:47.002Z</time></trkpt><trkpt lat="40.34543554372985" lon="15.002036170508827"><ele>11.0</ele><time>2026-05-03T10:24:48.002Z</time></trkpt><trkpt lat="40.34549571588945" lon="15.001997269862365"><ele>11.0</ele><time>2026-05-03T10:24:49.002Z</time></trkpt><trkpt lat="40.34555671084182" lon="15.001959915426749"><ele>11.0</ele><time>2026-05-03T10:24:50.002Z</time></trkpt><trkpt lat="40.34561364794859" lon="15.001919585348448"><ele>11.0</ele><time>2026-05-03T10:24:51.002Z</time></trkpt><trkpt lat="40.3456719607422" lon="15.001853648296771"><ele>11.0</ele><time>2026-05-03T10:24:52.002Z</time></trkpt><trkpt lat="40.345775894519186" lon="15.001759240924155"><ele>11.0</ele><time>2026-05-03T10:24:54.002Z</time></trkpt><trkpt lat="40.34583353429394" lon="15.001717606467858"><ele>11.0</ele><time>2026-05-03T10:24:55.002Z</time></trkpt><trkpt lat="40.345958579630235" lon="15.001663186601178"><ele>11.0</ele><time>2026-05-03T10:24:57.002Z</time></trkpt><trkpt lat="40.34602807823291" lon="15.001623905678484"><ele>11.0</ele><time>2026-05-03T10:24:58.002Z</time></trkpt><trkpt lat="40.34609391705621" lon="15.001592356453548"><ele>11.0</ele><time>2026-05-03T10:24:59Z</time></trkpt><trkpt lat="40.34615868545985" lon="15.001561434180777"><ele>11.0</ele><time>2026-05-03T10:25:00Z</time></trkpt><trkpt lat="40.34622220784612" lon="15.001518687742378"><ele>11.0</ele><time>2026-05-03T10:25:01Z</time></trkpt><trkpt lat="40.34629034400488" lon="15.001478421857616"><ele>11.0</ele><time>2026-05-03T10:25:02Z</time></trkpt><trkpt lat="40.34636126255525" lon="15.001445974212372"><ele>11.0</ele><time>2026-05-03T10:25:03Z</time></trkpt><trkpt lat="40.34642943118784" lon="15.001410735951053"><ele>11.0</ele><time>2026-05-03T10:25:04Z</time></trkpt><trkpt lat="40.34649875839578" lon="15.001380901120854"><ele>11.0</ele><time>2026-05-03T10:25:05Z</time></trkpt><trkpt lat="40.346567592946066" lon="15.001348624577915"><ele>10.857142857142858</ele><time>2026-05-03T10:25:06Z</time></trkpt><trkpt lat="40.34663315015522" lon="15.001322573947851"><ele>10.714285714285714</ele><time>2026-05-03T10:25:07Z</time></trkpt><trkpt lat="40.346704034612195" lon="15.001296440293586"><ele>10.571428571428571</ele><time>2026-05-03T10:25:08Z</time></trkpt><trkpt lat="40.346772843408296" lon="15.001261404750586"><ele>10.428571428571429</ele><time>2026-05-03T10:25:09Z</time></trkpt><trkpt lat="40.34684528772857" lon="15.001241554776781"><ele>10.285714285714286</ele><time>2026-05-03T10:25:10Z</time></trkpt><trkpt lat="40.34691320224603" lon="15.001215030318072"><ele>10.142857142857142</ele><time>2026-05-03T10:25:11Z</time></trkpt><trkpt lat="40.34698404680226" lon="15.001189747481817"><ele>10.0</ele><time>2026-05-03T10:25:12Z</time></trkpt><trkpt lat="40.3470549911221" lon="15.001166660189662"><ele>10.0</ele><time>2026-05-03T10:25:13Z</time></trkpt><trkpt lat="40.34712272856236" lon="15.001142659017352"><ele>10.0</ele><time>2026-05-03T10:25:14Z</time></trkpt><trkpt lat="40.347188247909216" lon="15.00112872940921"><ele>10.0</ele><time>2026-05-03T10:25:15Z</time></trkpt><trkpt lat="40.34725845675467" lon="15.001138439901963"><ele>10.0</ele><time>2026-05-03T10:25:16Z</time></trkpt><trkpt lat="40.34732454257627" lon="15.001125726759682"><ele>10.0</ele><time>2026-05-03T10:25:17Z</time></trkpt><trkpt lat="40.34739605166653" lon="15.001112281622746"><ele>10.0</ele><time>2026-05-03T10:25:18Z</time></trkpt><trkpt lat="40.34746127783599" lon="15.001102808164319"><ele>10.0</ele><time>2026-05-03T10:25:19Z</time></trkpt><trkpt lat="40.34752515817296" lon="15.001100912081"><ele>10.333333333333334</ele><time>2026-05-03T10:25:20Z</time></trkpt><trkpt lat="40.347589940460836" lon="15.001093207397494"><ele>10.666666666666668</ele><time>2026-05-03T10:25:21Z</time></trkpt><trkpt lat="40.34766151761415" lon="15.001091624510021"><ele>11.0</ele><time>2026-05-03T10:25:22Z</time></trkpt><trkpt lat="40.34778791057252" lon="15.001088168185207"><ele>11.333333333333334</ele><time>2026-05-03T10:25:24Z</time></trkpt><trkpt lat="40.3478556954247" lon="15.001084967094219"><ele>11.666666666666666</ele><time>2026-05-03T10:25:25Z</time></trkpt><trkpt lat="40.3479227132458" lon="15.001092631377725"><ele>12.0</ele><time>2026-05-03T10:25:26Z</time></trkpt><trkpt lat="40.347988747189085" lon="15.001107115577842"><ele>12.0</ele><time>2026-05-03T10:25:27Z</time></trkpt><trkpt lat="40.348058022059355" lon="15.001110359598282"><ele>12.0</ele><time>2026-05-03T10:25:28Z</time></trkpt><trkpt lat="40.348122717470865" lon="15.001117604250872"><ele>12.0</ele><time>2026-05-03T10:25:29Z</time></trkpt><trkpt lat="40.348192075713904" lon="15.00112587671731"><ele>12.0</ele><time>2026-05-03T10:25:30Z</time></trkpt><trkpt lat="40.34825633388571" lon="15.001130192432376"><ele>12.0</ele><time>2026-05-03T10:25:31Z</time></trkpt><trkpt lat="40.34838117925047" lon="15.001151556767434"><ele>12.0</ele><time>2026-05-03T10:25:33Z</time></trkpt><trkpt lat="40.34850295244242" lon="15.001152261537653"><ele>12.0</ele><time>2026-05-03T10:25:35Z</time></trkpt><trkpt lat="40.34861937900004" lon="15.001154139502745"><ele>12.0</ele><time>2026-05-03T10:25:37.001Z</time></trkpt><trkpt lat="40.34872945223044" lon="15.001145987679239"><ele>12.0</ele><time>2026-05-03T10:25:39.001Z</time></trkpt><trkpt lat="40.348818180013396" lon="15.00106201850731"><ele>12.0</ele><time>2026-05-03T10:25:41.001Z</time></trkpt><trkpt lat="40.34886741940182" lon="15.000909492771939"><ele>11.166666666666666</ele><time>2026-05-03T10:25:43.001Z</time></trkpt><trkpt lat="40.348892202823215" lon="15.000818915819178"><ele>10.333333333333334</ele><time>2026-05-03T10:25:44.001Z</time></trkpt><trkpt lat="40.348919288087416" lon="15.000732772788588"><ele>9.5</ele><time>2026-05-03T10:25:45.001Z</time></trkpt><trkpt lat="40.34895353588359" lon="15.000623547716716"><ele>8.666666666666668</ele><time>2026-05-03T10:25:46.001Z</time></trkpt><trkpt lat="40.3489636423517" lon="15.000513690815902"><ele>7.833333333333334</ele><time>2026-05-03T10:25:47.001Z</time></trkpt><trkpt lat="40.348965977797235" lon="15.000416653846793"><ele>7.0</ele><time>2026-05-03T10:25:48.001Z</time></trkpt><trkpt lat="40.34901508250998" lon="15.000341334585785"><ele>7.0</ele><time>2026-05-03T10:25:49.001Z</time></trkpt><trkpt lat="40.34907562049658" lon="15.000273606538151"><ele>7.0</ele><time>2026-05-03T10:25:50.001Z</time></trkpt><trkpt lat="40.34914132290431" lon="15.00022711300813"><ele>7.0</ele><time>2026-05-03T10:25:51.001Z</time></trkpt><trkpt lat="40.349207162172625" lon="15.000182927316384"><ele>7.0</ele><time>2026-05-03T10:25:52.001Z</time></trkpt><trkpt lat="40.349272994139795" lon="15.000139554642924"><ele>7.0</ele><time>2026-05-03T10:25:53.001Z</time></trkpt><trkpt lat="40.349337735090586" lon="15.000096691276456"><ele>7.0</ele><time>2026-05-03T10:25:54.001Z</time></trkpt><trkpt lat="40.34939604962503" lon="15.000047032023984"><ele>7.0</ele><time>2026-05-03T10:25:55.001Z</time></trkpt><trkpt lat="40.34945887422847" lon="14.999996699566609"><ele>7.0</ele><time>2026-05-03T10:25:56.001Z</time></trkpt><trkpt lat="40.34952410121362" lon="14.999942742391845"><ele>7.0</ele><time>2026-05-03T10:25:57.001Z</time></trkpt><trkpt lat="40.3495857593856" lon="14.999899603722296"><ele>7.0</ele><time>2026-05-03T10:25:58.001Z</time></trkpt><trkpt lat="40.34964326400245" lon="14.999841334228579"><ele>7.0</ele><time>2026-05-03T10:25:59.001Z</time></trkpt><trkpt lat="40.34969720393288" lon="14.99978149216102"><ele>7.0</ele><time>2026-05-03T10:26:00.001Z</time></trkpt><trkpt lat="40.349752461369974" lon="14.999725452604437"><ele>7.0</ele><time>2026-05-03T10:26:01.001Z</time></trkpt><trkpt lat="40.3498124317257" lon="14.999679247192743"><ele>7.0</ele><time>2026-05-03T10:26:02.001Z</time></trkpt><trkpt lat="40.349867034346836" lon="14.999613376111368"><ele>7.000000000000001</ele><time>2026-05-03T10:26:03.001Z</time></trkpt><trkpt lat="40.3499174189725" lon="14.999559049312998"><ele>7.0</ele><time>2026-05-03T10:26:04.001Z</time></trkpt><trkpt lat="40.34996430473649" lon="14.999486108361364"><ele>7.0</ele><time>2026-05-03T10:26:05.001Z</time></trkpt><trkpt lat="40.350015690120905" lon="14.999427149480361"><ele>7.0</ele><time>2026-05-03T10:26:06.001Z</time></trkpt><trkpt lat="40.35010657088561" lon="14.999333564156117"><ele>7.000000000000001</ele><time>2026-05-03T10:26:08.001Z</time></trkpt><trkpt lat="40.35020551042509" lon="14.999257549029185"><ele>7.0</ele><time>2026-05-03T10:26:10.001Z</time></trkpt><trkpt lat="40.35028970726371" lon="14.999163715236703"><ele>7.000000000000001</ele><time>2026-05-03T10:26:12.001Z</time></trkpt><trkpt lat="40.35025566701203" lon="14.999079957592446"><ele>7.0</ele><time>2026-05-03T10:26:14.001Z</time></trkpt><trkpt lat="40.350193720989715" lon="14.998998305731716"><ele>7.0</ele><time>2026-05-03T10:26:16.001Z</time></trkpt><trkpt lat="40.35014597281582" lon="14.998942052807141"><ele>7.0</ele><time>2026-05-03T10:26:18.001Z</time></trkpt><trkpt lat="40.350081639432524" lon="14.9988610161848"><ele>7.000000000000001</ele><time>2026-05-03T10:26:21.001Z</time></trkpt><trkpt lat="40.35000146216623" lon="14.998857989710041"><ele>7.0</ele><time>2026-05-03T10:26:24.001Z</time></trkpt><trkpt lat="40.35009134029535" lon="14.99895606981273"><ele>7.000000000000001</ele><time>2026-05-03T10:26:28.001Z</time></trkpt><trkpt lat="40.35015805286625" lon="14.998899672697661"><ele>7.0</ele><time>2026-05-03T10:26:31.002Z</time></trkpt><trkpt lat="40.35021365162413" lon="14.998999377417462"><ele>7.0</ele><time>2026-05-03T10:26:34.002Z</time></trkpt><trkpt lat="40.35023110211764" lon="14.999113250491725"><ele>7.0</ele><time>2026-05-03T10:26:36.002Z</time></trkpt><trkpt lat="40.35028620858877" lon="14.99917497046326"><ele>7.000000000000001</ele><time>2026-05-03T10:26:38.002Z</time></trkpt><trkpt lat="40.35035180130568" lon="14.999168563620184"><ele>7.0</ele><time>2026-05-03T10:26:41.002Z</time></trkpt><trkpt lat="40.3504109891916" lon="14.999113211435642"><ele>7.000000000000001</ele><time>2026-05-03T10:26:43.002Z</time></trkpt><trkpt lat="40.35048863885569" lon="14.99904984427585"><ele>7.0</ele><time>2026-05-03T10:26:46.002Z</time></trkpt><trkpt lat="40.35054027552034" lon="14.998983923776418"><ele>7.0</ele><time>2026-05-03T10:26:48.002Z</time></trkpt><trkpt lat="40.350593607673176" lon="14.998923905021956"><ele>7.0</ele><time>2026-05-03T10:26:50.002Z</time></trkpt><trkpt lat="40.35066240567406" lon="14.998870569890885"><ele>7.000000000000001</ele><time>2026-05-03T10:26:52.002Z</time></trkpt><trkpt lat="40.35073088880811" lon="14.998808783279552"><ele>7.0</ele><time>2026-05-03T10:26:54.002Z</time></trkpt><trkpt lat="40.35078630814603" lon="14.998765063964075"><ele>7.000000000000001</ele><time>2026-05-03T10:26:56.002Z</time></trkpt><trkpt lat="40.35087365725916" lon="14.998809256902303"><ele>7.0</ele><time>2026-05-03T10:26:59.002Z</time></trkpt><trkpt lat="40.350955399020876" lon="14.998868221776707"><ele>7.0</ele><time>2026-05-03T10:27:01.002Z</time></trkpt><trkpt lat="40.351020927741914" lon="14.998892802307877"><ele>7.0</ele><time>2026-05-03T10:27:03.002Z</time></trkpt><trkpt lat="40.3511068025465" lon="14.998905178129174"><ele>7.000000000000001</ele><time>2026-05-03T10:27:06Z</time></trkpt><trkpt lat="40.35113461092681" lon="14.99883105595827"><ele>7.0</ele><time>2026-05-03T10:27:08Z</time></trkpt><trkpt lat="40.35115275774034" lon="14.998720772609257"><ele>7.0</ele><time>2026-05-03T10:27:10Z</time></trkpt><trkpt lat="40.35116104607297" lon="14.998591068649278"><ele>6.999999999999999</ele><time>2026-05-03T10:27:12Z</time></trkpt><trkpt lat="40.35117500598413" lon="14.998462720560672"><ele>6.999999999999999</ele><time>2026-05-03T10:27:14Z</time></trkpt><trkpt lat="40.3511893500942" lon="14.998352246791692"><ele>7.0</ele><time>2026-05-03T10:27:16Z</time></trkpt><trkpt lat="40.35120321960374" lon="14.998224228736778"><ele>7.0</ele><time>2026-05-03T10:27:18Z</time></trkpt><trkpt lat="40.35122274370396" lon="14.998109602725709"><ele>6.833333333333334</ele><time>2026-05-03T10:27:20Z</time></trkpt><trkpt lat="40.351234358509636" lon="14.998021127126504"><ele>6.666666666666667</ele><time>2026-05-03T10:27:23Z</time></trkpt><trkpt lat="40.35124045546731" lon="14.997928066934314"><ele>6.5</ele><time>2026-05-03T10:27:25Z</time></trkpt><trkpt lat="40.35125371700143" lon="14.99783828889137"><ele>6.333333333333334</ele><time>2026-05-03T10:27:27Z</time></trkpt><trkpt lat="40.35127161966049" lon="14.99774945673522"><ele>6.166666666666667</ele><time>2026-05-03T10:27:29Z</time></trkpt><trkpt lat="40.351289727250744" lon="14.997626795331731"><ele>6.0</ele><time>2026-05-03T10:27:31Z</time></trkpt><trkpt lat="40.35130504042414" lon="14.997512694829732"><ele>6.166666666666667</ele><time>2026-05-03T10:27:33Z</time></trkpt><trkpt lat="40.35132383926119" lon="14.99741006370415"><ele>6.333333333333334</ele><time>2026-05-03T10:27:35Z</time></trkpt><trkpt lat="40.35133658589638" lon="14.997274668666991"><ele>6.5</ele><time>2026-05-03T10:27:37Z</time></trkpt><trkpt lat="40.35136637406892" lon="14.997137871203371"><ele>6.666666666666667</ele><time>2026-05-03T10:27:39Z</time></trkpt><trkpt lat="40.3513803797106" lon="14.997055423638864"><ele>6.833333333333334</ele><time>2026-05-03T10:27:40Z</time></trkpt><trkpt lat="40.35139043943347" lon="14.996969869555459"><ele>7.0</ele><time>2026-05-03T10:27:41Z</time></trkpt><trkpt lat="40.35140073184731" lon="14.996888049284456"><ele>7.000000000000001</ele><time>2026-05-03T10:27:42Z</time></trkpt><trkpt lat="40.35141038074309" lon="14.99680602521808"><ele>7.0</ele><time>2026-05-03T10:27:43.001Z</time></trkpt><trkpt lat="40.351493662006675" lon="14.996706265033872"><ele>7.0</ele><time>2026-05-03T10:27:45.001Z</time></trkpt><trkpt lat="40.35156224500493" lon="14.996743316907182"><ele>7.0</ele><time>2026-05-03T10:27:46.001Z</time></trkpt><trkpt lat="40.35163422765111" lon="14.99676958218682"><ele>7.000000000000001</ele><time>2026-05-03T10:27:47.001Z</time></trkpt><trkpt lat="40.35170155382429" lon="14.996789753677207"><ele>7.0</ele><time>2026-05-03T10:27:48.001Z</time></trkpt><trkpt lat="40.3517686427144" lon="14.996814842429437"><ele>7.0</ele><time>2026-05-03T10:27:49.001Z</time></trkpt><trkpt lat="40.35183977071444" lon="14.996815612388566"><ele>7.0</ele><time>2026-05-03T10:27:50.001Z</time></trkpt><trkpt lat="40.35191201652166" lon="14.996809165950516"><ele>7.0</ele><time>2026-05-03T10:27:51.001Z</time></trkpt><trkpt lat="40.35197976890422" lon="14.996819697573283"><ele>7.0</ele><time>2026-05-03T10:27:52.001Z</time></trkpt><trkpt lat="40.352045392636356" lon="14.996829979603916"><ele>7.0</ele><time>2026-05-03T10:27:53.001Z</time></trkpt><trkpt lat="40.35210907989602" lon="14.996845154678525"><ele>7.0</ele><time>2026-05-03T10:27:54.001Z</time></trkpt><trkpt lat="40.35217365086381" lon="14.996855683966732"><ele>7.0</ele><time>2026-05-03T10:27:55.001Z</time></trkpt><trkpt lat="40.35229072294799" lon="14.99685571394903"><ele>6.6</ele><time>2026-05-03T10:27:57.001Z</time></trkpt><trkpt lat="40.35240059350269" lon="14.996862075817566"><ele>6.199999999999999</ele><time>2026-05-03T10:27:59.001Z</time></trkpt><trkpt lat="40.35251214076578" lon="14.99687501967138"><ele>5.8</ele><time>2026-05-03T10:28:01.001Z</time></trkpt><trkpt lat="40.352618052263104" lon="14.996895487325526"><ele>5.4</ele><time>2026-05-03T10:28:03.001Z</time></trkpt><trkpt lat="40.35271985097258" lon="14.996909726166756"><ele>5.0</ele><time>2026-05-03T10:28:05.001Z</time></trkpt><trkpt lat="40.35281803822867" lon="14.996923510185713"><ele>5.0</ele><time>2026-05-03T10:28:07.001Z</time></trkpt><trkpt lat="40.35291137885546" lon="14.996939966328057"><ele>5.0</ele><time>2026-05-03T10:28:09.001Z</time></trkpt><trkpt lat="40.35300184016261" lon="14.996956670015358"><ele>5.0</ele><time>2026-05-03T10:28:11.001Z</time></trkpt><trkpt lat="40.35310555864283" lon="14.996984510067609"><ele>5.0</ele><time>2026-05-03T10:28:13.001Z</time></trkpt><trkpt lat="40.353203593160195" lon="14.997002287564783"><ele>5.0</ele><time>2026-05-03T10:28:15.001Z</time></trkpt><trkpt lat="40.353297864596485" lon="14.997011842412048"><ele>5.4</ele><time>2026-05-03T10:28:17.001Z</time></trkpt><trkpt lat="40.353393022763825" lon="14.997022861810137"><ele>5.8</ele><time>2026-05-03T10:28:19.001Z</time></trkpt><trkpt lat="40.353473393507834" lon="14.997044159469555"><ele>6.199999999999999</ele><time>2026-05-03T10:28:21.001Z</time></trkpt><trkpt lat="40.353571540259765" lon="14.997074766878434"><ele>6.6</ele><time>2026-05-03T10:28:23.001Z</time></trkpt><trkpt lat="40.353652335343966" lon="14.997093707874129"><ele>7.0</ele><time>2026-05-03T10:28:25.001Z</time></trkpt><trkpt lat="40.3537531415334" lon="14.997103446913272"><ele>7.0</ele><time>2026-05-03T10:28:27.001Z</time></trkpt><trkpt lat="40.35384881236746" lon="14.997123550514926"><ele>6.999999999999999</ele><time>2026-05-03T10:28:29.001Z</time></trkpt><trkpt lat="40.35394856686096" lon="14.997126209187634"><ele>6.999999999999999</ele><time>2026-05-03T10:28:31.001Z</time></trkpt><trkpt lat="40.354049309555386" lon="14.997140052210879"><ele>7.0</ele><time>2026-05-03T10:28:33.001Z</time></trkpt><trkpt lat="40.35415748336605" lon="14.997162446163635"><ele>7.0</ele><time>2026-05-03T10:28:35.001Z</time></trkpt><trkpt lat="40.3542477318231" lon="14.997166389424573"><ele>6.500000000000001</ele><time>2026-05-03T10:28:37.001Z</time></trkpt><trkpt lat="40.35434401745817" lon="14.99717633945544"><ele>6.0</ele><time>2026-05-03T10:28:39.001Z</time></trkpt><trkpt lat="40.35443064247231" lon="14.99717187043379"><ele>5.5</ele><time>2026-05-03T10:28:41.002Z</time></trkpt><trkpt lat="40.354507009224896" lon="14.99711786176802"><ele>5.0</ele><time>2026-05-03T10:28:43.002Z</time></trkpt><trkpt lat="40.3545153500481" lon="14.997008114191807"><ele>4.5</ele><time>2026-05-03T10:28:45.002Z</time></trkpt><trkpt lat="40.35453363533703" lon="14.996899477739941"><ele>4.0</ele><time>2026-05-03T10:28:47.002Z</time></trkpt><trkpt lat="40.3545506737738" lon="14.996778413709789"><ele>3.9999999999999996</ele><time>2026-05-03T10:28:49.002Z</time></trkpt><trkpt lat="40.35456203842887" lon="14.996680133389134"><ele>4.0</ele><time>2026-05-03T10:28:51.002Z</time></trkpt><trkpt lat="40.35459884847689" lon="14.996600482816428"><ele>4.0</ele><time>2026-05-03T10:28:53.002Z</time></trkpt><trkpt lat="40.35470082611008" lon="14.996620768291292"><ele>4.0</ele><time>2026-05-03T10:28:55.002Z</time></trkpt><trkpt lat="40.35475798881198" lon="14.996535530178594"><ele>3.9999999999999996</ele><time>2026-05-03T10:28:58.002Z</time></trkpt><trkpt lat="40.35478512787154" lon="14.99641867301778"><ele>4.0</ele><time>2026-05-03T10:29:00.002Z</time></trkpt><trkpt lat="40.35486060918326" lon="14.99638496436596"><ele>4.166666666666666</ele><time>2026-05-03T10:29:02.002Z</time></trkpt><trkpt lat="40.35492716555531" lon="14.996356997592926"><ele>4.333333333333333</ele><time>2026-05-03T10:29:05.002Z</time></trkpt><trkpt lat="40.354961939285886" lon="14.996259606351542"><ele>4.5</ele><time>2026-05-03T10:29:07.002Z</time></trkpt><trkpt lat="40.35497539728341" lon="14.996166464574962"><ele>4.666666666666667</ele><time>2026-05-03T10:29:09.002Z</time></trkpt><trkpt lat="40.354957188109054" lon="14.99608190113204"><ele>4.833333333333334</ele><time>2026-05-03T10:29:11Z</time></trkpt><trkpt lat="40.35487704154969" lon="14.996057772693275"><ele>5.0</ele><time>2026-05-03T10:29:13Z</time></trkpt><trkpt lat="40.35479867678861" lon="14.996069416246435"><ele>5.0</ele><time>2026-05-03T10:29:15Z</time></trkpt><trkpt lat="40.35473206001663" lon="14.996083843846632"><ele>5.0</ele><time>2026-05-03T10:29:17Z</time></trkpt><trkpt lat="40.354668083092385" lon="14.996077470043383"><ele>5.0</ele><time>2026-05-03T10:29:20Z</time></trkpt></trkseg></trk></gpx>